<?xml version="1.0" encoding="UTF-8" standalone="no" ?>
<gpx xmlns="http://www.topografix.com/GPX/1/1" xmlns:xsi="http://www.w3.org/2001/XMLSchema-instance" xsi:schemaLocation="http://www.topografix.com/GPX/1/1 http://www.topografix.com/GPX/1/1/gpx.xsd" version="1.1" creator="VisuGPX - https://www.visugpx.com">
  <metadata>
    <name>2013-01-20-VTT_ST CHRISTOPHE (12)</name>
    <desc><![CDATA[2013-01-20-VTT_ST CHRISTOPHE (12)]]></desc>
  </metadata>
  <trk>
    <name><![CDATA[2013-01-20-VTT-ST CHRISTOPHE]]></name>
    <trkseg>
      <trkpt lat="44.46642" lon="2.41658">
        <ele>593.1</ele>
        <time>2013-01-20T08:19:45Z</time>
      </trkpt>
      <trkpt lat="44.46641" lon="2.41662">
        <ele>592.8</ele>
        <time>2013-01-20T08:19:46Z</time>
      </trkpt>
      <trkpt lat="44.46639" lon="2.41666">
        <ele>592.8</ele>
        <time>2013-01-20T08:19:47Z</time>
      </trkpt>
      <trkpt lat="44.46638" lon="2.4167">
        <ele>592.8</ele>
        <time>2013-01-20T08:19:48Z</time>
      </trkpt>
      <trkpt lat="44.46637" lon="2.41674">
        <ele>592.8</ele>
        <time>2013-01-20T08:19:49Z</time>
      </trkpt>
      <trkpt lat="44.46636" lon="2.41678">
        <ele>592.7</ele>
        <time>2013-01-20T08:19:50Z</time>
      </trkpt>
      <trkpt lat="44.46635" lon="2.41683">
        <ele>592.7</ele>
        <time>2013-01-20T08:19:51Z</time>
      </trkpt>
      <trkpt lat="44.46633" lon="2.41687">
        <ele>592.7</ele>
        <time>2013-01-20T08:19:52Z</time>
      </trkpt>
      <trkpt lat="44.46632" lon="2.41691">
        <ele>592.7</ele>
        <time>2013-01-20T08:19:53Z</time>
      </trkpt>
      <trkpt lat="44.46631" lon="2.41695">
        <ele>592.4</ele>
        <time>2013-01-20T08:19:54Z</time>
      </trkpt>
      <trkpt lat="44.4663" lon="2.41698">
        <ele>592.2</ele>
        <time>2013-01-20T08:19:55Z</time>
      </trkpt>
      <trkpt lat="44.46628" lon="2.41702">
        <ele>592</ele>
        <time>2013-01-20T08:19:56Z</time>
      </trkpt>
      <trkpt lat="44.46627" lon="2.41706">
        <ele>592.1</ele>
        <time>2013-01-20T08:19:57Z</time>
      </trkpt>
      <trkpt lat="44.46626" lon="2.4171">
        <ele>592.1</ele>
        <time>2013-01-20T08:19:58Z</time>
      </trkpt>
      <trkpt lat="44.46625" lon="2.41714">
        <ele>592.1</ele>
        <time>2013-01-20T08:19:59Z</time>
      </trkpt>
      <trkpt lat="44.46624" lon="2.41717">
        <ele>591.9</ele>
        <time>2013-01-20T08:20:00Z</time>
      </trkpt>
      <trkpt lat="44.46623" lon="2.4172">
        <ele>591.7</ele>
        <time>2013-01-20T08:20:01Z</time>
      </trkpt>
      <trkpt lat="44.46622" lon="2.41724">
        <ele>591.6</ele>
        <time>2013-01-20T08:20:02Z</time>
      </trkpt>
      <trkpt lat="44.4662" lon="2.41727">
        <ele>591.1</ele>
        <time>2013-01-20T08:20:03Z</time>
      </trkpt>
      <trkpt lat="44.46619" lon="2.41731">
        <ele>590.8</ele>
        <time>2013-01-20T08:20:04Z</time>
      </trkpt>
      <trkpt lat="44.46618" lon="2.41735">
        <ele>590.5</ele>
        <time>2013-01-20T08:20:05Z</time>
      </trkpt>
      <trkpt lat="44.46617" lon="2.41739">
        <ele>590.4</ele>
        <time>2013-01-20T08:20:06Z</time>
      </trkpt>
      <trkpt lat="44.46616" lon="2.41743">
        <ele>590.2</ele>
        <time>2013-01-20T08:20:07Z</time>
      </trkpt>
      <trkpt lat="44.46615" lon="2.41746">
        <ele>590.2</ele>
        <time>2013-01-20T08:20:08Z</time>
      </trkpt>
      <trkpt lat="44.46613" lon="2.4175">
        <ele>590.1</ele>
        <time>2013-01-20T08:20:09Z</time>
      </trkpt>
      <trkpt lat="44.46612" lon="2.41754">
        <ele>590.2</ele>
        <time>2013-01-20T08:20:10Z</time>
      </trkpt>
      <trkpt lat="44.46611" lon="2.41758">
        <ele>590.2</ele>
        <time>2013-01-20T08:20:11Z</time>
      </trkpt>
      <trkpt lat="44.4661" lon="2.41762">
        <ele>590.3</ele>
        <time>2013-01-20T08:20:12Z</time>
      </trkpt>
      <trkpt lat="44.46609" lon="2.41766">
        <ele>590.2</ele>
        <time>2013-01-20T08:20:13Z</time>
      </trkpt>
      <trkpt lat="44.46608" lon="2.4177">
        <ele>590.1</ele>
        <time>2013-01-20T08:20:14Z</time>
      </trkpt>
      <trkpt lat="44.46606" lon="2.41774">
        <ele>590.1</ele>
        <time>2013-01-20T08:20:15Z</time>
      </trkpt>
      <trkpt lat="44.46605" lon="2.41779">
        <ele>590.2</ele>
        <time>2013-01-20T08:20:16Z</time>
      </trkpt>
      <trkpt lat="44.46603" lon="2.41783">
        <ele>590.3</ele>
        <time>2013-01-20T08:20:17Z</time>
      </trkpt>
      <trkpt lat="44.46602" lon="2.41788">
        <ele>590.3</ele>
        <time>2013-01-20T08:20:18Z</time>
      </trkpt>
      <trkpt lat="44.466" lon="2.41792">
        <ele>590.4</ele>
        <time>2013-01-20T08:20:19Z</time>
      </trkpt>
      <trkpt lat="44.46599" lon="2.41797">
        <ele>590.4</ele>
        <time>2013-01-20T08:20:20Z</time>
      </trkpt>
      <trkpt lat="44.46597" lon="2.41802">
        <ele>590.4</ele>
        <time>2013-01-20T08:20:21Z</time>
      </trkpt>
      <trkpt lat="44.46596" lon="2.41806">
        <ele>590.1</ele>
        <time>2013-01-20T08:20:22Z</time>
      </trkpt>
      <trkpt lat="44.46595" lon="2.4181">
        <ele>589.9</ele>
        <time>2013-01-20T08:20:23Z</time>
      </trkpt>
      <trkpt lat="44.46593" lon="2.41814">
        <ele>589.7</ele>
        <time>2013-01-20T08:20:24Z</time>
      </trkpt>
      <trkpt lat="44.46592" lon="2.41819">
        <ele>589.6</ele>
        <time>2013-01-20T08:20:25Z</time>
      </trkpt>
      <trkpt lat="44.4659" lon="2.41823">
        <ele>589.8</ele>
        <time>2013-01-20T08:20:26Z</time>
      </trkpt>
      <trkpt lat="44.46589" lon="2.41827">
        <ele>590</ele>
        <time>2013-01-20T08:20:27Z</time>
      </trkpt>
      <trkpt lat="44.46587" lon="2.41832">
        <ele>590.1</ele>
        <time>2013-01-20T08:20:28Z</time>
      </trkpt>
      <trkpt lat="44.46586" lon="2.41836">
        <ele>589.7</ele>
        <time>2013-01-20T08:20:29Z</time>
      </trkpt>
      <trkpt lat="44.46585" lon="2.4184">
        <ele>589.4</ele>
        <time>2013-01-20T08:20:30Z</time>
      </trkpt>
      <trkpt lat="44.46584" lon="2.41843">
        <ele>589.1</ele>
        <time>2013-01-20T08:20:31Z</time>
      </trkpt>
      <trkpt lat="44.46582" lon="2.41847">
        <ele>589</ele>
        <time>2013-01-20T08:20:32Z</time>
      </trkpt>
      <trkpt lat="44.46581" lon="2.41851">
        <ele>589</ele>
        <time>2013-01-20T08:20:33Z</time>
      </trkpt>
      <trkpt lat="44.4658" lon="2.41855">
        <ele>588.9</ele>
        <time>2013-01-20T08:20:34Z</time>
      </trkpt>
      <trkpt lat="44.46578" lon="2.41859">
        <ele>589</ele>
        <time>2013-01-20T08:20:35Z</time>
      </trkpt>
      <trkpt lat="44.46577" lon="2.41862">
        <ele>589</ele>
        <time>2013-01-20T08:20:36Z</time>
      </trkpt>
      <trkpt lat="44.46576" lon="2.41866">
        <ele>589</ele>
        <time>2013-01-20T08:20:37Z</time>
      </trkpt>
      <trkpt lat="44.46575" lon="2.41869">
        <ele>588.9</ele>
        <time>2013-01-20T08:20:38Z</time>
      </trkpt>
      <trkpt lat="44.46573" lon="2.41874">
        <ele>588.8</ele>
        <time>2013-01-20T08:20:40Z</time>
      </trkpt>
      <trkpt lat="44.46572" lon="2.41877">
        <ele>588.9</ele>
        <time>2013-01-20T08:20:41Z</time>
      </trkpt>
      <trkpt lat="44.46571" lon="2.4188">
        <ele>589</ele>
        <time>2013-01-20T08:20:42Z</time>
      </trkpt>
      <trkpt lat="44.4657" lon="2.41883">
        <ele>589.1</ele>
        <time>2013-01-20T08:20:43Z</time>
      </trkpt>
      <trkpt lat="44.46569" lon="2.41887">
        <ele>589.2</ele>
        <time>2013-01-20T08:20:44Z</time>
      </trkpt>
      <trkpt lat="44.46568" lon="2.4189">
        <ele>589.3</ele>
        <time>2013-01-20T08:20:45Z</time>
      </trkpt>
      <trkpt lat="44.46567" lon="2.41895">
        <ele>589.5</ele>
        <time>2013-01-20T08:20:47Z</time>
      </trkpt>
      <trkpt lat="44.46565" lon="2.41901">
        <ele>588.8</ele>
        <time>2013-01-20T08:20:49Z</time>
      </trkpt>
      <trkpt lat="44.46563" lon="2.41906">
        <ele>588.3</ele>
        <time>2013-01-20T08:20:51Z</time>
      </trkpt>
      <trkpt lat="44.46562" lon="2.41909">
        <ele>588.1</ele>
        <time>2013-01-20T08:20:52Z</time>
      </trkpt>
      <trkpt lat="44.46561" lon="2.41912">
        <ele>588</ele>
        <time>2013-01-20T08:20:53Z</time>
      </trkpt>
      <trkpt lat="44.46559" lon="2.41917">
        <ele>587.9</ele>
        <time>2013-01-20T08:20:55Z</time>
      </trkpt>
      <trkpt lat="44.46557" lon="2.41922">
        <ele>587.7</ele>
        <time>2013-01-20T08:20:57Z</time>
      </trkpt>
      <trkpt lat="44.46556" lon="2.41927">
        <ele>587.6</ele>
        <time>2013-01-20T08:20:59Z</time>
      </trkpt>
      <trkpt lat="44.46554" lon="2.41932">
        <ele>587.5</ele>
        <time>2013-01-20T08:21:01Z</time>
      </trkpt>
      <trkpt lat="44.46552" lon="2.41937">
        <ele>587.5</ele>
        <time>2013-01-20T08:21:03Z</time>
      </trkpt>
      <trkpt lat="44.46551" lon="2.4194">
        <ele>587.2</ele>
        <time>2013-01-20T08:21:04Z</time>
      </trkpt>
      <trkpt lat="44.46549" lon="2.41946">
        <ele>586.9</ele>
        <time>2013-01-20T08:21:06Z</time>
      </trkpt>
      <trkpt lat="44.46547" lon="2.41951">
        <ele>586.5</ele>
        <time>2013-01-20T08:21:08Z</time>
      </trkpt>
      <trkpt lat="44.46545" lon="2.41956">
        <ele>586.4</ele>
        <time>2013-01-20T08:21:10Z</time>
      </trkpt>
      <trkpt lat="44.46544" lon="2.41961">
        <ele>586.9</ele>
        <time>2013-01-20T08:21:13Z</time>
      </trkpt>
      <trkpt lat="44.46543" lon="2.41967">
        <ele>587.7</ele>
        <time>2013-01-20T08:21:16Z</time>
      </trkpt>
      <trkpt lat="44.46542" lon="2.41971">
        <ele>587.6</ele>
        <time>2013-01-20T08:21:19Z</time>
      </trkpt>
      <trkpt lat="44.4654" lon="2.41975">
        <ele>586.9</ele>
        <time>2013-01-20T08:21:21Z</time>
      </trkpt>
      <trkpt lat="44.46539" lon="2.41979">
        <ele>586.7</ele>
        <time>2013-01-20T08:21:23Z</time>
      </trkpt>
      <trkpt lat="44.46537" lon="2.41985">
        <ele>586.7</ele>
        <time>2013-01-20T08:21:25Z</time>
      </trkpt>
      <trkpt lat="44.46535" lon="2.4199">
        <ele>586.6</ele>
        <time>2013-01-20T08:21:27Z</time>
      </trkpt>
      <trkpt lat="44.46534" lon="2.41992">
        <ele>586.6</ele>
        <time>2013-01-20T08:21:28Z</time>
      </trkpt>
      <trkpt lat="44.46532" lon="2.41996">
        <ele>586.7</ele>
        <time>2013-01-20T08:21:29Z</time>
      </trkpt>
      <trkpt lat="44.46531" lon="2.41999">
        <ele>586.7</ele>
        <time>2013-01-20T08:21:30Z</time>
      </trkpt>
      <trkpt lat="44.4653" lon="2.42002">
        <ele>586.8</ele>
        <time>2013-01-20T08:21:31Z</time>
      </trkpt>
      <trkpt lat="44.4653" lon="2.42005">
        <ele>586.5</ele>
        <time>2013-01-20T08:21:32Z</time>
      </trkpt>
      <trkpt lat="44.46529" lon="2.42008">
        <ele>586.3</ele>
        <time>2013-01-20T08:21:33Z</time>
      </trkpt>
      <trkpt lat="44.46528" lon="2.42012">
        <ele>586.1</ele>
        <time>2013-01-20T08:21:34Z</time>
      </trkpt>
      <trkpt lat="44.46526" lon="2.42015">
        <ele>586</ele>
        <time>2013-01-20T08:21:35Z</time>
      </trkpt>
      <trkpt lat="44.46525" lon="2.42019">
        <ele>586.1</ele>
        <time>2013-01-20T08:21:36Z</time>
      </trkpt>
      <trkpt lat="44.46524" lon="2.42023">
        <ele>586.2</ele>
        <time>2013-01-20T08:21:37Z</time>
      </trkpt>
      <trkpt lat="44.46522" lon="2.42027">
        <ele>586.2</ele>
        <time>2013-01-20T08:21:38Z</time>
      </trkpt>
      <trkpt lat="44.46521" lon="2.42031">
        <ele>586.1</ele>
        <time>2013-01-20T08:21:39Z</time>
      </trkpt>
      <trkpt lat="44.4652" lon="2.42035">
        <ele>586</ele>
        <time>2013-01-20T08:21:40Z</time>
      </trkpt>
      <trkpt lat="44.46518" lon="2.42039">
        <ele>585.9</ele>
        <time>2013-01-20T08:21:41Z</time>
      </trkpt>
      <trkpt lat="44.46517" lon="2.42043">
        <ele>585.9</ele>
        <time>2013-01-20T08:21:42Z</time>
      </trkpt>
      <trkpt lat="44.46515" lon="2.42047">
        <ele>585.8</ele>
        <time>2013-01-20T08:21:43Z</time>
      </trkpt>
      <trkpt lat="44.46514" lon="2.42051">
        <ele>585.8</ele>
        <time>2013-01-20T08:21:44Z</time>
      </trkpt>
      <trkpt lat="44.46512" lon="2.42056">
        <ele>586.1</ele>
        <time>2013-01-20T08:21:45Z</time>
      </trkpt>
      <trkpt lat="44.46511" lon="2.4206">
        <ele>586.3</ele>
        <time>2013-01-20T08:21:46Z</time>
      </trkpt>
      <trkpt lat="44.46509" lon="2.42064">
        <ele>586.4</ele>
        <time>2013-01-20T08:21:47Z</time>
      </trkpt>
      <trkpt lat="44.46508" lon="2.42069">
        <ele>586.5</ele>
        <time>2013-01-20T08:21:48Z</time>
      </trkpt>
      <trkpt lat="44.46506" lon="2.42073">
        <ele>586.2</ele>
        <time>2013-01-20T08:21:49Z</time>
      </trkpt>
      <trkpt lat="44.46505" lon="2.42077">
        <ele>586</ele>
        <time>2013-01-20T08:21:50Z</time>
      </trkpt>
      <trkpt lat="44.46503" lon="2.42081">
        <ele>585.9</ele>
        <time>2013-01-20T08:21:51Z</time>
      </trkpt>
      <trkpt lat="44.46502" lon="2.42085">
        <ele>585.5</ele>
        <time>2013-01-20T08:21:52Z</time>
      </trkpt>
      <trkpt lat="44.46501" lon="2.4209">
        <ele>585.1</ele>
        <time>2013-01-20T08:21:53Z</time>
      </trkpt>
      <trkpt lat="44.46499" lon="2.42094">
        <ele>584.9</ele>
        <time>2013-01-20T08:21:54Z</time>
      </trkpt>
      <trkpt lat="44.46497" lon="2.42099">
        <ele>585.1</ele>
        <time>2013-01-20T08:21:55Z</time>
      </trkpt>
      <trkpt lat="44.46496" lon="2.42104">
        <ele>585.2</ele>
        <time>2013-01-20T08:21:56Z</time>
      </trkpt>
      <trkpt lat="44.46494" lon="2.42109">
        <ele>585.3</ele>
        <time>2013-01-20T08:21:57Z</time>
      </trkpt>
      <trkpt lat="44.46493" lon="2.42114">
        <ele>584.9</ele>
        <time>2013-01-20T08:21:58Z</time>
      </trkpt>
      <trkpt lat="44.46491" lon="2.42118">
        <ele>584.7</ele>
        <time>2013-01-20T08:21:59Z</time>
      </trkpt>
      <trkpt lat="44.4649" lon="2.42123">
        <ele>584.5</ele>
        <time>2013-01-20T08:22:00Z</time>
      </trkpt>
      <trkpt lat="44.46489" lon="2.42127">
        <ele>584.6</ele>
        <time>2013-01-20T08:22:01Z</time>
      </trkpt>
      <trkpt lat="44.46488" lon="2.42132">
        <ele>584.6</ele>
        <time>2013-01-20T08:22:02Z</time>
      </trkpt>
      <trkpt lat="44.46487" lon="2.42136">
        <ele>584.7</ele>
        <time>2013-01-20T08:22:03Z</time>
      </trkpt>
      <trkpt lat="44.46486" lon="2.4214">
        <ele>584.7</ele>
        <time>2013-01-20T08:22:04Z</time>
      </trkpt>
      <trkpt lat="44.46485" lon="2.42143">
        <ele>584.6</ele>
        <time>2013-01-20T08:22:05Z</time>
      </trkpt>
      <trkpt lat="44.46484" lon="2.42149">
        <ele>584.6</ele>
        <time>2013-01-20T08:22:07Z</time>
      </trkpt>
      <trkpt lat="44.46483" lon="2.42154">
        <ele>584.5</ele>
        <time>2013-01-20T08:22:09Z</time>
      </trkpt>
      <trkpt lat="44.4648" lon="2.42159">
        <ele>584.3</ele>
        <time>2013-01-20T08:22:13Z</time>
      </trkpt>
      <trkpt lat="44.46478" lon="2.42164">
        <ele>583.9</ele>
        <time>2013-01-20T08:24:37Z</time>
      </trkpt>
      <trkpt lat="44.46479" lon="2.42166">
        <ele>584</ele>
        <time>2013-01-20T08:24:38Z</time>
      </trkpt>
      <trkpt lat="44.46479" lon="2.42172">
        <ele>584</ele>
        <time>2013-01-20T08:24:40Z</time>
      </trkpt>
      <trkpt lat="44.46479" lon="2.42175">
        <ele>583.8</ele>
        <time>2013-01-20T08:24:41Z</time>
      </trkpt>
      <trkpt lat="44.46478" lon="2.42179">
        <ele>583.7</ele>
        <time>2013-01-20T08:24:42Z</time>
      </trkpt>
      <trkpt lat="44.46478" lon="2.42182">
        <ele>583.5</ele>
        <time>2013-01-20T08:24:43Z</time>
      </trkpt>
      <trkpt lat="44.46477" lon="2.42186">
        <ele>583.4</ele>
        <time>2013-01-20T08:24:44Z</time>
      </trkpt>
      <trkpt lat="44.46477" lon="2.42189">
        <ele>583.3</ele>
        <time>2013-01-20T08:24:45Z</time>
      </trkpt>
      <trkpt lat="44.46476" lon="2.42193">
        <ele>583.3</ele>
        <time>2013-01-20T08:24:46Z</time>
      </trkpt>
      <trkpt lat="44.46476" lon="2.42197">
        <ele>583.1</ele>
        <time>2013-01-20T08:24:47Z</time>
      </trkpt>
      <trkpt lat="44.46475" lon="2.42201">
        <ele>583</ele>
        <time>2013-01-20T08:24:48Z</time>
      </trkpt>
      <trkpt lat="44.46475" lon="2.42205">
        <ele>582.9</ele>
        <time>2013-01-20T08:24:49Z</time>
      </trkpt>
      <trkpt lat="44.46474" lon="2.4221">
        <ele>582.8</ele>
        <time>2013-01-20T08:24:50Z</time>
      </trkpt>
      <trkpt lat="44.46473" lon="2.42214">
        <ele>582.7</ele>
        <time>2013-01-20T08:24:51Z</time>
      </trkpt>
      <trkpt lat="44.46472" lon="2.42219">
        <ele>582.6</ele>
        <time>2013-01-20T08:24:52Z</time>
      </trkpt>
      <trkpt lat="44.46472" lon="2.42223">
        <ele>582.5</ele>
        <time>2013-01-20T08:24:53Z</time>
      </trkpt>
      <trkpt lat="44.46471" lon="2.42227">
        <ele>582.4</ele>
        <time>2013-01-20T08:24:54Z</time>
      </trkpt>
      <trkpt lat="44.4647" lon="2.42232">
        <ele>582.3</ele>
        <time>2013-01-20T08:24:55Z</time>
      </trkpt>
      <trkpt lat="44.4647" lon="2.42236">
        <ele>582.3</ele>
        <time>2013-01-20T08:24:56Z</time>
      </trkpt>
      <trkpt lat="44.46469" lon="2.4224">
        <ele>582.3</ele>
        <time>2013-01-20T08:24:57Z</time>
      </trkpt>
      <trkpt lat="44.46468" lon="2.42245">
        <ele>582.3</ele>
        <time>2013-01-20T08:24:58Z</time>
      </trkpt>
      <trkpt lat="44.46468" lon="2.42249">
        <ele>582.3</ele>
        <time>2013-01-20T08:24:59Z</time>
      </trkpt>
      <trkpt lat="44.46467" lon="2.42253">
        <ele>582.1</ele>
        <time>2013-01-20T08:25:00Z</time>
      </trkpt>
      <trkpt lat="44.46466" lon="2.42258">
        <ele>582</ele>
        <time>2013-01-20T08:25:01Z</time>
      </trkpt>
      <trkpt lat="44.46465" lon="2.42263">
        <ele>581.9</ele>
        <time>2013-01-20T08:25:02Z</time>
      </trkpt>
      <trkpt lat="44.46465" lon="2.42268">
        <ele>581.6</ele>
        <time>2013-01-20T08:25:03Z</time>
      </trkpt>
      <trkpt lat="44.46464" lon="2.42272">
        <ele>581.4</ele>
        <time>2013-01-20T08:25:04Z</time>
      </trkpt>
      <trkpt lat="44.46463" lon="2.42277">
        <ele>581.2</ele>
        <time>2013-01-20T08:25:05Z</time>
      </trkpt>
      <trkpt lat="44.46462" lon="2.42281">
        <ele>580.9</ele>
        <time>2013-01-20T08:25:06Z</time>
      </trkpt>
      <trkpt lat="44.46462" lon="2.42286">
        <ele>580.7</ele>
        <time>2013-01-20T08:25:07Z</time>
      </trkpt>
      <trkpt lat="44.46461" lon="2.4229">
        <ele>580.6</ele>
        <time>2013-01-20T08:25:08Z</time>
      </trkpt>
      <trkpt lat="44.4646" lon="2.42295">
        <ele>580.4</ele>
        <time>2013-01-20T08:25:09Z</time>
      </trkpt>
      <trkpt lat="44.4646" lon="2.42299">
        <ele>580.4</ele>
        <time>2013-01-20T08:25:10Z</time>
      </trkpt>
      <trkpt lat="44.46459" lon="2.42304">
        <ele>580.3</ele>
        <time>2013-01-20T08:25:11Z</time>
      </trkpt>
      <trkpt lat="44.46459" lon="2.42308">
        <ele>580.3</ele>
        <time>2013-01-20T08:25:12Z</time>
      </trkpt>
      <trkpt lat="44.46458" lon="2.42313">
        <ele>580.3</ele>
        <time>2013-01-20T08:25:13Z</time>
      </trkpt>
      <trkpt lat="44.46457" lon="2.42317">
        <ele>580.3</ele>
        <time>2013-01-20T08:25:14Z</time>
      </trkpt>
      <trkpt lat="44.46456" lon="2.42321">
        <ele>580.3</ele>
        <time>2013-01-20T08:25:15Z</time>
      </trkpt>
      <trkpt lat="44.46456" lon="2.42325">
        <ele>580</ele>
        <time>2013-01-20T08:25:16Z</time>
      </trkpt>
      <trkpt lat="44.46455" lon="2.4233">
        <ele>579.7</ele>
        <time>2013-01-20T08:25:17Z</time>
      </trkpt>
      <trkpt lat="44.46454" lon="2.42334">
        <ele>579.6</ele>
        <time>2013-01-20T08:25:18Z</time>
      </trkpt>
      <trkpt lat="44.46454" lon="2.42339">
        <ele>579.3</ele>
        <time>2013-01-20T08:25:19Z</time>
      </trkpt>
      <trkpt lat="44.46453" lon="2.42343">
        <ele>579.1</ele>
        <time>2013-01-20T08:25:20Z</time>
      </trkpt>
      <trkpt lat="44.46452" lon="2.42348">
        <ele>579</ele>
        <time>2013-01-20T08:25:21Z</time>
      </trkpt>
      <trkpt lat="44.46452" lon="2.42353">
        <ele>578.9</ele>
        <time>2013-01-20T08:25:22Z</time>
      </trkpt>
      <trkpt lat="44.46451" lon="2.42358">
        <ele>578.9</ele>
        <time>2013-01-20T08:25:23Z</time>
      </trkpt>
      <trkpt lat="44.4645" lon="2.42364">
        <ele>578.9</ele>
        <time>2013-01-20T08:25:24Z</time>
      </trkpt>
      <trkpt lat="44.46449" lon="2.4237">
        <ele>578.9</ele>
        <time>2013-01-20T08:25:25Z</time>
      </trkpt>
      <trkpt lat="44.46448" lon="2.42375">
        <ele>578.8</ele>
        <time>2013-01-20T08:25:26Z</time>
      </trkpt>
      <trkpt lat="44.46448" lon="2.42381">
        <ele>578.7</ele>
        <time>2013-01-20T08:25:27Z</time>
      </trkpt>
      <trkpt lat="44.46447" lon="2.42387">
        <ele>578.6</ele>
        <time>2013-01-20T08:25:28Z</time>
      </trkpt>
      <trkpt lat="44.46446" lon="2.42393">
        <ele>578.6</ele>
        <time>2013-01-20T08:25:29Z</time>
      </trkpt>
      <trkpt lat="44.46444" lon="2.42399">
        <ele>578.7</ele>
        <time>2013-01-20T08:25:30Z</time>
      </trkpt>
      <trkpt lat="44.46444" lon="2.42405">
        <ele>578.7</ele>
        <time>2013-01-20T08:25:31Z</time>
      </trkpt>
      <trkpt lat="44.46443" lon="2.42411">
        <ele>578.4</ele>
        <time>2013-01-20T08:25:32Z</time>
      </trkpt>
      <trkpt lat="44.46442" lon="2.42417">
        <ele>578.2</ele>
        <time>2013-01-20T08:25:33Z</time>
      </trkpt>
      <trkpt lat="44.46441" lon="2.42423">
        <ele>578</ele>
        <time>2013-01-20T08:25:34Z</time>
      </trkpt>
      <trkpt lat="44.4644" lon="2.42429">
        <ele>577.9</ele>
        <time>2013-01-20T08:25:35Z</time>
      </trkpt>
      <trkpt lat="44.46439" lon="2.42435">
        <ele>577.9</ele>
        <time>2013-01-20T08:25:36Z</time>
      </trkpt>
      <trkpt lat="44.46438" lon="2.42441">
        <ele>577.8</ele>
        <time>2013-01-20T08:25:37Z</time>
      </trkpt>
      <trkpt lat="44.46437" lon="2.42446">
        <ele>577.8</ele>
        <time>2013-01-20T08:25:38Z</time>
      </trkpt>
      <trkpt lat="44.46436" lon="2.42452">
        <ele>577.7</ele>
        <time>2013-01-20T08:25:39Z</time>
      </trkpt>
      <trkpt lat="44.46435" lon="2.42457">
        <ele>577.7</ele>
        <time>2013-01-20T08:25:40Z</time>
      </trkpt>
      <trkpt lat="44.46434" lon="2.42462">
        <ele>577.7</ele>
        <time>2013-01-20T08:25:41Z</time>
      </trkpt>
      <trkpt lat="44.46434" lon="2.42467">
        <ele>577</ele>
        <time>2013-01-20T08:25:42Z</time>
      </trkpt>
      <trkpt lat="44.46433" lon="2.42472">
        <ele>576.5</ele>
        <time>2013-01-20T08:25:43Z</time>
      </trkpt>
      <trkpt lat="44.46432" lon="2.42477">
        <ele>576.2</ele>
        <time>2013-01-20T08:25:44Z</time>
      </trkpt>
      <trkpt lat="44.46431" lon="2.42482">
        <ele>576.4</ele>
        <time>2013-01-20T08:25:45Z</time>
      </trkpt>
      <trkpt lat="44.4643" lon="2.42487">
        <ele>576.6</ele>
        <time>2013-01-20T08:25:46Z</time>
      </trkpt>
      <trkpt lat="44.4643" lon="2.42492">
        <ele>576.7</ele>
        <time>2013-01-20T08:25:47Z</time>
      </trkpt>
      <trkpt lat="44.46429" lon="2.42496">
        <ele>576.7</ele>
        <time>2013-01-20T08:25:48Z</time>
      </trkpt>
      <trkpt lat="44.46428" lon="2.42501">
        <ele>576.7</ele>
        <time>2013-01-20T08:25:49Z</time>
      </trkpt>
      <trkpt lat="44.46427" lon="2.42507">
        <ele>576.6</ele>
        <time>2013-01-20T08:25:50Z</time>
      </trkpt>
      <trkpt lat="44.46426" lon="2.42512">
        <ele>576.7</ele>
        <time>2013-01-20T08:25:51Z</time>
      </trkpt>
      <trkpt lat="44.46425" lon="2.42518">
        <ele>576.7</ele>
        <time>2013-01-20T08:25:52Z</time>
      </trkpt>
      <trkpt lat="44.46424" lon="2.42524">
        <ele>576.7</ele>
        <time>2013-01-20T08:25:53Z</time>
      </trkpt>
      <trkpt lat="44.46423" lon="2.4253">
        <ele>576.6</ele>
        <time>2013-01-20T08:25:54Z</time>
      </trkpt>
      <trkpt lat="44.46422" lon="2.42536">
        <ele>576.4</ele>
        <time>2013-01-20T08:25:55Z</time>
      </trkpt>
      <trkpt lat="44.46422" lon="2.42542">
        <ele>576.4</ele>
        <time>2013-01-20T08:25:56Z</time>
      </trkpt>
      <trkpt lat="44.46421" lon="2.42548">
        <ele>576</ele>
        <time>2013-01-20T08:25:57Z</time>
      </trkpt>
      <trkpt lat="44.4642" lon="2.42553">
        <ele>575.7</ele>
        <time>2013-01-20T08:25:58Z</time>
      </trkpt>
      <trkpt lat="44.46419" lon="2.42558">
        <ele>575.5</ele>
        <time>2013-01-20T08:25:59Z</time>
      </trkpt>
      <trkpt lat="44.46418" lon="2.42564">
        <ele>575.4</ele>
        <time>2013-01-20T08:26:00Z</time>
      </trkpt>
      <trkpt lat="44.46417" lon="2.42569">
        <ele>575.3</ele>
        <time>2013-01-20T08:26:01Z</time>
      </trkpt>
      <trkpt lat="44.46416" lon="2.42574">
        <ele>575.2</ele>
        <time>2013-01-20T08:26:02Z</time>
      </trkpt>
      <trkpt lat="44.46415" lon="2.42579">
        <ele>575.1</ele>
        <time>2013-01-20T08:26:03Z</time>
      </trkpt>
      <trkpt lat="44.46414" lon="2.42585">
        <ele>575.4</ele>
        <time>2013-01-20T08:26:04Z</time>
      </trkpt>
      <trkpt lat="44.46414" lon="2.42591">
        <ele>575.7</ele>
        <time>2013-01-20T08:26:05Z</time>
      </trkpt>
      <trkpt lat="44.46413" lon="2.42596">
        <ele>575.9</ele>
        <time>2013-01-20T08:26:06Z</time>
      </trkpt>
      <trkpt lat="44.46412" lon="2.42602">
        <ele>575.8</ele>
        <time>2013-01-20T08:26:07Z</time>
      </trkpt>
      <trkpt lat="44.46411" lon="2.42607">
        <ele>575.7</ele>
        <time>2013-01-20T08:26:08Z</time>
      </trkpt>
      <trkpt lat="44.4641" lon="2.42613">
        <ele>575.7</ele>
        <time>2013-01-20T08:26:09Z</time>
      </trkpt>
      <trkpt lat="44.46409" lon="2.42618">
        <ele>575.3</ele>
        <time>2013-01-20T08:26:10Z</time>
      </trkpt>
      <trkpt lat="44.46408" lon="2.42624">
        <ele>575</ele>
        <time>2013-01-20T08:26:11Z</time>
      </trkpt>
      <trkpt lat="44.46407" lon="2.42629">
        <ele>574.8</ele>
        <time>2013-01-20T08:26:12Z</time>
      </trkpt>
      <trkpt lat="44.46406" lon="2.42635">
        <ele>574.5</ele>
        <time>2013-01-20T08:26:13Z</time>
      </trkpt>
      <trkpt lat="44.46405" lon="2.4264">
        <ele>574.3</ele>
        <time>2013-01-20T08:26:14Z</time>
      </trkpt>
      <trkpt lat="44.46404" lon="2.42646">
        <ele>574.1</ele>
        <time>2013-01-20T08:26:15Z</time>
      </trkpt>
      <trkpt lat="44.46403" lon="2.42652">
        <ele>574</ele>
        <time>2013-01-20T08:26:16Z</time>
      </trkpt>
      <trkpt lat="44.46403" lon="2.42658">
        <ele>574.2</ele>
        <time>2013-01-20T08:26:17Z</time>
      </trkpt>
      <trkpt lat="44.46402" lon="2.42663">
        <ele>574.4</ele>
        <time>2013-01-20T08:26:18Z</time>
      </trkpt>
      <trkpt lat="44.46401" lon="2.42669">
        <ele>574.5</ele>
        <time>2013-01-20T08:26:19Z</time>
      </trkpt>
      <trkpt lat="44.464" lon="2.42675">
        <ele>574.5</ele>
        <time>2013-01-20T08:26:20Z</time>
      </trkpt>
      <trkpt lat="44.46399" lon="2.4268">
        <ele>574.4</ele>
        <time>2013-01-20T08:26:21Z</time>
      </trkpt>
      <trkpt lat="44.46399" lon="2.42686">
        <ele>574.3</ele>
        <time>2013-01-20T08:26:22Z</time>
      </trkpt>
      <trkpt lat="44.46398" lon="2.42691">
        <ele>574.2</ele>
        <time>2013-01-20T08:26:23Z</time>
      </trkpt>
      <trkpt lat="44.46397" lon="2.42697">
        <ele>574</ele>
        <time>2013-01-20T08:26:24Z</time>
      </trkpt>
      <trkpt lat="44.46396" lon="2.42702">
        <ele>574</ele>
        <time>2013-01-20T08:26:25Z</time>
      </trkpt>
      <trkpt lat="44.46396" lon="2.42708">
        <ele>573.9</ele>
        <time>2013-01-20T08:26:26Z</time>
      </trkpt>
      <trkpt lat="44.46395" lon="2.42713">
        <ele>573.9</ele>
        <time>2013-01-20T08:26:27Z</time>
      </trkpt>
      <trkpt lat="44.46394" lon="2.42719">
        <ele>573.9</ele>
        <time>2013-01-20T08:26:28Z</time>
      </trkpt>
      <trkpt lat="44.46393" lon="2.42724">
        <ele>573.9</ele>
        <time>2013-01-20T08:26:29Z</time>
      </trkpt>
      <trkpt lat="44.46392" lon="2.4273">
        <ele>574</ele>
        <time>2013-01-20T08:26:30Z</time>
      </trkpt>
      <trkpt lat="44.46391" lon="2.42736">
        <ele>574</ele>
        <time>2013-01-20T08:26:31Z</time>
      </trkpt>
      <trkpt lat="44.46391" lon="2.42741">
        <ele>574</ele>
        <time>2013-01-20T08:26:32Z</time>
      </trkpt>
      <trkpt lat="44.4639" lon="2.42747">
        <ele>574</ele>
        <time>2013-01-20T08:26:33Z</time>
      </trkpt>
      <trkpt lat="44.4639" lon="2.42753">
        <ele>574.1</ele>
        <time>2013-01-20T08:26:34Z</time>
      </trkpt>
      <trkpt lat="44.4639" lon="2.42759">
        <ele>574.1</ele>
        <time>2013-01-20T08:26:35Z</time>
      </trkpt>
      <trkpt lat="44.4639" lon="2.42764">
        <ele>573.8</ele>
        <time>2013-01-20T08:26:36Z</time>
      </trkpt>
      <trkpt lat="44.4639" lon="2.4277">
        <ele>573.5</ele>
        <time>2013-01-20T08:26:37Z</time>
      </trkpt>
      <trkpt lat="44.4639" lon="2.42775">
        <ele>573.3</ele>
        <time>2013-01-20T08:26:38Z</time>
      </trkpt>
      <trkpt lat="44.46391" lon="2.4278">
        <ele>573.3</ele>
        <time>2013-01-20T08:26:39Z</time>
      </trkpt>
      <trkpt lat="44.46391" lon="2.42785">
        <ele>573.3</ele>
        <time>2013-01-20T08:26:40Z</time>
      </trkpt>
      <trkpt lat="44.46392" lon="2.42791">
        <ele>573.3</ele>
        <time>2013-01-20T08:26:41Z</time>
      </trkpt>
      <trkpt lat="44.46393" lon="2.42796">
        <ele>573.3</ele>
        <time>2013-01-20T08:26:42Z</time>
      </trkpt>
      <trkpt lat="44.46394" lon="2.42801">
        <ele>573.3</ele>
        <time>2013-01-20T08:26:43Z</time>
      </trkpt>
      <trkpt lat="44.46395" lon="2.42807">
        <ele>573.3</ele>
        <time>2013-01-20T08:26:44Z</time>
      </trkpt>
      <trkpt lat="44.46396" lon="2.42812">
        <ele>573.1</ele>
        <time>2013-01-20T08:26:45Z</time>
      </trkpt>
      <trkpt lat="44.46397" lon="2.42817">
        <ele>572.9</ele>
        <time>2013-01-20T08:26:46Z</time>
      </trkpt>
      <trkpt lat="44.46398" lon="2.42822">
        <ele>572.7</ele>
        <time>2013-01-20T08:26:47Z</time>
      </trkpt>
      <trkpt lat="44.46399" lon="2.42827">
        <ele>572.6</ele>
        <time>2013-01-20T08:26:48Z</time>
      </trkpt>
      <trkpt lat="44.46401" lon="2.42832">
        <ele>572.6</ele>
        <time>2013-01-20T08:26:49Z</time>
      </trkpt>
      <trkpt lat="44.46402" lon="2.42837">
        <ele>572.7</ele>
        <time>2013-01-20T08:26:50Z</time>
      </trkpt>
      <trkpt lat="44.46403" lon="2.42842">
        <ele>572.7</ele>
        <time>2013-01-20T08:26:51Z</time>
      </trkpt>
      <trkpt lat="44.46404" lon="2.42847">
        <ele>572.7</ele>
        <time>2013-01-20T08:26:52Z</time>
      </trkpt>
      <trkpt lat="44.46405" lon="2.42852">
        <ele>572.7</ele>
        <time>2013-01-20T08:26:53Z</time>
      </trkpt>
      <trkpt lat="44.46407" lon="2.42857">
        <ele>572.8</ele>
        <time>2013-01-20T08:26:54Z</time>
      </trkpt>
      <trkpt lat="44.46408" lon="2.42862">
        <ele>572.9</ele>
        <time>2013-01-20T08:26:55Z</time>
      </trkpt>
      <trkpt lat="44.46409" lon="2.42868">
        <ele>572.9</ele>
        <time>2013-01-20T08:26:56Z</time>
      </trkpt>
      <trkpt lat="44.46411" lon="2.42873">
        <ele>573</ele>
        <time>2013-01-20T08:26:57Z</time>
      </trkpt>
      <trkpt lat="44.46412" lon="2.42878">
        <ele>573</ele>
        <time>2013-01-20T08:26:58Z</time>
      </trkpt>
      <trkpt lat="44.46413" lon="2.42884">
        <ele>572.9</ele>
        <time>2013-01-20T08:26:59Z</time>
      </trkpt>
      <trkpt lat="44.46415" lon="2.42889">
        <ele>572.9</ele>
        <time>2013-01-20T08:27:00Z</time>
      </trkpt>
      <trkpt lat="44.46416" lon="2.42894">
        <ele>573</ele>
        <time>2013-01-20T08:27:01Z</time>
      </trkpt>
      <trkpt lat="44.46417" lon="2.42899">
        <ele>573</ele>
        <time>2013-01-20T08:27:02Z</time>
      </trkpt>
      <trkpt lat="44.46418" lon="2.42905">
        <ele>573</ele>
        <time>2013-01-20T08:27:03Z</time>
      </trkpt>
      <trkpt lat="44.46419" lon="2.4291">
        <ele>573</ele>
        <time>2013-01-20T08:27:04Z</time>
      </trkpt>
      <trkpt lat="44.46421" lon="2.42915">
        <ele>573.1</ele>
        <time>2013-01-20T08:27:05Z</time>
      </trkpt>
      <trkpt lat="44.46422" lon="2.42921">
        <ele>573.1</ele>
        <time>2013-01-20T08:27:06Z</time>
      </trkpt>
      <trkpt lat="44.46423" lon="2.42926">
        <ele>573.2</ele>
        <time>2013-01-20T08:27:07Z</time>
      </trkpt>
      <trkpt lat="44.46425" lon="2.42931">
        <ele>573</ele>
        <time>2013-01-20T08:27:08Z</time>
      </trkpt>
      <trkpt lat="44.46426" lon="2.42937">
        <ele>572.8</ele>
        <time>2013-01-20T08:27:09Z</time>
      </trkpt>
      <trkpt lat="44.46427" lon="2.42942">
        <ele>572.6</ele>
        <time>2013-01-20T08:27:10Z</time>
      </trkpt>
      <trkpt lat="44.46428" lon="2.42948">
        <ele>572.6</ele>
        <time>2013-01-20T08:27:11Z</time>
      </trkpt>
      <trkpt lat="44.4643" lon="2.42953">
        <ele>572.6</ele>
        <time>2013-01-20T08:27:12Z</time>
      </trkpt>
      <trkpt lat="44.46431" lon="2.42958">
        <ele>572.6</ele>
        <time>2013-01-20T08:27:13Z</time>
      </trkpt>
      <trkpt lat="44.46432" lon="2.42964">
        <ele>572.6</ele>
        <time>2013-01-20T08:27:14Z</time>
      </trkpt>
      <trkpt lat="44.46433" lon="2.4297">
        <ele>572.7</ele>
        <time>2013-01-20T08:27:15Z</time>
      </trkpt>
      <trkpt lat="44.46435" lon="2.42976">
        <ele>572.7</ele>
        <time>2013-01-20T08:27:16Z</time>
      </trkpt>
      <trkpt lat="44.46436" lon="2.42982">
        <ele>572.7</ele>
        <time>2013-01-20T08:27:17Z</time>
      </trkpt>
      <trkpt lat="44.46438" lon="2.42988">
        <ele>572.7</ele>
        <time>2013-01-20T08:27:18Z</time>
      </trkpt>
      <trkpt lat="44.46439" lon="2.42994">
        <ele>572.6</ele>
        <time>2013-01-20T08:27:19Z</time>
      </trkpt>
      <trkpt lat="44.46441" lon="2.43001">
        <ele>572.6</ele>
        <time>2013-01-20T08:27:20Z</time>
      </trkpt>
      <trkpt lat="44.46443" lon="2.43007">
        <ele>572.3</ele>
        <time>2013-01-20T08:27:21Z</time>
      </trkpt>
      <trkpt lat="44.46444" lon="2.43013">
        <ele>572</ele>
        <time>2013-01-20T08:27:22Z</time>
      </trkpt>
      <trkpt lat="44.46446" lon="2.43019">
        <ele>571.8</ele>
        <time>2013-01-20T08:27:23Z</time>
      </trkpt>
      <trkpt lat="44.46447" lon="2.43025">
        <ele>571.6</ele>
        <time>2013-01-20T08:27:24Z</time>
      </trkpt>
      <trkpt lat="44.46449" lon="2.43031">
        <ele>571.4</ele>
        <time>2013-01-20T08:27:25Z</time>
      </trkpt>
      <trkpt lat="44.46451" lon="2.43037">
        <ele>571.2</ele>
        <time>2013-01-20T08:27:26Z</time>
      </trkpt>
      <trkpt lat="44.46452" lon="2.43042">
        <ele>571.4</ele>
        <time>2013-01-20T08:27:27Z</time>
      </trkpt>
      <trkpt lat="44.46454" lon="2.43048">
        <ele>571.6</ele>
        <time>2013-01-20T08:27:28Z</time>
      </trkpt>
      <trkpt lat="44.46455" lon="2.43053">
        <ele>571.7</ele>
        <time>2013-01-20T08:27:29Z</time>
      </trkpt>
      <trkpt lat="44.46457" lon="2.43059">
        <ele>571.5</ele>
        <time>2013-01-20T08:27:30Z</time>
      </trkpt>
      <trkpt lat="44.46458" lon="2.43064">
        <ele>571.4</ele>
        <time>2013-01-20T08:27:31Z</time>
      </trkpt>
      <trkpt lat="44.46457" lon="2.4307">
        <ele>571.2</ele>
        <time>2013-01-20T08:27:32Z</time>
      </trkpt>
      <trkpt lat="44.46454" lon="2.43074">
        <ele>570.8</ele>
        <time>2013-01-20T08:27:33Z</time>
      </trkpt>
      <trkpt lat="44.46451" lon="2.43075">
        <ele>570.6</ele>
        <time>2013-01-20T08:27:34Z</time>
      </trkpt>
      <trkpt lat="44.46447" lon="2.43072">
        <ele>570.3</ele>
        <time>2013-01-20T08:27:35Z</time>
      </trkpt>
      <trkpt lat="44.46444" lon="2.43069">
        <ele>570.5</ele>
        <time>2013-01-20T08:27:36Z</time>
      </trkpt>
      <trkpt lat="44.46442" lon="2.43066">
        <ele>570.6</ele>
        <time>2013-01-20T08:27:37Z</time>
      </trkpt>
      <trkpt lat="44.46439" lon="2.43063">
        <ele>570.7</ele>
        <time>2013-01-20T08:27:38Z</time>
      </trkpt>
      <trkpt lat="44.46436" lon="2.4306">
        <ele>570.7</ele>
        <time>2013-01-20T08:27:39Z</time>
      </trkpt>
      <trkpt lat="44.46434" lon="2.43056">
        <ele>570.5</ele>
        <time>2013-01-20T08:27:40Z</time>
      </trkpt>
      <trkpt lat="44.46431" lon="2.43053">
        <ele>570.3</ele>
        <time>2013-01-20T08:27:41Z</time>
      </trkpt>
      <trkpt lat="44.46429" lon="2.43049">
        <ele>570.1</ele>
        <time>2013-01-20T08:27:42Z</time>
      </trkpt>
      <trkpt lat="44.46426" lon="2.43046">
        <ele>569.9</ele>
        <time>2013-01-20T08:27:43Z</time>
      </trkpt>
      <trkpt lat="44.46424" lon="2.43042">
        <ele>569.8</ele>
        <time>2013-01-20T08:27:44Z</time>
      </trkpt>
      <trkpt lat="44.46421" lon="2.43039">
        <ele>569.7</ele>
        <time>2013-01-20T08:27:45Z</time>
      </trkpt>
      <trkpt lat="44.46419" lon="2.43036">
        <ele>569.8</ele>
        <time>2013-01-20T08:27:46Z</time>
      </trkpt>
      <trkpt lat="44.46417" lon="2.43032">
        <ele>570</ele>
        <time>2013-01-20T08:27:47Z</time>
      </trkpt>
      <trkpt lat="44.46414" lon="2.43028">
        <ele>570.1</ele>
        <time>2013-01-20T08:27:48Z</time>
      </trkpt>
      <trkpt lat="44.46412" lon="2.43024">
        <ele>569.7</ele>
        <time>2013-01-20T08:27:49Z</time>
      </trkpt>
      <trkpt lat="44.46409" lon="2.4302">
        <ele>569.5</ele>
        <time>2013-01-20T08:27:50Z</time>
      </trkpt>
      <trkpt lat="44.46407" lon="2.43016">
        <ele>569.3</ele>
        <time>2013-01-20T08:27:51Z</time>
      </trkpt>
      <trkpt lat="44.46404" lon="2.43013">
        <ele>569.4</ele>
        <time>2013-01-20T08:27:52Z</time>
      </trkpt>
      <trkpt lat="44.46402" lon="2.43009">
        <ele>569.5</ele>
        <time>2013-01-20T08:27:53Z</time>
      </trkpt>
      <trkpt lat="44.46399" lon="2.43005">
        <ele>569.6</ele>
        <time>2013-01-20T08:27:54Z</time>
      </trkpt>
      <trkpt lat="44.46397" lon="2.43001">
        <ele>569.7</ele>
        <time>2013-01-20T08:27:55Z</time>
      </trkpt>
      <trkpt lat="44.46394" lon="2.42997">
        <ele>569.4</ele>
        <time>2013-01-20T08:27:56Z</time>
      </trkpt>
      <trkpt lat="44.46392" lon="2.42994">
        <ele>569.2</ele>
        <time>2013-01-20T08:27:57Z</time>
      </trkpt>
      <trkpt lat="44.46389" lon="2.4299">
        <ele>569</ele>
        <time>2013-01-20T08:27:58Z</time>
      </trkpt>
      <trkpt lat="44.46387" lon="2.42986">
        <ele>569.3</ele>
        <time>2013-01-20T08:27:59Z</time>
      </trkpt>
      <trkpt lat="44.46384" lon="2.42982">
        <ele>569.6</ele>
        <time>2013-01-20T08:28:00Z</time>
      </trkpt>
      <trkpt lat="44.46382" lon="2.42978">
        <ele>569.7</ele>
        <time>2013-01-20T08:28:01Z</time>
      </trkpt>
      <trkpt lat="44.46379" lon="2.42974">
        <ele>569.5</ele>
        <time>2013-01-20T08:28:02Z</time>
      </trkpt>
      <trkpt lat="44.46376" lon="2.4297">
        <ele>569.2</ele>
        <time>2013-01-20T08:28:03Z</time>
      </trkpt>
      <trkpt lat="44.46374" lon="2.42966">
        <ele>569.1</ele>
        <time>2013-01-20T08:28:04Z</time>
      </trkpt>
      <trkpt lat="44.46371" lon="2.42962">
        <ele>568.9</ele>
        <time>2013-01-20T08:28:05Z</time>
      </trkpt>
      <trkpt lat="44.46368" lon="2.42958">
        <ele>568.8</ele>
        <time>2013-01-20T08:28:06Z</time>
      </trkpt>
      <trkpt lat="44.46366" lon="2.42954">
        <ele>568.7</ele>
        <time>2013-01-20T08:28:07Z</time>
      </trkpt>
      <trkpt lat="44.46363" lon="2.4295">
        <ele>568.7</ele>
        <time>2013-01-20T08:28:08Z</time>
      </trkpt>
      <trkpt lat="44.4636" lon="2.42946">
        <ele>568.8</ele>
        <time>2013-01-20T08:28:09Z</time>
      </trkpt>
      <trkpt lat="44.46358" lon="2.42942">
        <ele>568.8</ele>
        <time>2013-01-20T08:28:10Z</time>
      </trkpt>
      <trkpt lat="44.46355" lon="2.42939">
        <ele>568.8</ele>
        <time>2013-01-20T08:28:11Z</time>
      </trkpt>
      <trkpt lat="44.46353" lon="2.42935">
        <ele>568.9</ele>
        <time>2013-01-20T08:28:12Z</time>
      </trkpt>
      <trkpt lat="44.4635" lon="2.42931">
        <ele>569</ele>
        <time>2013-01-20T08:28:13Z</time>
      </trkpt>
      <trkpt lat="44.46347" lon="2.42928">
        <ele>569.1</ele>
        <time>2013-01-20T08:28:14Z</time>
      </trkpt>
      <trkpt lat="44.46345" lon="2.42924">
        <ele>568.8</ele>
        <time>2013-01-20T08:28:15Z</time>
      </trkpt>
      <trkpt lat="44.46343" lon="2.42921">
        <ele>568.6</ele>
        <time>2013-01-20T08:28:16Z</time>
      </trkpt>
      <trkpt lat="44.4634" lon="2.42917">
        <ele>568.4</ele>
        <time>2013-01-20T08:28:17Z</time>
      </trkpt>
      <trkpt lat="44.46338" lon="2.42914">
        <ele>568.5</ele>
        <time>2013-01-20T08:28:18Z</time>
      </trkpt>
      <trkpt lat="44.46335" lon="2.4291">
        <ele>568.6</ele>
        <time>2013-01-20T08:28:19Z</time>
      </trkpt>
      <trkpt lat="44.46333" lon="2.42906">
        <ele>568.6</ele>
        <time>2013-01-20T08:28:20Z</time>
      </trkpt>
      <trkpt lat="44.4633" lon="2.42902">
        <ele>568.5</ele>
        <time>2013-01-20T08:28:21Z</time>
      </trkpt>
      <trkpt lat="44.46327" lon="2.42898">
        <ele>568.4</ele>
        <time>2013-01-20T08:28:22Z</time>
      </trkpt>
      <trkpt lat="44.46324" lon="2.42894">
        <ele>568.3</ele>
        <time>2013-01-20T08:28:23Z</time>
      </trkpt>
      <trkpt lat="44.46321" lon="2.4289">
        <ele>568.2</ele>
        <time>2013-01-20T08:28:24Z</time>
      </trkpt>
      <trkpt lat="44.46319" lon="2.42885">
        <ele>568.2</ele>
        <time>2013-01-20T08:28:25Z</time>
      </trkpt>
      <trkpt lat="44.46316" lon="2.42881">
        <ele>568.2</ele>
        <time>2013-01-20T08:28:26Z</time>
      </trkpt>
      <trkpt lat="44.46313" lon="2.42877">
        <ele>568.1</ele>
        <time>2013-01-20T08:28:27Z</time>
      </trkpt>
      <trkpt lat="44.4631" lon="2.42873">
        <ele>567.9</ele>
        <time>2013-01-20T08:28:28Z</time>
      </trkpt>
      <trkpt lat="44.46307" lon="2.42869">
        <ele>567.9</ele>
        <time>2013-01-20T08:28:29Z</time>
      </trkpt>
      <trkpt lat="44.46305" lon="2.42865">
        <ele>567.8</ele>
        <time>2013-01-20T08:28:30Z</time>
      </trkpt>
      <trkpt lat="44.46302" lon="2.42861">
        <ele>567.9</ele>
        <time>2013-01-20T08:28:31Z</time>
      </trkpt>
      <trkpt lat="44.46299" lon="2.42857">
        <ele>568</ele>
        <time>2013-01-20T08:28:32Z</time>
      </trkpt>
      <trkpt lat="44.46296" lon="2.42853">
        <ele>568.1</ele>
        <time>2013-01-20T08:28:33Z</time>
      </trkpt>
      <trkpt lat="44.46294" lon="2.42849">
        <ele>568.1</ele>
        <time>2013-01-20T08:28:34Z</time>
      </trkpt>
      <trkpt lat="44.46291" lon="2.42845">
        <ele>568.2</ele>
        <time>2013-01-20T08:28:35Z</time>
      </trkpt>
      <trkpt lat="44.46288" lon="2.42842">
        <ele>568.2</ele>
        <time>2013-01-20T08:28:36Z</time>
      </trkpt>
      <trkpt lat="44.46286" lon="2.42838">
        <ele>568.4</ele>
        <time>2013-01-20T08:28:37Z</time>
      </trkpt>
      <trkpt lat="44.46283" lon="2.42835">
        <ele>568.5</ele>
        <time>2013-01-20T08:28:38Z</time>
      </trkpt>
      <trkpt lat="44.4628" lon="2.42832">
        <ele>568.5</ele>
        <time>2013-01-20T08:28:39Z</time>
      </trkpt>
      <trkpt lat="44.46277" lon="2.42829">
        <ele>568.5</ele>
        <time>2013-01-20T08:28:40Z</time>
      </trkpt>
      <trkpt lat="44.46274" lon="2.42826">
        <ele>568.4</ele>
        <time>2013-01-20T08:28:41Z</time>
      </trkpt>
      <trkpt lat="44.46271" lon="2.42823">
        <ele>568.3</ele>
        <time>2013-01-20T08:28:42Z</time>
      </trkpt>
      <trkpt lat="44.46268" lon="2.4282">
        <ele>568.3</ele>
        <time>2013-01-20T08:28:43Z</time>
      </trkpt>
      <trkpt lat="44.46265" lon="2.42818">
        <ele>568.2</ele>
        <time>2013-01-20T08:28:44Z</time>
      </trkpt>
      <trkpt lat="44.46261" lon="2.42815">
        <ele>568.1</ele>
        <time>2013-01-20T08:28:45Z</time>
      </trkpt>
      <trkpt lat="44.46258" lon="2.42812">
        <ele>568.1</ele>
        <time>2013-01-20T08:28:46Z</time>
      </trkpt>
      <trkpt lat="44.46254" lon="2.4281">
        <ele>568.3</ele>
        <time>2013-01-20T08:28:47Z</time>
      </trkpt>
      <trkpt lat="44.46251" lon="2.42808">
        <ele>568.6</ele>
        <time>2013-01-20T08:28:48Z</time>
      </trkpt>
      <trkpt lat="44.46248" lon="2.42806">
        <ele>568.7</ele>
        <time>2013-01-20T08:28:49Z</time>
      </trkpt>
      <trkpt lat="44.46245" lon="2.42804">
        <ele>568.7</ele>
        <time>2013-01-20T08:28:50Z</time>
      </trkpt>
      <trkpt lat="44.46241" lon="2.42802">
        <ele>568.7</ele>
        <time>2013-01-20T08:28:51Z</time>
      </trkpt>
      <trkpt lat="44.46238" lon="2.428">
        <ele>568.7</ele>
        <time>2013-01-20T08:28:52Z</time>
      </trkpt>
      <trkpt lat="44.46234" lon="2.42799">
        <ele>568.8</ele>
        <time>2013-01-20T08:28:53Z</time>
      </trkpt>
      <trkpt lat="44.4623" lon="2.42798">
        <ele>568.8</ele>
        <time>2013-01-20T08:28:54Z</time>
      </trkpt>
      <trkpt lat="44.46226" lon="2.42796">
        <ele>568.8</ele>
        <time>2013-01-20T08:28:55Z</time>
      </trkpt>
      <trkpt lat="44.46223" lon="2.42795">
        <ele>568.5</ele>
        <time>2013-01-20T08:28:56Z</time>
      </trkpt>
      <trkpt lat="44.46219" lon="2.42794">
        <ele>568.3</ele>
        <time>2013-01-20T08:28:57Z</time>
      </trkpt>
      <trkpt lat="44.46215" lon="2.42793">
        <ele>568.1</ele>
        <time>2013-01-20T08:28:58Z</time>
      </trkpt>
      <trkpt lat="44.46211" lon="2.42793">
        <ele>568.5</ele>
        <time>2013-01-20T08:28:59Z</time>
      </trkpt>
      <trkpt lat="44.46207" lon="2.42792">
        <ele>568.8</ele>
        <time>2013-01-20T08:29:00Z</time>
      </trkpt>
      <trkpt lat="44.46203" lon="2.42791">
        <ele>569.1</ele>
        <time>2013-01-20T08:29:01Z</time>
      </trkpt>
      <trkpt lat="44.462" lon="2.4279">
        <ele>569.2</ele>
        <time>2013-01-20T08:29:02Z</time>
      </trkpt>
      <trkpt lat="44.46196" lon="2.42789">
        <ele>569.5</ele>
        <time>2013-01-20T08:29:03Z</time>
      </trkpt>
      <trkpt lat="44.46192" lon="2.42788">
        <ele>569.7</ele>
        <time>2013-01-20T08:29:04Z</time>
      </trkpt>
      <trkpt lat="44.46188" lon="2.42788">
        <ele>569.9</ele>
        <time>2013-01-20T08:29:05Z</time>
      </trkpt>
      <trkpt lat="44.46184" lon="2.42787">
        <ele>569.7</ele>
        <time>2013-01-20T08:29:06Z</time>
      </trkpt>
      <trkpt lat="44.4618" lon="2.42786">
        <ele>569.5</ele>
        <time>2013-01-20T08:29:07Z</time>
      </trkpt>
      <trkpt lat="44.46177" lon="2.42785">
        <ele>569.4</ele>
        <time>2013-01-20T08:29:08Z</time>
      </trkpt>
      <trkpt lat="44.46173" lon="2.42784">
        <ele>569.3</ele>
        <time>2013-01-20T08:29:09Z</time>
      </trkpt>
      <trkpt lat="44.46169" lon="2.42784">
        <ele>569.3</ele>
        <time>2013-01-20T08:29:10Z</time>
      </trkpt>
      <trkpt lat="44.46165" lon="2.42783">
        <ele>569.2</ele>
        <time>2013-01-20T08:29:11Z</time>
      </trkpt>
      <trkpt lat="44.46161" lon="2.42782">
        <ele>569.6</ele>
        <time>2013-01-20T08:29:12Z</time>
      </trkpt>
      <trkpt lat="44.46157" lon="2.42781">
        <ele>569.8</ele>
        <time>2013-01-20T08:29:13Z</time>
      </trkpt>
      <trkpt lat="44.46153" lon="2.4278">
        <ele>570</ele>
        <time>2013-01-20T08:29:14Z</time>
      </trkpt>
      <trkpt lat="44.46149" lon="2.4278">
        <ele>570.4</ele>
        <time>2013-01-20T08:29:15Z</time>
      </trkpt>
      <trkpt lat="44.46146" lon="2.42779">
        <ele>570.7</ele>
        <time>2013-01-20T08:29:16Z</time>
      </trkpt>
      <trkpt lat="44.46142" lon="2.42778">
        <ele>570.9</ele>
        <time>2013-01-20T08:29:17Z</time>
      </trkpt>
      <trkpt lat="44.46139" lon="2.42777">
        <ele>571</ele>
        <time>2013-01-20T08:29:18Z</time>
      </trkpt>
      <trkpt lat="44.46135" lon="2.42777">
        <ele>571</ele>
        <time>2013-01-20T08:29:19Z</time>
      </trkpt>
      <trkpt lat="44.46132" lon="2.42776">
        <ele>571</ele>
        <time>2013-01-20T08:29:20Z</time>
      </trkpt>
      <trkpt lat="44.46128" lon="2.42775">
        <ele>571</ele>
        <time>2013-01-20T08:29:21Z</time>
      </trkpt>
      <trkpt lat="44.46125" lon="2.42775">
        <ele>570.4</ele>
        <time>2013-01-20T08:29:22Z</time>
      </trkpt>
      <trkpt lat="44.46121" lon="2.42774">
        <ele>570</ele>
        <time>2013-01-20T08:29:23Z</time>
      </trkpt>
      <trkpt lat="44.46118" lon="2.42774">
        <ele>569.7</ele>
        <time>2013-01-20T08:29:24Z</time>
      </trkpt>
      <trkpt lat="44.46114" lon="2.42773">
        <ele>570.5</ele>
        <time>2013-01-20T08:29:25Z</time>
      </trkpt>
      <trkpt lat="44.46111" lon="2.42773">
        <ele>571</ele>
        <time>2013-01-20T08:29:26Z</time>
      </trkpt>
      <trkpt lat="44.46108" lon="2.42772">
        <ele>571.4</ele>
        <time>2013-01-20T08:29:27Z</time>
      </trkpt>
      <trkpt lat="44.46105" lon="2.42772">
        <ele>571.9</ele>
        <time>2013-01-20T08:29:28Z</time>
      </trkpt>
      <trkpt lat="44.46102" lon="2.42771">
        <ele>572.3</ele>
        <time>2013-01-20T08:29:29Z</time>
      </trkpt>
      <trkpt lat="44.46098" lon="2.42771">
        <ele>572.6</ele>
        <time>2013-01-20T08:29:30Z</time>
      </trkpt>
      <trkpt lat="44.46095" lon="2.4277">
        <ele>572.8</ele>
        <time>2013-01-20T08:29:31Z</time>
      </trkpt>
      <trkpt lat="44.46092" lon="2.42769">
        <ele>572.9</ele>
        <time>2013-01-20T08:29:32Z</time>
      </trkpt>
      <trkpt lat="44.46089" lon="2.42768">
        <ele>573</ele>
        <time>2013-01-20T08:29:33Z</time>
      </trkpt>
      <trkpt lat="44.46086" lon="2.42767">
        <ele>573</ele>
        <time>2013-01-20T08:29:34Z</time>
      </trkpt>
      <trkpt lat="44.46082" lon="2.42767">
        <ele>572.9</ele>
        <time>2013-01-20T08:29:35Z</time>
      </trkpt>
      <trkpt lat="44.46079" lon="2.42766">
        <ele>572.8</ele>
        <time>2013-01-20T08:29:36Z</time>
      </trkpt>
      <trkpt lat="44.46076" lon="2.42765">
        <ele>572.7</ele>
        <time>2013-01-20T08:29:37Z</time>
      </trkpt>
      <trkpt lat="44.46073" lon="2.42764">
        <ele>573</ele>
        <time>2013-01-20T08:29:38Z</time>
      </trkpt>
      <trkpt lat="44.4607" lon="2.42763">
        <ele>573.2</ele>
        <time>2013-01-20T08:29:39Z</time>
      </trkpt>
      <trkpt lat="44.46067" lon="2.42762">
        <ele>573.4</ele>
        <time>2013-01-20T08:29:40Z</time>
      </trkpt>
      <trkpt lat="44.46064" lon="2.42761">
        <ele>573.8</ele>
        <time>2013-01-20T08:29:41Z</time>
      </trkpt>
      <trkpt lat="44.46061" lon="2.4276">
        <ele>574.1</ele>
        <time>2013-01-20T08:29:42Z</time>
      </trkpt>
      <trkpt lat="44.46058" lon="2.42758">
        <ele>574.4</ele>
        <time>2013-01-20T08:29:43Z</time>
      </trkpt>
      <trkpt lat="44.46054" lon="2.42757">
        <ele>574.2</ele>
        <time>2013-01-20T08:29:44Z</time>
      </trkpt>
      <trkpt lat="44.46051" lon="2.42756">
        <ele>574.1</ele>
        <time>2013-01-20T08:29:45Z</time>
      </trkpt>
      <trkpt lat="44.46048" lon="2.42755">
        <ele>574</ele>
        <time>2013-01-20T08:29:46Z</time>
      </trkpt>
      <trkpt lat="44.46045" lon="2.42753">
        <ele>574.4</ele>
        <time>2013-01-20T08:29:47Z</time>
      </trkpt>
      <trkpt lat="44.46042" lon="2.42752">
        <ele>574.7</ele>
        <time>2013-01-20T08:29:48Z</time>
      </trkpt>
      <trkpt lat="44.46039" lon="2.42751">
        <ele>574.9</ele>
        <time>2013-01-20T08:29:49Z</time>
      </trkpt>
      <trkpt lat="44.46036" lon="2.42749">
        <ele>574.9</ele>
        <time>2013-01-20T08:29:50Z</time>
      </trkpt>
      <trkpt lat="44.46033" lon="2.42748">
        <ele>575</ele>
        <time>2013-01-20T08:29:51Z</time>
      </trkpt>
      <trkpt lat="44.4603" lon="2.42746">
        <ele>575</ele>
        <time>2013-01-20T08:29:52Z</time>
      </trkpt>
      <trkpt lat="44.46027" lon="2.42745">
        <ele>575</ele>
        <time>2013-01-20T08:29:53Z</time>
      </trkpt>
      <trkpt lat="44.46024" lon="2.42744">
        <ele>575.4</ele>
        <time>2013-01-20T08:29:54Z</time>
      </trkpt>
      <trkpt lat="44.46021" lon="2.42743">
        <ele>575.6</ele>
        <time>2013-01-20T08:29:55Z</time>
      </trkpt>
      <trkpt lat="44.46018" lon="2.42741">
        <ele>575.8</ele>
        <time>2013-01-20T08:29:56Z</time>
      </trkpt>
      <trkpt lat="44.46015" lon="2.4274">
        <ele>576</ele>
        <time>2013-01-20T08:29:57Z</time>
      </trkpt>
      <trkpt lat="44.46012" lon="2.42739">
        <ele>576.2</ele>
        <time>2013-01-20T08:29:58Z</time>
      </trkpt>
      <trkpt lat="44.46009" lon="2.42738">
        <ele>576.3</ele>
        <time>2013-01-20T08:29:59Z</time>
      </trkpt>
      <trkpt lat="44.46006" lon="2.42736">
        <ele>576.4</ele>
        <time>2013-01-20T08:30:00Z</time>
      </trkpt>
      <trkpt lat="44.46003" lon="2.42735">
        <ele>576.5</ele>
        <time>2013-01-20T08:30:01Z</time>
      </trkpt>
      <trkpt lat="44.46" lon="2.42734">
        <ele>576.6</ele>
        <time>2013-01-20T08:30:02Z</time>
      </trkpt>
      <trkpt lat="44.45997" lon="2.42733">
        <ele>576.2</ele>
        <time>2013-01-20T08:30:03Z</time>
      </trkpt>
      <trkpt lat="44.45994" lon="2.42732">
        <ele>575.9</ele>
        <time>2013-01-20T08:30:04Z</time>
      </trkpt>
      <trkpt lat="44.45991" lon="2.42731">
        <ele>575.7</ele>
        <time>2013-01-20T08:30:05Z</time>
      </trkpt>
      <trkpt lat="44.45988" lon="2.4273">
        <ele>575.9</ele>
        <time>2013-01-20T08:30:06Z</time>
      </trkpt>
      <trkpt lat="44.45986" lon="2.42729">
        <ele>576.1</ele>
        <time>2013-01-20T08:30:07Z</time>
      </trkpt>
      <trkpt lat="44.45983" lon="2.42728">
        <ele>576.2</ele>
        <time>2013-01-20T08:30:08Z</time>
      </trkpt>
      <trkpt lat="44.4598" lon="2.42726">
        <ele>576.2</ele>
        <time>2013-01-20T08:30:09Z</time>
      </trkpt>
      <trkpt lat="44.45977" lon="2.42725">
        <ele>576.7</ele>
        <time>2013-01-20T08:30:10Z</time>
      </trkpt>
      <trkpt lat="44.45975" lon="2.42724">
        <ele>577.1</ele>
        <time>2013-01-20T08:30:11Z</time>
      </trkpt>
      <trkpt lat="44.45972" lon="2.42723">
        <ele>577.4</ele>
        <time>2013-01-20T08:30:12Z</time>
      </trkpt>
      <trkpt lat="44.45969" lon="2.42722">
        <ele>577.6</ele>
        <time>2013-01-20T08:30:13Z</time>
      </trkpt>
      <trkpt lat="44.45966" lon="2.42721">
        <ele>577.8</ele>
        <time>2013-01-20T08:30:14Z</time>
      </trkpt>
      <trkpt lat="44.45963" lon="2.42719">
        <ele>577.9</ele>
        <time>2013-01-20T08:30:15Z</time>
      </trkpt>
      <trkpt lat="44.4596" lon="2.42718">
        <ele>578.3</ele>
        <time>2013-01-20T08:30:16Z</time>
      </trkpt>
      <trkpt lat="44.45957" lon="2.42717">
        <ele>578.6</ele>
        <time>2013-01-20T08:30:17Z</time>
      </trkpt>
      <trkpt lat="44.45954" lon="2.42716">
        <ele>578.9</ele>
        <time>2013-01-20T08:30:18Z</time>
      </trkpt>
      <trkpt lat="44.45951" lon="2.42714">
        <ele>578.9</ele>
        <time>2013-01-20T08:30:19Z</time>
      </trkpt>
      <trkpt lat="44.45948" lon="2.42713">
        <ele>578.9</ele>
        <time>2013-01-20T08:30:20Z</time>
      </trkpt>
      <trkpt lat="44.45945" lon="2.42712">
        <ele>578.9</ele>
        <time>2013-01-20T08:30:21Z</time>
      </trkpt>
      <trkpt lat="44.45942" lon="2.42711">
        <ele>578.9</ele>
        <time>2013-01-20T08:30:22Z</time>
      </trkpt>
      <trkpt lat="44.45939" lon="2.42709">
        <ele>578.8</ele>
        <time>2013-01-20T08:30:23Z</time>
      </trkpt>
      <trkpt lat="44.45936" lon="2.42708">
        <ele>578.8</ele>
        <time>2013-01-20T08:30:24Z</time>
      </trkpt>
      <trkpt lat="44.45933" lon="2.42707">
        <ele>578.8</ele>
        <time>2013-01-20T08:30:25Z</time>
      </trkpt>
      <trkpt lat="44.4593" lon="2.42705">
        <ele>579</ele>
        <time>2013-01-20T08:30:26Z</time>
      </trkpt>
      <trkpt lat="44.45927" lon="2.42704">
        <ele>579.1</ele>
        <time>2013-01-20T08:30:27Z</time>
      </trkpt>
      <trkpt lat="44.45925" lon="2.42703">
        <ele>579.2</ele>
        <time>2013-01-20T08:30:28Z</time>
      </trkpt>
      <trkpt lat="44.45922" lon="2.42702">
        <ele>579.3</ele>
        <time>2013-01-20T08:30:29Z</time>
      </trkpt>
      <trkpt lat="44.45919" lon="2.42701">
        <ele>579.4</ele>
        <time>2013-01-20T08:30:30Z</time>
      </trkpt>
      <trkpt lat="44.45915" lon="2.427">
        <ele>579.4</ele>
        <time>2013-01-20T08:30:31Z</time>
      </trkpt>
      <trkpt lat="44.45912" lon="2.42699">
        <ele>579.4</ele>
        <time>2013-01-20T08:30:32Z</time>
      </trkpt>
      <trkpt lat="44.4591" lon="2.42697">
        <ele>579.5</ele>
        <time>2013-01-20T08:30:33Z</time>
      </trkpt>
      <trkpt lat="44.45906" lon="2.42696">
        <ele>579.5</ele>
        <time>2013-01-20T08:30:34Z</time>
      </trkpt>
      <trkpt lat="44.45903" lon="2.42695">
        <ele>579.9</ele>
        <time>2013-01-20T08:30:35Z</time>
      </trkpt>
      <trkpt lat="44.459" lon="2.42693">
        <ele>580.2</ele>
        <time>2013-01-20T08:30:36Z</time>
      </trkpt>
      <trkpt lat="44.45897" lon="2.42692">
        <ele>580.4</ele>
        <time>2013-01-20T08:30:37Z</time>
      </trkpt>
      <trkpt lat="44.45894" lon="2.42691">
        <ele>580.6</ele>
        <time>2013-01-20T08:30:38Z</time>
      </trkpt>
      <trkpt lat="44.45891" lon="2.4269">
        <ele>580.8</ele>
        <time>2013-01-20T08:30:39Z</time>
      </trkpt>
      <trkpt lat="44.45888" lon="2.42688">
        <ele>580.9</ele>
        <time>2013-01-20T08:30:40Z</time>
      </trkpt>
      <trkpt lat="44.45885" lon="2.42687">
        <ele>581</ele>
        <time>2013-01-20T08:30:41Z</time>
      </trkpt>
      <trkpt lat="44.45883" lon="2.42686">
        <ele>581.3</ele>
        <time>2013-01-20T08:30:42Z</time>
      </trkpt>
      <trkpt lat="44.4588" lon="2.42684">
        <ele>581.6</ele>
        <time>2013-01-20T08:30:43Z</time>
      </trkpt>
      <trkpt lat="44.45877" lon="2.42683">
        <ele>581.7</ele>
        <time>2013-01-20T08:30:44Z</time>
      </trkpt>
      <trkpt lat="44.45874" lon="2.42681">
        <ele>581.9</ele>
        <time>2013-01-20T08:30:45Z</time>
      </trkpt>
      <trkpt lat="44.45871" lon="2.42679">
        <ele>582</ele>
        <time>2013-01-20T08:30:46Z</time>
      </trkpt>
      <trkpt lat="44.45868" lon="2.42678">
        <ele>582.1</ele>
        <time>2013-01-20T08:30:47Z</time>
      </trkpt>
      <trkpt lat="44.45865" lon="2.42676">
        <ele>582.4</ele>
        <time>2013-01-20T08:30:48Z</time>
      </trkpt>
      <trkpt lat="44.45863" lon="2.42674">
        <ele>582.7</ele>
        <time>2013-01-20T08:30:49Z</time>
      </trkpt>
      <trkpt lat="44.4586" lon="2.42673">
        <ele>582.8</ele>
        <time>2013-01-20T08:30:50Z</time>
      </trkpt>
      <trkpt lat="44.45857" lon="2.42671">
        <ele>582.7</ele>
        <time>2013-01-20T08:30:51Z</time>
      </trkpt>
      <trkpt lat="44.45854" lon="2.42669">
        <ele>582.6</ele>
        <time>2013-01-20T08:30:52Z</time>
      </trkpt>
      <trkpt lat="44.45852" lon="2.42667">
        <ele>582.5</ele>
        <time>2013-01-20T08:30:53Z</time>
      </trkpt>
      <trkpt lat="44.45849" lon="2.42666">
        <ele>582.4</ele>
        <time>2013-01-20T08:30:54Z</time>
      </trkpt>
      <trkpt lat="44.45846" lon="2.42664">
        <ele>582.3</ele>
        <time>2013-01-20T08:30:55Z</time>
      </trkpt>
      <trkpt lat="44.45843" lon="2.42663">
        <ele>582.3</ele>
        <time>2013-01-20T08:30:56Z</time>
      </trkpt>
      <trkpt lat="44.45841" lon="2.42661">
        <ele>582.2</ele>
        <time>2013-01-20T08:30:57Z</time>
      </trkpt>
      <trkpt lat="44.45838" lon="2.4266">
        <ele>582.5</ele>
        <time>2013-01-20T08:30:58Z</time>
      </trkpt>
      <trkpt lat="44.45836" lon="2.42658">
        <ele>582.7</ele>
        <time>2013-01-20T08:30:59Z</time>
      </trkpt>
      <trkpt lat="44.45833" lon="2.42656">
        <ele>582.9</ele>
        <time>2013-01-20T08:31:00Z</time>
      </trkpt>
      <trkpt lat="44.4583" lon="2.42654">
        <ele>583</ele>
        <time>2013-01-20T08:31:01Z</time>
      </trkpt>
      <trkpt lat="44.45827" lon="2.42653">
        <ele>583</ele>
        <time>2013-01-20T08:31:02Z</time>
      </trkpt>
      <trkpt lat="44.45824" lon="2.42652">
        <ele>583</ele>
        <time>2013-01-20T08:31:03Z</time>
      </trkpt>
      <trkpt lat="44.45822" lon="2.42651">
        <ele>583.1</ele>
        <time>2013-01-20T08:31:04Z</time>
      </trkpt>
      <trkpt lat="44.45819" lon="2.4265">
        <ele>583.2</ele>
        <time>2013-01-20T08:31:05Z</time>
      </trkpt>
      <trkpt lat="44.45817" lon="2.42649">
        <ele>583.2</ele>
        <time>2013-01-20T08:31:06Z</time>
      </trkpt>
      <trkpt lat="44.45814" lon="2.42648">
        <ele>583.2</ele>
        <time>2013-01-20T08:31:07Z</time>
      </trkpt>
      <trkpt lat="44.45811" lon="2.42647">
        <ele>583.1</ele>
        <time>2013-01-20T08:31:08Z</time>
      </trkpt>
      <trkpt lat="44.45808" lon="2.42647">
        <ele>583.1</ele>
        <time>2013-01-20T08:31:09Z</time>
      </trkpt>
      <trkpt lat="44.45806" lon="2.42646">
        <ele>583.5</ele>
        <time>2013-01-20T08:31:10Z</time>
      </trkpt>
      <trkpt lat="44.45803" lon="2.42645">
        <ele>583.8</ele>
        <time>2013-01-20T08:31:11Z</time>
      </trkpt>
      <trkpt lat="44.458" lon="2.42644">
        <ele>584</ele>
        <time>2013-01-20T08:31:12Z</time>
      </trkpt>
      <trkpt lat="44.45797" lon="2.42643">
        <ele>584.1</ele>
        <time>2013-01-20T08:31:13Z</time>
      </trkpt>
      <trkpt lat="44.45794" lon="2.42642">
        <ele>583.8</ele>
        <time>2013-01-20T08:31:14Z</time>
      </trkpt>
      <trkpt lat="44.45791" lon="2.42641">
        <ele>583.6</ele>
        <time>2013-01-20T08:31:15Z</time>
      </trkpt>
      <trkpt lat="44.45788" lon="2.4264">
        <ele>583.5</ele>
        <time>2013-01-20T08:31:16Z</time>
      </trkpt>
      <trkpt lat="44.45785" lon="2.42639">
        <ele>583.3</ele>
        <time>2013-01-20T08:31:17Z</time>
      </trkpt>
      <trkpt lat="44.45783" lon="2.42638">
        <ele>583.2</ele>
        <time>2013-01-20T08:31:18Z</time>
      </trkpt>
      <trkpt lat="44.45778" lon="2.42637">
        <ele>583.7</ele>
        <time>2013-01-20T08:31:20Z</time>
      </trkpt>
      <trkpt lat="44.45775" lon="2.42636">
        <ele>584.4</ele>
        <time>2013-01-20T08:31:22Z</time>
      </trkpt>
      <trkpt lat="44.45771" lon="2.42634">
        <ele>584.3</ele>
        <time>2013-01-20T08:31:25Z</time>
      </trkpt>
      <trkpt lat="44.45768" lon="2.42633">
        <ele>584.3</ele>
        <time>2013-01-20T08:31:27Z</time>
      </trkpt>
      <trkpt lat="44.45766" lon="2.42632">
        <ele>584.3</ele>
        <time>2013-01-20T08:31:28Z</time>
      </trkpt>
      <trkpt lat="44.45763" lon="2.42631">
        <ele>584.3</ele>
        <time>2013-01-20T08:31:29Z</time>
      </trkpt>
      <trkpt lat="44.45761" lon="2.4263">
        <ele>584.4</ele>
        <time>2013-01-20T08:31:30Z</time>
      </trkpt>
      <trkpt lat="44.45758" lon="2.42629">
        <ele>584.5</ele>
        <time>2013-01-20T08:31:31Z</time>
      </trkpt>
      <trkpt lat="44.45756" lon="2.42628">
        <ele>584.5</ele>
        <time>2013-01-20T08:31:32Z</time>
      </trkpt>
      <trkpt lat="44.45753" lon="2.42627">
        <ele>584.8</ele>
        <time>2013-01-20T08:31:33Z</time>
      </trkpt>
      <trkpt lat="44.4575" lon="2.42626">
        <ele>585.1</ele>
        <time>2013-01-20T08:31:34Z</time>
      </trkpt>
      <trkpt lat="44.45748" lon="2.42626">
        <ele>585.3</ele>
        <time>2013-01-20T08:31:35Z</time>
      </trkpt>
      <trkpt lat="44.45744" lon="2.42629">
        <ele>584.9</ele>
        <time>2013-01-20T08:31:37Z</time>
      </trkpt>
      <trkpt lat="44.45742" lon="2.42634">
        <ele>584.9</ele>
        <time>2013-01-20T08:31:39Z</time>
      </trkpt>
      <trkpt lat="44.4574" lon="2.42638">
        <ele>585.2</ele>
        <time>2013-01-20T08:31:41Z</time>
      </trkpt>
      <trkpt lat="44.45737" lon="2.42643">
        <ele>585.1</ele>
        <time>2013-01-20T08:31:43Z</time>
      </trkpt>
      <trkpt lat="44.45735" lon="2.42647">
        <ele>585.4</ele>
        <time>2013-01-20T08:31:45Z</time>
      </trkpt>
      <trkpt lat="44.45734" lon="2.42649">
        <ele>585.6</ele>
        <time>2013-01-20T08:31:46Z</time>
      </trkpt>
      <trkpt lat="44.4573" lon="2.42654">
        <ele>586.1</ele>
        <time>2013-01-20T08:31:49Z</time>
      </trkpt>
      <trkpt lat="44.45729" lon="2.4266">
        <ele>586.2</ele>
        <time>2013-01-20T08:31:51Z</time>
      </trkpt>
      <trkpt lat="44.45728" lon="2.42665">
        <ele>587</ele>
        <time>2013-01-20T08:31:53Z</time>
      </trkpt>
      <trkpt lat="44.45726" lon="2.42669">
        <ele>587.5</ele>
        <time>2013-01-20T08:31:55Z</time>
      </trkpt>
      <trkpt lat="44.45725" lon="2.42673">
        <ele>587.9</ele>
        <time>2013-01-20T08:31:57Z</time>
      </trkpt>
      <trkpt lat="44.45724" lon="2.42678">
        <ele>588.3</ele>
        <time>2013-01-20T08:31:59Z</time>
      </trkpt>
      <trkpt lat="44.45722" lon="2.42682">
        <ele>588.8</ele>
        <time>2013-01-20T08:32:01Z</time>
      </trkpt>
      <trkpt lat="44.45721" lon="2.42686">
        <ele>589.3</ele>
        <time>2013-01-20T08:32:03Z</time>
      </trkpt>
      <trkpt lat="44.45719" lon="2.42691">
        <ele>589.6</ele>
        <time>2013-01-20T08:32:05Z</time>
      </trkpt>
      <trkpt lat="44.45718" lon="2.42695">
        <ele>589.9</ele>
        <time>2013-01-20T08:32:07Z</time>
      </trkpt>
      <trkpt lat="44.45716" lon="2.427">
        <ele>589.9</ele>
        <time>2013-01-20T08:32:09Z</time>
      </trkpt>
      <trkpt lat="44.45715" lon="2.42704">
        <ele>590.4</ele>
        <time>2013-01-20T08:32:11Z</time>
      </trkpt>
      <trkpt lat="44.45714" lon="2.42709">
        <ele>591</ele>
        <time>2013-01-20T08:32:13Z</time>
      </trkpt>
      <trkpt lat="44.45713" lon="2.42714">
        <ele>591.5</ele>
        <time>2013-01-20T08:32:15Z</time>
      </trkpt>
      <trkpt lat="44.45711" lon="2.42719">
        <ele>592</ele>
        <time>2013-01-20T08:32:17Z</time>
      </trkpt>
      <trkpt lat="44.4571" lon="2.42723">
        <ele>592.4</ele>
        <time>2013-01-20T08:32:19Z</time>
      </trkpt>
      <trkpt lat="44.45709" lon="2.42728">
        <ele>593.1</ele>
        <time>2013-01-20T08:32:21Z</time>
      </trkpt>
      <trkpt lat="44.45707" lon="2.42733">
        <ele>593.6</ele>
        <time>2013-01-20T08:32:23Z</time>
      </trkpt>
      <trkpt lat="44.45705" lon="2.42737">
        <ele>593.5</ele>
        <time>2013-01-20T08:32:25Z</time>
      </trkpt>
      <trkpt lat="44.45704" lon="2.42741">
        <ele>593.8</ele>
        <time>2013-01-20T08:32:27Z</time>
      </trkpt>
      <trkpt lat="44.45702" lon="2.42746">
        <ele>594.3</ele>
        <time>2013-01-20T08:32:29Z</time>
      </trkpt>
      <trkpt lat="44.45699" lon="2.4275">
        <ele>594.5</ele>
        <time>2013-01-20T08:32:31Z</time>
      </trkpt>
      <trkpt lat="44.45696" lon="2.42754">
        <ele>595.2</ele>
        <time>2013-01-20T08:32:33Z</time>
      </trkpt>
      <trkpt lat="44.45694" lon="2.42758">
        <ele>596.1</ele>
        <time>2013-01-20T08:32:35Z</time>
      </trkpt>
      <trkpt lat="44.45693" lon="2.42763">
        <ele>596.3</ele>
        <time>2013-01-20T08:32:37Z</time>
      </trkpt>
      <trkpt lat="44.45692" lon="2.42767">
        <ele>596.3</ele>
        <time>2013-01-20T08:32:39Z</time>
      </trkpt>
      <trkpt lat="44.4569" lon="2.42771">
        <ele>597.2</ele>
        <time>2013-01-20T08:32:41Z</time>
      </trkpt>
      <trkpt lat="44.45689" lon="2.42775">
        <ele>597.8</ele>
        <time>2013-01-20T08:32:43Z</time>
      </trkpt>
      <trkpt lat="44.45687" lon="2.42779">
        <ele>598.3</ele>
        <time>2013-01-20T08:32:45Z</time>
      </trkpt>
      <trkpt lat="44.45686" lon="2.42784">
        <ele>598.9</ele>
        <time>2013-01-20T08:32:47Z</time>
      </trkpt>
      <trkpt lat="44.45685" lon="2.42786">
        <ele>599.1</ele>
        <time>2013-01-20T08:32:48Z</time>
      </trkpt>
      <trkpt lat="44.45682" lon="2.42793">
        <ele>599</ele>
        <time>2013-01-20T08:32:51Z</time>
      </trkpt>
      <trkpt lat="44.4568" lon="2.42797">
        <ele>599.3</ele>
        <time>2013-01-20T08:32:53Z</time>
      </trkpt>
      <trkpt lat="44.45678" lon="2.42802">
        <ele>599.5</ele>
        <time>2013-01-20T08:32:55Z</time>
      </trkpt>
      <trkpt lat="44.45676" lon="2.42806">
        <ele>599.6</ele>
        <time>2013-01-20T08:32:57Z</time>
      </trkpt>
      <trkpt lat="44.45674" lon="2.4281">
        <ele>599.7</ele>
        <time>2013-01-20T08:32:59Z</time>
      </trkpt>
      <trkpt lat="44.45671" lon="2.42814">
        <ele>599.8</ele>
        <time>2013-01-20T08:33:01Z</time>
      </trkpt>
      <trkpt lat="44.45669" lon="2.42818">
        <ele>601.3</ele>
        <time>2013-01-20T08:33:03Z</time>
      </trkpt>
      <trkpt lat="44.45666" lon="2.42821">
        <ele>602.4</ele>
        <time>2013-01-20T08:33:05Z</time>
      </trkpt>
      <trkpt lat="44.45663" lon="2.42824">
        <ele>603.1</ele>
        <time>2013-01-20T08:33:07Z</time>
      </trkpt>
      <trkpt lat="44.4566" lon="2.42827">
        <ele>603.1</ele>
        <time>2013-01-20T08:33:09Z</time>
      </trkpt>
      <trkpt lat="44.45657" lon="2.42829">
        <ele>603</ele>
        <time>2013-01-20T08:33:11Z</time>
      </trkpt>
      <trkpt lat="44.45654" lon="2.42831">
        <ele>604.1</ele>
        <time>2013-01-20T08:33:13Z</time>
      </trkpt>
      <trkpt lat="44.45651" lon="2.42834">
        <ele>604.7</ele>
        <time>2013-01-20T08:33:15Z</time>
      </trkpt>
      <trkpt lat="44.45648" lon="2.42838">
        <ele>605.1</ele>
        <time>2013-01-20T08:33:17Z</time>
      </trkpt>
      <trkpt lat="44.45647" lon="2.42843">
        <ele>605.6</ele>
        <time>2013-01-20T08:33:19Z</time>
      </trkpt>
      <trkpt lat="44.45648" lon="2.42848">
        <ele>606.1</ele>
        <time>2013-01-20T08:33:21Z</time>
      </trkpt>
      <trkpt lat="44.4565" lon="2.42851">
        <ele>606.5</ele>
        <time>2013-01-20T08:33:23Z</time>
      </trkpt>
      <trkpt lat="44.45653" lon="2.42855">
        <ele>607</ele>
        <time>2013-01-20T08:33:25Z</time>
      </trkpt>
      <trkpt lat="44.45655" lon="2.42859">
        <ele>607.3</ele>
        <time>2013-01-20T08:33:27Z</time>
      </trkpt>
      <trkpt lat="44.45657" lon="2.42863">
        <ele>606.7</ele>
        <time>2013-01-20T08:33:29Z</time>
      </trkpt>
      <trkpt lat="44.4566" lon="2.42868">
        <ele>606.7</ele>
        <time>2013-01-20T08:33:31Z</time>
      </trkpt>
      <trkpt lat="44.45662" lon="2.42872">
        <ele>606.8</ele>
        <time>2013-01-20T08:33:33Z</time>
      </trkpt>
      <trkpt lat="44.45664" lon="2.42877">
        <ele>606.9</ele>
        <time>2013-01-20T08:33:35Z</time>
      </trkpt>
      <trkpt lat="44.45666" lon="2.42882">
        <ele>606.9</ele>
        <time>2013-01-20T08:33:37Z</time>
      </trkpt>
      <trkpt lat="44.45668" lon="2.42886">
        <ele>607</ele>
        <time>2013-01-20T08:33:39Z</time>
      </trkpt>
      <trkpt lat="44.4567" lon="2.42891">
        <ele>608.3</ele>
        <time>2013-01-20T08:33:41Z</time>
      </trkpt>
      <trkpt lat="44.45672" lon="2.42895">
        <ele>609</ele>
        <time>2013-01-20T08:33:43Z</time>
      </trkpt>
      <trkpt lat="44.45674" lon="2.429">
        <ele>609.2</ele>
        <time>2013-01-20T08:33:45Z</time>
      </trkpt>
      <trkpt lat="44.45675" lon="2.42905">
        <ele>609.5</ele>
        <time>2013-01-20T08:33:47Z</time>
      </trkpt>
      <trkpt lat="44.45677" lon="2.42909">
        <ele>609.8</ele>
        <time>2013-01-20T08:33:49Z</time>
      </trkpt>
      <trkpt lat="44.45678" lon="2.42911">
        <ele>610.3</ele>
        <time>2013-01-20T08:33:50Z</time>
      </trkpt>
      <trkpt lat="44.45681" lon="2.42918">
        <ele>611.1</ele>
        <time>2013-01-20T08:33:53Z</time>
      </trkpt>
      <trkpt lat="44.45683" lon="2.42922">
        <ele>611.3</ele>
        <time>2013-01-20T08:33:55Z</time>
      </trkpt>
      <trkpt lat="44.45685" lon="2.42926">
        <ele>611.2</ele>
        <time>2013-01-20T08:33:57Z</time>
      </trkpt>
      <trkpt lat="44.45686" lon="2.4293">
        <ele>611.5</ele>
        <time>2013-01-20T08:33:59Z</time>
      </trkpt>
      <trkpt lat="44.45688" lon="2.42935">
        <ele>612.1</ele>
        <time>2013-01-20T08:34:01Z</time>
      </trkpt>
      <trkpt lat="44.45691" lon="2.42939">
        <ele>612.5</ele>
        <time>2013-01-20T08:34:03Z</time>
      </trkpt>
      <trkpt lat="44.45693" lon="2.42943">
        <ele>612.7</ele>
        <time>2013-01-20T08:34:05Z</time>
      </trkpt>
      <trkpt lat="44.45695" lon="2.42946">
        <ele>613.2</ele>
        <time>2013-01-20T08:34:07Z</time>
      </trkpt>
      <trkpt lat="44.45697" lon="2.4295">
        <ele>613.3</ele>
        <time>2013-01-20T08:34:09Z</time>
      </trkpt>
      <trkpt lat="44.457" lon="2.42954">
        <ele>613.2</ele>
        <time>2013-01-20T08:34:11Z</time>
      </trkpt>
      <trkpt lat="44.45702" lon="2.42957">
        <ele>614</ele>
        <time>2013-01-20T08:34:13Z</time>
      </trkpt>
      <trkpt lat="44.45705" lon="2.42961">
        <ele>614.6</ele>
        <time>2013-01-20T08:34:15Z</time>
      </trkpt>
      <trkpt lat="44.45707" lon="2.42965">
        <ele>615</ele>
        <time>2013-01-20T08:34:17Z</time>
      </trkpt>
      <trkpt lat="44.4571" lon="2.42968">
        <ele>615.3</ele>
        <time>2013-01-20T08:34:19Z</time>
      </trkpt>
      <trkpt lat="44.45712" lon="2.42972">
        <ele>615.4</ele>
        <time>2013-01-20T08:34:21Z</time>
      </trkpt>
      <trkpt lat="44.45715" lon="2.42975">
        <ele>615.6</ele>
        <time>2013-01-20T08:34:23Z</time>
      </trkpt>
      <trkpt lat="44.45718" lon="2.42979">
        <ele>616.3</ele>
        <time>2013-01-20T08:34:25Z</time>
      </trkpt>
      <trkpt lat="44.45721" lon="2.42982">
        <ele>617.2</ele>
        <time>2013-01-20T08:34:27Z</time>
      </trkpt>
      <trkpt lat="44.45724" lon="2.42985">
        <ele>616.8</ele>
        <time>2013-01-20T08:34:29Z</time>
      </trkpt>
      <trkpt lat="44.45726" lon="2.42988">
        <ele>617</ele>
        <time>2013-01-20T08:34:31Z</time>
      </trkpt>
      <trkpt lat="44.45729" lon="2.42991">
        <ele>617.5</ele>
        <time>2013-01-20T08:34:33Z</time>
      </trkpt>
      <trkpt lat="44.45732" lon="2.42994">
        <ele>617.9</ele>
        <time>2013-01-20T08:34:35Z</time>
      </trkpt>
      <trkpt lat="44.45735" lon="2.42997">
        <ele>618.3</ele>
        <time>2013-01-20T08:34:37Z</time>
      </trkpt>
      <trkpt lat="44.45738" lon="2.43">
        <ele>619.2</ele>
        <time>2013-01-20T08:34:39Z</time>
      </trkpt>
      <trkpt lat="44.45741" lon="2.43004">
        <ele>619.8</ele>
        <time>2013-01-20T08:34:41Z</time>
      </trkpt>
      <trkpt lat="44.45744" lon="2.43007">
        <ele>620.3</ele>
        <time>2013-01-20T08:34:43Z</time>
      </trkpt>
      <trkpt lat="44.45746" lon="2.43011">
        <ele>620.6</ele>
        <time>2013-01-20T08:34:45Z</time>
      </trkpt>
      <trkpt lat="44.45748" lon="2.43016">
        <ele>621</ele>
        <time>2013-01-20T08:34:47Z</time>
      </trkpt>
      <trkpt lat="44.4575" lon="2.43021">
        <ele>621.4</ele>
        <time>2013-01-20T08:34:49Z</time>
      </trkpt>
      <trkpt lat="44.45752" lon="2.43026">
        <ele>621.6</ele>
        <time>2013-01-20T08:34:51Z</time>
      </trkpt>
      <trkpt lat="44.45753" lon="2.43028">
        <ele>621.7</ele>
        <time>2013-01-20T08:34:52Z</time>
      </trkpt>
      <trkpt lat="44.45755" lon="2.43035">
        <ele>622.4</ele>
        <time>2013-01-20T08:34:55Z</time>
      </trkpt>
      <trkpt lat="44.45757" lon="2.4304">
        <ele>622.7</ele>
        <time>2013-01-20T08:34:57Z</time>
      </trkpt>
      <trkpt lat="44.45758" lon="2.43045">
        <ele>622.8</ele>
        <time>2013-01-20T08:34:59Z</time>
      </trkpt>
      <trkpt lat="44.4576" lon="2.43049">
        <ele>623.1</ele>
        <time>2013-01-20T08:35:01Z</time>
      </trkpt>
      <trkpt lat="44.45762" lon="2.43054">
        <ele>623.6</ele>
        <time>2013-01-20T08:35:03Z</time>
      </trkpt>
      <trkpt lat="44.45764" lon="2.43058">
        <ele>624</ele>
        <time>2013-01-20T08:35:05Z</time>
      </trkpt>
      <trkpt lat="44.45767" lon="2.43062">
        <ele>624.1</ele>
        <time>2013-01-20T08:35:07Z</time>
      </trkpt>
      <trkpt lat="44.4577" lon="2.43065">
        <ele>624.1</ele>
        <time>2013-01-20T08:35:09Z</time>
      </trkpt>
      <trkpt lat="44.45774" lon="2.43069">
        <ele>624.2</ele>
        <time>2013-01-20T08:35:11Z</time>
      </trkpt>
      <trkpt lat="44.45777" lon="2.43072">
        <ele>624.2</ele>
        <time>2013-01-20T08:35:13Z</time>
      </trkpt>
      <trkpt lat="44.4578" lon="2.43076">
        <ele>624.2</ele>
        <time>2013-01-20T08:35:15Z</time>
      </trkpt>
      <trkpt lat="44.45783" lon="2.43079">
        <ele>624.8</ele>
        <time>2013-01-20T08:35:17Z</time>
      </trkpt>
      <trkpt lat="44.45787" lon="2.43082">
        <ele>624.9</ele>
        <time>2013-01-20T08:35:19Z</time>
      </trkpt>
      <trkpt lat="44.4579" lon="2.43085">
        <ele>624.9</ele>
        <time>2013-01-20T08:35:21Z</time>
      </trkpt>
      <trkpt lat="44.45794" lon="2.43087">
        <ele>625.2</ele>
        <time>2013-01-20T08:35:23Z</time>
      </trkpt>
      <trkpt lat="44.45798" lon="2.43089">
        <ele>625.4</ele>
        <time>2013-01-20T08:35:25Z</time>
      </trkpt>
      <trkpt lat="44.45801" lon="2.4309">
        <ele>625</ele>
        <time>2013-01-20T08:35:27Z</time>
      </trkpt>
      <trkpt lat="44.45806" lon="2.43091">
        <ele>625.1</ele>
        <time>2013-01-20T08:35:29Z</time>
      </trkpt>
      <trkpt lat="44.45809" lon="2.43091">
        <ele>625.3</ele>
        <time>2013-01-20T08:35:31Z</time>
      </trkpt>
      <trkpt lat="44.45813" lon="2.43091">
        <ele>626.2</ele>
        <time>2013-01-20T08:35:33Z</time>
      </trkpt>
      <trkpt lat="44.45817" lon="2.43092">
        <ele>626.7</ele>
        <time>2013-01-20T08:35:35Z</time>
      </trkpt>
      <trkpt lat="44.4582" lon="2.43092">
        <ele>626.8</ele>
        <time>2013-01-20T08:35:37Z</time>
      </trkpt>
      <trkpt lat="44.45824" lon="2.43094">
        <ele>627.3</ele>
        <time>2013-01-20T08:35:39Z</time>
      </trkpt>
      <trkpt lat="44.45827" lon="2.43095">
        <ele>627.5</ele>
        <time>2013-01-20T08:35:41Z</time>
      </trkpt>
      <trkpt lat="44.45831" lon="2.43097">
        <ele>627.3</ele>
        <time>2013-01-20T08:35:43Z</time>
      </trkpt>
      <trkpt lat="44.45833" lon="2.43101">
        <ele>627.5</ele>
        <time>2013-01-20T08:35:45Z</time>
      </trkpt>
      <trkpt lat="44.45833" lon="2.43107">
        <ele>627.8</ele>
        <time>2013-01-20T08:35:47Z</time>
      </trkpt>
      <trkpt lat="44.45829" lon="2.43109">
        <ele>628.2</ele>
        <time>2013-01-20T08:35:49Z</time>
      </trkpt>
      <trkpt lat="44.45826" lon="2.4311">
        <ele>628.4</ele>
        <time>2013-01-20T08:35:51Z</time>
      </trkpt>
      <trkpt lat="44.45822" lon="2.43109">
        <ele>628.6</ele>
        <time>2013-01-20T08:35:53Z</time>
      </trkpt>
      <trkpt lat="44.4582" lon="2.43109">
        <ele>629.2</ele>
        <time>2013-01-20T08:35:54Z</time>
      </trkpt>
      <trkpt lat="44.45815" lon="2.43109">
        <ele>630.3</ele>
        <time>2013-01-20T08:35:57Z</time>
      </trkpt>
      <trkpt lat="44.45811" lon="2.43109">
        <ele>630.5</ele>
        <time>2013-01-20T08:35:59Z</time>
      </trkpt>
      <trkpt lat="44.45808" lon="2.43109">
        <ele>630.9</ele>
        <time>2013-01-20T08:36:01Z</time>
      </trkpt>
      <trkpt lat="44.45805" lon="2.43109">
        <ele>631.2</ele>
        <time>2013-01-20T08:36:03Z</time>
      </trkpt>
      <trkpt lat="44.45801" lon="2.43109">
        <ele>631.1</ele>
        <time>2013-01-20T08:36:05Z</time>
      </trkpt>
      <trkpt lat="44.45798" lon="2.43108">
        <ele>631.3</ele>
        <time>2013-01-20T08:36:07Z</time>
      </trkpt>
      <trkpt lat="44.45794" lon="2.43108">
        <ele>631.5</ele>
        <time>2013-01-20T08:36:09Z</time>
      </trkpt>
      <trkpt lat="44.45791" lon="2.43107">
        <ele>631.9</ele>
        <time>2013-01-20T08:36:11Z</time>
      </trkpt>
      <trkpt lat="44.45787" lon="2.43107">
        <ele>632.2</ele>
        <time>2013-01-20T08:36:13Z</time>
      </trkpt>
      <trkpt lat="44.45784" lon="2.43107">
        <ele>633</ele>
        <time>2013-01-20T08:36:15Z</time>
      </trkpt>
      <trkpt lat="44.4578" lon="2.43107">
        <ele>633.5</ele>
        <time>2013-01-20T08:36:17Z</time>
      </trkpt>
      <trkpt lat="44.45776" lon="2.43107">
        <ele>633.9</ele>
        <time>2013-01-20T08:36:19Z</time>
      </trkpt>
      <trkpt lat="44.45773" lon="2.43106">
        <ele>634.8</ele>
        <time>2013-01-20T08:36:21Z</time>
      </trkpt>
      <trkpt lat="44.4577" lon="2.43108">
        <ele>635.5</ele>
        <time>2013-01-20T08:36:23Z</time>
      </trkpt>
      <trkpt lat="44.45767" lon="2.43112">
        <ele>636.3</ele>
        <time>2013-01-20T08:36:26Z</time>
      </trkpt>
      <trkpt lat="44.45766" lon="2.43117">
        <ele>636.6</ele>
        <time>2013-01-20T08:36:28Z</time>
      </trkpt>
      <trkpt lat="44.45765" lon="2.43122">
        <ele>636.8</ele>
        <time>2013-01-20T08:36:30Z</time>
      </trkpt>
      <trkpt lat="44.45767" lon="2.43127">
        <ele>636.9</ele>
        <time>2013-01-20T08:36:33Z</time>
      </trkpt>
      <trkpt lat="44.4577" lon="2.4313">
        <ele>636.9</ele>
        <time>2013-01-20T08:36:36Z</time>
      </trkpt>
      <trkpt lat="44.45773" lon="2.43132">
        <ele>637.1</ele>
        <time>2013-01-20T08:36:38Z</time>
      </trkpt>
      <trkpt lat="44.45776" lon="2.43132">
        <ele>637.4</ele>
        <time>2013-01-20T08:36:40Z</time>
      </trkpt>
      <trkpt lat="44.45779" lon="2.43133">
        <ele>637.9</ele>
        <time>2013-01-20T08:36:42Z</time>
      </trkpt>
      <trkpt lat="44.45783" lon="2.43134">
        <ele>638.4</ele>
        <time>2013-01-20T08:36:44Z</time>
      </trkpt>
      <trkpt lat="44.45786" lon="2.43136">
        <ele>638.3</ele>
        <time>2013-01-20T08:36:46Z</time>
      </trkpt>
      <trkpt lat="44.4579" lon="2.43138">
        <ele>638.3</ele>
        <time>2013-01-20T08:36:48Z</time>
      </trkpt>
      <trkpt lat="44.45793" lon="2.43139">
        <ele>638.4</ele>
        <time>2013-01-20T08:36:50Z</time>
      </trkpt>
      <trkpt lat="44.45796" lon="2.43141">
        <ele>638.9</ele>
        <time>2013-01-20T08:36:52Z</time>
      </trkpt>
      <trkpt lat="44.458" lon="2.43142">
        <ele>639.5</ele>
        <time>2013-01-20T08:36:54Z</time>
      </trkpt>
      <trkpt lat="44.45802" lon="2.43143">
        <ele>639.6</ele>
        <time>2013-01-20T08:36:55Z</time>
      </trkpt>
      <trkpt lat="44.45807" lon="2.43146">
        <ele>640.2</ele>
        <time>2013-01-20T08:36:58Z</time>
      </trkpt>
      <trkpt lat="44.4581" lon="2.43147">
        <ele>640.8</ele>
        <time>2013-01-20T08:37:00Z</time>
      </trkpt>
      <trkpt lat="44.45814" lon="2.43149">
        <ele>641.1</ele>
        <time>2013-01-20T08:37:02Z</time>
      </trkpt>
      <trkpt lat="44.45817" lon="2.43151">
        <ele>641.2</ele>
        <time>2013-01-20T08:37:04Z</time>
      </trkpt>
      <trkpt lat="44.45821" lon="2.43152">
        <ele>642</ele>
        <time>2013-01-20T08:37:06Z</time>
      </trkpt>
      <trkpt lat="44.45824" lon="2.43154">
        <ele>642</ele>
        <time>2013-01-20T08:37:08Z</time>
      </trkpt>
      <trkpt lat="44.45828" lon="2.43156">
        <ele>641.7</ele>
        <time>2013-01-20T08:37:10Z</time>
      </trkpt>
      <trkpt lat="44.45831" lon="2.43157">
        <ele>642.5</ele>
        <time>2013-01-20T08:37:12Z</time>
      </trkpt>
      <trkpt lat="44.45835" lon="2.43159">
        <ele>643</ele>
        <time>2013-01-20T08:37:14Z</time>
      </trkpt>
      <trkpt lat="44.45839" lon="2.43161">
        <ele>643.4</ele>
        <time>2013-01-20T08:37:16Z</time>
      </trkpt>
      <trkpt lat="44.45842" lon="2.43163">
        <ele>643.4</ele>
        <time>2013-01-20T08:37:18Z</time>
      </trkpt>
      <trkpt lat="44.45846" lon="2.43166">
        <ele>643.4</ele>
        <time>2013-01-20T08:37:20Z</time>
      </trkpt>
      <trkpt lat="44.45849" lon="2.4317">
        <ele>643.8</ele>
        <time>2013-01-20T08:37:22Z</time>
      </trkpt>
      <trkpt lat="44.45852" lon="2.43174">
        <ele>644.1</ele>
        <time>2013-01-20T08:37:24Z</time>
      </trkpt>
      <trkpt lat="44.45855" lon="2.43178">
        <ele>644.4</ele>
        <time>2013-01-20T08:37:26Z</time>
      </trkpt>
      <trkpt lat="44.45858" lon="2.43182">
        <ele>644.9</ele>
        <time>2013-01-20T08:37:28Z</time>
      </trkpt>
      <trkpt lat="44.45861" lon="2.43186">
        <ele>645</ele>
        <time>2013-01-20T08:37:30Z</time>
      </trkpt>
      <trkpt lat="44.45864" lon="2.43191">
        <ele>644.9</ele>
        <time>2013-01-20T08:37:32Z</time>
      </trkpt>
      <trkpt lat="44.45866" lon="2.43196">
        <ele>644.4</ele>
        <time>2013-01-20T08:37:34Z</time>
      </trkpt>
      <trkpt lat="44.45869" lon="2.432">
        <ele>644.1</ele>
        <time>2013-01-20T08:37:36Z</time>
      </trkpt>
      <trkpt lat="44.45872" lon="2.43204">
        <ele>643.9</ele>
        <time>2013-01-20T08:37:38Z</time>
      </trkpt>
      <trkpt lat="44.45875" lon="2.43208">
        <ele>644.2</ele>
        <time>2013-01-20T08:37:40Z</time>
      </trkpt>
      <trkpt lat="44.45878" lon="2.43211">
        <ele>644.6</ele>
        <time>2013-01-20T08:37:42Z</time>
      </trkpt>
      <trkpt lat="44.45881" lon="2.43215">
        <ele>645.2</ele>
        <time>2013-01-20T08:37:44Z</time>
      </trkpt>
      <trkpt lat="44.45885" lon="2.43218">
        <ele>645.3</ele>
        <time>2013-01-20T08:37:46Z</time>
      </trkpt>
      <trkpt lat="44.45888" lon="2.4322">
        <ele>645.3</ele>
        <time>2013-01-20T08:37:48Z</time>
      </trkpt>
      <trkpt lat="44.45892" lon="2.43223">
        <ele>645.2</ele>
        <time>2013-01-20T08:37:50Z</time>
      </trkpt>
      <trkpt lat="44.45896" lon="2.43225">
        <ele>645.7</ele>
        <time>2013-01-20T08:37:52Z</time>
      </trkpt>
      <trkpt lat="44.459" lon="2.43228">
        <ele>646.3</ele>
        <time>2013-01-20T08:37:54Z</time>
      </trkpt>
      <trkpt lat="44.45903" lon="2.4323">
        <ele>646.8</ele>
        <time>2013-01-20T08:37:56Z</time>
      </trkpt>
      <trkpt lat="44.45905" lon="2.43231">
        <ele>647.1</ele>
        <time>2013-01-20T08:37:57Z</time>
      </trkpt>
      <trkpt lat="44.4591" lon="2.43234">
        <ele>647.6</ele>
        <time>2013-01-20T08:38:00Z</time>
      </trkpt>
      <trkpt lat="44.45914" lon="2.43237">
        <ele>648.1</ele>
        <time>2013-01-20T08:38:02Z</time>
      </trkpt>
      <trkpt lat="44.45917" lon="2.43239">
        <ele>648.6</ele>
        <time>2013-01-20T08:38:04Z</time>
      </trkpt>
      <trkpt lat="44.45921" lon="2.43242">
        <ele>648.4</ele>
        <time>2013-01-20T08:38:06Z</time>
      </trkpt>
      <trkpt lat="44.45925" lon="2.43244">
        <ele>648.3</ele>
        <time>2013-01-20T08:38:08Z</time>
      </trkpt>
      <trkpt lat="44.45929" lon="2.43247">
        <ele>648.3</ele>
        <time>2013-01-20T08:38:10Z</time>
      </trkpt>
      <trkpt lat="44.45932" lon="2.43249">
        <ele>648.3</ele>
        <time>2013-01-20T08:38:12Z</time>
      </trkpt>
      <trkpt lat="44.45936" lon="2.43251">
        <ele>648.2</ele>
        <time>2013-01-20T08:38:14Z</time>
      </trkpt>
      <trkpt lat="44.4594" lon="2.43254">
        <ele>648.8</ele>
        <time>2013-01-20T08:38:16Z</time>
      </trkpt>
      <trkpt lat="44.45944" lon="2.43256">
        <ele>649.2</ele>
        <time>2013-01-20T08:38:18Z</time>
      </trkpt>
      <trkpt lat="44.45947" lon="2.43258">
        <ele>649.5</ele>
        <time>2013-01-20T08:38:20Z</time>
      </trkpt>
      <trkpt lat="44.45951" lon="2.43261">
        <ele>650.2</ele>
        <time>2013-01-20T08:38:22Z</time>
      </trkpt>
      <trkpt lat="44.45955" lon="2.43263">
        <ele>650.5</ele>
        <time>2013-01-20T08:38:24Z</time>
      </trkpt>
      <trkpt lat="44.45958" lon="2.43266">
        <ele>650.7</ele>
        <time>2013-01-20T08:38:26Z</time>
      </trkpt>
      <trkpt lat="44.45961" lon="2.43269">
        <ele>651.1</ele>
        <time>2013-01-20T08:38:28Z</time>
      </trkpt>
      <trkpt lat="44.45964" lon="2.43273">
        <ele>651.5</ele>
        <time>2013-01-20T08:38:30Z</time>
      </trkpt>
      <trkpt lat="44.45967" lon="2.43276">
        <ele>651.9</ele>
        <time>2013-01-20T08:38:32Z</time>
      </trkpt>
      <trkpt lat="44.4597" lon="2.4328">
        <ele>652.2</ele>
        <time>2013-01-20T08:38:34Z</time>
      </trkpt>
      <trkpt lat="44.45972" lon="2.43284">
        <ele>652.4</ele>
        <time>2013-01-20T08:38:36Z</time>
      </trkpt>
      <trkpt lat="44.45975" lon="2.43288">
        <ele>652.3</ele>
        <time>2013-01-20T08:38:38Z</time>
      </trkpt>
      <trkpt lat="44.45978" lon="2.43292">
        <ele>652.8</ele>
        <time>2013-01-20T08:38:40Z</time>
      </trkpt>
      <trkpt lat="44.4598" lon="2.43296">
        <ele>653.4</ele>
        <time>2013-01-20T08:38:42Z</time>
      </trkpt>
      <trkpt lat="44.45983" lon="2.433">
        <ele>654</ele>
        <time>2013-01-20T08:38:44Z</time>
      </trkpt>
      <trkpt lat="44.45986" lon="2.43303">
        <ele>654.4</ele>
        <time>2013-01-20T08:38:46Z</time>
      </trkpt>
      <trkpt lat="44.45988" lon="2.43307">
        <ele>654.2</ele>
        <time>2013-01-20T08:38:48Z</time>
      </trkpt>
      <trkpt lat="44.45991" lon="2.43311">
        <ele>654.6</ele>
        <time>2013-01-20T08:38:50Z</time>
      </trkpt>
      <trkpt lat="44.45994" lon="2.43315">
        <ele>655.2</ele>
        <time>2013-01-20T08:38:52Z</time>
      </trkpt>
      <trkpt lat="44.45997" lon="2.43319">
        <ele>655.2</ele>
        <time>2013-01-20T08:38:54Z</time>
      </trkpt>
      <trkpt lat="44.46" lon="2.43322">
        <ele>655.2</ele>
        <time>2013-01-20T08:38:56Z</time>
      </trkpt>
      <trkpt lat="44.46003" lon="2.43326">
        <ele>655.2</ele>
        <time>2013-01-20T08:38:58Z</time>
      </trkpt>
      <trkpt lat="44.46005" lon="2.43328">
        <ele>655.3</ele>
        <time>2013-01-20T08:38:59Z</time>
      </trkpt>
      <trkpt lat="44.4601" lon="2.43334">
        <ele>655.3</ele>
        <time>2013-01-20T08:39:02Z</time>
      </trkpt>
      <trkpt lat="44.46013" lon="2.43338">
        <ele>656</ele>
        <time>2013-01-20T08:39:04Z</time>
      </trkpt>
      <trkpt lat="44.46016" lon="2.43342">
        <ele>656.6</ele>
        <time>2013-01-20T08:39:06Z</time>
      </trkpt>
      <trkpt lat="44.46019" lon="2.43346">
        <ele>657</ele>
        <time>2013-01-20T08:39:08Z</time>
      </trkpt>
      <trkpt lat="44.46021" lon="2.4335">
        <ele>658.4</ele>
        <time>2013-01-20T08:39:10Z</time>
      </trkpt>
      <trkpt lat="44.46024" lon="2.43354">
        <ele>659.3</ele>
        <time>2013-01-20T08:39:12Z</time>
      </trkpt>
      <trkpt lat="44.46026" lon="2.43358">
        <ele>659.9</ele>
        <time>2013-01-20T08:39:14Z</time>
      </trkpt>
      <trkpt lat="44.46028" lon="2.43362">
        <ele>660.3</ele>
        <time>2013-01-20T08:39:16Z</time>
      </trkpt>
      <trkpt lat="44.46031" lon="2.43366">
        <ele>660.5</ele>
        <time>2013-01-20T08:39:18Z</time>
      </trkpt>
      <trkpt lat="44.46034" lon="2.4337">
        <ele>660.6</ele>
        <time>2013-01-20T08:39:20Z</time>
      </trkpt>
      <trkpt lat="44.46037" lon="2.43373">
        <ele>660.8</ele>
        <time>2013-01-20T08:39:22Z</time>
      </trkpt>
      <trkpt lat="44.4604" lon="2.43376">
        <ele>661</ele>
        <time>2013-01-20T08:39:24Z</time>
      </trkpt>
      <trkpt lat="44.46044" lon="2.43379">
        <ele>661.3</ele>
        <time>2013-01-20T08:39:26Z</time>
      </trkpt>
      <trkpt lat="44.46048" lon="2.43381">
        <ele>661.9</ele>
        <time>2013-01-20T08:39:28Z</time>
      </trkpt>
      <trkpt lat="44.46051" lon="2.43382">
        <ele>662.5</ele>
        <time>2013-01-20T08:39:30Z</time>
      </trkpt>
      <trkpt lat="44.46056" lon="2.43383">
        <ele>663.2</ele>
        <time>2013-01-20T08:39:32Z</time>
      </trkpt>
      <trkpt lat="44.4606" lon="2.43384">
        <ele>663.6</ele>
        <time>2013-01-20T08:39:34Z</time>
      </trkpt>
      <trkpt lat="44.46064" lon="2.43384">
        <ele>663.6</ele>
        <time>2013-01-20T08:39:36Z</time>
      </trkpt>
      <trkpt lat="44.46067" lon="2.43384">
        <ele>664.1</ele>
        <time>2013-01-20T08:39:38Z</time>
      </trkpt>
      <trkpt lat="44.46071" lon="2.43384">
        <ele>664.7</ele>
        <time>2013-01-20T08:39:40Z</time>
      </trkpt>
      <trkpt lat="44.46075" lon="2.43385">
        <ele>665.3</ele>
        <time>2013-01-20T08:39:42Z</time>
      </trkpt>
      <trkpt lat="44.46078" lon="2.43387">
        <ele>666</ele>
        <time>2013-01-20T08:39:44Z</time>
      </trkpt>
      <trkpt lat="44.46081" lon="2.4339">
        <ele>666.8</ele>
        <time>2013-01-20T08:39:46Z</time>
      </trkpt>
      <trkpt lat="44.46084" lon="2.43393">
        <ele>667.4</ele>
        <time>2013-01-20T08:39:48Z</time>
      </trkpt>
      <trkpt lat="44.46087" lon="2.43396">
        <ele>667.8</ele>
        <time>2013-01-20T08:39:50Z</time>
      </trkpt>
      <trkpt lat="44.46089" lon="2.43399">
        <ele>668.4</ele>
        <time>2013-01-20T08:39:52Z</time>
      </trkpt>
      <trkpt lat="44.46091" lon="2.43403">
        <ele>668.9</ele>
        <time>2013-01-20T08:39:54Z</time>
      </trkpt>
      <trkpt lat="44.46094" lon="2.43407">
        <ele>669.3</ele>
        <time>2013-01-20T08:39:56Z</time>
      </trkpt>
      <trkpt lat="44.46096" lon="2.43412">
        <ele>669.7</ele>
        <time>2013-01-20T08:39:58Z</time>
      </trkpt>
      <trkpt lat="44.46097" lon="2.43417">
        <ele>670</ele>
        <time>2013-01-20T08:40:00Z</time>
      </trkpt>
      <trkpt lat="44.46098" lon="2.4342">
        <ele>670.2</ele>
        <time>2013-01-20T08:40:01Z</time>
      </trkpt>
      <trkpt lat="44.461" lon="2.43428">
        <ele>670.5</ele>
        <time>2013-01-20T08:40:04Z</time>
      </trkpt>
      <trkpt lat="44.46102" lon="2.43434">
        <ele>670.6</ele>
        <time>2013-01-20T08:40:06Z</time>
      </trkpt>
      <trkpt lat="44.46103" lon="2.4344">
        <ele>671</ele>
        <time>2013-01-20T08:40:08Z</time>
      </trkpt>
      <trkpt lat="44.46105" lon="2.43445">
        <ele>671.4</ele>
        <time>2013-01-20T08:40:10Z</time>
      </trkpt>
      <trkpt lat="44.46106" lon="2.43451">
        <ele>671.6</ele>
        <time>2013-01-20T08:40:12Z</time>
      </trkpt>
      <trkpt lat="44.46108" lon="2.43456">
        <ele>671.1</ele>
        <time>2013-01-20T08:40:14Z</time>
      </trkpt>
      <trkpt lat="44.4611" lon="2.4346">
        <ele>671.5</ele>
        <time>2013-01-20T08:40:16Z</time>
      </trkpt>
      <trkpt lat="44.46113" lon="2.43465">
        <ele>672.2</ele>
        <time>2013-01-20T08:40:18Z</time>
      </trkpt>
      <trkpt lat="44.46115" lon="2.43469">
        <ele>672</ele>
        <time>2013-01-20T08:40:20Z</time>
      </trkpt>
      <trkpt lat="44.46118" lon="2.43473">
        <ele>672.4</ele>
        <time>2013-01-20T08:40:22Z</time>
      </trkpt>
      <trkpt lat="44.4612" lon="2.43477">
        <ele>673</ele>
        <time>2013-01-20T08:40:24Z</time>
      </trkpt>
      <trkpt lat="44.46123" lon="2.43481">
        <ele>673.3</ele>
        <time>2013-01-20T08:40:26Z</time>
      </trkpt>
      <trkpt lat="44.46126" lon="2.43485">
        <ele>673.5</ele>
        <time>2013-01-20T08:40:28Z</time>
      </trkpt>
      <trkpt lat="44.46128" lon="2.43489">
        <ele>673.7</ele>
        <time>2013-01-20T08:40:30Z</time>
      </trkpt>
      <trkpt lat="44.46131" lon="2.43493">
        <ele>673.9</ele>
        <time>2013-01-20T08:40:32Z</time>
      </trkpt>
      <trkpt lat="44.46133" lon="2.43497">
        <ele>674.2</ele>
        <time>2013-01-20T08:40:34Z</time>
      </trkpt>
      <trkpt lat="44.46136" lon="2.43501">
        <ele>674.3</ele>
        <time>2013-01-20T08:40:36Z</time>
      </trkpt>
      <trkpt lat="44.46139" lon="2.43505">
        <ele>674.7</ele>
        <time>2013-01-20T08:40:38Z</time>
      </trkpt>
      <trkpt lat="44.46141" lon="2.43509">
        <ele>675.1</ele>
        <time>2013-01-20T08:40:40Z</time>
      </trkpt>
      <trkpt lat="44.46143" lon="2.43513">
        <ele>675.1</ele>
        <time>2013-01-20T08:40:42Z</time>
      </trkpt>
      <trkpt lat="44.46146" lon="2.43518">
        <ele>675</ele>
        <time>2013-01-20T08:40:44Z</time>
      </trkpt>
      <trkpt lat="44.46148" lon="2.43522">
        <ele>675.4</ele>
        <time>2013-01-20T08:40:46Z</time>
      </trkpt>
      <trkpt lat="44.46151" lon="2.43526">
        <ele>675.9</ele>
        <time>2013-01-20T08:40:48Z</time>
      </trkpt>
      <trkpt lat="44.46153" lon="2.4353">
        <ele>676.5</ele>
        <time>2013-01-20T08:40:50Z</time>
      </trkpt>
      <trkpt lat="44.46154" lon="2.43535">
        <ele>676.6</ele>
        <time>2013-01-20T08:40:52Z</time>
      </trkpt>
      <trkpt lat="44.46156" lon="2.43539">
        <ele>677.4</ele>
        <time>2013-01-20T08:40:54Z</time>
      </trkpt>
      <trkpt lat="44.46158" lon="2.43544">
        <ele>678.3</ele>
        <time>2013-01-20T08:40:56Z</time>
      </trkpt>
      <trkpt lat="44.4616" lon="2.43548">
        <ele>678.5</ele>
        <time>2013-01-20T08:40:58Z</time>
      </trkpt>
      <trkpt lat="44.46162" lon="2.43553">
        <ele>678.9</ele>
        <time>2013-01-20T08:41:01Z</time>
      </trkpt>
      <trkpt lat="44.46162" lon="2.43555">
        <ele>679.1</ele>
        <time>2013-01-20T08:41:02Z</time>
      </trkpt>
      <trkpt lat="44.46166" lon="2.43562">
        <ele>679.5</ele>
        <time>2013-01-20T08:41:06Z</time>
      </trkpt>
      <trkpt lat="44.46168" lon="2.43566">
        <ele>679.6</ele>
        <time>2013-01-20T08:41:08Z</time>
      </trkpt>
      <trkpt lat="44.4617" lon="2.43571">
        <ele>680</ele>
        <time>2013-01-20T08:41:10Z</time>
      </trkpt>
      <trkpt lat="44.46171" lon="2.43575">
        <ele>680.6</ele>
        <time>2013-01-20T08:41:12Z</time>
      </trkpt>
      <trkpt lat="44.46173" lon="2.43579">
        <ele>680.5</ele>
        <time>2013-01-20T08:41:14Z</time>
      </trkpt>
      <trkpt lat="44.46174" lon="2.43585">
        <ele>680.9</ele>
        <time>2013-01-20T08:41:17Z</time>
      </trkpt>
      <trkpt lat="44.46175" lon="2.43589">
        <ele>681.4</ele>
        <time>2013-01-20T08:41:19Z</time>
      </trkpt>
      <trkpt lat="44.46176" lon="2.43594">
        <ele>681.9</ele>
        <time>2013-01-20T08:41:21Z</time>
      </trkpt>
      <trkpt lat="44.46177" lon="2.436">
        <ele>682.4</ele>
        <time>2013-01-20T08:41:23Z</time>
      </trkpt>
      <trkpt lat="44.46178" lon="2.43605">
        <ele>682.8</ele>
        <time>2013-01-20T08:41:25Z</time>
      </trkpt>
      <trkpt lat="44.4618" lon="2.43609">
        <ele>683.3</ele>
        <time>2013-01-20T08:41:27Z</time>
      </trkpt>
      <trkpt lat="44.46181" lon="2.43614">
        <ele>683.7</ele>
        <time>2013-01-20T08:41:29Z</time>
      </trkpt>
      <trkpt lat="44.46182" lon="2.4362">
        <ele>683.9</ele>
        <time>2013-01-20T08:41:31Z</time>
      </trkpt>
      <trkpt lat="44.46183" lon="2.43626">
        <ele>684</ele>
        <time>2013-01-20T08:41:33Z</time>
      </trkpt>
      <trkpt lat="44.46184" lon="2.43631">
        <ele>683.9</ele>
        <time>2013-01-20T08:41:35Z</time>
      </trkpt>
      <trkpt lat="44.46184" lon="2.43636">
        <ele>684.4</ele>
        <time>2013-01-20T08:41:37Z</time>
      </trkpt>
      <trkpt lat="44.46185" lon="2.43642">
        <ele>685.1</ele>
        <time>2013-01-20T08:41:39Z</time>
      </trkpt>
      <trkpt lat="44.46186" lon="2.43648">
        <ele>685.9</ele>
        <time>2013-01-20T08:41:41Z</time>
      </trkpt>
      <trkpt lat="44.46186" lon="2.43654">
        <ele>687</ele>
        <time>2013-01-20T08:41:43Z</time>
      </trkpt>
      <trkpt lat="44.46186" lon="2.4366">
        <ele>687.1</ele>
        <time>2013-01-20T08:41:45Z</time>
      </trkpt>
      <trkpt lat="44.46186" lon="2.43665">
        <ele>686.9</ele>
        <time>2013-01-20T08:41:47Z</time>
      </trkpt>
      <trkpt lat="44.46187" lon="2.43671">
        <ele>687</ele>
        <time>2013-01-20T08:41:49Z</time>
      </trkpt>
      <trkpt lat="44.46186" lon="2.43678">
        <ele>687.3</ele>
        <time>2013-01-20T08:41:51Z</time>
      </trkpt>
      <trkpt lat="44.46186" lon="2.43684">
        <ele>688.3</ele>
        <time>2013-01-20T08:41:53Z</time>
      </trkpt>
      <trkpt lat="44.46185" lon="2.43689">
        <ele>689</ele>
        <time>2013-01-20T08:41:55Z</time>
      </trkpt>
      <trkpt lat="44.46184" lon="2.43694">
        <ele>689.5</ele>
        <time>2013-01-20T08:41:57Z</time>
      </trkpt>
      <trkpt lat="44.46183" lon="2.43699">
        <ele>689.9</ele>
        <time>2013-01-20T08:41:59Z</time>
      </trkpt>
      <trkpt lat="44.46182" lon="2.43704">
        <ele>689.6</ele>
        <time>2013-01-20T08:42:01Z</time>
      </trkpt>
      <trkpt lat="44.4618" lon="2.43708">
        <ele>689</ele>
        <time>2013-01-20T08:42:03Z</time>
      </trkpt>
      <trkpt lat="44.46179" lon="2.43711">
        <ele>688.8</ele>
        <time>2013-01-20T08:42:04Z</time>
      </trkpt>
      <trkpt lat="44.46176" lon="2.43718">
        <ele>689.3</ele>
        <time>2013-01-20T08:42:07Z</time>
      </trkpt>
      <trkpt lat="44.46173" lon="2.43722">
        <ele>689.3</ele>
        <time>2013-01-20T08:42:09Z</time>
      </trkpt>
      <trkpt lat="44.46171" lon="2.43726">
        <ele>689.3</ele>
        <time>2013-01-20T08:42:11Z</time>
      </trkpt>
      <trkpt lat="44.46168" lon="2.4373">
        <ele>689.2</ele>
        <time>2013-01-20T08:42:13Z</time>
      </trkpt>
      <trkpt lat="44.46165" lon="2.43734">
        <ele>689.8</ele>
        <time>2013-01-20T08:42:15Z</time>
      </trkpt>
      <trkpt lat="44.46162" lon="2.43738">
        <ele>690</ele>
        <time>2013-01-20T08:42:17Z</time>
      </trkpt>
      <trkpt lat="44.4616" lon="2.43742">
        <ele>690.1</ele>
        <time>2013-01-20T08:42:19Z</time>
      </trkpt>
      <trkpt lat="44.46157" lon="2.43745">
        <ele>690.3</ele>
        <time>2013-01-20T08:42:21Z</time>
      </trkpt>
      <trkpt lat="44.46154" lon="2.43748">
        <ele>690.4</ele>
        <time>2013-01-20T08:42:23Z</time>
      </trkpt>
      <trkpt lat="44.46151" lon="2.43751">
        <ele>690.7</ele>
        <time>2013-01-20T08:42:25Z</time>
      </trkpt>
      <trkpt lat="44.46147" lon="2.43755">
        <ele>691.3</ele>
        <time>2013-01-20T08:42:27Z</time>
      </trkpt>
      <trkpt lat="44.46144" lon="2.43758">
        <ele>691.9</ele>
        <time>2013-01-20T08:42:29Z</time>
      </trkpt>
      <trkpt lat="44.46141" lon="2.4376">
        <ele>691.3</ele>
        <time>2013-01-20T08:42:31Z</time>
      </trkpt>
      <trkpt lat="44.46138" lon="2.43763">
        <ele>691.7</ele>
        <time>2013-01-20T08:42:33Z</time>
      </trkpt>
      <trkpt lat="44.46134" lon="2.43766">
        <ele>692.4</ele>
        <time>2013-01-20T08:42:35Z</time>
      </trkpt>
      <trkpt lat="44.4613" lon="2.43768">
        <ele>692.5</ele>
        <time>2013-01-20T08:42:37Z</time>
      </trkpt>
      <trkpt lat="44.46127" lon="2.43771">
        <ele>692.6</ele>
        <time>2013-01-20T08:42:39Z</time>
      </trkpt>
      <trkpt lat="44.46123" lon="2.43773">
        <ele>692.5</ele>
        <time>2013-01-20T08:42:41Z</time>
      </trkpt>
      <trkpt lat="44.46119" lon="2.43775">
        <ele>692.8</ele>
        <time>2013-01-20T08:42:43Z</time>
      </trkpt>
      <trkpt lat="44.46115" lon="2.43777">
        <ele>693.3</ele>
        <time>2013-01-20T08:42:45Z</time>
      </trkpt>
      <trkpt lat="44.46111" lon="2.43779">
        <ele>694.1</ele>
        <time>2013-01-20T08:42:47Z</time>
      </trkpt>
      <trkpt lat="44.46108" lon="2.43781">
        <ele>694.2</ele>
        <time>2013-01-20T08:42:49Z</time>
      </trkpt>
      <trkpt lat="44.46104" lon="2.43783">
        <ele>694.1</ele>
        <time>2013-01-20T08:42:51Z</time>
      </trkpt>
      <trkpt lat="44.46101" lon="2.43786">
        <ele>694.2</ele>
        <time>2013-01-20T08:42:53Z</time>
      </trkpt>
      <trkpt lat="44.46098" lon="2.43788">
        <ele>694.4</ele>
        <time>2013-01-20T08:42:55Z</time>
      </trkpt>
      <trkpt lat="44.46094" lon="2.43791">
        <ele>694.4</ele>
        <time>2013-01-20T08:42:57Z</time>
      </trkpt>
      <trkpt lat="44.46091" lon="2.43793">
        <ele>694.4</ele>
        <time>2013-01-20T08:42:59Z</time>
      </trkpt>
      <trkpt lat="44.46088" lon="2.43795">
        <ele>694.4</ele>
        <time>2013-01-20T08:43:01Z</time>
      </trkpt>
      <trkpt lat="44.46085" lon="2.43797">
        <ele>695.2</ele>
        <time>2013-01-20T08:43:03Z</time>
      </trkpt>
      <trkpt lat="44.46081" lon="2.43799">
        <ele>695.4</ele>
        <time>2013-01-20T08:43:05Z</time>
      </trkpt>
      <trkpt lat="44.46079" lon="2.438">
        <ele>695.3</ele>
        <time>2013-01-20T08:43:06Z</time>
      </trkpt>
      <trkpt lat="44.46073" lon="2.43803">
        <ele>695.3</ele>
        <time>2013-01-20T08:43:09Z</time>
      </trkpt>
      <trkpt lat="44.46069" lon="2.43805">
        <ele>695.3</ele>
        <time>2013-01-20T08:43:11Z</time>
      </trkpt>
      <trkpt lat="44.46066" lon="2.43806">
        <ele>695.5</ele>
        <time>2013-01-20T08:43:13Z</time>
      </trkpt>
      <trkpt lat="44.46062" lon="2.43808">
        <ele>696.3</ele>
        <time>2013-01-20T08:43:15Z</time>
      </trkpt>
      <trkpt lat="44.46058" lon="2.43809">
        <ele>697.2</ele>
        <time>2013-01-20T08:43:17Z</time>
      </trkpt>
      <trkpt lat="44.46054" lon="2.4381">
        <ele>697.2</ele>
        <time>2013-01-20T08:43:19Z</time>
      </trkpt>
      <trkpt lat="44.4605" lon="2.43811">
        <ele>697.2</ele>
        <time>2013-01-20T08:43:21Z</time>
      </trkpt>
      <trkpt lat="44.46046" lon="2.43812">
        <ele>697.2</ele>
        <time>2013-01-20T08:43:23Z</time>
      </trkpt>
      <trkpt lat="44.46042" lon="2.43813">
        <ele>697.5</ele>
        <time>2013-01-20T08:43:25Z</time>
      </trkpt>
      <trkpt lat="44.46038" lon="2.43814">
        <ele>697.6</ele>
        <time>2013-01-20T08:43:27Z</time>
      </trkpt>
      <trkpt lat="44.46033" lon="2.43814">
        <ele>698.4</ele>
        <time>2013-01-20T08:43:29Z</time>
      </trkpt>
      <trkpt lat="44.46029" lon="2.43814">
        <ele>698.9</ele>
        <time>2013-01-20T08:43:31Z</time>
      </trkpt>
      <trkpt lat="44.46025" lon="2.43813">
        <ele>699.1</ele>
        <time>2013-01-20T08:43:33Z</time>
      </trkpt>
      <trkpt lat="44.46021" lon="2.43813">
        <ele>699.5</ele>
        <time>2013-01-20T08:43:35Z</time>
      </trkpt>
      <trkpt lat="44.46016" lon="2.43812">
        <ele>699.9</ele>
        <time>2013-01-20T08:43:37Z</time>
      </trkpt>
      <trkpt lat="44.46012" lon="2.43811">
        <ele>700.3</ele>
        <time>2013-01-20T08:43:39Z</time>
      </trkpt>
      <trkpt lat="44.46008" lon="2.4381">
        <ele>700.7</ele>
        <time>2013-01-20T08:43:41Z</time>
      </trkpt>
      <trkpt lat="44.46004" lon="2.43809">
        <ele>700.9</ele>
        <time>2013-01-20T08:43:43Z</time>
      </trkpt>
      <trkpt lat="44.46" lon="2.43808">
        <ele>700.8</ele>
        <time>2013-01-20T08:43:45Z</time>
      </trkpt>
      <trkpt lat="44.45996" lon="2.43807">
        <ele>701.1</ele>
        <time>2013-01-20T08:43:47Z</time>
      </trkpt>
      <trkpt lat="44.45992" lon="2.43807">
        <ele>701.5</ele>
        <time>2013-01-20T08:43:49Z</time>
      </trkpt>
      <trkpt lat="44.45988" lon="2.43806">
        <ele>701.7</ele>
        <time>2013-01-20T08:43:51Z</time>
      </trkpt>
      <trkpt lat="44.45984" lon="2.43805">
        <ele>702.2</ele>
        <time>2013-01-20T08:43:53Z</time>
      </trkpt>
      <trkpt lat="44.4598" lon="2.43804">
        <ele>702.9</ele>
        <time>2013-01-20T08:43:55Z</time>
      </trkpt>
      <trkpt lat="44.45976" lon="2.43803">
        <ele>703.4</ele>
        <time>2013-01-20T08:43:57Z</time>
      </trkpt>
      <trkpt lat="44.45972" lon="2.43802">
        <ele>703.6</ele>
        <time>2013-01-20T08:43:59Z</time>
      </trkpt>
      <trkpt lat="44.45968" lon="2.43801">
        <ele>703.2</ele>
        <time>2013-01-20T08:44:01Z</time>
      </trkpt>
      <trkpt lat="44.45964" lon="2.438">
        <ele>703.7</ele>
        <time>2013-01-20T08:44:03Z</time>
      </trkpt>
      <trkpt lat="44.45961" lon="2.43798">
        <ele>704.4</ele>
        <time>2013-01-20T08:44:05Z</time>
      </trkpt>
      <trkpt lat="44.45957" lon="2.43797">
        <ele>704.7</ele>
        <time>2013-01-20T08:44:07Z</time>
      </trkpt>
      <trkpt lat="44.45955" lon="2.43796">
        <ele>704.8</ele>
        <time>2013-01-20T08:44:08Z</time>
      </trkpt>
      <trkpt lat="44.45949" lon="2.43792">
        <ele>705.1</ele>
        <time>2013-01-20T08:44:11Z</time>
      </trkpt>
      <trkpt lat="44.45945" lon="2.4379">
        <ele>705.5</ele>
        <time>2013-01-20T08:44:13Z</time>
      </trkpt>
      <trkpt lat="44.45942" lon="2.43788">
        <ele>705.7</ele>
        <time>2013-01-20T08:44:15Z</time>
      </trkpt>
      <trkpt lat="44.45938" lon="2.43786">
        <ele>705.7</ele>
        <time>2013-01-20T08:44:17Z</time>
      </trkpt>
      <trkpt lat="44.45935" lon="2.43784">
        <ele>705.8</ele>
        <time>2013-01-20T08:44:19Z</time>
      </trkpt>
      <trkpt lat="44.45932" lon="2.43782">
        <ele>705.8</ele>
        <time>2013-01-20T08:44:21Z</time>
      </trkpt>
      <trkpt lat="44.45928" lon="2.4378">
        <ele>706.6</ele>
        <time>2013-01-20T08:44:23Z</time>
      </trkpt>
      <trkpt lat="44.45925" lon="2.43778">
        <ele>707</ele>
        <time>2013-01-20T08:44:25Z</time>
      </trkpt>
      <trkpt lat="44.45921" lon="2.43776">
        <ele>707.1</ele>
        <time>2013-01-20T08:44:27Z</time>
      </trkpt>
      <trkpt lat="44.45917" lon="2.43774">
        <ele>707.3</ele>
        <time>2013-01-20T08:44:29Z</time>
      </trkpt>
      <trkpt lat="44.45914" lon="2.43773">
        <ele>707.6</ele>
        <time>2013-01-20T08:44:31Z</time>
      </trkpt>
      <trkpt lat="44.4591" lon="2.43771">
        <ele>708</ele>
        <time>2013-01-20T08:44:33Z</time>
      </trkpt>
      <trkpt lat="44.45906" lon="2.43769">
        <ele>708.4</ele>
        <time>2013-01-20T08:44:35Z</time>
      </trkpt>
      <trkpt lat="44.45903" lon="2.43767">
        <ele>708.8</ele>
        <time>2013-01-20T08:44:37Z</time>
      </trkpt>
      <trkpt lat="44.459" lon="2.43766">
        <ele>709</ele>
        <time>2013-01-20T08:44:39Z</time>
      </trkpt>
      <trkpt lat="44.45896" lon="2.43765">
        <ele>709.6</ele>
        <time>2013-01-20T08:44:41Z</time>
      </trkpt>
      <trkpt lat="44.45893" lon="2.43763">
        <ele>710.2</ele>
        <time>2013-01-20T08:44:43Z</time>
      </trkpt>
      <trkpt lat="44.45889" lon="2.43761">
        <ele>710.4</ele>
        <time>2013-01-20T08:44:45Z</time>
      </trkpt>
      <trkpt lat="44.45885" lon="2.4376">
        <ele>711</ele>
        <time>2013-01-20T08:44:47Z</time>
      </trkpt>
      <trkpt lat="44.45881" lon="2.43758">
        <ele>711.6</ele>
        <time>2013-01-20T08:44:49Z</time>
      </trkpt>
      <trkpt lat="44.45878" lon="2.43756">
        <ele>711.8</ele>
        <time>2013-01-20T08:44:51Z</time>
      </trkpt>
      <trkpt lat="44.45874" lon="2.43754">
        <ele>711.6</ele>
        <time>2013-01-20T08:44:53Z</time>
      </trkpt>
      <trkpt lat="44.4587" lon="2.43752">
        <ele>712.1</ele>
        <time>2013-01-20T08:44:55Z</time>
      </trkpt>
      <trkpt lat="44.45866" lon="2.4375">
        <ele>712.4</ele>
        <time>2013-01-20T08:44:57Z</time>
      </trkpt>
      <trkpt lat="44.45862" lon="2.43748">
        <ele>712.5</ele>
        <time>2013-01-20T08:44:59Z</time>
      </trkpt>
      <trkpt lat="44.45859" lon="2.43746">
        <ele>713</ele>
        <time>2013-01-20T08:45:01Z</time>
      </trkpt>
      <trkpt lat="44.45855" lon="2.43744">
        <ele>713.6</ele>
        <time>2013-01-20T08:45:03Z</time>
      </trkpt>
      <trkpt lat="44.45851" lon="2.43742">
        <ele>714.2</ele>
        <time>2013-01-20T08:45:05Z</time>
      </trkpt>
      <trkpt lat="44.45847" lon="2.4374">
        <ele>714.5</ele>
        <time>2013-01-20T08:45:07Z</time>
      </trkpt>
      <trkpt lat="44.45843" lon="2.43738">
        <ele>714.7</ele>
        <time>2013-01-20T08:45:09Z</time>
      </trkpt>
      <trkpt lat="44.45841" lon="2.43738">
        <ele>714.7</ele>
        <time>2013-01-20T08:45:10Z</time>
      </trkpt>
      <trkpt lat="44.45835" lon="2.43736">
        <ele>715.1</ele>
        <time>2013-01-20T08:45:13Z</time>
      </trkpt>
      <trkpt lat="44.45831" lon="2.43735">
        <ele>715.6</ele>
        <time>2013-01-20T08:45:15Z</time>
      </trkpt>
      <trkpt lat="44.45827" lon="2.43733">
        <ele>715.3</ele>
        <time>2013-01-20T08:45:17Z</time>
      </trkpt>
      <trkpt lat="44.45823" lon="2.43733">
        <ele>715.3</ele>
        <time>2013-01-20T08:45:19Z</time>
      </trkpt>
      <trkpt lat="44.45819" lon="2.43733">
        <ele>715.4</ele>
        <time>2013-01-20T08:45:21Z</time>
      </trkpt>
      <trkpt lat="44.45815" lon="2.43734">
        <ele>714.8</ele>
        <time>2013-01-20T08:45:23Z</time>
      </trkpt>
      <trkpt lat="44.45811" lon="2.43736">
        <ele>714.4</ele>
        <time>2013-01-20T08:45:25Z</time>
      </trkpt>
      <trkpt lat="44.45808" lon="2.43739">
        <ele>715.8</ele>
        <time>2013-01-20T08:45:27Z</time>
      </trkpt>
      <trkpt lat="44.45805" lon="2.43744">
        <ele>716.1</ele>
        <time>2013-01-20T08:45:29Z</time>
      </trkpt>
      <trkpt lat="44.45803" lon="2.43748">
        <ele>715.9</ele>
        <time>2013-01-20T08:45:31Z</time>
      </trkpt>
      <trkpt lat="44.45802" lon="2.43753">
        <ele>715.9</ele>
        <time>2013-01-20T08:45:33Z</time>
      </trkpt>
      <trkpt lat="44.45801" lon="2.43758">
        <ele>716.3</ele>
        <time>2013-01-20T08:45:35Z</time>
      </trkpt>
      <trkpt lat="44.458" lon="2.43763">
        <ele>716.9</ele>
        <time>2013-01-20T08:45:37Z</time>
      </trkpt>
      <trkpt lat="44.45799" lon="2.43768">
        <ele>716.8</ele>
        <time>2013-01-20T08:45:39Z</time>
      </trkpt>
      <trkpt lat="44.45798" lon="2.43773">
        <ele>716.7</ele>
        <time>2013-01-20T08:45:41Z</time>
      </trkpt>
      <trkpt lat="44.45797" lon="2.43779">
        <ele>717.6</ele>
        <time>2013-01-20T08:45:43Z</time>
      </trkpt>
      <trkpt lat="44.45796" lon="2.43784">
        <ele>717.7</ele>
        <time>2013-01-20T08:45:45Z</time>
      </trkpt>
      <trkpt lat="44.45794" lon="2.4379">
        <ele>717.4</ele>
        <time>2013-01-20T08:45:47Z</time>
      </trkpt>
      <trkpt lat="44.45793" lon="2.43795">
        <ele>717.9</ele>
        <time>2013-01-20T08:45:49Z</time>
      </trkpt>
      <trkpt lat="44.45792" lon="2.43801">
        <ele>718</ele>
        <time>2013-01-20T08:45:51Z</time>
      </trkpt>
      <trkpt lat="44.45791" lon="2.43807">
        <ele>718</ele>
        <time>2013-01-20T08:45:53Z</time>
      </trkpt>
      <trkpt lat="44.45789" lon="2.43812">
        <ele>718.2</ele>
        <time>2013-01-20T08:45:55Z</time>
      </trkpt>
      <trkpt lat="44.45788" lon="2.43818">
        <ele>718.3</ele>
        <time>2013-01-20T08:45:57Z</time>
      </trkpt>
      <trkpt lat="44.45787" lon="2.43823">
        <ele>718</ele>
        <time>2013-01-20T08:45:59Z</time>
      </trkpt>
      <trkpt lat="44.45785" lon="2.43829">
        <ele>718.2</ele>
        <time>2013-01-20T08:46:01Z</time>
      </trkpt>
      <trkpt lat="44.45783" lon="2.43834">
        <ele>718.5</ele>
        <time>2013-01-20T08:46:03Z</time>
      </trkpt>
      <trkpt lat="44.45781" lon="2.43839">
        <ele>718.3</ele>
        <time>2013-01-20T08:46:05Z</time>
      </trkpt>
      <trkpt lat="44.45779" lon="2.43844">
        <ele>718.4</ele>
        <time>2013-01-20T08:46:07Z</time>
      </trkpt>
      <trkpt lat="44.45777" lon="2.43849">
        <ele>718.6</ele>
        <time>2013-01-20T08:46:09Z</time>
      </trkpt>
      <trkpt lat="44.45775" lon="2.43854">
        <ele>718.1</ele>
        <time>2013-01-20T08:46:11Z</time>
      </trkpt>
      <trkpt lat="44.45774" lon="2.43857">
        <ele>717.9</ele>
        <time>2013-01-20T08:46:12Z</time>
      </trkpt>
      <trkpt lat="44.45771" lon="2.43864">
        <ele>717.7</ele>
        <time>2013-01-20T08:46:15Z</time>
      </trkpt>
      <trkpt lat="44.45769" lon="2.43868">
        <ele>718.2</ele>
        <time>2013-01-20T08:46:17Z</time>
      </trkpt>
      <trkpt lat="44.45767" lon="2.43874">
        <ele>718.8</ele>
        <time>2013-01-20T08:46:19Z</time>
      </trkpt>
      <trkpt lat="44.45764" lon="2.43879">
        <ele>719</ele>
        <time>2013-01-20T08:46:21Z</time>
      </trkpt>
      <trkpt lat="44.45762" lon="2.43884">
        <ele>718.8</ele>
        <time>2013-01-20T08:46:23Z</time>
      </trkpt>
      <trkpt lat="44.45761" lon="2.43889">
        <ele>718.6</ele>
        <time>2013-01-20T08:46:25Z</time>
      </trkpt>
      <trkpt lat="44.45759" lon="2.43892">
        <ele>718.9</ele>
        <time>2013-01-20T08:46:27Z</time>
      </trkpt>
      <trkpt lat="44.45758" lon="2.43896">
        <ele>719.1</ele>
        <time>2013-01-20T08:46:29Z</time>
      </trkpt>
      <trkpt lat="44.45756" lon="2.439">
        <ele>719.2</ele>
        <time>2013-01-20T08:46:31Z</time>
      </trkpt>
      <trkpt lat="44.45754" lon="2.43906">
        <ele>719.8</ele>
        <time>2013-01-20T08:46:34Z</time>
      </trkpt>
      <trkpt lat="44.45751" lon="2.43911">
        <ele>719.5</ele>
        <time>2013-01-20T08:46:38Z</time>
      </trkpt>
      <trkpt lat="44.45751" lon="2.43905">
        <ele>720.4</ele>
        <time>2013-01-20T08:46:42Z</time>
      </trkpt>
      <trkpt lat="44.45752" lon="2.43901">
        <ele>721.1</ele>
        <time>2013-01-20T08:46:44Z</time>
      </trkpt>
      <trkpt lat="44.45753" lon="2.43897">
        <ele>720.9</ele>
        <time>2013-01-20T08:46:46Z</time>
      </trkpt>
      <trkpt lat="44.45754" lon="2.43892">
        <ele>720.8</ele>
        <time>2013-01-20T08:46:48Z</time>
      </trkpt>
      <trkpt lat="44.45754" lon="2.43886">
        <ele>721.7</ele>
        <time>2013-01-20T08:46:51Z</time>
      </trkpt>
      <trkpt lat="44.45755" lon="2.43881">
        <ele>723.4</ele>
        <time>2013-01-20T08:46:54Z</time>
      </trkpt>
      <trkpt lat="44.45756" lon="2.43875">
        <ele>724.7</ele>
        <time>2013-01-20T08:46:57Z</time>
      </trkpt>
      <trkpt lat="44.45756" lon="2.4387">
        <ele>726</ele>
        <time>2013-01-20T08:47:00Z</time>
      </trkpt>
      <trkpt lat="44.45755" lon="2.43864">
        <ele>726.8</ele>
        <time>2013-01-20T08:47:04Z</time>
      </trkpt>
      <trkpt lat="44.45754" lon="2.43859">
        <ele>728.3</ele>
        <time>2013-01-20T08:47:07Z</time>
      </trkpt>
      <trkpt lat="44.45753" lon="2.43854">
        <ele>728.6</ele>
        <time>2013-01-20T08:47:10Z</time>
      </trkpt>
      <trkpt lat="44.45752" lon="2.43848">
        <ele>729</ele>
        <time>2013-01-20T08:47:13Z</time>
      </trkpt>
      <trkpt lat="44.45752" lon="2.43846">
        <ele>729.7</ele>
        <time>2013-01-20T08:47:14Z</time>
      </trkpt>
      <trkpt lat="44.45752" lon="2.43838">
        <ele>731</ele>
        <time>2013-01-20T08:47:18Z</time>
      </trkpt>
      <trkpt lat="44.45753" lon="2.43832">
        <ele>731.6</ele>
        <time>2013-01-20T08:47:21Z</time>
      </trkpt>
      <trkpt lat="44.45754" lon="2.43828">
        <ele>732.1</ele>
        <time>2013-01-20T08:47:23Z</time>
      </trkpt>
      <trkpt lat="44.45755" lon="2.43822">
        <ele>732.8</ele>
        <time>2013-01-20T08:47:26Z</time>
      </trkpt>
      <trkpt lat="44.45755" lon="2.43816">
        <ele>733.4</ele>
        <time>2013-01-20T08:47:29Z</time>
      </trkpt>
      <trkpt lat="44.45753" lon="2.43811">
        <ele>733.7</ele>
        <time>2013-01-20T08:47:32Z</time>
      </trkpt>
      <trkpt lat="44.4575" lon="2.43806">
        <ele>734.1</ele>
        <time>2013-01-20T08:47:35Z</time>
      </trkpt>
      <trkpt lat="44.45749" lon="2.438">
        <ele>735</ele>
        <time>2013-01-20T08:47:38Z</time>
      </trkpt>
      <trkpt lat="44.45748" lon="2.43794">
        <ele>735.7</ele>
        <time>2013-01-20T08:47:41Z</time>
      </trkpt>
      <trkpt lat="44.45747" lon="2.43788">
        <ele>736.2</ele>
        <time>2013-01-20T08:47:44Z</time>
      </trkpt>
      <trkpt lat="44.45747" lon="2.43784">
        <ele>735.6</ele>
        <time>2013-01-20T08:47:47Z</time>
      </trkpt>
      <trkpt lat="44.45747" lon="2.43779">
        <ele>735.6</ele>
        <time>2013-01-20T08:47:49Z</time>
      </trkpt>
      <trkpt lat="44.45747" lon="2.43776">
        <ele>735.8</ele>
        <time>2013-01-20T08:47:50Z</time>
      </trkpt>
      <trkpt lat="44.45747" lon="2.43772">
        <ele>735.9</ele>
        <time>2013-01-20T08:47:51Z</time>
      </trkpt>
      <trkpt lat="44.45747" lon="2.43768">
        <ele>735.4</ele>
        <time>2013-01-20T08:47:52Z</time>
      </trkpt>
      <trkpt lat="44.45747" lon="2.43762">
        <ele>735.1</ele>
        <time>2013-01-20T08:47:53Z</time>
      </trkpt>
      <trkpt lat="44.45746" lon="2.43756">
        <ele>734.8</ele>
        <time>2013-01-20T08:47:54Z</time>
      </trkpt>
      <trkpt lat="44.45744" lon="2.4375">
        <ele>734.6</ele>
        <time>2013-01-20T08:47:55Z</time>
      </trkpt>
      <trkpt lat="44.45742" lon="2.43745">
        <ele>733.7</ele>
        <time>2013-01-20T08:47:56Z</time>
      </trkpt>
      <trkpt lat="44.4574" lon="2.4374">
        <ele>733.1</ele>
        <time>2013-01-20T08:47:57Z</time>
      </trkpt>
      <trkpt lat="44.45738" lon="2.43735">
        <ele>732.6</ele>
        <time>2013-01-20T08:47:58Z</time>
      </trkpt>
      <trkpt lat="44.45736" lon="2.4373">
        <ele>732</ele>
        <time>2013-01-20T08:47:59Z</time>
      </trkpt>
      <trkpt lat="44.45734" lon="2.43727">
        <ele>731.6</ele>
        <time>2013-01-20T08:48:00Z</time>
      </trkpt>
      <trkpt lat="44.45732" lon="2.43723">
        <ele>731.3</ele>
        <time>2013-01-20T08:48:01Z</time>
      </trkpt>
      <trkpt lat="44.4573" lon="2.43719">
        <ele>731.5</ele>
        <time>2013-01-20T08:48:02Z</time>
      </trkpt>
      <trkpt lat="44.45729" lon="2.43714">
        <ele>731.7</ele>
        <time>2013-01-20T08:48:03Z</time>
      </trkpt>
      <trkpt lat="44.45727" lon="2.4371">
        <ele>731.9</ele>
        <time>2013-01-20T08:48:04Z</time>
      </trkpt>
      <trkpt lat="44.45725" lon="2.43706">
        <ele>731.9</ele>
        <time>2013-01-20T08:48:05Z</time>
      </trkpt>
      <trkpt lat="44.45724" lon="2.43702">
        <ele>731.9</ele>
        <time>2013-01-20T08:48:06Z</time>
      </trkpt>
      <trkpt lat="44.45722" lon="2.43698">
        <ele>731.9</ele>
        <time>2013-01-20T08:48:07Z</time>
      </trkpt>
      <trkpt lat="44.45721" lon="2.43694">
        <ele>731.8</ele>
        <time>2013-01-20T08:48:08Z</time>
      </trkpt>
      <trkpt lat="44.4572" lon="2.4369">
        <ele>731.8</ele>
        <time>2013-01-20T08:48:09Z</time>
      </trkpt>
      <trkpt lat="44.45719" lon="2.43686">
        <ele>731.7</ele>
        <time>2013-01-20T08:48:10Z</time>
      </trkpt>
      <trkpt lat="44.45717" lon="2.43682">
        <ele>731.7</ele>
        <time>2013-01-20T08:48:11Z</time>
      </trkpt>
      <trkpt lat="44.45716" lon="2.43678">
        <ele>732</ele>
        <time>2013-01-20T08:48:12Z</time>
      </trkpt>
      <trkpt lat="44.45716" lon="2.43673">
        <ele>732.2</ele>
        <time>2013-01-20T08:48:13Z</time>
      </trkpt>
      <trkpt lat="44.45715" lon="2.43669">
        <ele>732.3</ele>
        <time>2013-01-20T08:48:14Z</time>
      </trkpt>
      <trkpt lat="44.45714" lon="2.43664">
        <ele>732.7</ele>
        <time>2013-01-20T08:48:15Z</time>
      </trkpt>
      <trkpt lat="44.45713" lon="2.4366">
        <ele>733</ele>
        <time>2013-01-20T08:48:16Z</time>
      </trkpt>
      <trkpt lat="44.45713" lon="2.43656">
        <ele>733.2</ele>
        <time>2013-01-20T08:48:17Z</time>
      </trkpt>
      <trkpt lat="44.45712" lon="2.43651">
        <ele>733.2</ele>
        <time>2013-01-20T08:48:18Z</time>
      </trkpt>
      <trkpt lat="44.45712" lon="2.43647">
        <ele>733.2</ele>
        <time>2013-01-20T08:48:19Z</time>
      </trkpt>
      <trkpt lat="44.45711" lon="2.43643">
        <ele>733.2</ele>
        <time>2013-01-20T08:48:20Z</time>
      </trkpt>
      <trkpt lat="44.45711" lon="2.4364">
        <ele>733.7</ele>
        <time>2013-01-20T08:48:21Z</time>
      </trkpt>
      <trkpt lat="44.45711" lon="2.43636">
        <ele>734.1</ele>
        <time>2013-01-20T08:48:22Z</time>
      </trkpt>
      <trkpt lat="44.45711" lon="2.43633">
        <ele>734.3</ele>
        <time>2013-01-20T08:48:23Z</time>
      </trkpt>
      <trkpt lat="44.45711" lon="2.43629">
        <ele>734.5</ele>
        <time>2013-01-20T08:48:24Z</time>
      </trkpt>
      <trkpt lat="44.45712" lon="2.43623">
        <ele>734.7</ele>
        <time>2013-01-20T08:48:26Z</time>
      </trkpt>
      <trkpt lat="44.45713" lon="2.43618">
        <ele>735.2</ele>
        <time>2013-01-20T08:48:28Z</time>
      </trkpt>
      <trkpt lat="44.45716" lon="2.43613">
        <ele>735.7</ele>
        <time>2013-01-20T08:48:30Z</time>
      </trkpt>
      <trkpt lat="44.45718" lon="2.4361">
        <ele>736.4</ele>
        <time>2013-01-20T08:48:32Z</time>
      </trkpt>
      <trkpt lat="44.45721" lon="2.43606">
        <ele>737.5</ele>
        <time>2013-01-20T08:48:34Z</time>
      </trkpt>
      <trkpt lat="44.45723" lon="2.43602">
        <ele>738.5</ele>
        <time>2013-01-20T08:48:36Z</time>
      </trkpt>
      <trkpt lat="44.45725" lon="2.43599">
        <ele>738.1</ele>
        <time>2013-01-20T08:48:38Z</time>
      </trkpt>
      <trkpt lat="44.45728" lon="2.43595">
        <ele>738.8</ele>
        <time>2013-01-20T08:48:41Z</time>
      </trkpt>
      <trkpt lat="44.4573" lon="2.43592">
        <ele>739.2</ele>
        <time>2013-01-20T08:48:43Z</time>
      </trkpt>
      <trkpt lat="44.45734" lon="2.43588">
        <ele>739</ele>
        <time>2013-01-20T08:48:46Z</time>
      </trkpt>
      <trkpt lat="44.45737" lon="2.43585">
        <ele>739.6</ele>
        <time>2013-01-20T08:48:49Z</time>
      </trkpt>
      <trkpt lat="44.4574" lon="2.43583">
        <ele>740.9</ele>
        <time>2013-01-20T08:48:51Z</time>
      </trkpt>
      <trkpt lat="44.45743" lon="2.43581">
        <ele>741.6</ele>
        <time>2013-01-20T08:48:53Z</time>
      </trkpt>
      <trkpt lat="44.45747" lon="2.43579">
        <ele>742.4</ele>
        <time>2013-01-20T08:48:56Z</time>
      </trkpt>
      <trkpt lat="44.4575" lon="2.43578">
        <ele>742.8</ele>
        <time>2013-01-20T08:48:58Z</time>
      </trkpt>
      <trkpt lat="44.45753" lon="2.43577">
        <ele>743.6</ele>
        <time>2013-01-20T08:49:00Z</time>
      </trkpt>
      <trkpt lat="44.45756" lon="2.43576">
        <ele>744.5</ele>
        <time>2013-01-20T08:49:02Z</time>
      </trkpt>
      <trkpt lat="44.45759" lon="2.43575">
        <ele>744.7</ele>
        <time>2013-01-20T08:49:04Z</time>
      </trkpt>
      <trkpt lat="44.45762" lon="2.43574">
        <ele>745.1</ele>
        <time>2013-01-20T08:49:06Z</time>
      </trkpt>
      <trkpt lat="44.45765" lon="2.43574">
        <ele>745.7</ele>
        <time>2013-01-20T08:49:08Z</time>
      </trkpt>
      <trkpt lat="44.45768" lon="2.43574">
        <ele>746.1</ele>
        <time>2013-01-20T08:49:10Z</time>
      </trkpt>
      <trkpt lat="44.45772" lon="2.43573">
        <ele>746.8</ele>
        <time>2013-01-20T08:49:13Z</time>
      </trkpt>
      <trkpt lat="44.45776" lon="2.43572">
        <ele>747.4</ele>
        <time>2013-01-20T08:49:16Z</time>
      </trkpt>
      <trkpt lat="44.45778" lon="2.43572">
        <ele>747.5</ele>
        <time>2013-01-20T08:49:17Z</time>
      </trkpt>
      <trkpt lat="44.45784" lon="2.4357">
        <ele>748.4</ele>
        <time>2013-01-20T08:49:21Z</time>
      </trkpt>
      <trkpt lat="44.45788" lon="2.43568">
        <ele>748.7</ele>
        <time>2013-01-20T08:49:24Z</time>
      </trkpt>
      <trkpt lat="44.45791" lon="2.43565">
        <ele>749.2</ele>
        <time>2013-01-20T08:49:27Z</time>
      </trkpt>
      <trkpt lat="44.45794" lon="2.43563">
        <ele>750</ele>
        <time>2013-01-20T08:49:29Z</time>
      </trkpt>
      <trkpt lat="44.45798" lon="2.43559">
        <ele>750.6</ele>
        <time>2013-01-20T08:49:32Z</time>
      </trkpt>
      <trkpt lat="44.458" lon="2.43557">
        <ele>750.8</ele>
        <time>2013-01-20T08:49:34Z</time>
      </trkpt>
      <trkpt lat="44.45802" lon="2.43553">
        <ele>751.2</ele>
        <time>2013-01-20T08:49:36Z</time>
      </trkpt>
      <trkpt lat="44.45804" lon="2.43548">
        <ele>751</ele>
        <time>2013-01-20T08:49:39Z</time>
      </trkpt>
      <trkpt lat="44.45805" lon="2.43542">
        <ele>751.1</ele>
        <time>2013-01-20T08:49:42Z</time>
      </trkpt>
      <trkpt lat="44.45803" lon="2.43538">
        <ele>751.2</ele>
        <time>2013-01-20T08:49:44Z</time>
      </trkpt>
      <trkpt lat="44.45802" lon="2.43536">
        <ele>751.3</ele>
        <time>2013-01-20T08:49:45Z</time>
      </trkpt>
      <trkpt lat="44.458" lon="2.43533">
        <ele>751.3</ele>
        <time>2013-01-20T08:49:46Z</time>
      </trkpt>
      <trkpt lat="44.45797" lon="2.43529">
        <ele>751.5</ele>
        <time>2013-01-20T08:49:48Z</time>
      </trkpt>
      <trkpt lat="44.45795" lon="2.43526">
        <ele>751.2</ele>
        <time>2013-01-20T08:50:12Z</time>
      </trkpt>
      <trkpt lat="44.45791" lon="2.43522">
        <ele>751.4</ele>
        <time>2013-01-20T08:50:15Z</time>
      </trkpt>
      <trkpt lat="44.45789" lon="2.4352">
        <ele>751</ele>
        <time>2013-01-20T08:50:17Z</time>
      </trkpt>
      <trkpt lat="44.45787" lon="2.43518">
        <ele>750.9</ele>
        <time>2013-01-20T08:50:18Z</time>
      </trkpt>
      <trkpt lat="44.45783" lon="2.43515">
        <ele>750.9</ele>
        <time>2013-01-20T08:50:21Z</time>
      </trkpt>
      <trkpt lat="44.4578" lon="2.43512">
        <ele>750.9</ele>
        <time>2013-01-20T08:50:23Z</time>
      </trkpt>
      <trkpt lat="44.45777" lon="2.4351">
        <ele>750.9</ele>
        <time>2013-01-20T08:50:25Z</time>
      </trkpt>
      <trkpt lat="44.45774" lon="2.43507">
        <ele>751</ele>
        <time>2013-01-20T08:50:27Z</time>
      </trkpt>
      <trkpt lat="44.45771" lon="2.43505">
        <ele>750.8</ele>
        <time>2013-01-20T08:50:29Z</time>
      </trkpt>
      <trkpt lat="44.45767" lon="2.43502">
        <ele>750.5</ele>
        <time>2013-01-20T08:50:31Z</time>
      </trkpt>
      <trkpt lat="44.45764" lon="2.43499">
        <ele>750.9</ele>
        <time>2013-01-20T08:50:33Z</time>
      </trkpt>
      <trkpt lat="44.4576" lon="2.43497">
        <ele>750.8</ele>
        <time>2013-01-20T08:50:35Z</time>
      </trkpt>
      <trkpt lat="44.45757" lon="2.43495">
        <ele>750.5</ele>
        <time>2013-01-20T08:50:37Z</time>
      </trkpt>
      <trkpt lat="44.45753" lon="2.43493">
        <ele>750.9</ele>
        <time>2013-01-20T08:50:39Z</time>
      </trkpt>
      <trkpt lat="44.4575" lon="2.4349">
        <ele>751.1</ele>
        <time>2013-01-20T08:50:41Z</time>
      </trkpt>
      <trkpt lat="44.45747" lon="2.43488">
        <ele>751.7</ele>
        <time>2013-01-20T08:50:43Z</time>
      </trkpt>
      <trkpt lat="44.45743" lon="2.43486">
        <ele>752</ele>
        <time>2013-01-20T08:50:45Z</time>
      </trkpt>
      <trkpt lat="44.4574" lon="2.43484">
        <ele>752.1</ele>
        <time>2013-01-20T08:50:47Z</time>
      </trkpt>
      <trkpt lat="44.45736" lon="2.43483">
        <ele>752.5</ele>
        <time>2013-01-20T08:50:49Z</time>
      </trkpt>
      <trkpt lat="44.45733" lon="2.43483">
        <ele>752.7</ele>
        <time>2013-01-20T08:50:51Z</time>
      </trkpt>
      <trkpt lat="44.45729" lon="2.43483">
        <ele>752.8</ele>
        <time>2013-01-20T08:50:53Z</time>
      </trkpt>
      <trkpt lat="44.45726" lon="2.43484">
        <ele>753</ele>
        <time>2013-01-20T08:50:55Z</time>
      </trkpt>
      <trkpt lat="44.45723" lon="2.43487">
        <ele>753.1</ele>
        <time>2013-01-20T08:50:57Z</time>
      </trkpt>
      <trkpt lat="44.4572" lon="2.43489">
        <ele>753.6</ele>
        <time>2013-01-20T08:50:59Z</time>
      </trkpt>
      <trkpt lat="44.45716" lon="2.43491">
        <ele>754.2</ele>
        <time>2013-01-20T08:51:01Z</time>
      </trkpt>
      <trkpt lat="44.45713" lon="2.43492">
        <ele>754.8</ele>
        <time>2013-01-20T08:51:03Z</time>
      </trkpt>
      <trkpt lat="44.45709" lon="2.43492">
        <ele>755.4</ele>
        <time>2013-01-20T08:51:05Z</time>
      </trkpt>
      <trkpt lat="44.45706" lon="2.43492">
        <ele>755.6</ele>
        <time>2013-01-20T08:51:07Z</time>
      </trkpt>
      <trkpt lat="44.45702" lon="2.43492">
        <ele>756</ele>
        <time>2013-01-20T08:51:10Z</time>
      </trkpt>
      <trkpt lat="44.45698" lon="2.4349">
        <ele>756.7</ele>
        <time>2013-01-20T08:51:12Z</time>
      </trkpt>
      <trkpt lat="44.45695" lon="2.43489">
        <ele>757.1</ele>
        <time>2013-01-20T08:51:14Z</time>
      </trkpt>
      <trkpt lat="44.45691" lon="2.43487">
        <ele>757.4</ele>
        <time>2013-01-20T08:51:16Z</time>
      </trkpt>
      <trkpt lat="44.45688" lon="2.43486">
        <ele>758</ele>
        <time>2013-01-20T08:51:18Z</time>
      </trkpt>
      <trkpt lat="44.45686" lon="2.43486">
        <ele>758.2</ele>
        <time>2013-01-20T08:51:19Z</time>
      </trkpt>
      <trkpt lat="44.4568" lon="2.43483">
        <ele>758.1</ele>
        <time>2013-01-20T08:51:22Z</time>
      </trkpt>
      <trkpt lat="44.45676" lon="2.43483">
        <ele>758.5</ele>
        <time>2013-01-20T08:51:24Z</time>
      </trkpt>
      <trkpt lat="44.45673" lon="2.43482">
        <ele>759.1</ele>
        <time>2013-01-20T08:51:26Z</time>
      </trkpt>
      <trkpt lat="44.45669" lon="2.43481">
        <ele>759.6</ele>
        <time>2013-01-20T08:51:28Z</time>
      </trkpt>
      <trkpt lat="44.45666" lon="2.43481">
        <ele>759.9</ele>
        <time>2013-01-20T08:51:30Z</time>
      </trkpt>
      <trkpt lat="44.45662" lon="2.4348">
        <ele>760.2</ele>
        <time>2013-01-20T08:51:32Z</time>
      </trkpt>
      <trkpt lat="44.45659" lon="2.4348">
        <ele>761.1</ele>
        <time>2013-01-20T08:51:34Z</time>
      </trkpt>
      <trkpt lat="44.45656" lon="2.43479">
        <ele>761.4</ele>
        <time>2013-01-20T08:51:36Z</time>
      </trkpt>
      <trkpt lat="44.45653" lon="2.43479">
        <ele>761.4</ele>
        <time>2013-01-20T08:51:38Z</time>
      </trkpt>
      <trkpt lat="44.45648" lon="2.43478">
        <ele>762.4</ele>
        <time>2013-01-20T08:51:41Z</time>
      </trkpt>
      <trkpt lat="44.45645" lon="2.43477">
        <ele>763.4</ele>
        <time>2013-01-20T08:51:43Z</time>
      </trkpt>
      <trkpt lat="44.45642" lon="2.43477">
        <ele>763.9</ele>
        <time>2013-01-20T08:51:45Z</time>
      </trkpt>
      <trkpt lat="44.45639" lon="2.43476">
        <ele>764.2</ele>
        <time>2013-01-20T08:51:47Z</time>
      </trkpt>
      <trkpt lat="44.45636" lon="2.43476">
        <ele>764.8</ele>
        <time>2013-01-20T08:51:49Z</time>
      </trkpt>
      <trkpt lat="44.45632" lon="2.43476">
        <ele>765.5</ele>
        <time>2013-01-20T08:51:51Z</time>
      </trkpt>
      <trkpt lat="44.45629" lon="2.43476">
        <ele>765.4</ele>
        <time>2013-01-20T08:51:53Z</time>
      </trkpt>
      <trkpt lat="44.45625" lon="2.43475">
        <ele>765.8</ele>
        <time>2013-01-20T08:51:55Z</time>
      </trkpt>
      <trkpt lat="44.45622" lon="2.43475">
        <ele>766.4</ele>
        <time>2013-01-20T08:51:57Z</time>
      </trkpt>
      <trkpt lat="44.45618" lon="2.43475">
        <ele>766.4</ele>
        <time>2013-01-20T08:51:59Z</time>
      </trkpt>
      <trkpt lat="44.45615" lon="2.43475">
        <ele>766.8</ele>
        <time>2013-01-20T08:52:01Z</time>
      </trkpt>
      <trkpt lat="44.45611" lon="2.43474">
        <ele>767.3</ele>
        <time>2013-01-20T08:52:03Z</time>
      </trkpt>
      <trkpt lat="44.45608" lon="2.43474">
        <ele>767.6</ele>
        <time>2013-01-20T08:52:05Z</time>
      </trkpt>
      <trkpt lat="44.45604" lon="2.43474">
        <ele>767.9</ele>
        <time>2013-01-20T08:52:07Z</time>
      </trkpt>
      <trkpt lat="44.45601" lon="2.43474">
        <ele>768.3</ele>
        <time>2013-01-20T08:52:09Z</time>
      </trkpt>
      <trkpt lat="44.45597" lon="2.43474">
        <ele>768.5</ele>
        <time>2013-01-20T08:52:11Z</time>
      </trkpt>
      <trkpt lat="44.45594" lon="2.43474">
        <ele>768.7</ele>
        <time>2013-01-20T08:52:13Z</time>
      </trkpt>
      <trkpt lat="44.4559" lon="2.43474">
        <ele>767.8</ele>
        <time>2013-01-20T08:52:15Z</time>
      </trkpt>
      <trkpt lat="44.45586" lon="2.43474">
        <ele>767.6</ele>
        <time>2013-01-20T08:52:17Z</time>
      </trkpt>
      <trkpt lat="44.45583" lon="2.43475">
        <ele>767.8</ele>
        <time>2013-01-20T08:52:19Z</time>
      </trkpt>
      <trkpt lat="44.45581" lon="2.43475">
        <ele>767.9</ele>
        <time>2013-01-20T08:52:20Z</time>
      </trkpt>
      <trkpt lat="44.45576" lon="2.43477">
        <ele>768.5</ele>
        <time>2013-01-20T08:52:23Z</time>
      </trkpt>
      <trkpt lat="44.45573" lon="2.43477">
        <ele>768.7</ele>
        <time>2013-01-20T08:52:25Z</time>
      </trkpt>
      <trkpt lat="44.45569" lon="2.43478">
        <ele>769.1</ele>
        <time>2013-01-20T08:52:27Z</time>
      </trkpt>
      <trkpt lat="44.45566" lon="2.43479">
        <ele>769.7</ele>
        <time>2013-01-20T08:52:29Z</time>
      </trkpt>
      <trkpt lat="44.45562" lon="2.4348">
        <ele>769.5</ele>
        <time>2013-01-20T08:52:31Z</time>
      </trkpt>
      <trkpt lat="44.45558" lon="2.43481">
        <ele>769.7</ele>
        <time>2013-01-20T08:52:33Z</time>
      </trkpt>
      <trkpt lat="44.45555" lon="2.43482">
        <ele>770.1</ele>
        <time>2013-01-20T08:52:35Z</time>
      </trkpt>
      <trkpt lat="44.45551" lon="2.43483">
        <ele>769.7</ele>
        <time>2013-01-20T08:52:37Z</time>
      </trkpt>
      <trkpt lat="44.45547" lon="2.43484">
        <ele>769</ele>
        <time>2013-01-20T08:52:39Z</time>
      </trkpt>
      <trkpt lat="44.45544" lon="2.43486">
        <ele>769.7</ele>
        <time>2013-01-20T08:52:41Z</time>
      </trkpt>
      <trkpt lat="44.4554" lon="2.43487">
        <ele>770.2</ele>
        <time>2013-01-20T08:52:43Z</time>
      </trkpt>
      <trkpt lat="44.45536" lon="2.43488">
        <ele>770.6</ele>
        <time>2013-01-20T08:52:45Z</time>
      </trkpt>
      <trkpt lat="44.45533" lon="2.4349">
        <ele>771.2</ele>
        <time>2013-01-20T08:52:47Z</time>
      </trkpt>
      <trkpt lat="44.45529" lon="2.43491">
        <ele>771.7</ele>
        <time>2013-01-20T08:52:49Z</time>
      </trkpt>
      <trkpt lat="44.45526" lon="2.43492">
        <ele>772</ele>
        <time>2013-01-20T08:52:51Z</time>
      </trkpt>
      <trkpt lat="44.45522" lon="2.43494">
        <ele>772.1</ele>
        <time>2013-01-20T08:52:53Z</time>
      </trkpt>
      <trkpt lat="44.45519" lon="2.43495">
        <ele>772.2</ele>
        <time>2013-01-20T08:52:55Z</time>
      </trkpt>
      <trkpt lat="44.45515" lon="2.43497">
        <ele>772.3</ele>
        <time>2013-01-20T08:52:57Z</time>
      </trkpt>
      <trkpt lat="44.45512" lon="2.43499">
        <ele>772.5</ele>
        <time>2013-01-20T08:52:59Z</time>
      </trkpt>
      <trkpt lat="44.45508" lon="2.43501">
        <ele>772.9</ele>
        <time>2013-01-20T08:53:01Z</time>
      </trkpt>
      <trkpt lat="44.45505" lon="2.43503">
        <ele>773.5</ele>
        <time>2013-01-20T08:53:03Z</time>
      </trkpt>
      <trkpt lat="44.45501" lon="2.43506">
        <ele>773.9</ele>
        <time>2013-01-20T08:53:05Z</time>
      </trkpt>
      <trkpt lat="44.45498" lon="2.43509">
        <ele>774.2</ele>
        <time>2013-01-20T08:53:07Z</time>
      </trkpt>
      <trkpt lat="44.45494" lon="2.43511">
        <ele>774.2</ele>
        <time>2013-01-20T08:53:09Z</time>
      </trkpt>
      <trkpt lat="44.45491" lon="2.43514">
        <ele>774.2</ele>
        <time>2013-01-20T08:53:11Z</time>
      </trkpt>
      <trkpt lat="44.45487" lon="2.43516">
        <ele>774.5</ele>
        <time>2013-01-20T08:53:13Z</time>
      </trkpt>
      <trkpt lat="44.45484" lon="2.43519">
        <ele>774.7</ele>
        <time>2013-01-20T08:53:15Z</time>
      </trkpt>
      <trkpt lat="44.4548" lon="2.43522">
        <ele>774.8</ele>
        <time>2013-01-20T08:53:17Z</time>
      </trkpt>
      <trkpt lat="44.45477" lon="2.43525">
        <ele>774.8</ele>
        <time>2013-01-20T08:53:19Z</time>
      </trkpt>
      <trkpt lat="44.45473" lon="2.43528">
        <ele>774.8</ele>
        <time>2013-01-20T08:53:21Z</time>
      </trkpt>
      <trkpt lat="44.45472" lon="2.4353">
        <ele>774.8</ele>
        <time>2013-01-20T08:53:22Z</time>
      </trkpt>
      <trkpt lat="44.45467" lon="2.43534">
        <ele>775.4</ele>
        <time>2013-01-20T08:53:25Z</time>
      </trkpt>
      <trkpt lat="44.45463" lon="2.43538">
        <ele>775.7</ele>
        <time>2013-01-20T08:53:27Z</time>
      </trkpt>
      <trkpt lat="44.4546" lon="2.43541">
        <ele>775.5</ele>
        <time>2013-01-20T08:53:29Z</time>
      </trkpt>
      <trkpt lat="44.45457" lon="2.43544">
        <ele>775.5</ele>
        <time>2013-01-20T08:53:31Z</time>
      </trkpt>
      <trkpt lat="44.45454" lon="2.43547">
        <ele>775.6</ele>
        <time>2013-01-20T08:53:33Z</time>
      </trkpt>
      <trkpt lat="44.45451" lon="2.43551">
        <ele>776.1</ele>
        <time>2013-01-20T08:53:35Z</time>
      </trkpt>
      <trkpt lat="44.45448" lon="2.43555">
        <ele>776.2</ele>
        <time>2013-01-20T08:53:37Z</time>
      </trkpt>
      <trkpt lat="44.45446" lon="2.43558">
        <ele>776.2</ele>
        <time>2013-01-20T08:53:39Z</time>
      </trkpt>
      <trkpt lat="44.45443" lon="2.43562">
        <ele>776.3</ele>
        <time>2013-01-20T08:53:41Z</time>
      </trkpt>
      <trkpt lat="44.4544" lon="2.43566">
        <ele>776.3</ele>
        <time>2013-01-20T08:53:43Z</time>
      </trkpt>
      <trkpt lat="44.45437" lon="2.4357">
        <ele>776.4</ele>
        <time>2013-01-20T08:53:45Z</time>
      </trkpt>
      <trkpt lat="44.45434" lon="2.43574">
        <ele>777.1</ele>
        <time>2013-01-20T08:53:47Z</time>
      </trkpt>
      <trkpt lat="44.45432" lon="2.43579">
        <ele>777.9</ele>
        <time>2013-01-20T08:53:49Z</time>
      </trkpt>
      <trkpt lat="44.4543" lon="2.43581">
        <ele>777.8</ele>
        <time>2013-01-20T08:53:50Z</time>
      </trkpt>
      <trkpt lat="44.45428" lon="2.43583">
        <ele>777.7</ele>
        <time>2013-01-20T08:53:51Z</time>
      </trkpt>
      <trkpt lat="44.45427" lon="2.43585">
        <ele>777.6</ele>
        <time>2013-01-20T08:53:52Z</time>
      </trkpt>
      <trkpt lat="44.45425" lon="2.43588">
        <ele>777.8</ele>
        <time>2013-01-20T08:53:53Z</time>
      </trkpt>
      <trkpt lat="44.45423" lon="2.4359">
        <ele>777.9</ele>
        <time>2013-01-20T08:53:54Z</time>
      </trkpt>
      <trkpt lat="44.45421" lon="2.43592">
        <ele>778</ele>
        <time>2013-01-20T08:53:55Z</time>
      </trkpt>
      <trkpt lat="44.45418" lon="2.43596">
        <ele>778.3</ele>
        <time>2013-01-20T08:53:57Z</time>
      </trkpt>
      <trkpt lat="44.45415" lon="2.43601">
        <ele>778.7</ele>
        <time>2013-01-20T08:53:59Z</time>
      </trkpt>
      <trkpt lat="44.45414" lon="2.43603">
        <ele>779</ele>
        <time>2013-01-20T08:54:00Z</time>
      </trkpt>
      <trkpt lat="44.45411" lon="2.43607">
        <ele>779.3</ele>
        <time>2013-01-20T08:54:02Z</time>
      </trkpt>
      <trkpt lat="44.45409" lon="2.4361">
        <ele>779.2</ele>
        <time>2013-01-20T08:54:03Z</time>
      </trkpt>
      <trkpt lat="44.45408" lon="2.43612">
        <ele>779</ele>
        <time>2013-01-20T08:54:04Z</time>
      </trkpt>
      <trkpt lat="44.45406" lon="2.43614">
        <ele>778.9</ele>
        <time>2013-01-20T08:54:05Z</time>
      </trkpt>
      <trkpt lat="44.45403" lon="2.43619">
        <ele>779.4</ele>
        <time>2013-01-20T08:54:07Z</time>
      </trkpt>
      <trkpt lat="44.45401" lon="2.43621">
        <ele>779.5</ele>
        <time>2013-01-20T08:54:08Z</time>
      </trkpt>
      <trkpt lat="44.454" lon="2.43624">
        <ele>779.5</ele>
        <time>2013-01-20T08:54:09Z</time>
      </trkpt>
      <trkpt lat="44.45398" lon="2.43626">
        <ele>779.5</ele>
        <time>2013-01-20T08:54:10Z</time>
      </trkpt>
      <trkpt lat="44.45397" lon="2.43629">
        <ele>779.5</ele>
        <time>2013-01-20T08:54:11Z</time>
      </trkpt>
      <trkpt lat="44.45395" lon="2.43631">
        <ele>779.5</ele>
        <time>2013-01-20T08:54:12Z</time>
      </trkpt>
      <trkpt lat="44.45394" lon="2.43634">
        <ele>779.5</ele>
        <time>2013-01-20T08:54:13Z</time>
      </trkpt>
      <trkpt lat="44.45392" lon="2.43636">
        <ele>779.5</ele>
        <time>2013-01-20T08:54:14Z</time>
      </trkpt>
      <trkpt lat="44.4539" lon="2.43638">
        <ele>779.5</ele>
        <time>2013-01-20T08:54:15Z</time>
      </trkpt>
      <trkpt lat="44.45389" lon="2.43641">
        <ele>779.4</ele>
        <time>2013-01-20T08:54:16Z</time>
      </trkpt>
      <trkpt lat="44.45387" lon="2.43643">
        <ele>779.4</ele>
        <time>2013-01-20T08:54:17Z</time>
      </trkpt>
      <trkpt lat="44.45385" lon="2.43646">
        <ele>779.4</ele>
        <time>2013-01-20T08:54:18Z</time>
      </trkpt>
      <trkpt lat="44.45384" lon="2.43648">
        <ele>780.1</ele>
        <time>2013-01-20T08:54:19Z</time>
      </trkpt>
      <trkpt lat="44.45382" lon="2.43651">
        <ele>780.7</ele>
        <time>2013-01-20T08:54:20Z</time>
      </trkpt>
      <trkpt lat="44.4538" lon="2.43653">
        <ele>781.1</ele>
        <time>2013-01-20T08:54:21Z</time>
      </trkpt>
      <trkpt lat="44.45379" lon="2.43656">
        <ele>781.1</ele>
        <time>2013-01-20T08:54:22Z</time>
      </trkpt>
      <trkpt lat="44.45377" lon="2.43658">
        <ele>781.2</ele>
        <time>2013-01-20T08:54:23Z</time>
      </trkpt>
      <trkpt lat="44.45375" lon="2.4366">
        <ele>781.3</ele>
        <time>2013-01-20T08:54:24Z</time>
      </trkpt>
      <trkpt lat="44.45373" lon="2.43663">
        <ele>781.7</ele>
        <time>2013-01-20T08:54:25Z</time>
      </trkpt>
      <trkpt lat="44.45372" lon="2.43665">
        <ele>782</ele>
        <time>2013-01-20T08:54:26Z</time>
      </trkpt>
      <trkpt lat="44.4537" lon="2.43668">
        <ele>782.3</ele>
        <time>2013-01-20T08:54:27Z</time>
      </trkpt>
      <trkpt lat="44.45368" lon="2.43671">
        <ele>782.3</ele>
        <time>2013-01-20T08:54:28Z</time>
      </trkpt>
      <trkpt lat="44.45366" lon="2.43673">
        <ele>782.4</ele>
        <time>2013-01-20T08:54:29Z</time>
      </trkpt>
      <trkpt lat="44.45365" lon="2.43676">
        <ele>782.4</ele>
        <time>2013-01-20T08:54:30Z</time>
      </trkpt>
      <trkpt lat="44.45363" lon="2.43678">
        <ele>782.3</ele>
        <time>2013-01-20T08:54:31Z</time>
      </trkpt>
      <trkpt lat="44.45361" lon="2.4368">
        <ele>782.1</ele>
        <time>2013-01-20T08:54:32Z</time>
      </trkpt>
      <trkpt lat="44.45359" lon="2.43682">
        <ele>782.1</ele>
        <time>2013-01-20T08:54:33Z</time>
      </trkpt>
      <trkpt lat="44.45357" lon="2.43684">
        <ele>782</ele>
        <time>2013-01-20T08:54:34Z</time>
      </trkpt>
      <trkpt lat="44.45355" lon="2.43686">
        <ele>782.2</ele>
        <time>2013-01-20T08:54:35Z</time>
      </trkpt>
      <trkpt lat="44.45353" lon="2.43688">
        <ele>782.4</ele>
        <time>2013-01-20T08:54:36Z</time>
      </trkpt>
      <trkpt lat="44.45351" lon="2.4369">
        <ele>782.5</ele>
        <time>2013-01-20T08:54:37Z</time>
      </trkpt>
      <trkpt lat="44.45349" lon="2.43691">
        <ele>782.6</ele>
        <time>2013-01-20T08:54:38Z</time>
      </trkpt>
      <trkpt lat="44.45347" lon="2.43693">
        <ele>782.6</ele>
        <time>2013-01-20T08:54:39Z</time>
      </trkpt>
      <trkpt lat="44.45344" lon="2.43695">
        <ele>782.7</ele>
        <time>2013-01-20T08:54:40Z</time>
      </trkpt>
      <trkpt lat="44.45342" lon="2.43697">
        <ele>782.4</ele>
        <time>2013-01-20T08:54:41Z</time>
      </trkpt>
      <trkpt lat="44.45339" lon="2.43699">
        <ele>782.1</ele>
        <time>2013-01-20T08:54:42Z</time>
      </trkpt>
      <trkpt lat="44.45337" lon="2.43701">
        <ele>781.9</ele>
        <time>2013-01-20T08:54:43Z</time>
      </trkpt>
      <trkpt lat="44.45335" lon="2.43703">
        <ele>781.8</ele>
        <time>2013-01-20T08:54:44Z</time>
      </trkpt>
      <trkpt lat="44.45332" lon="2.43705">
        <ele>781.8</ele>
        <time>2013-01-20T08:54:45Z</time>
      </trkpt>
      <trkpt lat="44.4533" lon="2.43706">
        <ele>781.7</ele>
        <time>2013-01-20T08:54:46Z</time>
      </trkpt>
      <trkpt lat="44.45328" lon="2.43708">
        <ele>781.9</ele>
        <time>2013-01-20T08:54:47Z</time>
      </trkpt>
      <trkpt lat="44.45325" lon="2.4371">
        <ele>782.1</ele>
        <time>2013-01-20T08:54:48Z</time>
      </trkpt>
      <trkpt lat="44.45323" lon="2.43712">
        <ele>782.2</ele>
        <time>2013-01-20T08:54:49Z</time>
      </trkpt>
      <trkpt lat="44.4532" lon="2.43714">
        <ele>782.2</ele>
        <time>2013-01-20T08:54:50Z</time>
      </trkpt>
      <trkpt lat="44.45317" lon="2.43716">
        <ele>782.2</ele>
        <time>2013-01-20T08:54:51Z</time>
      </trkpt>
      <trkpt lat="44.45314" lon="2.43719">
        <ele>782.1</ele>
        <time>2013-01-20T08:54:52Z</time>
      </trkpt>
      <trkpt lat="44.45311" lon="2.43721">
        <ele>782</ele>
        <time>2013-01-20T08:54:53Z</time>
      </trkpt>
      <trkpt lat="44.45308" lon="2.43724">
        <ele>781.6</ele>
        <time>2013-01-20T08:54:54Z</time>
      </trkpt>
      <trkpt lat="44.45305" lon="2.43727">
        <ele>781.3</ele>
        <time>2013-01-20T08:54:55Z</time>
      </trkpt>
      <trkpt lat="44.45301" lon="2.4373">
        <ele>781.1</ele>
        <time>2013-01-20T08:54:56Z</time>
      </trkpt>
      <trkpt lat="44.45298" lon="2.43734">
        <ele>780.5</ele>
        <time>2013-01-20T08:54:57Z</time>
      </trkpt>
      <trkpt lat="44.45295" lon="2.43737">
        <ele>780.2</ele>
        <time>2013-01-20T08:54:58Z</time>
      </trkpt>
      <trkpt lat="44.45291" lon="2.4374">
        <ele>779.9</ele>
        <time>2013-01-20T08:54:59Z</time>
      </trkpt>
      <trkpt lat="44.45288" lon="2.43744">
        <ele>779.4</ele>
        <time>2013-01-20T08:55:00Z</time>
      </trkpt>
      <trkpt lat="44.45285" lon="2.43747">
        <ele>779.1</ele>
        <time>2013-01-20T08:55:01Z</time>
      </trkpt>
      <trkpt lat="44.45282" lon="2.43751">
        <ele>778.9</ele>
        <time>2013-01-20T08:55:02Z</time>
      </trkpt>
      <trkpt lat="44.45279" lon="2.43754">
        <ele>778.7</ele>
        <time>2013-01-20T08:55:03Z</time>
      </trkpt>
      <trkpt lat="44.45276" lon="2.43758">
        <ele>778.5</ele>
        <time>2013-01-20T08:55:04Z</time>
      </trkpt>
      <trkpt lat="44.45272" lon="2.43761">
        <ele>778.4</ele>
        <time>2013-01-20T08:55:05Z</time>
      </trkpt>
      <trkpt lat="44.45269" lon="2.43765">
        <ele>778.1</ele>
        <time>2013-01-20T08:55:06Z</time>
      </trkpt>
      <trkpt lat="44.45266" lon="2.43768">
        <ele>777.9</ele>
        <time>2013-01-20T08:55:07Z</time>
      </trkpt>
      <trkpt lat="44.45262" lon="2.43772">
        <ele>777.7</ele>
        <time>2013-01-20T08:55:08Z</time>
      </trkpt>
      <trkpt lat="44.45259" lon="2.43776">
        <ele>777.6</ele>
        <time>2013-01-20T08:55:09Z</time>
      </trkpt>
      <trkpt lat="44.45255" lon="2.43779">
        <ele>777.2</ele>
        <time>2013-01-20T08:55:10Z</time>
      </trkpt>
      <trkpt lat="44.45252" lon="2.43783">
        <ele>776.9</ele>
        <time>2013-01-20T08:55:11Z</time>
      </trkpt>
      <trkpt lat="44.45249" lon="2.43786">
        <ele>776.6</ele>
        <time>2013-01-20T08:55:12Z</time>
      </trkpt>
      <trkpt lat="44.45246" lon="2.43789">
        <ele>776.5</ele>
        <time>2013-01-20T08:55:13Z</time>
      </trkpt>
      <trkpt lat="44.45243" lon="2.43793">
        <ele>776.4</ele>
        <time>2013-01-20T08:55:14Z</time>
      </trkpt>
      <trkpt lat="44.4524" lon="2.43796">
        <ele>776.4</ele>
        <time>2013-01-20T08:55:15Z</time>
      </trkpt>
      <trkpt lat="44.45237" lon="2.43799">
        <ele>776.4</ele>
        <time>2013-01-20T08:55:16Z</time>
      </trkpt>
      <trkpt lat="44.45234" lon="2.43802">
        <ele>776.4</ele>
        <time>2013-01-20T08:55:17Z</time>
      </trkpt>
      <trkpt lat="44.45231" lon="2.43805">
        <ele>776.4</ele>
        <time>2013-01-20T08:55:18Z</time>
      </trkpt>
      <trkpt lat="44.45228" lon="2.43808">
        <ele>776.2</ele>
        <time>2013-01-20T08:55:19Z</time>
      </trkpt>
      <trkpt lat="44.45225" lon="2.43811">
        <ele>776.1</ele>
        <time>2013-01-20T08:55:20Z</time>
      </trkpt>
      <trkpt lat="44.45221" lon="2.43815">
        <ele>775.9</ele>
        <time>2013-01-20T08:55:21Z</time>
      </trkpt>
      <trkpt lat="44.45218" lon="2.43818">
        <ele>775.9</ele>
        <time>2013-01-20T08:55:22Z</time>
      </trkpt>
      <trkpt lat="44.45215" lon="2.43821">
        <ele>775.7</ele>
        <time>2013-01-20T08:55:23Z</time>
      </trkpt>
      <trkpt lat="44.45212" lon="2.43824">
        <ele>775.6</ele>
        <time>2013-01-20T08:55:24Z</time>
      </trkpt>
      <trkpt lat="44.45208" lon="2.43827">
        <ele>775.5</ele>
        <time>2013-01-20T08:55:25Z</time>
      </trkpt>
      <trkpt lat="44.45205" lon="2.4383">
        <ele>774.8</ele>
        <time>2013-01-20T08:55:26Z</time>
      </trkpt>
      <trkpt lat="44.45202" lon="2.43833">
        <ele>774.3</ele>
        <time>2013-01-20T08:55:27Z</time>
      </trkpt>
      <trkpt lat="44.45198" lon="2.43836">
        <ele>774</ele>
        <time>2013-01-20T08:55:28Z</time>
      </trkpt>
      <trkpt lat="44.45195" lon="2.43839">
        <ele>773.9</ele>
        <time>2013-01-20T08:55:29Z</time>
      </trkpt>
      <trkpt lat="44.45191" lon="2.43842">
        <ele>773.9</ele>
        <time>2013-01-20T08:55:30Z</time>
      </trkpt>
      <trkpt lat="44.45188" lon="2.43844">
        <ele>773.8</ele>
        <time>2013-01-20T08:55:31Z</time>
      </trkpt>
      <trkpt lat="44.45184" lon="2.43847">
        <ele>773.7</ele>
        <time>2013-01-20T08:55:32Z</time>
      </trkpt>
      <trkpt lat="44.45181" lon="2.43849">
        <ele>773.6</ele>
        <time>2013-01-20T08:55:33Z</time>
      </trkpt>
      <trkpt lat="44.45177" lon="2.43851">
        <ele>773.5</ele>
        <time>2013-01-20T08:55:34Z</time>
      </trkpt>
      <trkpt lat="44.45173" lon="2.43853">
        <ele>773.2</ele>
        <time>2013-01-20T08:55:35Z</time>
      </trkpt>
      <trkpt lat="44.45169" lon="2.43854">
        <ele>772.9</ele>
        <time>2013-01-20T08:55:36Z</time>
      </trkpt>
      <trkpt lat="44.45165" lon="2.43856">
        <ele>772.8</ele>
        <time>2013-01-20T08:55:37Z</time>
      </trkpt>
      <trkpt lat="44.45161" lon="2.43858">
        <ele>772.5</ele>
        <time>2013-01-20T08:55:38Z</time>
      </trkpt>
      <trkpt lat="44.45157" lon="2.4386">
        <ele>772.2</ele>
        <time>2013-01-20T08:55:39Z</time>
      </trkpt>
      <trkpt lat="44.45153" lon="2.43862">
        <ele>772.1</ele>
        <time>2013-01-20T08:55:40Z</time>
      </trkpt>
      <trkpt lat="44.45148" lon="2.43865">
        <ele>771.9</ele>
        <time>2013-01-20T08:55:41Z</time>
      </trkpt>
      <trkpt lat="44.45144" lon="2.43867">
        <ele>771.8</ele>
        <time>2013-01-20T08:55:42Z</time>
      </trkpt>
      <trkpt lat="44.45139" lon="2.4387">
        <ele>771.7</ele>
        <time>2013-01-20T08:55:43Z</time>
      </trkpt>
      <trkpt lat="44.45135" lon="2.43872">
        <ele>771.6</ele>
        <time>2013-01-20T08:55:44Z</time>
      </trkpt>
      <trkpt lat="44.4513" lon="2.43874">
        <ele>771</ele>
        <time>2013-01-20T08:55:45Z</time>
      </trkpt>
      <trkpt lat="44.45125" lon="2.43876">
        <ele>770.5</ele>
        <time>2013-01-20T08:55:46Z</time>
      </trkpt>
      <trkpt lat="44.4512" lon="2.43878">
        <ele>770.1</ele>
        <time>2013-01-20T08:55:47Z</time>
      </trkpt>
      <trkpt lat="44.45115" lon="2.4388">
        <ele>769.2</ele>
        <time>2013-01-20T08:55:48Z</time>
      </trkpt>
      <trkpt lat="44.4511" lon="2.43882">
        <ele>768.6</ele>
        <time>2013-01-20T08:55:49Z</time>
      </trkpt>
      <trkpt lat="44.45104" lon="2.43884">
        <ele>768.1</ele>
        <time>2013-01-20T08:55:50Z</time>
      </trkpt>
      <trkpt lat="44.45099" lon="2.43887">
        <ele>767.4</ele>
        <time>2013-01-20T08:55:51Z</time>
      </trkpt>
      <trkpt lat="44.45094" lon="2.43889">
        <ele>766.9</ele>
        <time>2013-01-20T08:55:52Z</time>
      </trkpt>
      <trkpt lat="44.45088" lon="2.43891">
        <ele>766.6</ele>
        <time>2013-01-20T08:55:53Z</time>
      </trkpt>
      <trkpt lat="44.45083" lon="2.43892">
        <ele>766.3</ele>
        <time>2013-01-20T08:55:54Z</time>
      </trkpt>
      <trkpt lat="44.45077" lon="2.43893">
        <ele>766.1</ele>
        <time>2013-01-20T08:55:55Z</time>
      </trkpt>
      <trkpt lat="44.45071" lon="2.43894">
        <ele>766</ele>
        <time>2013-01-20T08:55:56Z</time>
      </trkpt>
      <trkpt lat="44.45065" lon="2.43895">
        <ele>765.8</ele>
        <time>2013-01-20T08:55:57Z</time>
      </trkpt>
      <trkpt lat="44.45059" lon="2.43896">
        <ele>765.4</ele>
        <time>2013-01-20T08:55:58Z</time>
      </trkpt>
      <trkpt lat="44.45053" lon="2.43897">
        <ele>765</ele>
        <time>2013-01-20T08:55:59Z</time>
      </trkpt>
      <trkpt lat="44.45047" lon="2.43899">
        <ele>764.7</ele>
        <time>2013-01-20T08:56:00Z</time>
      </trkpt>
      <trkpt lat="44.45042" lon="2.439">
        <ele>763.8</ele>
        <time>2013-01-20T08:56:01Z</time>
      </trkpt>
      <trkpt lat="44.45036" lon="2.43902">
        <ele>763.2</ele>
        <time>2013-01-20T08:56:02Z</time>
      </trkpt>
      <trkpt lat="44.4503" lon="2.43903">
        <ele>762.7</ele>
        <time>2013-01-20T08:56:03Z</time>
      </trkpt>
      <trkpt lat="44.45024" lon="2.43905">
        <ele>761.9</ele>
        <time>2013-01-20T08:56:04Z</time>
      </trkpt>
      <trkpt lat="44.45018" lon="2.43905">
        <ele>761.4</ele>
        <time>2013-01-20T08:56:05Z</time>
      </trkpt>
      <trkpt lat="44.45012" lon="2.43905">
        <ele>761</ele>
        <time>2013-01-20T08:56:06Z</time>
      </trkpt>
      <trkpt lat="44.45007" lon="2.43904">
        <ele>760.3</ele>
        <time>2013-01-20T08:56:07Z</time>
      </trkpt>
      <trkpt lat="44.45001" lon="2.43904">
        <ele>759.7</ele>
        <time>2013-01-20T08:56:08Z</time>
      </trkpt>
      <trkpt lat="44.44995" lon="2.43904">
        <ele>759.3</ele>
        <time>2013-01-20T08:56:09Z</time>
      </trkpt>
      <trkpt lat="44.4499" lon="2.43905">
        <ele>758.9</ele>
        <time>2013-01-20T08:56:10Z</time>
      </trkpt>
      <trkpt lat="44.44985" lon="2.43907">
        <ele>758.6</ele>
        <time>2013-01-20T08:56:11Z</time>
      </trkpt>
      <trkpt lat="44.44981" lon="2.4391">
        <ele>758.4</ele>
        <time>2013-01-20T08:56:12Z</time>
      </trkpt>
      <trkpt lat="44.44977" lon="2.43913">
        <ele>758.3</ele>
        <time>2013-01-20T08:56:13Z</time>
      </trkpt>
      <trkpt lat="44.44973" lon="2.43917">
        <ele>758.1</ele>
        <time>2013-01-20T08:56:14Z</time>
      </trkpt>
      <trkpt lat="44.44969" lon="2.43921">
        <ele>757.9</ele>
        <time>2013-01-20T08:56:15Z</time>
      </trkpt>
      <trkpt lat="44.44965" lon="2.43925">
        <ele>757.8</ele>
        <time>2013-01-20T08:56:16Z</time>
      </trkpt>
      <trkpt lat="44.44961" lon="2.43929">
        <ele>757.8</ele>
        <time>2013-01-20T08:56:17Z</time>
      </trkpt>
      <trkpt lat="44.44958" lon="2.43933">
        <ele>757.7</ele>
        <time>2013-01-20T08:56:18Z</time>
      </trkpt>
      <trkpt lat="44.44954" lon="2.43936">
        <ele>757.7</ele>
        <time>2013-01-20T08:56:19Z</time>
      </trkpt>
      <trkpt lat="44.44951" lon="2.43938">
        <ele>758</ele>
        <time>2013-01-20T08:56:20Z</time>
      </trkpt>
      <trkpt lat="44.44947" lon="2.43941">
        <ele>758.2</ele>
        <time>2013-01-20T08:56:21Z</time>
      </trkpt>
      <trkpt lat="44.44944" lon="2.43943">
        <ele>758.4</ele>
        <time>2013-01-20T08:56:22Z</time>
      </trkpt>
      <trkpt lat="44.44941" lon="2.43945">
        <ele>758.3</ele>
        <time>2013-01-20T08:56:23Z</time>
      </trkpt>
      <trkpt lat="44.44938" lon="2.43948">
        <ele>758.2</ele>
        <time>2013-01-20T08:56:24Z</time>
      </trkpt>
      <trkpt lat="44.44935" lon="2.4395">
        <ele>758.1</ele>
        <time>2013-01-20T08:56:25Z</time>
      </trkpt>
      <trkpt lat="44.44932" lon="2.43952">
        <ele>758.2</ele>
        <time>2013-01-20T08:56:26Z</time>
      </trkpt>
      <trkpt lat="44.44929" lon="2.43955">
        <ele>758.3</ele>
        <time>2013-01-20T08:56:27Z</time>
      </trkpt>
      <trkpt lat="44.44925" lon="2.43957">
        <ele>758.3</ele>
        <time>2013-01-20T08:56:28Z</time>
      </trkpt>
      <trkpt lat="44.44922" lon="2.43959">
        <ele>758</ele>
        <time>2013-01-20T08:56:29Z</time>
      </trkpt>
      <trkpt lat="44.44919" lon="2.43962">
        <ele>757.8</ele>
        <time>2013-01-20T08:56:30Z</time>
      </trkpt>
      <trkpt lat="44.44916" lon="2.43964">
        <ele>757.6</ele>
        <time>2013-01-20T08:56:31Z</time>
      </trkpt>
      <trkpt lat="44.44913" lon="2.43967">
        <ele>757.5</ele>
        <time>2013-01-20T08:56:32Z</time>
      </trkpt>
      <trkpt lat="44.4491" lon="2.4397">
        <ele>757.8</ele>
        <time>2013-01-20T08:56:33Z</time>
      </trkpt>
      <trkpt lat="44.44907" lon="2.43973">
        <ele>758</ele>
        <time>2013-01-20T08:56:34Z</time>
      </trkpt>
      <trkpt lat="44.44903" lon="2.43976">
        <ele>758.1</ele>
        <time>2013-01-20T08:56:35Z</time>
      </trkpt>
      <trkpt lat="44.449" lon="2.43978">
        <ele>758.2</ele>
        <time>2013-01-20T08:56:36Z</time>
      </trkpt>
      <trkpt lat="44.44897" lon="2.43981">
        <ele>758.2</ele>
        <time>2013-01-20T08:56:37Z</time>
      </trkpt>
      <trkpt lat="44.44894" lon="2.43984">
        <ele>758.2</ele>
        <time>2013-01-20T08:56:38Z</time>
      </trkpt>
      <trkpt lat="44.44891" lon="2.43987">
        <ele>758.4</ele>
        <time>2013-01-20T08:56:39Z</time>
      </trkpt>
      <trkpt lat="44.44888" lon="2.43991">
        <ele>758.6</ele>
        <time>2013-01-20T08:56:40Z</time>
      </trkpt>
      <trkpt lat="44.44885" lon="2.43993">
        <ele>758.7</ele>
        <time>2013-01-20T08:56:41Z</time>
      </trkpt>
      <trkpt lat="44.44882" lon="2.43996">
        <ele>758.6</ele>
        <time>2013-01-20T08:56:42Z</time>
      </trkpt>
      <trkpt lat="44.44878" lon="2.44">
        <ele>758.5</ele>
        <time>2013-01-20T08:56:43Z</time>
      </trkpt>
      <trkpt lat="44.44874" lon="2.44003">
        <ele>758.5</ele>
        <time>2013-01-20T08:56:44Z</time>
      </trkpt>
      <trkpt lat="44.44871" lon="2.44006">
        <ele>758.4</ele>
        <time>2013-01-20T08:56:45Z</time>
      </trkpt>
      <trkpt lat="44.44868" lon="2.44009">
        <ele>758.9</ele>
        <time>2013-01-20T08:56:46Z</time>
      </trkpt>
      <trkpt lat="44.44865" lon="2.44011">
        <ele>759.2</ele>
        <time>2013-01-20T08:56:47Z</time>
      </trkpt>
      <trkpt lat="44.44862" lon="2.44014">
        <ele>759.5</ele>
        <time>2013-01-20T08:56:48Z</time>
      </trkpt>
      <trkpt lat="44.44859" lon="2.44016">
        <ele>759.2</ele>
        <time>2013-01-20T08:56:49Z</time>
      </trkpt>
      <trkpt lat="44.44856" lon="2.44019">
        <ele>759</ele>
        <time>2013-01-20T08:56:50Z</time>
      </trkpt>
      <trkpt lat="44.44854" lon="2.44021">
        <ele>758.8</ele>
        <time>2013-01-20T08:56:51Z</time>
      </trkpt>
      <trkpt lat="44.4485" lon="2.44024">
        <ele>758.6</ele>
        <time>2013-01-20T08:56:52Z</time>
      </trkpt>
      <trkpt lat="44.44847" lon="2.44027">
        <ele>758.4</ele>
        <time>2013-01-20T08:56:53Z</time>
      </trkpt>
      <trkpt lat="44.44843" lon="2.4403">
        <ele>758.3</ele>
        <time>2013-01-20T08:56:54Z</time>
      </trkpt>
      <trkpt lat="44.4484" lon="2.44033">
        <ele>758.1</ele>
        <time>2013-01-20T08:56:55Z</time>
      </trkpt>
      <trkpt lat="44.44837" lon="2.44035">
        <ele>758</ele>
        <time>2013-01-20T08:56:56Z</time>
      </trkpt>
      <trkpt lat="44.44833" lon="2.44038">
        <ele>757.9</ele>
        <time>2013-01-20T08:56:57Z</time>
      </trkpt>
      <trkpt lat="44.4483" lon="2.4404">
        <ele>758.4</ele>
        <time>2013-01-20T08:56:58Z</time>
      </trkpt>
      <trkpt lat="44.44827" lon="2.44043">
        <ele>758.8</ele>
        <time>2013-01-20T08:56:59Z</time>
      </trkpt>
      <trkpt lat="44.44824" lon="2.44045">
        <ele>759.1</ele>
        <time>2013-01-20T08:57:00Z</time>
      </trkpt>
      <trkpt lat="44.4482" lon="2.44047">
        <ele>759</ele>
        <time>2013-01-20T08:57:01Z</time>
      </trkpt>
      <trkpt lat="44.44817" lon="2.44049">
        <ele>758.9</ele>
        <time>2013-01-20T08:57:02Z</time>
      </trkpt>
      <trkpt lat="44.44814" lon="2.44051">
        <ele>758.9</ele>
        <time>2013-01-20T08:57:03Z</time>
      </trkpt>
      <trkpt lat="44.4481" lon="2.44053">
        <ele>758.8</ele>
        <time>2013-01-20T08:57:04Z</time>
      </trkpt>
      <trkpt lat="44.44807" lon="2.44055">
        <ele>758.5</ele>
        <time>2013-01-20T08:57:05Z</time>
      </trkpt>
      <trkpt lat="44.44803" lon="2.44056">
        <ele>758.2</ele>
        <time>2013-01-20T08:57:06Z</time>
      </trkpt>
      <trkpt lat="44.448" lon="2.44058">
        <ele>758</ele>
        <time>2013-01-20T08:57:07Z</time>
      </trkpt>
      <trkpt lat="44.44797" lon="2.4406">
        <ele>758</ele>
        <time>2013-01-20T08:57:08Z</time>
      </trkpt>
      <trkpt lat="44.44793" lon="2.44062">
        <ele>758</ele>
        <time>2013-01-20T08:57:09Z</time>
      </trkpt>
      <trkpt lat="44.4479" lon="2.44064">
        <ele>758</ele>
        <time>2013-01-20T08:57:10Z</time>
      </trkpt>
      <trkpt lat="44.44786" lon="2.44066">
        <ele>757.9</ele>
        <time>2013-01-20T08:57:11Z</time>
      </trkpt>
      <trkpt lat="44.44783" lon="2.44068">
        <ele>757.7</ele>
        <time>2013-01-20T08:57:12Z</time>
      </trkpt>
      <trkpt lat="44.44779" lon="2.44069">
        <ele>757.6</ele>
        <time>2013-01-20T08:57:13Z</time>
      </trkpt>
      <trkpt lat="44.44776" lon="2.44071">
        <ele>757.9</ele>
        <time>2013-01-20T08:57:14Z</time>
      </trkpt>
      <trkpt lat="44.44773" lon="2.44073">
        <ele>758</ele>
        <time>2013-01-20T08:57:15Z</time>
      </trkpt>
      <trkpt lat="44.44769" lon="2.44075">
        <ele>758.2</ele>
        <time>2013-01-20T08:57:16Z</time>
      </trkpt>
      <trkpt lat="44.44766" lon="2.44077">
        <ele>757.8</ele>
        <time>2013-01-20T08:57:17Z</time>
      </trkpt>
      <trkpt lat="44.44763" lon="2.44078">
        <ele>757.5</ele>
        <time>2013-01-20T08:57:18Z</time>
      </trkpt>
      <trkpt lat="44.4476" lon="2.4408">
        <ele>757.3</ele>
        <time>2013-01-20T08:57:19Z</time>
      </trkpt>
      <trkpt lat="44.44756" lon="2.44082">
        <ele>757.1</ele>
        <time>2013-01-20T08:57:20Z</time>
      </trkpt>
      <trkpt lat="44.44753" lon="2.44083">
        <ele>757.1</ele>
        <time>2013-01-20T08:57:21Z</time>
      </trkpt>
      <trkpt lat="44.4475" lon="2.44085">
        <ele>757.1</ele>
        <time>2013-01-20T08:57:22Z</time>
      </trkpt>
      <trkpt lat="44.44747" lon="2.44087">
        <ele>757.2</ele>
        <time>2013-01-20T08:57:23Z</time>
      </trkpt>
      <trkpt lat="44.44744" lon="2.44088">
        <ele>757.1</ele>
        <time>2013-01-20T08:57:24Z</time>
      </trkpt>
      <trkpt lat="44.44741" lon="2.4409">
        <ele>757</ele>
        <time>2013-01-20T08:57:25Z</time>
      </trkpt>
      <trkpt lat="44.44738" lon="2.44091">
        <ele>757</ele>
        <time>2013-01-20T08:57:26Z</time>
      </trkpt>
      <trkpt lat="44.44735" lon="2.44093">
        <ele>757.3</ele>
        <time>2013-01-20T08:57:27Z</time>
      </trkpt>
      <trkpt lat="44.44732" lon="2.44094">
        <ele>757.6</ele>
        <time>2013-01-20T08:57:28Z</time>
      </trkpt>
      <trkpt lat="44.44729" lon="2.44096">
        <ele>757.7</ele>
        <time>2013-01-20T08:57:29Z</time>
      </trkpt>
      <trkpt lat="44.44726" lon="2.44097">
        <ele>757.9</ele>
        <time>2013-01-20T08:57:30Z</time>
      </trkpt>
      <trkpt lat="44.44723" lon="2.44099">
        <ele>758.1</ele>
        <time>2013-01-20T08:57:31Z</time>
      </trkpt>
      <trkpt lat="44.4472" lon="2.44101">
        <ele>758.2</ele>
        <time>2013-01-20T08:57:32Z</time>
      </trkpt>
      <trkpt lat="44.44718" lon="2.44103">
        <ele>758</ele>
        <time>2013-01-20T08:57:33Z</time>
      </trkpt>
      <trkpt lat="44.44715" lon="2.44105">
        <ele>757.8</ele>
        <time>2013-01-20T08:57:34Z</time>
      </trkpt>
      <trkpt lat="44.44712" lon="2.44107">
        <ele>757.7</ele>
        <time>2013-01-20T08:57:35Z</time>
      </trkpt>
      <trkpt lat="44.44709" lon="2.4411">
        <ele>757.6</ele>
        <time>2013-01-20T08:57:36Z</time>
      </trkpt>
      <trkpt lat="44.44707" lon="2.44112">
        <ele>757.6</ele>
        <time>2013-01-20T08:57:37Z</time>
      </trkpt>
      <trkpt lat="44.44704" lon="2.44113">
        <ele>757.6</ele>
        <time>2013-01-20T08:57:38Z</time>
      </trkpt>
      <trkpt lat="44.44701" lon="2.44115">
        <ele>757.6</ele>
        <time>2013-01-20T08:57:39Z</time>
      </trkpt>
      <trkpt lat="44.44698" lon="2.44117">
        <ele>757.5</ele>
        <time>2013-01-20T08:57:40Z</time>
      </trkpt>
      <trkpt lat="44.44696" lon="2.44118">
        <ele>757.5</ele>
        <time>2013-01-20T08:57:41Z</time>
      </trkpt>
      <trkpt lat="44.44693" lon="2.4412">
        <ele>757.5</ele>
        <time>2013-01-20T08:57:42Z</time>
      </trkpt>
      <trkpt lat="44.4469" lon="2.44122">
        <ele>757.4</ele>
        <time>2013-01-20T08:57:43Z</time>
      </trkpt>
      <trkpt lat="44.44687" lon="2.44124">
        <ele>757.3</ele>
        <time>2013-01-20T08:57:44Z</time>
      </trkpt>
      <trkpt lat="44.44685" lon="2.44125">
        <ele>757.3</ele>
        <time>2013-01-20T08:57:45Z</time>
      </trkpt>
      <trkpt lat="44.44682" lon="2.44127">
        <ele>757.1</ele>
        <time>2013-01-20T08:57:46Z</time>
      </trkpt>
      <trkpt lat="44.44679" lon="2.44129">
        <ele>756.9</ele>
        <time>2013-01-20T08:57:47Z</time>
      </trkpt>
      <trkpt lat="44.44677" lon="2.44131">
        <ele>756.8</ele>
        <time>2013-01-20T08:57:48Z</time>
      </trkpt>
      <trkpt lat="44.44674" lon="2.44133">
        <ele>756.9</ele>
        <time>2013-01-20T08:57:49Z</time>
      </trkpt>
      <trkpt lat="44.44671" lon="2.44135">
        <ele>757</ele>
        <time>2013-01-20T08:57:50Z</time>
      </trkpt>
      <trkpt lat="44.44668" lon="2.44136">
        <ele>757.1</ele>
        <time>2013-01-20T08:57:51Z</time>
      </trkpt>
      <trkpt lat="44.44666" lon="2.44137">
        <ele>756.7</ele>
        <time>2013-01-20T08:57:52Z</time>
      </trkpt>
      <trkpt lat="44.44663" lon="2.44139">
        <ele>756.4</ele>
        <time>2013-01-20T08:57:53Z</time>
      </trkpt>
      <trkpt lat="44.4466" lon="2.4414">
        <ele>756.2</ele>
        <time>2013-01-20T08:57:54Z</time>
      </trkpt>
      <trkpt lat="44.44657" lon="2.44142">
        <ele>756</ele>
        <time>2013-01-20T08:57:55Z</time>
      </trkpt>
      <trkpt lat="44.44654" lon="2.44143">
        <ele>756.1</ele>
        <time>2013-01-20T08:57:56Z</time>
      </trkpt>
      <trkpt lat="44.4465" lon="2.44144">
        <ele>756.1</ele>
        <time>2013-01-20T08:57:57Z</time>
      </trkpt>
      <trkpt lat="44.44647" lon="2.44145">
        <ele>756.1</ele>
        <time>2013-01-20T08:57:58Z</time>
      </trkpt>
      <trkpt lat="44.44644" lon="2.44146">
        <ele>756.1</ele>
        <time>2013-01-20T08:57:59Z</time>
      </trkpt>
      <trkpt lat="44.44641" lon="2.44147">
        <ele>756.1</ele>
        <time>2013-01-20T08:58:00Z</time>
      </trkpt>
      <trkpt lat="44.44638" lon="2.44148">
        <ele>756.1</ele>
        <time>2013-01-20T08:58:01Z</time>
      </trkpt>
      <trkpt lat="44.44635" lon="2.44149">
        <ele>756.2</ele>
        <time>2013-01-20T08:58:02Z</time>
      </trkpt>
      <trkpt lat="44.44633" lon="2.4415">
        <ele>756.3</ele>
        <time>2013-01-20T08:58:03Z</time>
      </trkpt>
      <trkpt lat="44.4463" lon="2.44151">
        <ele>756.3</ele>
        <time>2013-01-20T08:58:04Z</time>
      </trkpt>
      <trkpt lat="44.44627" lon="2.44152">
        <ele>756</ele>
        <time>2013-01-20T08:58:05Z</time>
      </trkpt>
      <trkpt lat="44.44624" lon="2.44153">
        <ele>755.7</ele>
        <time>2013-01-20T08:58:06Z</time>
      </trkpt>
      <trkpt lat="44.44622" lon="2.44154">
        <ele>755.6</ele>
        <time>2013-01-20T08:58:07Z</time>
      </trkpt>
      <trkpt lat="44.44619" lon="2.44155">
        <ele>755.8</ele>
        <time>2013-01-20T08:58:08Z</time>
      </trkpt>
      <trkpt lat="44.44617" lon="2.44156">
        <ele>756</ele>
        <time>2013-01-20T08:58:09Z</time>
      </trkpt>
      <trkpt lat="44.44614" lon="2.44157">
        <ele>756.1</ele>
        <time>2013-01-20T08:58:10Z</time>
      </trkpt>
      <trkpt lat="44.44611" lon="2.44157">
        <ele>756.2</ele>
        <time>2013-01-20T08:58:11Z</time>
      </trkpt>
      <trkpt lat="44.44608" lon="2.44158">
        <ele>756.1</ele>
        <time>2013-01-20T08:58:12Z</time>
      </trkpt>
      <trkpt lat="44.44605" lon="2.44159">
        <ele>756.1</ele>
        <time>2013-01-20T08:58:13Z</time>
      </trkpt>
      <trkpt lat="44.44602" lon="2.44159">
        <ele>756</ele>
        <time>2013-01-20T08:58:14Z</time>
      </trkpt>
      <trkpt lat="44.44598" lon="2.4416">
        <ele>755.6</ele>
        <time>2013-01-20T08:58:15Z</time>
      </trkpt>
      <trkpt lat="44.44595" lon="2.4416">
        <ele>755.3</ele>
        <time>2013-01-20T08:58:16Z</time>
      </trkpt>
      <trkpt lat="44.44591" lon="2.44161">
        <ele>755.1</ele>
        <time>2013-01-20T08:58:17Z</time>
      </trkpt>
      <trkpt lat="44.44588" lon="2.44161">
        <ele>755</ele>
        <time>2013-01-20T08:58:18Z</time>
      </trkpt>
      <trkpt lat="44.44584" lon="2.44162">
        <ele>755</ele>
        <time>2013-01-20T08:58:19Z</time>
      </trkpt>
      <trkpt lat="44.4458" lon="2.44162">
        <ele>754.9</ele>
        <time>2013-01-20T08:58:20Z</time>
      </trkpt>
      <trkpt lat="44.44577" lon="2.44163">
        <ele>755</ele>
        <time>2013-01-20T08:58:21Z</time>
      </trkpt>
      <trkpt lat="44.44573" lon="2.44163">
        <ele>755</ele>
        <time>2013-01-20T08:58:22Z</time>
      </trkpt>
      <trkpt lat="44.44569" lon="2.44164">
        <ele>755</ele>
        <time>2013-01-20T08:58:23Z</time>
      </trkpt>
      <trkpt lat="44.44566" lon="2.44165">
        <ele>755</ele>
        <time>2013-01-20T08:58:24Z</time>
      </trkpt>
      <trkpt lat="44.44562" lon="2.44166">
        <ele>755</ele>
        <time>2013-01-20T08:58:25Z</time>
      </trkpt>
      <trkpt lat="44.44558" lon="2.44167">
        <ele>755</ele>
        <time>2013-01-20T08:58:26Z</time>
      </trkpt>
      <trkpt lat="44.44555" lon="2.44168">
        <ele>754.9</ele>
        <time>2013-01-20T08:58:27Z</time>
      </trkpt>
      <trkpt lat="44.44552" lon="2.44169">
        <ele>755.1</ele>
        <time>2013-01-20T08:58:28Z</time>
      </trkpt>
      <trkpt lat="44.44548" lon="2.4417">
        <ele>755.3</ele>
        <time>2013-01-20T08:58:29Z</time>
      </trkpt>
      <trkpt lat="44.44545" lon="2.44172">
        <ele>755.4</ele>
        <time>2013-01-20T08:58:30Z</time>
      </trkpt>
      <trkpt lat="44.44543" lon="2.44173">
        <ele>755</ele>
        <time>2013-01-20T08:58:31Z</time>
      </trkpt>
      <trkpt lat="44.4454" lon="2.44175">
        <ele>754.6</ele>
        <time>2013-01-20T08:58:32Z</time>
      </trkpt>
      <trkpt lat="44.44537" lon="2.44176">
        <ele>754.4</ele>
        <time>2013-01-20T08:58:33Z</time>
      </trkpt>
      <trkpt lat="44.44534" lon="2.44177">
        <ele>754.1</ele>
        <time>2013-01-20T08:58:34Z</time>
      </trkpt>
      <trkpt lat="44.44531" lon="2.44178">
        <ele>753.8</ele>
        <time>2013-01-20T08:58:35Z</time>
      </trkpt>
      <trkpt lat="44.44527" lon="2.44179">
        <ele>753.6</ele>
        <time>2013-01-20T08:58:36Z</time>
      </trkpt>
      <trkpt lat="44.44524" lon="2.4418">
        <ele>753.1</ele>
        <time>2013-01-20T08:58:37Z</time>
      </trkpt>
      <trkpt lat="44.44519" lon="2.44182">
        <ele>752.6</ele>
        <time>2013-01-20T08:58:38Z</time>
      </trkpt>
      <trkpt lat="44.44515" lon="2.44183">
        <ele>752.3</ele>
        <time>2013-01-20T08:58:39Z</time>
      </trkpt>
      <trkpt lat="44.4451" lon="2.44185">
        <ele>751.9</ele>
        <time>2013-01-20T08:58:40Z</time>
      </trkpt>
      <trkpt lat="44.44505" lon="2.44187">
        <ele>751.6</ele>
        <time>2013-01-20T08:58:41Z</time>
      </trkpt>
      <trkpt lat="44.445" lon="2.44189">
        <ele>751.4</ele>
        <time>2013-01-20T08:58:42Z</time>
      </trkpt>
      <trkpt lat="44.44495" lon="2.44191">
        <ele>751.2</ele>
        <time>2013-01-20T08:58:43Z</time>
      </trkpt>
      <trkpt lat="44.4449" lon="2.44194">
        <ele>750.7</ele>
        <time>2013-01-20T08:58:44Z</time>
      </trkpt>
      <trkpt lat="44.44485" lon="2.44196">
        <ele>750.3</ele>
        <time>2013-01-20T08:58:45Z</time>
      </trkpt>
      <trkpt lat="44.44482" lon="2.44201">
        <ele>750</ele>
        <time>2013-01-20T08:58:46Z</time>
      </trkpt>
      <trkpt lat="44.44481" lon="2.44206">
        <ele>749.5</ele>
        <time>2013-01-20T08:58:47Z</time>
      </trkpt>
      <trkpt lat="44.44483" lon="2.44211">
        <ele>749.2</ele>
        <time>2013-01-20T08:58:48Z</time>
      </trkpt>
      <trkpt lat="44.44485" lon="2.44213">
        <ele>748.9</ele>
        <time>2013-01-20T08:58:49Z</time>
      </trkpt>
      <trkpt lat="44.44487" lon="2.44217">
        <ele>748.8</ele>
        <time>2013-01-20T08:58:50Z</time>
      </trkpt>
      <trkpt lat="44.4449" lon="2.4422">
        <ele>748.7</ele>
        <time>2013-01-20T08:58:51Z</time>
      </trkpt>
      <trkpt lat="44.44492" lon="2.44223">
        <ele>748.6</ele>
        <time>2013-01-20T08:58:52Z</time>
      </trkpt>
      <trkpt lat="44.44494" lon="2.44225">
        <ele>748.7</ele>
        <time>2013-01-20T08:58:53Z</time>
      </trkpt>
      <trkpt lat="44.44496" lon="2.44228">
        <ele>748.8</ele>
        <time>2013-01-20T08:58:54Z</time>
      </trkpt>
      <trkpt lat="44.44498" lon="2.44231">
        <ele>748.8</ele>
        <time>2013-01-20T08:58:55Z</time>
      </trkpt>
      <trkpt lat="44.445" lon="2.44234">
        <ele>749.1</ele>
        <time>2013-01-20T08:58:56Z</time>
      </trkpt>
      <trkpt lat="44.44502" lon="2.44237">
        <ele>749.4</ele>
        <time>2013-01-20T08:58:57Z</time>
      </trkpt>
      <trkpt lat="44.44504" lon="2.4424">
        <ele>749.6</ele>
        <time>2013-01-20T08:58:58Z</time>
      </trkpt>
      <trkpt lat="44.44507" lon="2.44243">
        <ele>749.8</ele>
        <time>2013-01-20T08:58:59Z</time>
      </trkpt>
      <trkpt lat="44.44509" lon="2.44246">
        <ele>749.9</ele>
        <time>2013-01-20T08:59:00Z</time>
      </trkpt>
      <trkpt lat="44.44511" lon="2.44249">
        <ele>750</ele>
        <time>2013-01-20T08:59:01Z</time>
      </trkpt>
      <trkpt lat="44.44513" lon="2.44252">
        <ele>750.1</ele>
        <time>2013-01-20T08:59:02Z</time>
      </trkpt>
      <trkpt lat="44.44515" lon="2.44255">
        <ele>750.3</ele>
        <time>2013-01-20T08:59:03Z</time>
      </trkpt>
      <trkpt lat="44.44518" lon="2.44258">
        <ele>750.4</ele>
        <time>2013-01-20T08:59:04Z</time>
      </trkpt>
      <trkpt lat="44.4452" lon="2.4426">
        <ele>750.5</ele>
        <time>2013-01-20T08:59:05Z</time>
      </trkpt>
      <trkpt lat="44.44522" lon="2.44263">
        <ele>750.4</ele>
        <time>2013-01-20T08:59:06Z</time>
      </trkpt>
      <trkpt lat="44.44524" lon="2.44265">
        <ele>750.3</ele>
        <time>2013-01-20T08:59:07Z</time>
      </trkpt>
      <trkpt lat="44.44527" lon="2.44268">
        <ele>750.2</ele>
        <time>2013-01-20T08:59:08Z</time>
      </trkpt>
      <trkpt lat="44.44529" lon="2.4427">
        <ele>750.6</ele>
        <time>2013-01-20T08:59:09Z</time>
      </trkpt>
      <trkpt lat="44.44531" lon="2.44273">
        <ele>750.8</ele>
        <time>2013-01-20T08:59:10Z</time>
      </trkpt>
      <trkpt lat="44.44533" lon="2.44275">
        <ele>751</ele>
        <time>2013-01-20T08:59:11Z</time>
      </trkpt>
      <trkpt lat="44.44535" lon="2.44277">
        <ele>751.2</ele>
        <time>2013-01-20T08:59:12Z</time>
      </trkpt>
      <trkpt lat="44.44538" lon="2.4428">
        <ele>751.3</ele>
        <time>2013-01-20T08:59:13Z</time>
      </trkpt>
      <trkpt lat="44.4454" lon="2.44282">
        <ele>751.4</ele>
        <time>2013-01-20T08:59:14Z</time>
      </trkpt>
      <trkpt lat="44.44542" lon="2.44284">
        <ele>751.4</ele>
        <time>2013-01-20T08:59:15Z</time>
      </trkpt>
      <trkpt lat="44.44544" lon="2.44287">
        <ele>751.3</ele>
        <time>2013-01-20T08:59:16Z</time>
      </trkpt>
      <trkpt lat="44.44546" lon="2.4429">
        <ele>751.3</ele>
        <time>2013-01-20T08:59:17Z</time>
      </trkpt>
      <trkpt lat="44.44548" lon="2.44292">
        <ele>751.3</ele>
        <time>2013-01-20T08:59:18Z</time>
      </trkpt>
      <trkpt lat="44.4455" lon="2.44295">
        <ele>751.8</ele>
        <time>2013-01-20T08:59:19Z</time>
      </trkpt>
      <trkpt lat="44.44551" lon="2.44297">
        <ele>752.1</ele>
        <time>2013-01-20T08:59:20Z</time>
      </trkpt>
      <trkpt lat="44.44553" lon="2.443">
        <ele>752.4</ele>
        <time>2013-01-20T08:59:21Z</time>
      </trkpt>
      <trkpt lat="44.44555" lon="2.44303">
        <ele>752.4</ele>
        <time>2013-01-20T08:59:22Z</time>
      </trkpt>
      <trkpt lat="44.44557" lon="2.44306">
        <ele>752.4</ele>
        <time>2013-01-20T08:59:23Z</time>
      </trkpt>
      <trkpt lat="44.44559" lon="2.44308">
        <ele>752.4</ele>
        <time>2013-01-20T08:59:24Z</time>
      </trkpt>
      <trkpt lat="44.4456" lon="2.44311">
        <ele>752.7</ele>
        <time>2013-01-20T08:59:25Z</time>
      </trkpt>
      <trkpt lat="44.44563" lon="2.44313">
        <ele>753</ele>
        <time>2013-01-20T08:59:26Z</time>
      </trkpt>
      <trkpt lat="44.44565" lon="2.44315">
        <ele>753.2</ele>
        <time>2013-01-20T08:59:27Z</time>
      </trkpt>
      <trkpt lat="44.44567" lon="2.44318">
        <ele>753.7</ele>
        <time>2013-01-20T08:59:28Z</time>
      </trkpt>
      <trkpt lat="44.44569" lon="2.4432">
        <ele>754</ele>
        <time>2013-01-20T08:59:29Z</time>
      </trkpt>
      <trkpt lat="44.44571" lon="2.44322">
        <ele>754.3</ele>
        <time>2013-01-20T08:59:30Z</time>
      </trkpt>
      <trkpt lat="44.44574" lon="2.44324">
        <ele>754.1</ele>
        <time>2013-01-20T08:59:31Z</time>
      </trkpt>
      <trkpt lat="44.44576" lon="2.44325">
        <ele>753.9</ele>
        <time>2013-01-20T08:59:32Z</time>
      </trkpt>
      <trkpt lat="44.44578" lon="2.44327">
        <ele>753.8</ele>
        <time>2013-01-20T08:59:33Z</time>
      </trkpt>
      <trkpt lat="44.4458" lon="2.44328">
        <ele>753.7</ele>
        <time>2013-01-20T08:59:34Z</time>
      </trkpt>
      <trkpt lat="44.44582" lon="2.4433">
        <ele>754.1</ele>
        <time>2013-01-20T08:59:35Z</time>
      </trkpt>
      <trkpt lat="44.44585" lon="2.44332">
        <ele>754.4</ele>
        <time>2013-01-20T08:59:36Z</time>
      </trkpt>
      <trkpt lat="44.44587" lon="2.44333">
        <ele>754.6</ele>
        <time>2013-01-20T08:59:37Z</time>
      </trkpt>
      <trkpt lat="44.4459" lon="2.44334">
        <ele>754.6</ele>
        <time>2013-01-20T08:59:38Z</time>
      </trkpt>
      <trkpt lat="44.44592" lon="2.44335">
        <ele>754.5</ele>
        <time>2013-01-20T08:59:39Z</time>
      </trkpt>
      <trkpt lat="44.44595" lon="2.44335">
        <ele>754.5</ele>
        <time>2013-01-20T08:59:40Z</time>
      </trkpt>
      <trkpt lat="44.44597" lon="2.44336">
        <ele>754.5</ele>
        <time>2013-01-20T08:59:41Z</time>
      </trkpt>
      <trkpt lat="44.446" lon="2.44336">
        <ele>754.4</ele>
        <time>2013-01-20T08:59:42Z</time>
      </trkpt>
      <trkpt lat="44.44603" lon="2.44336">
        <ele>754.4</ele>
        <time>2013-01-20T08:59:43Z</time>
      </trkpt>
      <trkpt lat="44.44605" lon="2.44336">
        <ele>754.4</ele>
        <time>2013-01-20T08:59:44Z</time>
      </trkpt>
      <trkpt lat="44.44608" lon="2.44335">
        <ele>754.4</ele>
        <time>2013-01-20T08:59:45Z</time>
      </trkpt>
      <trkpt lat="44.4461" lon="2.44335">
        <ele>754.3</ele>
        <time>2013-01-20T08:59:46Z</time>
      </trkpt>
      <trkpt lat="44.44613" lon="2.44334">
        <ele>754.8</ele>
        <time>2013-01-20T08:59:47Z</time>
      </trkpt>
      <trkpt lat="44.44616" lon="2.44334">
        <ele>755.2</ele>
        <time>2013-01-20T08:59:48Z</time>
      </trkpt>
      <trkpt lat="44.44619" lon="2.44334">
        <ele>755.4</ele>
        <time>2013-01-20T08:59:49Z</time>
      </trkpt>
      <trkpt lat="44.44622" lon="2.44334">
        <ele>755.6</ele>
        <time>2013-01-20T08:59:50Z</time>
      </trkpt>
      <trkpt lat="44.44625" lon="2.44335">
        <ele>755.6</ele>
        <time>2013-01-20T08:59:51Z</time>
      </trkpt>
      <trkpt lat="44.44628" lon="2.44336">
        <ele>755.6</ele>
        <time>2013-01-20T08:59:52Z</time>
      </trkpt>
      <trkpt lat="44.44631" lon="2.44337">
        <ele>755.6</ele>
        <time>2013-01-20T08:59:53Z</time>
      </trkpt>
      <trkpt lat="44.44634" lon="2.44338">
        <ele>755.5</ele>
        <time>2013-01-20T08:59:54Z</time>
      </trkpt>
      <trkpt lat="44.44637" lon="2.4434">
        <ele>755.4</ele>
        <time>2013-01-20T08:59:55Z</time>
      </trkpt>
      <trkpt lat="44.4464" lon="2.44341">
        <ele>755.3</ele>
        <time>2013-01-20T08:59:56Z</time>
      </trkpt>
      <trkpt lat="44.44643" lon="2.44343">
        <ele>755.7</ele>
        <time>2013-01-20T08:59:57Z</time>
      </trkpt>
      <trkpt lat="44.44646" lon="2.44345">
        <ele>755.9</ele>
        <time>2013-01-20T08:59:58Z</time>
      </trkpt>
      <trkpt lat="44.44649" lon="2.44348">
        <ele>756.1</ele>
        <time>2013-01-20T08:59:59Z</time>
      </trkpt>
      <trkpt lat="44.44652" lon="2.4435">
        <ele>756.4</ele>
        <time>2013-01-20T09:00:00Z</time>
      </trkpt>
      <trkpt lat="44.44655" lon="2.44353">
        <ele>756.5</ele>
        <time>2013-01-20T09:00:01Z</time>
      </trkpt>
      <trkpt lat="44.44658" lon="2.44355">
        <ele>756.6</ele>
        <time>2013-01-20T09:00:02Z</time>
      </trkpt>
      <trkpt lat="44.44661" lon="2.44358">
        <ele>756.8</ele>
        <time>2013-01-20T09:00:03Z</time>
      </trkpt>
      <trkpt lat="44.44664" lon="2.44361">
        <ele>757</ele>
        <time>2013-01-20T09:00:04Z</time>
      </trkpt>
      <trkpt lat="44.44666" lon="2.44364">
        <ele>757.1</ele>
        <time>2013-01-20T09:00:05Z</time>
      </trkpt>
      <trkpt lat="44.44669" lon="2.44367">
        <ele>757.2</ele>
        <time>2013-01-20T09:00:06Z</time>
      </trkpt>
      <trkpt lat="44.44672" lon="2.44371">
        <ele>757.1</ele>
        <time>2013-01-20T09:00:07Z</time>
      </trkpt>
      <trkpt lat="44.44675" lon="2.44375">
        <ele>756.9</ele>
        <time>2013-01-20T09:00:08Z</time>
      </trkpt>
      <trkpt lat="44.44678" lon="2.4438">
        <ele>756.8</ele>
        <time>2013-01-20T09:00:09Z</time>
      </trkpt>
      <trkpt lat="44.4468" lon="2.44385">
        <ele>756.4</ele>
        <time>2013-01-20T09:00:10Z</time>
      </trkpt>
      <trkpt lat="44.44683" lon="2.4439">
        <ele>756</ele>
        <time>2013-01-20T09:00:11Z</time>
      </trkpt>
      <trkpt lat="44.44685" lon="2.44395">
        <ele>755.8</ele>
        <time>2013-01-20T09:00:12Z</time>
      </trkpt>
      <trkpt lat="44.44687" lon="2.444">
        <ele>755.7</ele>
        <time>2013-01-20T09:00:13Z</time>
      </trkpt>
      <trkpt lat="44.44689" lon="2.44406">
        <ele>755.7</ele>
        <time>2013-01-20T09:00:14Z</time>
      </trkpt>
      <trkpt lat="44.44691" lon="2.4441">
        <ele>755.6</ele>
        <time>2013-01-20T09:00:15Z</time>
      </trkpt>
      <trkpt lat="44.44693" lon="2.44415">
        <ele>755.2</ele>
        <time>2013-01-20T09:00:16Z</time>
      </trkpt>
      <trkpt lat="44.44694" lon="2.4442">
        <ele>755</ele>
        <time>2013-01-20T09:00:17Z</time>
      </trkpt>
      <trkpt lat="44.44696" lon="2.44425">
        <ele>754.7</ele>
        <time>2013-01-20T09:00:18Z</time>
      </trkpt>
      <trkpt lat="44.44698" lon="2.4443">
        <ele>754.6</ele>
        <time>2013-01-20T09:00:19Z</time>
      </trkpt>
      <trkpt lat="44.447" lon="2.44435">
        <ele>754.5</ele>
        <time>2013-01-20T09:00:20Z</time>
      </trkpt>
      <trkpt lat="44.44702" lon="2.44439">
        <ele>754.5</ele>
        <time>2013-01-20T09:00:21Z</time>
      </trkpt>
      <trkpt lat="44.44703" lon="2.44444">
        <ele>754.6</ele>
        <time>2013-01-20T09:00:22Z</time>
      </trkpt>
      <trkpt lat="44.44705" lon="2.44449">
        <ele>754.7</ele>
        <time>2013-01-20T09:00:23Z</time>
      </trkpt>
      <trkpt lat="44.44707" lon="2.44453">
        <ele>754.8</ele>
        <time>2013-01-20T09:00:24Z</time>
      </trkpt>
      <trkpt lat="44.44709" lon="2.44457">
        <ele>754.9</ele>
        <time>2013-01-20T09:00:25Z</time>
      </trkpt>
      <trkpt lat="44.44711" lon="2.44462">
        <ele>754.8</ele>
        <time>2013-01-20T09:00:26Z</time>
      </trkpt>
      <trkpt lat="44.44713" lon="2.44466">
        <ele>754.7</ele>
        <time>2013-01-20T09:00:27Z</time>
      </trkpt>
      <trkpt lat="44.44714" lon="2.44469">
        <ele>754.7</ele>
        <time>2013-01-20T09:00:28Z</time>
      </trkpt>
      <trkpt lat="44.44716" lon="2.44474">
        <ele>754.3</ele>
        <time>2013-01-20T09:00:29Z</time>
      </trkpt>
      <trkpt lat="44.44718" lon="2.44478">
        <ele>754</ele>
        <time>2013-01-20T09:00:30Z</time>
      </trkpt>
      <trkpt lat="44.4472" lon="2.44482">
        <ele>753.8</ele>
        <time>2013-01-20T09:00:31Z</time>
      </trkpt>
      <trkpt lat="44.44723" lon="2.44486">
        <ele>754.2</ele>
        <time>2013-01-20T09:00:32Z</time>
      </trkpt>
      <trkpt lat="44.44726" lon="2.4449">
        <ele>754.5</ele>
        <time>2013-01-20T09:00:33Z</time>
      </trkpt>
      <trkpt lat="44.44728" lon="2.44494">
        <ele>754.8</ele>
        <time>2013-01-20T09:00:34Z</time>
      </trkpt>
      <trkpt lat="44.44731" lon="2.44498">
        <ele>754.6</ele>
        <time>2013-01-20T09:00:35Z</time>
      </trkpt>
      <trkpt lat="44.44734" lon="2.44502">
        <ele>754.5</ele>
        <time>2013-01-20T09:00:36Z</time>
      </trkpt>
      <trkpt lat="44.44737" lon="2.44506">
        <ele>754.3</ele>
        <time>2013-01-20T09:00:37Z</time>
      </trkpt>
      <trkpt lat="44.4474" lon="2.4451">
        <ele>754.4</ele>
        <time>2013-01-20T09:00:38Z</time>
      </trkpt>
      <trkpt lat="44.44743" lon="2.44513">
        <ele>754.4</ele>
        <time>2013-01-20T09:00:39Z</time>
      </trkpt>
      <trkpt lat="44.44746" lon="2.44517">
        <ele>754.4</ele>
        <time>2013-01-20T09:00:40Z</time>
      </trkpt>
      <trkpt lat="44.4475" lon="2.44519">
        <ele>754.4</ele>
        <time>2013-01-20T09:00:41Z</time>
      </trkpt>
      <trkpt lat="44.44754" lon="2.44522">
        <ele>754.2</ele>
        <time>2013-01-20T09:00:42Z</time>
      </trkpt>
      <trkpt lat="44.44757" lon="2.44524">
        <ele>753.9</ele>
        <time>2013-01-20T09:00:43Z</time>
      </trkpt>
      <trkpt lat="44.44761" lon="2.44526">
        <ele>753.8</ele>
        <time>2013-01-20T09:00:44Z</time>
      </trkpt>
      <trkpt lat="44.44765" lon="2.44529">
        <ele>753.6</ele>
        <time>2013-01-20T09:00:45Z</time>
      </trkpt>
      <trkpt lat="44.44769" lon="2.44532">
        <ele>753.5</ele>
        <time>2013-01-20T09:00:46Z</time>
      </trkpt>
      <trkpt lat="44.44772" lon="2.44535">
        <ele>753.4</ele>
        <time>2013-01-20T09:00:47Z</time>
      </trkpt>
      <trkpt lat="44.44776" lon="2.44538">
        <ele>753</ele>
        <time>2013-01-20T09:00:48Z</time>
      </trkpt>
      <trkpt lat="44.44779" lon="2.44542">
        <ele>752.6</ele>
        <time>2013-01-20T09:00:49Z</time>
      </trkpt>
      <trkpt lat="44.44782" lon="2.44546">
        <ele>752.4</ele>
        <time>2013-01-20T09:00:50Z</time>
      </trkpt>
      <trkpt lat="44.44785" lon="2.44551">
        <ele>752.1</ele>
        <time>2013-01-20T09:00:51Z</time>
      </trkpt>
      <trkpt lat="44.44788" lon="2.44555">
        <ele>751.8</ele>
        <time>2013-01-20T09:00:52Z</time>
      </trkpt>
      <trkpt lat="44.4479" lon="2.44559">
        <ele>751.6</ele>
        <time>2013-01-20T09:00:53Z</time>
      </trkpt>
      <trkpt lat="44.44793" lon="2.44564">
        <ele>751.9</ele>
        <time>2013-01-20T09:00:54Z</time>
      </trkpt>
      <trkpt lat="44.44795" lon="2.44568">
        <ele>752</ele>
        <time>2013-01-20T09:00:55Z</time>
      </trkpt>
      <trkpt lat="44.44797" lon="2.44572">
        <ele>752.1</ele>
        <time>2013-01-20T09:00:56Z</time>
      </trkpt>
      <trkpt lat="44.448" lon="2.44577">
        <ele>752.2</ele>
        <time>2013-01-20T09:00:57Z</time>
      </trkpt>
      <trkpt lat="44.44803" lon="2.44581">
        <ele>752.6</ele>
        <time>2013-01-20T09:00:58Z</time>
      </trkpt>
      <trkpt lat="44.44806" lon="2.44585">
        <ele>752.9</ele>
        <time>2013-01-20T09:00:59Z</time>
      </trkpt>
      <trkpt lat="44.44808" lon="2.44589">
        <ele>753.1</ele>
        <time>2013-01-20T09:01:00Z</time>
      </trkpt>
      <trkpt lat="44.44811" lon="2.44594">
        <ele>753.4</ele>
        <time>2013-01-20T09:01:01Z</time>
      </trkpt>
      <trkpt lat="44.44814" lon="2.44598">
        <ele>753.7</ele>
        <time>2013-01-20T09:01:02Z</time>
      </trkpt>
      <trkpt lat="44.44816" lon="2.44602">
        <ele>753.9</ele>
        <time>2013-01-20T09:01:03Z</time>
      </trkpt>
      <trkpt lat="44.44819" lon="2.44606">
        <ele>754</ele>
        <time>2013-01-20T09:01:04Z</time>
      </trkpt>
      <trkpt lat="44.44821" lon="2.4461">
        <ele>754.2</ele>
        <time>2013-01-20T09:01:05Z</time>
      </trkpt>
      <trkpt lat="44.44823" lon="2.44614">
        <ele>754.3</ele>
        <time>2013-01-20T09:01:06Z</time>
      </trkpt>
      <trkpt lat="44.44825" lon="2.44619">
        <ele>754.3</ele>
        <time>2013-01-20T09:01:07Z</time>
      </trkpt>
      <trkpt lat="44.44828" lon="2.44623">
        <ele>754.3</ele>
        <time>2013-01-20T09:01:08Z</time>
      </trkpt>
      <trkpt lat="44.44831" lon="2.44626">
        <ele>754.3</ele>
        <time>2013-01-20T09:01:09Z</time>
      </trkpt>
      <trkpt lat="44.44833" lon="2.4463">
        <ele>754.5</ele>
        <time>2013-01-20T09:01:10Z</time>
      </trkpt>
      <trkpt lat="44.44835" lon="2.44635">
        <ele>754.6</ele>
        <time>2013-01-20T09:01:11Z</time>
      </trkpt>
      <trkpt lat="44.44838" lon="2.44639">
        <ele>754.6</ele>
        <time>2013-01-20T09:01:12Z</time>
      </trkpt>
      <trkpt lat="44.4484" lon="2.44643">
        <ele>754.7</ele>
        <time>2013-01-20T09:01:13Z</time>
      </trkpt>
      <trkpt lat="44.44842" lon="2.44646">
        <ele>754.6</ele>
        <time>2013-01-20T09:01:14Z</time>
      </trkpt>
      <trkpt lat="44.44845" lon="2.4465">
        <ele>754.5</ele>
        <time>2013-01-20T09:01:15Z</time>
      </trkpt>
      <trkpt lat="44.44847" lon="2.44654">
        <ele>754.5</ele>
        <time>2013-01-20T09:01:16Z</time>
      </trkpt>
      <trkpt lat="44.44849" lon="2.44658">
        <ele>754.3</ele>
        <time>2013-01-20T09:01:17Z</time>
      </trkpt>
      <trkpt lat="44.44852" lon="2.44662">
        <ele>754.2</ele>
        <time>2013-01-20T09:01:18Z</time>
      </trkpt>
      <trkpt lat="44.44854" lon="2.44666">
        <ele>754.1</ele>
        <time>2013-01-20T09:01:19Z</time>
      </trkpt>
      <trkpt lat="44.44857" lon="2.44671">
        <ele>753.8</ele>
        <time>2013-01-20T09:01:20Z</time>
      </trkpt>
      <trkpt lat="44.44859" lon="2.44675">
        <ele>753.7</ele>
        <time>2013-01-20T09:01:21Z</time>
      </trkpt>
      <trkpt lat="44.44862" lon="2.4468">
        <ele>753.6</ele>
        <time>2013-01-20T09:01:22Z</time>
      </trkpt>
      <trkpt lat="44.44865" lon="2.44684">
        <ele>753.7</ele>
        <time>2013-01-20T09:01:23Z</time>
      </trkpt>
      <trkpt lat="44.44868" lon="2.44689">
        <ele>753.8</ele>
        <time>2013-01-20T09:01:24Z</time>
      </trkpt>
      <trkpt lat="44.44871" lon="2.44693">
        <ele>753.8</ele>
        <time>2013-01-20T09:01:25Z</time>
      </trkpt>
      <trkpt lat="44.44874" lon="2.44698">
        <ele>753.2</ele>
        <time>2013-01-20T09:01:26Z</time>
      </trkpt>
      <trkpt lat="44.44877" lon="2.44703">
        <ele>752.7</ele>
        <time>2013-01-20T09:01:27Z</time>
      </trkpt>
      <trkpt lat="44.4488" lon="2.44708">
        <ele>752.3</ele>
        <time>2013-01-20T09:01:28Z</time>
      </trkpt>
      <trkpt lat="44.44882" lon="2.44714">
        <ele>751.8</ele>
        <time>2013-01-20T09:01:29Z</time>
      </trkpt>
      <trkpt lat="44.44885" lon="2.44719">
        <ele>751.3</ele>
        <time>2013-01-20T09:01:30Z</time>
      </trkpt>
      <trkpt lat="44.44889" lon="2.44724">
        <ele>751</ele>
        <time>2013-01-20T09:01:31Z</time>
      </trkpt>
      <trkpt lat="44.44892" lon="2.44728">
        <ele>750.8</ele>
        <time>2013-01-20T09:01:32Z</time>
      </trkpt>
      <trkpt lat="44.44896" lon="2.44732">
        <ele>750.8</ele>
        <time>2013-01-20T09:01:33Z</time>
      </trkpt>
      <trkpt lat="44.449" lon="2.44735">
        <ele>750.9</ele>
        <time>2013-01-20T09:01:34Z</time>
      </trkpt>
      <trkpt lat="44.44904" lon="2.44739">
        <ele>750.9</ele>
        <time>2013-01-20T09:01:35Z</time>
      </trkpt>
      <trkpt lat="44.44908" lon="2.44743">
        <ele>750.5</ele>
        <time>2013-01-20T09:01:36Z</time>
      </trkpt>
      <trkpt lat="44.44911" lon="2.44748">
        <ele>750.1</ele>
        <time>2013-01-20T09:01:37Z</time>
      </trkpt>
      <trkpt lat="44.44914" lon="2.44753">
        <ele>749.9</ele>
        <time>2013-01-20T09:01:38Z</time>
      </trkpt>
      <trkpt lat="44.44917" lon="2.44758">
        <ele>749.9</ele>
        <time>2013-01-20T09:01:39Z</time>
      </trkpt>
      <trkpt lat="44.4492" lon="2.44763">
        <ele>749.9</ele>
        <time>2013-01-20T09:01:40Z</time>
      </trkpt>
      <trkpt lat="44.44923" lon="2.44768">
        <ele>750</ele>
        <time>2013-01-20T09:01:41Z</time>
      </trkpt>
      <trkpt lat="44.44926" lon="2.44772">
        <ele>750.1</ele>
        <time>2013-01-20T09:01:42Z</time>
      </trkpt>
      <trkpt lat="44.44929" lon="2.44776">
        <ele>750.3</ele>
        <time>2013-01-20T09:01:43Z</time>
      </trkpt>
      <trkpt lat="44.44933" lon="2.4478">
        <ele>750.4</ele>
        <time>2013-01-20T09:01:44Z</time>
      </trkpt>
      <trkpt lat="44.44936" lon="2.44783">
        <ele>750.6</ele>
        <time>2013-01-20T09:01:45Z</time>
      </trkpt>
      <trkpt lat="44.4494" lon="2.44786">
        <ele>750.8</ele>
        <time>2013-01-20T09:01:46Z</time>
      </trkpt>
      <trkpt lat="44.44944" lon="2.44788">
        <ele>751</ele>
        <time>2013-01-20T09:01:47Z</time>
      </trkpt>
      <trkpt lat="44.44947" lon="2.44789">
        <ele>751.1</ele>
        <time>2013-01-20T09:01:48Z</time>
      </trkpt>
      <trkpt lat="44.44951" lon="2.44791">
        <ele>750.8</ele>
        <time>2013-01-20T09:01:49Z</time>
      </trkpt>
      <trkpt lat="44.44955" lon="2.44793">
        <ele>750.6</ele>
        <time>2013-01-20T09:01:50Z</time>
      </trkpt>
      <trkpt lat="44.44959" lon="2.44794">
        <ele>750.4</ele>
        <time>2013-01-20T09:01:51Z</time>
      </trkpt>
      <trkpt lat="44.44962" lon="2.44796">
        <ele>750.3</ele>
        <time>2013-01-20T09:01:52Z</time>
      </trkpt>
      <trkpt lat="44.44965" lon="2.44797">
        <ele>750.2</ele>
        <time>2013-01-20T09:01:53Z</time>
      </trkpt>
      <trkpt lat="44.44969" lon="2.44799">
        <ele>750.1</ele>
        <time>2013-01-20T09:01:54Z</time>
      </trkpt>
      <trkpt lat="44.44973" lon="2.448">
        <ele>750.5</ele>
        <time>2013-01-20T09:01:55Z</time>
      </trkpt>
      <trkpt lat="44.44976" lon="2.44802">
        <ele>750.9</ele>
        <time>2013-01-20T09:01:56Z</time>
      </trkpt>
      <trkpt lat="44.4498" lon="2.44804">
        <ele>751.1</ele>
        <time>2013-01-20T09:01:57Z</time>
      </trkpt>
      <trkpt lat="44.44984" lon="2.44806">
        <ele>751.4</ele>
        <time>2013-01-20T09:01:58Z</time>
      </trkpt>
      <trkpt lat="44.44988" lon="2.44809">
        <ele>751.7</ele>
        <time>2013-01-20T09:01:59Z</time>
      </trkpt>
      <trkpt lat="44.44991" lon="2.44811">
        <ele>751.9</ele>
        <time>2013-01-20T09:02:00Z</time>
      </trkpt>
      <trkpt lat="44.44995" lon="2.44814">
        <ele>752</ele>
        <time>2013-01-20T09:02:01Z</time>
      </trkpt>
      <trkpt lat="44.44999" lon="2.44816">
        <ele>752.1</ele>
        <time>2013-01-20T09:02:02Z</time>
      </trkpt>
      <trkpt lat="44.45002" lon="2.44819">
        <ele>752.2</ele>
        <time>2013-01-20T09:02:03Z</time>
      </trkpt>
      <trkpt lat="44.45006" lon="2.44822">
        <ele>752.2</ele>
        <time>2013-01-20T09:02:04Z</time>
      </trkpt>
      <trkpt lat="44.45009" lon="2.44826">
        <ele>751.8</ele>
        <time>2013-01-20T09:02:05Z</time>
      </trkpt>
      <trkpt lat="44.45013" lon="2.44829">
        <ele>751.6</ele>
        <time>2013-01-20T09:02:06Z</time>
      </trkpt>
      <trkpt lat="44.45016" lon="2.44834">
        <ele>751.4</ele>
        <time>2013-01-20T09:02:07Z</time>
      </trkpt>
      <trkpt lat="44.45019" lon="2.44838">
        <ele>751.3</ele>
        <time>2013-01-20T09:02:08Z</time>
      </trkpt>
      <trkpt lat="44.45022" lon="2.44843">
        <ele>751.3</ele>
        <time>2013-01-20T09:02:09Z</time>
      </trkpt>
      <trkpt lat="44.45026" lon="2.44848">
        <ele>751.3</ele>
        <time>2013-01-20T09:02:10Z</time>
      </trkpt>
      <trkpt lat="44.45029" lon="2.44854">
        <ele>750.4</ele>
        <time>2013-01-20T09:02:11Z</time>
      </trkpt>
      <trkpt lat="44.45032" lon="2.44859">
        <ele>749.8</ele>
        <time>2013-01-20T09:02:12Z</time>
      </trkpt>
      <trkpt lat="44.45036" lon="2.44865">
        <ele>749.3</ele>
        <time>2013-01-20T09:02:13Z</time>
      </trkpt>
      <trkpt lat="44.45039" lon="2.4487">
        <ele>749</ele>
        <time>2013-01-20T09:02:14Z</time>
      </trkpt>
      <trkpt lat="44.45042" lon="2.44875">
        <ele>748.8</ele>
        <time>2013-01-20T09:02:15Z</time>
      </trkpt>
      <trkpt lat="44.45045" lon="2.4488">
        <ele>748.7</ele>
        <time>2013-01-20T09:02:16Z</time>
      </trkpt>
      <trkpt lat="44.45048" lon="2.44885">
        <ele>748.4</ele>
        <time>2013-01-20T09:02:17Z</time>
      </trkpt>
      <trkpt lat="44.4505" lon="2.44891">
        <ele>748.2</ele>
        <time>2013-01-20T09:02:18Z</time>
      </trkpt>
      <trkpt lat="44.45053" lon="2.44896">
        <ele>748.1</ele>
        <time>2013-01-20T09:02:19Z</time>
      </trkpt>
      <trkpt lat="44.45055" lon="2.44901">
        <ele>748</ele>
        <time>2013-01-20T09:02:20Z</time>
      </trkpt>
      <trkpt lat="44.45057" lon="2.44906">
        <ele>748.2</ele>
        <time>2013-01-20T09:02:21Z</time>
      </trkpt>
      <trkpt lat="44.45059" lon="2.44911">
        <ele>748.5</ele>
        <time>2013-01-20T09:02:22Z</time>
      </trkpt>
      <trkpt lat="44.45061" lon="2.44917">
        <ele>748.6</ele>
        <time>2013-01-20T09:02:23Z</time>
      </trkpt>
      <trkpt lat="44.45063" lon="2.44921">
        <ele>748.7</ele>
        <time>2013-01-20T09:02:24Z</time>
      </trkpt>
      <trkpt lat="44.45064" lon="2.44926">
        <ele>748.7</ele>
        <time>2013-01-20T09:02:25Z</time>
      </trkpt>
      <trkpt lat="44.45066" lon="2.4493">
        <ele>748.7</ele>
        <time>2013-01-20T09:02:26Z</time>
      </trkpt>
      <trkpt lat="44.45067" lon="2.44935">
        <ele>749.1</ele>
        <time>2013-01-20T09:02:27Z</time>
      </trkpt>
      <trkpt lat="44.45069" lon="2.4494">
        <ele>749.4</ele>
        <time>2013-01-20T09:02:28Z</time>
      </trkpt>
      <trkpt lat="44.4507" lon="2.44944">
        <ele>749.7</ele>
        <time>2013-01-20T09:02:29Z</time>
      </trkpt>
      <trkpt lat="44.45072" lon="2.44948">
        <ele>749.8</ele>
        <time>2013-01-20T09:02:30Z</time>
      </trkpt>
      <trkpt lat="44.45074" lon="2.44952">
        <ele>749.9</ele>
        <time>2013-01-20T09:02:31Z</time>
      </trkpt>
      <trkpt lat="44.45076" lon="2.44956">
        <ele>750</ele>
        <time>2013-01-20T09:02:32Z</time>
      </trkpt>
      <trkpt lat="44.45079" lon="2.44959">
        <ele>750.7</ele>
        <time>2013-01-20T09:02:33Z</time>
      </trkpt>
      <trkpt lat="44.45081" lon="2.44963">
        <ele>751.2</ele>
        <time>2013-01-20T09:02:34Z</time>
      </trkpt>
      <trkpt lat="44.45083" lon="2.44966">
        <ele>751.6</ele>
        <time>2013-01-20T09:02:35Z</time>
      </trkpt>
      <trkpt lat="44.45086" lon="2.44969">
        <ele>751.8</ele>
        <time>2013-01-20T09:02:36Z</time>
      </trkpt>
      <trkpt lat="44.45088" lon="2.44972">
        <ele>752.1</ele>
        <time>2013-01-20T09:02:37Z</time>
      </trkpt>
      <trkpt lat="44.45091" lon="2.44975">
        <ele>752.2</ele>
        <time>2013-01-20T09:02:38Z</time>
      </trkpt>
      <trkpt lat="44.45093" lon="2.44978">
        <ele>752.3</ele>
        <time>2013-01-20T09:02:39Z</time>
      </trkpt>
      <trkpt lat="44.45095" lon="2.44982">
        <ele>752.9</ele>
        <time>2013-01-20T09:02:40Z</time>
      </trkpt>
      <trkpt lat="44.45098" lon="2.44985">
        <ele>753.3</ele>
        <time>2013-01-20T09:02:41Z</time>
      </trkpt>
      <trkpt lat="44.451" lon="2.44988">
        <ele>753.6</ele>
        <time>2013-01-20T09:02:42Z</time>
      </trkpt>
      <trkpt lat="44.45103" lon="2.44992">
        <ele>753.7</ele>
        <time>2013-01-20T09:02:43Z</time>
      </trkpt>
      <trkpt lat="44.45105" lon="2.44995">
        <ele>753.9</ele>
        <time>2013-01-20T09:02:44Z</time>
      </trkpt>
      <trkpt lat="44.45108" lon="2.44997">
        <ele>754</ele>
        <time>2013-01-20T09:02:45Z</time>
      </trkpt>
      <trkpt lat="44.45111" lon="2.45">
        <ele>753.5</ele>
        <time>2013-01-20T09:02:46Z</time>
      </trkpt>
      <trkpt lat="44.45113" lon="2.45003">
        <ele>753.1</ele>
        <time>2013-01-20T09:02:47Z</time>
      </trkpt>
      <trkpt lat="44.45116" lon="2.45006">
        <ele>752.8</ele>
        <time>2013-01-20T09:02:48Z</time>
      </trkpt>
      <trkpt lat="44.45119" lon="2.45008">
        <ele>753.4</ele>
        <time>2013-01-20T09:02:49Z</time>
      </trkpt>
      <trkpt lat="44.45122" lon="2.45011">
        <ele>753.8</ele>
        <time>2013-01-20T09:02:50Z</time>
      </trkpt>
      <trkpt lat="44.45124" lon="2.45013">
        <ele>754.1</ele>
        <time>2013-01-20T09:02:51Z</time>
      </trkpt>
      <trkpt lat="44.45127" lon="2.45016">
        <ele>754.1</ele>
        <time>2013-01-20T09:02:52Z</time>
      </trkpt>
      <trkpt lat="44.4513" lon="2.45018">
        <ele>754.1</ele>
        <time>2013-01-20T09:02:53Z</time>
      </trkpt>
      <trkpt lat="44.45133" lon="2.4502">
        <ele>754.1</ele>
        <time>2013-01-20T09:02:54Z</time>
      </trkpt>
      <trkpt lat="44.45136" lon="2.45023">
        <ele>754.1</ele>
        <time>2013-01-20T09:02:55Z</time>
      </trkpt>
      <trkpt lat="44.45139" lon="2.45025">
        <ele>754.4</ele>
        <time>2013-01-20T09:02:56Z</time>
      </trkpt>
      <trkpt lat="44.45142" lon="2.45027">
        <ele>754.7</ele>
        <time>2013-01-20T09:02:57Z</time>
      </trkpt>
      <trkpt lat="44.45145" lon="2.4503">
        <ele>754.9</ele>
        <time>2013-01-20T09:02:58Z</time>
      </trkpt>
      <trkpt lat="44.45149" lon="2.45032">
        <ele>754.9</ele>
        <time>2013-01-20T09:02:59Z</time>
      </trkpt>
      <trkpt lat="44.45152" lon="2.45034">
        <ele>754.9</ele>
        <time>2013-01-20T09:03:00Z</time>
      </trkpt>
      <trkpt lat="44.45155" lon="2.45037">
        <ele>754.9</ele>
        <time>2013-01-20T09:03:01Z</time>
      </trkpt>
      <trkpt lat="44.45159" lon="2.45039">
        <ele>754.5</ele>
        <time>2013-01-20T09:03:02Z</time>
      </trkpt>
      <trkpt lat="44.45162" lon="2.45042">
        <ele>754.2</ele>
        <time>2013-01-20T09:03:03Z</time>
      </trkpt>
      <trkpt lat="44.45166" lon="2.45044">
        <ele>754</ele>
        <time>2013-01-20T09:03:04Z</time>
      </trkpt>
      <trkpt lat="44.45169" lon="2.45047">
        <ele>753.9</ele>
        <time>2013-01-20T09:03:05Z</time>
      </trkpt>
      <trkpt lat="44.45172" lon="2.4505">
        <ele>753.9</ele>
        <time>2013-01-20T09:03:06Z</time>
      </trkpt>
      <trkpt lat="44.45175" lon="2.45053">
        <ele>753.9</ele>
        <time>2013-01-20T09:03:07Z</time>
      </trkpt>
      <trkpt lat="44.45177" lon="2.45056">
        <ele>753.5</ele>
        <time>2013-01-20T09:03:08Z</time>
      </trkpt>
      <trkpt lat="44.45179" lon="2.45059">
        <ele>753.1</ele>
        <time>2013-01-20T09:03:09Z</time>
      </trkpt>
      <trkpt lat="44.45181" lon="2.45062">
        <ele>752.9</ele>
        <time>2013-01-20T09:03:10Z</time>
      </trkpt>
      <trkpt lat="44.45183" lon="2.45065">
        <ele>752.7</ele>
        <time>2013-01-20T09:03:11Z</time>
      </trkpt>
      <trkpt lat="44.45185" lon="2.45068">
        <ele>752.5</ele>
        <time>2013-01-20T09:03:12Z</time>
      </trkpt>
      <trkpt lat="44.45187" lon="2.45071">
        <ele>752.4</ele>
        <time>2013-01-20T09:03:13Z</time>
      </trkpt>
      <trkpt lat="44.4519" lon="2.45073">
        <ele>752.3</ele>
        <time>2013-01-20T09:03:14Z</time>
      </trkpt>
      <trkpt lat="44.45192" lon="2.45076">
        <ele>752.5</ele>
        <time>2013-01-20T09:03:15Z</time>
      </trkpt>
      <trkpt lat="44.45195" lon="2.45079">
        <ele>752.7</ele>
        <time>2013-01-20T09:03:16Z</time>
      </trkpt>
      <trkpt lat="44.45198" lon="2.45081">
        <ele>752.8</ele>
        <time>2013-01-20T09:03:17Z</time>
      </trkpt>
      <trkpt lat="44.45201" lon="2.45084">
        <ele>753</ele>
        <time>2013-01-20T09:03:18Z</time>
      </trkpt>
      <trkpt lat="44.45203" lon="2.45087">
        <ele>753.2</ele>
        <time>2013-01-20T09:03:19Z</time>
      </trkpt>
      <trkpt lat="44.45206" lon="2.4509">
        <ele>753.4</ele>
        <time>2013-01-20T09:03:20Z</time>
      </trkpt>
      <trkpt lat="44.45209" lon="2.45092">
        <ele>753.4</ele>
        <time>2013-01-20T09:03:21Z</time>
      </trkpt>
      <trkpt lat="44.45212" lon="2.45095">
        <ele>753.5</ele>
        <time>2013-01-20T09:03:22Z</time>
      </trkpt>
      <trkpt lat="44.45215" lon="2.45097">
        <ele>753.5</ele>
        <time>2013-01-20T09:03:23Z</time>
      </trkpt>
      <trkpt lat="44.45218" lon="2.45099">
        <ele>753.9</ele>
        <time>2013-01-20T09:03:24Z</time>
      </trkpt>
      <trkpt lat="44.45221" lon="2.45102">
        <ele>754.2</ele>
        <time>2013-01-20T09:03:25Z</time>
      </trkpt>
      <trkpt lat="44.45224" lon="2.45104">
        <ele>754.4</ele>
        <time>2013-01-20T09:03:26Z</time>
      </trkpt>
      <trkpt lat="44.45228" lon="2.45106">
        <ele>754.6</ele>
        <time>2013-01-20T09:03:27Z</time>
      </trkpt>
      <trkpt lat="44.45232" lon="2.45107">
        <ele>754.1</ele>
        <time>2013-01-20T09:03:28Z</time>
      </trkpt>
      <trkpt lat="44.45235" lon="2.45109">
        <ele>753.7</ele>
        <time>2013-01-20T09:03:29Z</time>
      </trkpt>
      <trkpt lat="44.45239" lon="2.45112">
        <ele>753.3</ele>
        <time>2013-01-20T09:03:30Z</time>
      </trkpt>
      <trkpt lat="44.45242" lon="2.45113">
        <ele>753.1</ele>
        <time>2013-01-20T09:03:31Z</time>
      </trkpt>
      <trkpt lat="44.45244" lon="2.45115">
        <ele>753</ele>
        <time>2013-01-20T09:03:32Z</time>
      </trkpt>
      <trkpt lat="44.45247" lon="2.45116">
        <ele>752.9</ele>
        <time>2013-01-20T09:03:33Z</time>
      </trkpt>
      <trkpt lat="44.4525" lon="2.45117">
        <ele>752.6</ele>
        <time>2013-01-20T09:03:34Z</time>
      </trkpt>
      <trkpt lat="44.45253" lon="2.45119">
        <ele>752.3</ele>
        <time>2013-01-20T09:03:35Z</time>
      </trkpt>
      <trkpt lat="44.45255" lon="2.45118">
        <ele>752.2</ele>
        <time>2013-01-20T09:03:36Z</time>
      </trkpt>
      <trkpt lat="44.45258" lon="2.45117">
        <ele>752</ele>
        <time>2013-01-20T09:03:37Z</time>
      </trkpt>
      <trkpt lat="44.45259" lon="2.45114">
        <ele>752</ele>
        <time>2013-01-20T09:03:38Z</time>
      </trkpt>
      <trkpt lat="44.45261" lon="2.45111">
        <ele>751.9</ele>
        <time>2013-01-20T09:03:39Z</time>
      </trkpt>
      <trkpt lat="44.45262" lon="2.45108">
        <ele>752.3</ele>
        <time>2013-01-20T09:03:40Z</time>
      </trkpt>
      <trkpt lat="44.45263" lon="2.45105">
        <ele>752.5</ele>
        <time>2013-01-20T09:03:41Z</time>
      </trkpt>
      <trkpt lat="44.45264" lon="2.45101">
        <ele>752.7</ele>
        <time>2013-01-20T09:03:42Z</time>
      </trkpt>
      <trkpt lat="44.45265" lon="2.45098">
        <ele>752.9</ele>
        <time>2013-01-20T09:03:43Z</time>
      </trkpt>
      <trkpt lat="44.45266" lon="2.45094">
        <ele>752.7</ele>
        <time>2013-01-20T09:03:44Z</time>
      </trkpt>
      <trkpt lat="44.45267" lon="2.45091">
        <ele>752.6</ele>
        <time>2013-01-20T09:03:45Z</time>
      </trkpt>
      <trkpt lat="44.45268" lon="2.45088">
        <ele>752.5</ele>
        <time>2013-01-20T09:03:46Z</time>
      </trkpt>
      <trkpt lat="44.45269" lon="2.45085">
        <ele>753</ele>
        <time>2013-01-20T09:03:47Z</time>
      </trkpt>
      <trkpt lat="44.45271" lon="2.45082">
        <ele>753.4</ele>
        <time>2013-01-20T09:03:48Z</time>
      </trkpt>
      <trkpt lat="44.45272" lon="2.45079">
        <ele>753.7</ele>
        <time>2013-01-20T09:03:49Z</time>
      </trkpt>
      <trkpt lat="44.45273" lon="2.45076">
        <ele>754</ele>
        <time>2013-01-20T09:03:50Z</time>
      </trkpt>
      <trkpt lat="44.45274" lon="2.45073">
        <ele>754.1</ele>
        <time>2013-01-20T09:03:51Z</time>
      </trkpt>
      <trkpt lat="44.45276" lon="2.4507">
        <ele>754.2</ele>
        <time>2013-01-20T09:03:52Z</time>
      </trkpt>
      <trkpt lat="44.45277" lon="2.45066">
        <ele>754.3</ele>
        <time>2013-01-20T09:03:53Z</time>
      </trkpt>
      <trkpt lat="44.45278" lon="2.45063">
        <ele>754.3</ele>
        <time>2013-01-20T09:03:54Z</time>
      </trkpt>
      <trkpt lat="44.45279" lon="2.4506">
        <ele>754.3</ele>
        <time>2013-01-20T09:03:55Z</time>
      </trkpt>
      <trkpt lat="44.4528" lon="2.45057">
        <ele>754.6</ele>
        <time>2013-01-20T09:03:56Z</time>
      </trkpt>
      <trkpt lat="44.45281" lon="2.45054">
        <ele>754.8</ele>
        <time>2013-01-20T09:03:57Z</time>
      </trkpt>
      <trkpt lat="44.45282" lon="2.45051">
        <ele>755</ele>
        <time>2013-01-20T09:03:58Z</time>
      </trkpt>
      <trkpt lat="44.45283" lon="2.45048">
        <ele>755.1</ele>
        <time>2013-01-20T09:03:59Z</time>
      </trkpt>
      <trkpt lat="44.45284" lon="2.45045">
        <ele>755.5</ele>
        <time>2013-01-20T09:04:00Z</time>
      </trkpt>
      <trkpt lat="44.45285" lon="2.45042">
        <ele>755.9</ele>
        <time>2013-01-20T09:04:01Z</time>
      </trkpt>
      <trkpt lat="44.45287" lon="2.45036">
        <ele>756.5</ele>
        <time>2013-01-20T09:04:03Z</time>
      </trkpt>
      <trkpt lat="44.45289" lon="2.45031">
        <ele>757</ele>
        <time>2013-01-20T09:04:05Z</time>
      </trkpt>
      <trkpt lat="44.4529" lon="2.45026">
        <ele>757.3</ele>
        <time>2013-01-20T09:04:07Z</time>
      </trkpt>
      <trkpt lat="44.45292" lon="2.45021">
        <ele>757.7</ele>
        <time>2013-01-20T09:04:09Z</time>
      </trkpt>
      <trkpt lat="44.45294" lon="2.45016">
        <ele>758.1</ele>
        <time>2013-01-20T09:04:11Z</time>
      </trkpt>
      <trkpt lat="44.45296" lon="2.45012">
        <ele>759.2</ele>
        <time>2013-01-20T09:04:13Z</time>
      </trkpt>
      <trkpt lat="44.45298" lon="2.45007">
        <ele>759.8</ele>
        <time>2013-01-20T09:04:15Z</time>
      </trkpt>
      <trkpt lat="44.45299" lon="2.45003">
        <ele>759.2</ele>
        <time>2013-01-20T09:04:17Z</time>
      </trkpt>
      <trkpt lat="44.45301" lon="2.44998">
        <ele>759</ele>
        <time>2013-01-20T09:04:19Z</time>
      </trkpt>
      <trkpt lat="44.45303" lon="2.44993">
        <ele>759.1</ele>
        <time>2013-01-20T09:04:21Z</time>
      </trkpt>
      <trkpt lat="44.45305" lon="2.44989">
        <ele>759.8</ele>
        <time>2013-01-20T09:04:23Z</time>
      </trkpt>
      <trkpt lat="44.45306" lon="2.44984">
        <ele>759.9</ele>
        <time>2013-01-20T09:04:25Z</time>
      </trkpt>
      <trkpt lat="44.45308" lon="2.44979">
        <ele>759.8</ele>
        <time>2013-01-20T09:04:27Z</time>
      </trkpt>
      <trkpt lat="44.4531" lon="2.44975">
        <ele>759.4</ele>
        <time>2013-01-20T09:04:29Z</time>
      </trkpt>
      <trkpt lat="44.45313" lon="2.4497">
        <ele>759.4</ele>
        <time>2013-01-20T09:04:31Z</time>
      </trkpt>
      <trkpt lat="44.45314" lon="2.44966">
        <ele>759.6</ele>
        <time>2013-01-20T09:04:33Z</time>
      </trkpt>
      <trkpt lat="44.45316" lon="2.44963">
        <ele>759.6</ele>
        <time>2013-01-20T09:04:34Z</time>
      </trkpt>
      <trkpt lat="44.45319" lon="2.44956">
        <ele>761</ele>
        <time>2013-01-20T09:04:37Z</time>
      </trkpt>
      <trkpt lat="44.45321" lon="2.44952">
        <ele>761.2</ele>
        <time>2013-01-20T09:04:39Z</time>
      </trkpt>
      <trkpt lat="44.45323" lon="2.44947">
        <ele>761.4</ele>
        <time>2013-01-20T09:04:41Z</time>
      </trkpt>
      <trkpt lat="44.45324" lon="2.44944">
        <ele>761.5</ele>
        <time>2013-01-20T09:04:42Z</time>
      </trkpt>
      <trkpt lat="44.45327" lon="2.44939">
        <ele>762</ele>
        <time>2013-01-20T09:04:44Z</time>
      </trkpt>
      <trkpt lat="44.45329" lon="2.44934">
        <ele>762.4</ele>
        <time>2013-01-20T09:04:46Z</time>
      </trkpt>
      <trkpt lat="44.45332" lon="2.4493">
        <ele>761.7</ele>
        <time>2013-01-20T09:04:48Z</time>
      </trkpt>
      <trkpt lat="44.45334" lon="2.44926">
        <ele>761.3</ele>
        <time>2013-01-20T09:04:50Z</time>
      </trkpt>
      <trkpt lat="44.45336" lon="2.44922">
        <ele>761.3</ele>
        <time>2013-01-20T09:04:52Z</time>
      </trkpt>
      <trkpt lat="44.45338" lon="2.44917">
        <ele>761.6</ele>
        <time>2013-01-20T09:04:54Z</time>
      </trkpt>
      <trkpt lat="44.45341" lon="2.44912">
        <ele>761.9</ele>
        <time>2013-01-20T09:04:56Z</time>
      </trkpt>
      <trkpt lat="44.45343" lon="2.44906">
        <ele>762.5</ele>
        <time>2013-01-20T09:04:58Z</time>
      </trkpt>
      <trkpt lat="44.45345" lon="2.44904">
        <ele>762.8</ele>
        <time>2013-01-20T09:05:00Z</time>
      </trkpt>
      <trkpt lat="44.45347" lon="2.449">
        <ele>762.9</ele>
        <time>2013-01-20T09:05:02Z</time>
      </trkpt>
      <trkpt lat="44.4535" lon="2.44897">
        <ele>763.3</ele>
        <time>2013-01-20T09:05:04Z</time>
      </trkpt>
      <trkpt lat="44.45351" lon="2.44893">
        <ele>763.5</ele>
        <time>2013-01-20T09:05:06Z</time>
      </trkpt>
      <trkpt lat="44.45354" lon="2.44889">
        <ele>763</ele>
        <time>2013-01-20T09:05:08Z</time>
      </trkpt>
      <trkpt lat="44.45356" lon="2.44884">
        <ele>763.1</ele>
        <time>2013-01-20T09:05:10Z</time>
      </trkpt>
      <trkpt lat="44.45358" lon="2.44879">
        <ele>763.4</ele>
        <time>2013-01-20T09:05:12Z</time>
      </trkpt>
      <trkpt lat="44.45361" lon="2.44874">
        <ele>763.2</ele>
        <time>2013-01-20T09:05:14Z</time>
      </trkpt>
      <trkpt lat="44.45362" lon="2.4487">
        <ele>763.5</ele>
        <time>2013-01-20T09:05:16Z</time>
      </trkpt>
      <trkpt lat="44.45364" lon="2.44865">
        <ele>763.8</ele>
        <time>2013-01-20T09:05:18Z</time>
      </trkpt>
      <trkpt lat="44.45366" lon="2.4486">
        <ele>764.1</ele>
        <time>2013-01-20T09:05:20Z</time>
      </trkpt>
      <trkpt lat="44.45368" lon="2.44855">
        <ele>764.3</ele>
        <time>2013-01-20T09:05:22Z</time>
      </trkpt>
      <trkpt lat="44.45371" lon="2.44851">
        <ele>763.6</ele>
        <time>2013-01-20T09:05:24Z</time>
      </trkpt>
      <trkpt lat="44.45372" lon="2.44848">
        <ele>763.4</ele>
        <time>2013-01-20T09:05:25Z</time>
      </trkpt>
      <trkpt lat="44.45373" lon="2.44846">
        <ele>763.3</ele>
        <time>2013-01-20T09:05:26Z</time>
      </trkpt>
      <trkpt lat="44.45375" lon="2.44843">
        <ele>763.2</ele>
        <time>2013-01-20T09:05:27Z</time>
      </trkpt>
      <trkpt lat="44.45376" lon="2.44841">
        <ele>763.1</ele>
        <time>2013-01-20T09:05:28Z</time>
      </trkpt>
      <trkpt lat="44.45378" lon="2.44838">
        <ele>763.4</ele>
        <time>2013-01-20T09:05:29Z</time>
      </trkpt>
      <trkpt lat="44.45379" lon="2.44835">
        <ele>763.7</ele>
        <time>2013-01-20T09:05:30Z</time>
      </trkpt>
      <trkpt lat="44.4538" lon="2.44833">
        <ele>763.8</ele>
        <time>2013-01-20T09:05:31Z</time>
      </trkpt>
      <trkpt lat="44.45382" lon="2.4483">
        <ele>763.8</ele>
        <time>2013-01-20T09:05:32Z</time>
      </trkpt>
      <trkpt lat="44.45383" lon="2.44828">
        <ele>763.7</ele>
        <time>2013-01-20T09:05:33Z</time>
      </trkpt>
      <trkpt lat="44.45385" lon="2.44825">
        <ele>763.7</ele>
        <time>2013-01-20T09:05:34Z</time>
      </trkpt>
      <trkpt lat="44.45386" lon="2.44823">
        <ele>764.1</ele>
        <time>2013-01-20T09:05:35Z</time>
      </trkpt>
      <trkpt lat="44.4539" lon="2.44815">
        <ele>764.7</ele>
        <time>2013-01-20T09:05:38Z</time>
      </trkpt>
      <trkpt lat="44.45392" lon="2.44812">
        <ele>764.7</ele>
        <time>2013-01-20T09:05:39Z</time>
      </trkpt>
      <trkpt lat="44.45393" lon="2.44809">
        <ele>764.7</ele>
        <time>2013-01-20T09:05:40Z</time>
      </trkpt>
      <trkpt lat="44.45394" lon="2.44807">
        <ele>764.7</ele>
        <time>2013-01-20T09:05:41Z</time>
      </trkpt>
      <trkpt lat="44.45396" lon="2.44804">
        <ele>764.7</ele>
        <time>2013-01-20T09:05:42Z</time>
      </trkpt>
      <trkpt lat="44.45397" lon="2.44801">
        <ele>764.7</ele>
        <time>2013-01-20T09:05:43Z</time>
      </trkpt>
      <trkpt lat="44.45399" lon="2.44798">
        <ele>764.7</ele>
        <time>2013-01-20T09:05:44Z</time>
      </trkpt>
      <trkpt lat="44.454" lon="2.44796">
        <ele>764.7</ele>
        <time>2013-01-20T09:05:45Z</time>
      </trkpt>
      <trkpt lat="44.45401" lon="2.44793">
        <ele>764.7</ele>
        <time>2013-01-20T09:05:46Z</time>
      </trkpt>
      <trkpt lat="44.45404" lon="2.44788">
        <ele>764.7</ele>
        <time>2013-01-20T09:05:48Z</time>
      </trkpt>
      <trkpt lat="44.45406" lon="2.44783">
        <ele>764.7</ele>
        <time>2013-01-20T09:05:50Z</time>
      </trkpt>
      <trkpt lat="44.45408" lon="2.44781">
        <ele>764.9</ele>
        <time>2013-01-20T09:05:51Z</time>
      </trkpt>
      <trkpt lat="44.45409" lon="2.44778">
        <ele>765.1</ele>
        <time>2013-01-20T09:05:52Z</time>
      </trkpt>
      <trkpt lat="44.45411" lon="2.44775">
        <ele>765.2</ele>
        <time>2013-01-20T09:05:53Z</time>
      </trkpt>
      <trkpt lat="44.45413" lon="2.4477">
        <ele>765</ele>
        <time>2013-01-20T09:05:55Z</time>
      </trkpt>
      <trkpt lat="44.45414" lon="2.44767">
        <ele>765</ele>
        <time>2013-01-20T09:05:56Z</time>
      </trkpt>
      <trkpt lat="44.45416" lon="2.44765">
        <ele>765</ele>
        <time>2013-01-20T09:05:57Z</time>
      </trkpt>
      <trkpt lat="44.45417" lon="2.44762">
        <ele>764.9</ele>
        <time>2013-01-20T09:05:58Z</time>
      </trkpt>
      <trkpt lat="44.45418" lon="2.44759">
        <ele>764.9</ele>
        <time>2013-01-20T09:05:59Z</time>
      </trkpt>
      <trkpt lat="44.4542" lon="2.44757">
        <ele>764.8</ele>
        <time>2013-01-20T09:06:00Z</time>
      </trkpt>
      <trkpt lat="44.45421" lon="2.44754">
        <ele>765</ele>
        <time>2013-01-20T09:06:01Z</time>
      </trkpt>
      <trkpt lat="44.45422" lon="2.44751">
        <ele>765.2</ele>
        <time>2013-01-20T09:06:02Z</time>
      </trkpt>
      <trkpt lat="44.45423" lon="2.44749">
        <ele>765.3</ele>
        <time>2013-01-20T09:06:03Z</time>
      </trkpt>
      <trkpt lat="44.45425" lon="2.44746">
        <ele>765.7</ele>
        <time>2013-01-20T09:06:04Z</time>
      </trkpt>
      <trkpt lat="44.45426" lon="2.44743">
        <ele>766</ele>
        <time>2013-01-20T09:06:05Z</time>
      </trkpt>
      <trkpt lat="44.45427" lon="2.4474">
        <ele>766.2</ele>
        <time>2013-01-20T09:06:06Z</time>
      </trkpt>
      <trkpt lat="44.45429" lon="2.44737">
        <ele>765.9</ele>
        <time>2013-01-20T09:06:07Z</time>
      </trkpt>
      <trkpt lat="44.4543" lon="2.44734">
        <ele>765.7</ele>
        <time>2013-01-20T09:06:08Z</time>
      </trkpt>
      <trkpt lat="44.45431" lon="2.44732">
        <ele>765.5</ele>
        <time>2013-01-20T09:06:09Z</time>
      </trkpt>
      <trkpt lat="44.45432" lon="2.44729">
        <ele>765.5</ele>
        <time>2013-01-20T09:06:10Z</time>
      </trkpt>
      <trkpt lat="44.45434" lon="2.44726">
        <ele>765.6</ele>
        <time>2013-01-20T09:06:11Z</time>
      </trkpt>
      <trkpt lat="44.45435" lon="2.44723">
        <ele>765.6</ele>
        <time>2013-01-20T09:06:12Z</time>
      </trkpt>
      <trkpt lat="44.45436" lon="2.4472">
        <ele>765.6</ele>
        <time>2013-01-20T09:06:13Z</time>
      </trkpt>
      <trkpt lat="44.45437" lon="2.44717">
        <ele>765.5</ele>
        <time>2013-01-20T09:06:14Z</time>
      </trkpt>
      <trkpt lat="44.45439" lon="2.44713">
        <ele>765.5</ele>
        <time>2013-01-20T09:06:15Z</time>
      </trkpt>
      <trkpt lat="44.4544" lon="2.4471">
        <ele>765.5</ele>
        <time>2013-01-20T09:06:16Z</time>
      </trkpt>
      <trkpt lat="44.45441" lon="2.44707">
        <ele>765.3</ele>
        <time>2013-01-20T09:06:17Z</time>
      </trkpt>
      <trkpt lat="44.45442" lon="2.44704">
        <ele>765.2</ele>
        <time>2013-01-20T09:06:18Z</time>
      </trkpt>
      <trkpt lat="44.45443" lon="2.44701">
        <ele>765.1</ele>
        <time>2013-01-20T09:06:19Z</time>
      </trkpt>
      <trkpt lat="44.45445" lon="2.44698">
        <ele>765.3</ele>
        <time>2013-01-20T09:06:20Z</time>
      </trkpt>
      <trkpt lat="44.45446" lon="2.44695">
        <ele>765.5</ele>
        <time>2013-01-20T09:06:21Z</time>
      </trkpt>
      <trkpt lat="44.45447" lon="2.44692">
        <ele>765.6</ele>
        <time>2013-01-20T09:06:22Z</time>
      </trkpt>
      <trkpt lat="44.45449" lon="2.44689">
        <ele>765.3</ele>
        <time>2013-01-20T09:06:23Z</time>
      </trkpt>
      <trkpt lat="44.4545" lon="2.44686">
        <ele>765.2</ele>
        <time>2013-01-20T09:06:24Z</time>
      </trkpt>
      <trkpt lat="44.45451" lon="2.44684">
        <ele>765</ele>
        <time>2013-01-20T09:06:25Z</time>
      </trkpt>
      <trkpt lat="44.45453" lon="2.44681">
        <ele>765.3</ele>
        <time>2013-01-20T09:06:26Z</time>
      </trkpt>
      <trkpt lat="44.45454" lon="2.44678">
        <ele>765.6</ele>
        <time>2013-01-20T09:06:27Z</time>
      </trkpt>
      <trkpt lat="44.45456" lon="2.44675">
        <ele>765.7</ele>
        <time>2013-01-20T09:06:28Z</time>
      </trkpt>
      <trkpt lat="44.45457" lon="2.44672">
        <ele>765.9</ele>
        <time>2013-01-20T09:06:29Z</time>
      </trkpt>
      <trkpt lat="44.45459" lon="2.4467">
        <ele>765.7</ele>
        <time>2013-01-20T09:06:30Z</time>
      </trkpt>
      <trkpt lat="44.45461" lon="2.44667">
        <ele>765.6</ele>
        <time>2013-01-20T09:06:31Z</time>
      </trkpt>
      <trkpt lat="44.45464" lon="2.44663">
        <ele>765.5</ele>
        <time>2013-01-20T09:06:33Z</time>
      </trkpt>
      <trkpt lat="44.45467" lon="2.44659">
        <ele>765.5</ele>
        <time>2013-01-20T09:06:35Z</time>
      </trkpt>
      <trkpt lat="44.45468" lon="2.44657">
        <ele>765.4</ele>
        <time>2013-01-20T09:06:36Z</time>
      </trkpt>
      <trkpt lat="44.45472" lon="2.44651">
        <ele>765.4</ele>
        <time>2013-01-20T09:06:39Z</time>
      </trkpt>
      <trkpt lat="44.45475" lon="2.44648">
        <ele>765.4</ele>
        <time>2013-01-20T09:06:41Z</time>
      </trkpt>
      <trkpt lat="44.45478" lon="2.44647">
        <ele>766</ele>
        <time>2013-01-20T09:06:43Z</time>
      </trkpt>
      <trkpt lat="44.45482" lon="2.44649">
        <ele>766.3</ele>
        <time>2013-01-20T09:06:45Z</time>
      </trkpt>
      <trkpt lat="44.45486" lon="2.4465">
        <ele>766.5</ele>
        <time>2013-01-20T09:06:47Z</time>
      </trkpt>
      <trkpt lat="44.4549" lon="2.44649">
        <ele>766.5</ele>
        <time>2013-01-20T09:06:49Z</time>
      </trkpt>
      <trkpt lat="44.45493" lon="2.44649">
        <ele>766.4</ele>
        <time>2013-01-20T09:06:50Z</time>
      </trkpt>
      <trkpt lat="44.45497" lon="2.4465">
        <ele>766.6</ele>
        <time>2013-01-20T09:06:52Z</time>
      </trkpt>
      <trkpt lat="44.45499" lon="2.4465">
        <ele>766.8</ele>
        <time>2013-01-20T09:06:53Z</time>
      </trkpt>
      <trkpt lat="44.45502" lon="2.44651">
        <ele>767</ele>
        <time>2013-01-20T09:06:54Z</time>
      </trkpt>
      <trkpt lat="44.45506" lon="2.44652">
        <ele>767.1</ele>
        <time>2013-01-20T09:06:56Z</time>
      </trkpt>
      <trkpt lat="44.4551" lon="2.44653">
        <ele>767.1</ele>
        <time>2013-01-20T09:06:58Z</time>
      </trkpt>
      <trkpt lat="44.45514" lon="2.44655">
        <ele>767.2</ele>
        <time>2013-01-20T09:07:00Z</time>
      </trkpt>
      <trkpt lat="44.45518" lon="2.44657">
        <ele>767.7</ele>
        <time>2013-01-20T09:07:02Z</time>
      </trkpt>
      <trkpt lat="44.45522" lon="2.44658">
        <ele>768</ele>
        <time>2013-01-20T09:07:04Z</time>
      </trkpt>
      <trkpt lat="44.45524" lon="2.44659">
        <ele>767.9</ele>
        <time>2013-01-20T09:07:05Z</time>
      </trkpt>
      <trkpt lat="44.45528" lon="2.44661">
        <ele>767.9</ele>
        <time>2013-01-20T09:07:07Z</time>
      </trkpt>
      <trkpt lat="44.4553" lon="2.44661">
        <ele>768.2</ele>
        <time>2013-01-20T09:07:08Z</time>
      </trkpt>
      <trkpt lat="44.45533" lon="2.44662">
        <ele>768.4</ele>
        <time>2013-01-20T09:07:09Z</time>
      </trkpt>
      <trkpt lat="44.45535" lon="2.44663">
        <ele>768.5</ele>
        <time>2013-01-20T09:07:10Z</time>
      </trkpt>
      <trkpt lat="44.45537" lon="2.44664">
        <ele>768.8</ele>
        <time>2013-01-20T09:07:11Z</time>
      </trkpt>
      <trkpt lat="44.45539" lon="2.44665">
        <ele>769</ele>
        <time>2013-01-20T09:07:12Z</time>
      </trkpt>
      <trkpt lat="44.45542" lon="2.44666">
        <ele>769.1</ele>
        <time>2013-01-20T09:07:13Z</time>
      </trkpt>
      <trkpt lat="44.45544" lon="2.44667">
        <ele>768.9</ele>
        <time>2013-01-20T09:07:14Z</time>
      </trkpt>
      <trkpt lat="44.45546" lon="2.44668">
        <ele>768.7</ele>
        <time>2013-01-20T09:07:15Z</time>
      </trkpt>
      <trkpt lat="44.4555" lon="2.44671">
        <ele>769</ele>
        <time>2013-01-20T09:07:17Z</time>
      </trkpt>
      <trkpt lat="44.45554" lon="2.44673">
        <ele>769.7</ele>
        <time>2013-01-20T09:07:19Z</time>
      </trkpt>
      <trkpt lat="44.45558" lon="2.44675">
        <ele>769.7</ele>
        <time>2013-01-20T09:07:21Z</time>
      </trkpt>
      <trkpt lat="44.45562" lon="2.44677">
        <ele>769.5</ele>
        <time>2013-01-20T09:07:23Z</time>
      </trkpt>
      <trkpt lat="44.45566" lon="2.4468">
        <ele>769.1</ele>
        <time>2013-01-20T09:07:25Z</time>
      </trkpt>
      <trkpt lat="44.45568" lon="2.44682">
        <ele>769</ele>
        <time>2013-01-20T09:07:26Z</time>
      </trkpt>
      <trkpt lat="44.4557" lon="2.44683">
        <ele>769.2</ele>
        <time>2013-01-20T09:07:27Z</time>
      </trkpt>
      <trkpt lat="44.45572" lon="2.44685">
        <ele>769.4</ele>
        <time>2013-01-20T09:07:28Z</time>
      </trkpt>
      <trkpt lat="44.45576" lon="2.44688">
        <ele>769.4</ele>
        <time>2013-01-20T09:07:30Z</time>
      </trkpt>
      <trkpt lat="44.4558" lon="2.44691">
        <ele>769.3</ele>
        <time>2013-01-20T09:07:32Z</time>
      </trkpt>
      <trkpt lat="44.45584" lon="2.44694">
        <ele>769.1</ele>
        <time>2013-01-20T09:07:34Z</time>
      </trkpt>
      <trkpt lat="44.45588" lon="2.44696">
        <ele>768.9</ele>
        <time>2013-01-20T09:07:36Z</time>
      </trkpt>
      <trkpt lat="44.4559" lon="2.44698">
        <ele>769.1</ele>
        <time>2013-01-20T09:07:37Z</time>
      </trkpt>
      <trkpt lat="44.45596" lon="2.44702">
        <ele>769.5</ele>
        <time>2013-01-20T09:07:40Z</time>
      </trkpt>
      <trkpt lat="44.45599" lon="2.44705">
        <ele>769.8</ele>
        <time>2013-01-20T09:07:42Z</time>
      </trkpt>
      <trkpt lat="44.45603" lon="2.44708">
        <ele>770</ele>
        <time>2013-01-20T09:07:44Z</time>
      </trkpt>
      <trkpt lat="44.45607" lon="2.44711">
        <ele>770.4</ele>
        <time>2013-01-20T09:07:46Z</time>
      </trkpt>
      <trkpt lat="44.45609" lon="2.44712">
        <ele>770.6</ele>
        <time>2013-01-20T09:07:47Z</time>
      </trkpt>
      <trkpt lat="44.45611" lon="2.44714">
        <ele>770.7</ele>
        <time>2013-01-20T09:07:48Z</time>
      </trkpt>
      <trkpt lat="44.45615" lon="2.44717">
        <ele>770.2</ele>
        <time>2013-01-20T09:07:50Z</time>
      </trkpt>
      <trkpt lat="44.45617" lon="2.44718">
        <ele>770</ele>
        <time>2013-01-20T09:07:51Z</time>
      </trkpt>
      <trkpt lat="44.45619" lon="2.4472">
        <ele>770.1</ele>
        <time>2013-01-20T09:07:52Z</time>
      </trkpt>
      <trkpt lat="44.45621" lon="2.44721">
        <ele>770.1</ele>
        <time>2013-01-20T09:07:53Z</time>
      </trkpt>
      <trkpt lat="44.45623" lon="2.44723">
        <ele>770.1</ele>
        <time>2013-01-20T09:07:54Z</time>
      </trkpt>
      <trkpt lat="44.45625" lon="2.44724">
        <ele>770.1</ele>
        <time>2013-01-20T09:07:55Z</time>
      </trkpt>
      <trkpt lat="44.45629" lon="2.44727">
        <ele>770.1</ele>
        <time>2013-01-20T09:07:57Z</time>
      </trkpt>
      <trkpt lat="44.45631" lon="2.44728">
        <ele>770.2</ele>
        <time>2013-01-20T09:07:58Z</time>
      </trkpt>
      <trkpt lat="44.45633" lon="2.4473">
        <ele>770.4</ele>
        <time>2013-01-20T09:07:59Z</time>
      </trkpt>
      <trkpt lat="44.45635" lon="2.44731">
        <ele>770.5</ele>
        <time>2013-01-20T09:08:00Z</time>
      </trkpt>
      <trkpt lat="44.45638" lon="2.44733">
        <ele>770.6</ele>
        <time>2013-01-20T09:08:01Z</time>
      </trkpt>
      <trkpt lat="44.45641" lon="2.44736">
        <ele>770.4</ele>
        <time>2013-01-20T09:08:03Z</time>
      </trkpt>
      <trkpt lat="44.45645" lon="2.44738">
        <ele>771</ele>
        <time>2013-01-20T09:08:05Z</time>
      </trkpt>
      <trkpt lat="44.45649" lon="2.44741">
        <ele>771.9</ele>
        <time>2013-01-20T09:08:07Z</time>
      </trkpt>
      <trkpt lat="44.45651" lon="2.44743">
        <ele>771.9</ele>
        <time>2013-01-20T09:08:08Z</time>
      </trkpt>
      <trkpt lat="44.45653" lon="2.44744">
        <ele>771.9</ele>
        <time>2013-01-20T09:08:09Z</time>
      </trkpt>
      <trkpt lat="44.45656" lon="2.44746">
        <ele>771.9</ele>
        <time>2013-01-20T09:08:10Z</time>
      </trkpt>
      <trkpt lat="44.45658" lon="2.44747">
        <ele>771.9</ele>
        <time>2013-01-20T09:08:11Z</time>
      </trkpt>
      <trkpt lat="44.4566" lon="2.44749">
        <ele>772.3</ele>
        <time>2013-01-20T09:08:12Z</time>
      </trkpt>
      <trkpt lat="44.45662" lon="2.4475">
        <ele>772.7</ele>
        <time>2013-01-20T09:08:13Z</time>
      </trkpt>
      <trkpt lat="44.45664" lon="2.44752">
        <ele>772.9</ele>
        <time>2013-01-20T09:08:14Z</time>
      </trkpt>
      <trkpt lat="44.45667" lon="2.44754">
        <ele>772.5</ele>
        <time>2013-01-20T09:08:15Z</time>
      </trkpt>
      <trkpt lat="44.45669" lon="2.44755">
        <ele>772.2</ele>
        <time>2013-01-20T09:08:16Z</time>
      </trkpt>
      <trkpt lat="44.45671" lon="2.44757">
        <ele>772</ele>
        <time>2013-01-20T09:08:17Z</time>
      </trkpt>
      <trkpt lat="44.45673" lon="2.44758">
        <ele>772</ele>
        <time>2013-01-20T09:08:18Z</time>
      </trkpt>
      <trkpt lat="44.45676" lon="2.44759">
        <ele>772.1</ele>
        <time>2013-01-20T09:08:19Z</time>
      </trkpt>
      <trkpt lat="44.45678" lon="2.44761">
        <ele>772.2</ele>
        <time>2013-01-20T09:08:20Z</time>
      </trkpt>
      <trkpt lat="44.4568" lon="2.44762">
        <ele>772.3</ele>
        <time>2013-01-20T09:08:21Z</time>
      </trkpt>
      <trkpt lat="44.45682" lon="2.44763">
        <ele>772.5</ele>
        <time>2013-01-20T09:08:22Z</time>
      </trkpt>
      <trkpt lat="44.45684" lon="2.44765">
        <ele>772.6</ele>
        <time>2013-01-20T09:08:23Z</time>
      </trkpt>
      <trkpt lat="44.45687" lon="2.44766">
        <ele>772.7</ele>
        <time>2013-01-20T09:08:24Z</time>
      </trkpt>
      <trkpt lat="44.45689" lon="2.44767">
        <ele>772.7</ele>
        <time>2013-01-20T09:08:25Z</time>
      </trkpt>
      <trkpt lat="44.45691" lon="2.44769">
        <ele>772.8</ele>
        <time>2013-01-20T09:08:26Z</time>
      </trkpt>
      <trkpt lat="44.45693" lon="2.4477">
        <ele>772.8</ele>
        <time>2013-01-20T09:08:27Z</time>
      </trkpt>
      <trkpt lat="44.45695" lon="2.44771">
        <ele>772.9</ele>
        <time>2013-01-20T09:08:28Z</time>
      </trkpt>
      <trkpt lat="44.45698" lon="2.44772">
        <ele>773</ele>
        <time>2013-01-20T09:08:29Z</time>
      </trkpt>
      <trkpt lat="44.457" lon="2.44774">
        <ele>773.1</ele>
        <time>2013-01-20T09:08:30Z</time>
      </trkpt>
      <trkpt lat="44.45702" lon="2.44775">
        <ele>772.9</ele>
        <time>2013-01-20T09:08:31Z</time>
      </trkpt>
      <trkpt lat="44.45704" lon="2.44776">
        <ele>772.8</ele>
        <time>2013-01-20T09:08:32Z</time>
      </trkpt>
      <trkpt lat="44.45707" lon="2.44778">
        <ele>772.7</ele>
        <time>2013-01-20T09:08:33Z</time>
      </trkpt>
      <trkpt lat="44.45709" lon="2.44779">
        <ele>772.9</ele>
        <time>2013-01-20T09:08:34Z</time>
      </trkpt>
      <trkpt lat="44.45711" lon="2.4478">
        <ele>773.1</ele>
        <time>2013-01-20T09:08:35Z</time>
      </trkpt>
      <trkpt lat="44.45713" lon="2.44781">
        <ele>773.2</ele>
        <time>2013-01-20T09:08:36Z</time>
      </trkpt>
      <trkpt lat="44.45716" lon="2.44782">
        <ele>773.5</ele>
        <time>2013-01-20T09:08:37Z</time>
      </trkpt>
      <trkpt lat="44.45718" lon="2.44784">
        <ele>773.7</ele>
        <time>2013-01-20T09:08:38Z</time>
      </trkpt>
      <trkpt lat="44.4572" lon="2.44785">
        <ele>773.8</ele>
        <time>2013-01-20T09:08:39Z</time>
      </trkpt>
      <trkpt lat="44.45723" lon="2.44786">
        <ele>774</ele>
        <time>2013-01-20T09:08:40Z</time>
      </trkpt>
      <trkpt lat="44.45725" lon="2.44787">
        <ele>774.1</ele>
        <time>2013-01-20T09:08:41Z</time>
      </trkpt>
      <trkpt lat="44.45727" lon="2.44788">
        <ele>774.1</ele>
        <time>2013-01-20T09:08:42Z</time>
      </trkpt>
      <trkpt lat="44.45732" lon="2.44789">
        <ele>774</ele>
        <time>2013-01-20T09:08:44Z</time>
      </trkpt>
      <trkpt lat="44.45734" lon="2.4479">
        <ele>773.8</ele>
        <time>2013-01-20T09:08:45Z</time>
      </trkpt>
      <trkpt lat="44.45736" lon="2.44791">
        <ele>773.7</ele>
        <time>2013-01-20T09:08:46Z</time>
      </trkpt>
      <trkpt lat="44.45739" lon="2.44792">
        <ele>773.4</ele>
        <time>2013-01-20T09:08:47Z</time>
      </trkpt>
      <trkpt lat="44.45741" lon="2.44793">
        <ele>773.2</ele>
        <time>2013-01-20T09:08:48Z</time>
      </trkpt>
      <trkpt lat="44.45743" lon="2.44794">
        <ele>773</ele>
        <time>2013-01-20T09:08:49Z</time>
      </trkpt>
      <trkpt lat="44.45746" lon="2.44794">
        <ele>773.1</ele>
        <time>2013-01-20T09:08:50Z</time>
      </trkpt>
      <trkpt lat="44.4575" lon="2.44792">
        <ele>773.2</ele>
        <time>2013-01-20T09:08:52Z</time>
      </trkpt>
      <trkpt lat="44.45753" lon="2.44789">
        <ele>773.4</ele>
        <time>2013-01-20T09:08:54Z</time>
      </trkpt>
      <trkpt lat="44.45756" lon="2.44784">
        <ele>773.4</ele>
        <time>2013-01-20T09:08:56Z</time>
      </trkpt>
      <trkpt lat="44.45757" lon="2.44781">
        <ele>773.3</ele>
        <time>2013-01-20T09:08:57Z</time>
      </trkpt>
      <trkpt lat="44.45758" lon="2.44778">
        <ele>773.2</ele>
        <time>2013-01-20T09:08:58Z</time>
      </trkpt>
      <trkpt lat="44.4576" lon="2.44775">
        <ele>773.2</ele>
        <time>2013-01-20T09:08:59Z</time>
      </trkpt>
      <trkpt lat="44.45761" lon="2.44771">
        <ele>773</ele>
        <time>2013-01-20T09:09:00Z</time>
      </trkpt>
      <trkpt lat="44.45763" lon="2.44768">
        <ele>772.9</ele>
        <time>2013-01-20T09:09:01Z</time>
      </trkpt>
      <trkpt lat="44.45764" lon="2.44765">
        <ele>772.8</ele>
        <time>2013-01-20T09:09:02Z</time>
      </trkpt>
      <trkpt lat="44.45766" lon="2.44762">
        <ele>772.7</ele>
        <time>2013-01-20T09:09:03Z</time>
      </trkpt>
      <trkpt lat="44.45767" lon="2.44759">
        <ele>772.6</ele>
        <time>2013-01-20T09:09:04Z</time>
      </trkpt>
      <trkpt lat="44.45769" lon="2.44756">
        <ele>772.6</ele>
        <time>2013-01-20T09:09:05Z</time>
      </trkpt>
      <trkpt lat="44.45771" lon="2.44753">
        <ele>772.5</ele>
        <time>2013-01-20T09:09:06Z</time>
      </trkpt>
      <trkpt lat="44.45772" lon="2.44751">
        <ele>772.5</ele>
        <time>2013-01-20T09:09:07Z</time>
      </trkpt>
      <trkpt lat="44.45775" lon="2.44746">
        <ele>772.7</ele>
        <time>2013-01-20T09:09:09Z</time>
      </trkpt>
      <trkpt lat="44.45777" lon="2.44744">
        <ele>773</ele>
        <time>2013-01-20T09:09:10Z</time>
      </trkpt>
      <trkpt lat="44.45779" lon="2.44742">
        <ele>773.1</ele>
        <time>2013-01-20T09:09:11Z</time>
      </trkpt>
      <trkpt lat="44.45781" lon="2.44741">
        <ele>773</ele>
        <time>2013-01-20T09:09:12Z</time>
      </trkpt>
      <trkpt lat="44.45783" lon="2.44739">
        <ele>772.9</ele>
        <time>2013-01-20T09:09:13Z</time>
      </trkpt>
      <trkpt lat="44.45785" lon="2.44738">
        <ele>772.8</ele>
        <time>2013-01-20T09:09:14Z</time>
      </trkpt>
      <trkpt lat="44.45787" lon="2.44736">
        <ele>772.6</ele>
        <time>2013-01-20T09:09:15Z</time>
      </trkpt>
      <trkpt lat="44.45789" lon="2.44734">
        <ele>772.4</ele>
        <time>2013-01-20T09:09:16Z</time>
      </trkpt>
      <trkpt lat="44.45791" lon="2.44733">
        <ele>772.3</ele>
        <time>2013-01-20T09:09:17Z</time>
      </trkpt>
      <trkpt lat="44.45793" lon="2.44731">
        <ele>772.2</ele>
        <time>2013-01-20T09:09:18Z</time>
      </trkpt>
      <trkpt lat="44.45796" lon="2.4473">
        <ele>772.3</ele>
        <time>2013-01-20T09:09:19Z</time>
      </trkpt>
      <trkpt lat="44.45798" lon="2.44728">
        <ele>772.3</ele>
        <time>2013-01-20T09:09:20Z</time>
      </trkpt>
      <trkpt lat="44.45801" lon="2.44727">
        <ele>772.3</ele>
        <time>2013-01-20T09:09:21Z</time>
      </trkpt>
      <trkpt lat="44.45803" lon="2.44726">
        <ele>771.8</ele>
        <time>2013-01-20T09:09:22Z</time>
      </trkpt>
      <trkpt lat="44.45806" lon="2.44724">
        <ele>771.5</ele>
        <time>2013-01-20T09:09:23Z</time>
      </trkpt>
      <trkpt lat="44.45809" lon="2.44723">
        <ele>771.2</ele>
        <time>2013-01-20T09:09:24Z</time>
      </trkpt>
      <trkpt lat="44.45811" lon="2.44721">
        <ele>771.3</ele>
        <time>2013-01-20T09:09:25Z</time>
      </trkpt>
      <trkpt lat="44.45814" lon="2.4472">
        <ele>771.5</ele>
        <time>2013-01-20T09:09:26Z</time>
      </trkpt>
      <trkpt lat="44.45817" lon="2.44718">
        <ele>771.5</ele>
        <time>2013-01-20T09:09:27Z</time>
      </trkpt>
      <trkpt lat="44.4582" lon="2.44717">
        <ele>771.2</ele>
        <time>2013-01-20T09:09:28Z</time>
      </trkpt>
      <trkpt lat="44.45823" lon="2.44716">
        <ele>771</ele>
        <time>2013-01-20T09:09:29Z</time>
      </trkpt>
      <trkpt lat="44.45826" lon="2.44715">
        <ele>770.8</ele>
        <time>2013-01-20T09:09:30Z</time>
      </trkpt>
      <trkpt lat="44.45829" lon="2.44713">
        <ele>770.8</ele>
        <time>2013-01-20T09:09:31Z</time>
      </trkpt>
      <trkpt lat="44.45831" lon="2.44712">
        <ele>770.8</ele>
        <time>2013-01-20T09:09:32Z</time>
      </trkpt>
      <trkpt lat="44.45834" lon="2.44711">
        <ele>770.8</ele>
        <time>2013-01-20T09:09:33Z</time>
      </trkpt>
      <trkpt lat="44.45837" lon="2.44709">
        <ele>770.8</ele>
        <time>2013-01-20T09:09:34Z</time>
      </trkpt>
      <trkpt lat="44.4584" lon="2.44707">
        <ele>770.5</ele>
        <time>2013-01-20T09:09:35Z</time>
      </trkpt>
      <trkpt lat="44.45843" lon="2.44706">
        <ele>770.2</ele>
        <time>2013-01-20T09:09:36Z</time>
      </trkpt>
      <trkpt lat="44.45845" lon="2.44704">
        <ele>770</ele>
        <time>2013-01-20T09:09:37Z</time>
      </trkpt>
      <trkpt lat="44.45848" lon="2.44703">
        <ele>769.9</ele>
        <time>2013-01-20T09:09:38Z</time>
      </trkpt>
      <trkpt lat="44.45851" lon="2.44701">
        <ele>769.7</ele>
        <time>2013-01-20T09:09:39Z</time>
      </trkpt>
      <trkpt lat="44.45854" lon="2.44699">
        <ele>769.7</ele>
        <time>2013-01-20T09:09:40Z</time>
      </trkpt>
      <trkpt lat="44.45857" lon="2.44697">
        <ele>769.6</ele>
        <time>2013-01-20T09:09:41Z</time>
      </trkpt>
      <trkpt lat="44.45861" lon="2.44695">
        <ele>769.5</ele>
        <time>2013-01-20T09:09:42Z</time>
      </trkpt>
      <trkpt lat="44.45864" lon="2.44693">
        <ele>769.4</ele>
        <time>2013-01-20T09:09:43Z</time>
      </trkpt>
      <trkpt lat="44.45867" lon="2.44691">
        <ele>769.4</ele>
        <time>2013-01-20T09:09:44Z</time>
      </trkpt>
      <trkpt lat="44.4587" lon="2.4469">
        <ele>769.4</ele>
        <time>2013-01-20T09:09:45Z</time>
      </trkpt>
      <trkpt lat="44.45872" lon="2.44688">
        <ele>769.4</ele>
        <time>2013-01-20T09:09:46Z</time>
      </trkpt>
      <trkpt lat="44.45876" lon="2.44686">
        <ele>769.3</ele>
        <time>2013-01-20T09:09:47Z</time>
      </trkpt>
      <trkpt lat="44.45879" lon="2.44684">
        <ele>769.2</ele>
        <time>2013-01-20T09:09:48Z</time>
      </trkpt>
      <trkpt lat="44.45882" lon="2.44682">
        <ele>769.1</ele>
        <time>2013-01-20T09:09:49Z</time>
      </trkpt>
      <trkpt lat="44.45885" lon="2.4468">
        <ele>769.1</ele>
        <time>2013-01-20T09:09:50Z</time>
      </trkpt>
      <trkpt lat="44.45888" lon="2.44678">
        <ele>768.3</ele>
        <time>2013-01-20T09:09:51Z</time>
      </trkpt>
      <trkpt lat="44.45891" lon="2.44676">
        <ele>767.7</ele>
        <time>2013-01-20T09:09:52Z</time>
      </trkpt>
      <trkpt lat="44.45894" lon="2.44674">
        <ele>767.3</ele>
        <time>2013-01-20T09:09:53Z</time>
      </trkpt>
      <trkpt lat="44.45897" lon="2.44672">
        <ele>767.4</ele>
        <time>2013-01-20T09:09:54Z</time>
      </trkpt>
      <trkpt lat="44.459" lon="2.44671">
        <ele>767.5</ele>
        <time>2013-01-20T09:09:55Z</time>
      </trkpt>
      <trkpt lat="44.45903" lon="2.44669">
        <ele>767.5</ele>
        <time>2013-01-20T09:09:56Z</time>
      </trkpt>
      <trkpt lat="44.45905" lon="2.44667">
        <ele>767.7</ele>
        <time>2013-01-20T09:09:57Z</time>
      </trkpt>
      <trkpt lat="44.45908" lon="2.44665">
        <ele>767.9</ele>
        <time>2013-01-20T09:09:58Z</time>
      </trkpt>
      <trkpt lat="44.45911" lon="2.44663">
        <ele>768</ele>
        <time>2013-01-20T09:09:59Z</time>
      </trkpt>
      <trkpt lat="44.45914" lon="2.44662">
        <ele>767.5</ele>
        <time>2013-01-20T09:10:00Z</time>
      </trkpt>
      <trkpt lat="44.45916" lon="2.4466">
        <ele>767</ele>
        <time>2013-01-20T09:10:01Z</time>
      </trkpt>
      <trkpt lat="44.45919" lon="2.44658">
        <ele>766.7</ele>
        <time>2013-01-20T09:10:02Z</time>
      </trkpt>
      <trkpt lat="44.45922" lon="2.44657">
        <ele>767.1</ele>
        <time>2013-01-20T09:10:03Z</time>
      </trkpt>
      <trkpt lat="44.45924" lon="2.44656">
        <ele>767.3</ele>
        <time>2013-01-20T09:10:04Z</time>
      </trkpt>
      <trkpt lat="44.45926" lon="2.44654">
        <ele>767.5</ele>
        <time>2013-01-20T09:10:05Z</time>
      </trkpt>
      <trkpt lat="44.45929" lon="2.44652">
        <ele>767.6</ele>
        <time>2013-01-20T09:10:06Z</time>
      </trkpt>
      <trkpt lat="44.45931" lon="2.4465">
        <ele>767.4</ele>
        <time>2013-01-20T09:10:07Z</time>
      </trkpt>
      <trkpt lat="44.45934" lon="2.44648">
        <ele>767.2</ele>
        <time>2013-01-20T09:10:08Z</time>
      </trkpt>
      <trkpt lat="44.45936" lon="2.44645">
        <ele>767</ele>
        <time>2013-01-20T09:10:09Z</time>
      </trkpt>
      <trkpt lat="44.45939" lon="2.44643">
        <ele>766.9</ele>
        <time>2013-01-20T09:10:10Z</time>
      </trkpt>
      <trkpt lat="44.45941" lon="2.44641">
        <ele>766.9</ele>
        <time>2013-01-20T09:10:11Z</time>
      </trkpt>
      <trkpt lat="44.45943" lon="2.44638">
        <ele>766.8</ele>
        <time>2013-01-20T09:10:12Z</time>
      </trkpt>
      <trkpt lat="44.45945" lon="2.44635">
        <ele>766.5</ele>
        <time>2013-01-20T09:10:13Z</time>
      </trkpt>
      <trkpt lat="44.45947" lon="2.44632">
        <ele>766.4</ele>
        <time>2013-01-20T09:10:14Z</time>
      </trkpt>
      <trkpt lat="44.45949" lon="2.44629">
        <ele>766.2</ele>
        <time>2013-01-20T09:10:15Z</time>
      </trkpt>
      <trkpt lat="44.45951" lon="2.44625">
        <ele>765.7</ele>
        <time>2013-01-20T09:10:16Z</time>
      </trkpt>
      <trkpt lat="44.45953" lon="2.44621">
        <ele>765.3</ele>
        <time>2013-01-20T09:10:17Z</time>
      </trkpt>
      <trkpt lat="44.45956" lon="2.44618">
        <ele>765</ele>
        <time>2013-01-20T09:10:18Z</time>
      </trkpt>
      <trkpt lat="44.45959" lon="2.44614">
        <ele>764.9</ele>
        <time>2013-01-20T09:10:19Z</time>
      </trkpt>
      <trkpt lat="44.45962" lon="2.44611">
        <ele>764.7</ele>
        <time>2013-01-20T09:10:20Z</time>
      </trkpt>
      <trkpt lat="44.45965" lon="2.44608">
        <ele>764.7</ele>
        <time>2013-01-20T09:10:21Z</time>
      </trkpt>
      <trkpt lat="44.45968" lon="2.44604">
        <ele>764.6</ele>
        <time>2013-01-20T09:10:22Z</time>
      </trkpt>
      <trkpt lat="44.45972" lon="2.44599">
        <ele>764.3</ele>
        <time>2013-01-20T09:10:23Z</time>
      </trkpt>
      <trkpt lat="44.45974" lon="2.44593">
        <ele>764.1</ele>
        <time>2013-01-20T09:10:24Z</time>
      </trkpt>
      <trkpt lat="44.45977" lon="2.44587">
        <ele>763.9</ele>
        <time>2013-01-20T09:10:25Z</time>
      </trkpt>
      <trkpt lat="44.45979" lon="2.4458">
        <ele>762.6</ele>
        <time>2013-01-20T09:10:26Z</time>
      </trkpt>
      <trkpt lat="44.45981" lon="2.44572">
        <ele>761.7</ele>
        <time>2013-01-20T09:10:27Z</time>
      </trkpt>
      <trkpt lat="44.45983" lon="2.44564">
        <ele>761</ele>
        <time>2013-01-20T09:10:28Z</time>
      </trkpt>
      <trkpt lat="44.45985" lon="2.44556">
        <ele>759.7</ele>
        <time>2013-01-20T09:10:29Z</time>
      </trkpt>
      <trkpt lat="44.45987" lon="2.44547">
        <ele>758.8</ele>
        <time>2013-01-20T09:10:30Z</time>
      </trkpt>
      <trkpt lat="44.45989" lon="2.44538">
        <ele>758.1</ele>
        <time>2013-01-20T09:10:31Z</time>
      </trkpt>
      <trkpt lat="44.45991" lon="2.4453">
        <ele>757.1</ele>
        <time>2013-01-20T09:10:32Z</time>
      </trkpt>
      <trkpt lat="44.45993" lon="2.44522">
        <ele>756.3</ele>
        <time>2013-01-20T09:10:33Z</time>
      </trkpt>
      <trkpt lat="44.45996" lon="2.44514">
        <ele>755.8</ele>
        <time>2013-01-20T09:10:34Z</time>
      </trkpt>
      <trkpt lat="44.45998" lon="2.44508">
        <ele>754.7</ele>
        <time>2013-01-20T09:10:35Z</time>
      </trkpt>
      <trkpt lat="44.46001" lon="2.44501">
        <ele>753.9</ele>
        <time>2013-01-20T09:10:36Z</time>
      </trkpt>
      <trkpt lat="44.46005" lon="2.44495">
        <ele>753.3</ele>
        <time>2013-01-20T09:10:37Z</time>
      </trkpt>
      <trkpt lat="44.46008" lon="2.44488">
        <ele>752.3</ele>
        <time>2013-01-20T09:10:38Z</time>
      </trkpt>
      <trkpt lat="44.46011" lon="2.44481">
        <ele>751.5</ele>
        <time>2013-01-20T09:10:39Z</time>
      </trkpt>
      <trkpt lat="44.46013" lon="2.44475">
        <ele>751</ele>
        <time>2013-01-20T09:10:40Z</time>
      </trkpt>
      <trkpt lat="44.46014" lon="2.44468">
        <ele>750.5</ele>
        <time>2013-01-20T09:10:41Z</time>
      </trkpt>
      <trkpt lat="44.46013" lon="2.44463">
        <ele>749.7</ele>
        <time>2013-01-20T09:10:42Z</time>
      </trkpt>
      <trkpt lat="44.46013" lon="2.44458">
        <ele>749</ele>
        <time>2013-01-20T09:10:43Z</time>
      </trkpt>
      <trkpt lat="44.46012" lon="2.44452">
        <ele>748.5</ele>
        <time>2013-01-20T09:10:44Z</time>
      </trkpt>
      <trkpt lat="44.46011" lon="2.44446">
        <ele>747.4</ele>
        <time>2013-01-20T09:10:45Z</time>
      </trkpt>
      <trkpt lat="44.4601" lon="2.4444">
        <ele>746.5</ele>
        <time>2013-01-20T09:10:46Z</time>
      </trkpt>
      <trkpt lat="44.46008" lon="2.44434">
        <ele>745.9</ele>
        <time>2013-01-20T09:10:47Z</time>
      </trkpt>
      <trkpt lat="44.46007" lon="2.44427">
        <ele>744.3</ele>
        <time>2013-01-20T09:10:48Z</time>
      </trkpt>
      <trkpt lat="44.46006" lon="2.44419">
        <ele>743.1</ele>
        <time>2013-01-20T09:10:49Z</time>
      </trkpt>
      <trkpt lat="44.46006" lon="2.44411">
        <ele>742.2</ele>
        <time>2013-01-20T09:10:50Z</time>
      </trkpt>
      <trkpt lat="44.46007" lon="2.44404">
        <ele>741.1</ele>
        <time>2013-01-20T09:10:51Z</time>
      </trkpt>
      <trkpt lat="44.4601" lon="2.44398">
        <ele>740.2</ele>
        <time>2013-01-20T09:10:52Z</time>
      </trkpt>
      <trkpt lat="44.46012" lon="2.44392">
        <ele>739.5</ele>
        <time>2013-01-20T09:10:53Z</time>
      </trkpt>
      <trkpt lat="44.46015" lon="2.44387">
        <ele>737.8</ele>
        <time>2013-01-20T09:10:54Z</time>
      </trkpt>
      <trkpt lat="44.46018" lon="2.44383">
        <ele>736.5</ele>
        <time>2013-01-20T09:10:55Z</time>
      </trkpt>
      <trkpt lat="44.46021" lon="2.44381">
        <ele>735.6</ele>
        <time>2013-01-20T09:10:56Z</time>
      </trkpt>
      <trkpt lat="44.46023" lon="2.44379">
        <ele>734.8</ele>
        <time>2013-01-20T09:10:57Z</time>
      </trkpt>
      <trkpt lat="44.46026" lon="2.44378">
        <ele>733.5</ele>
        <time>2013-01-20T09:10:58Z</time>
      </trkpt>
      <trkpt lat="44.46026" lon="2.44372">
        <ele>730.8</ele>
        <time>2013-01-20T09:11:33Z</time>
      </trkpt>
      <trkpt lat="44.46024" lon="2.44367">
        <ele>729.8</ele>
        <time>2013-01-20T09:11:51Z</time>
      </trkpt>
      <trkpt lat="44.46024" lon="2.44364">
        <ele>729.8</ele>
        <time>2013-01-20T09:11:52Z</time>
      </trkpt>
      <trkpt lat="44.46023" lon="2.4436">
        <ele>729.8</ele>
        <time>2013-01-20T09:11:53Z</time>
      </trkpt>
      <trkpt lat="44.46024" lon="2.44354">
        <ele>729.8</ele>
        <time>2013-01-20T09:11:54Z</time>
      </trkpt>
      <trkpt lat="44.46025" lon="2.44349">
        <ele>729.2</ele>
        <time>2013-01-20T09:11:55Z</time>
      </trkpt>
      <trkpt lat="44.46027" lon="2.44346">
        <ele>728.8</ele>
        <time>2013-01-20T09:11:56Z</time>
      </trkpt>
      <trkpt lat="44.46029" lon="2.44345">
        <ele>728.4</ele>
        <time>2013-01-20T09:11:57Z</time>
      </trkpt>
      <trkpt lat="44.46034" lon="2.44345">
        <ele>726.4</ele>
        <time>2013-01-20T09:11:59Z</time>
      </trkpt>
      <trkpt lat="44.46038" lon="2.44346">
        <ele>725.5</ele>
        <time>2013-01-20T09:12:01Z</time>
      </trkpt>
      <trkpt lat="44.4604" lon="2.44346">
        <ele>725.3</ele>
        <time>2013-01-20T09:12:02Z</time>
      </trkpt>
      <trkpt lat="44.46043" lon="2.44347">
        <ele>725.1</ele>
        <time>2013-01-20T09:12:03Z</time>
      </trkpt>
      <trkpt lat="44.46045" lon="2.44348">
        <ele>725</ele>
        <time>2013-01-20T09:12:04Z</time>
      </trkpt>
      <trkpt lat="44.46048" lon="2.44348">
        <ele>725.1</ele>
        <time>2013-01-20T09:12:05Z</time>
      </trkpt>
      <trkpt lat="44.4605" lon="2.44349">
        <ele>725.2</ele>
        <time>2013-01-20T09:12:06Z</time>
      </trkpt>
      <trkpt lat="44.46053" lon="2.4435">
        <ele>725.2</ele>
        <time>2013-01-20T09:12:07Z</time>
      </trkpt>
      <trkpt lat="44.46056" lon="2.44352">
        <ele>725.1</ele>
        <time>2013-01-20T09:12:08Z</time>
      </trkpt>
      <trkpt lat="44.46058" lon="2.44353">
        <ele>725</ele>
        <time>2013-01-20T09:12:09Z</time>
      </trkpt>
      <trkpt lat="44.46061" lon="2.44353">
        <ele>724.9</ele>
        <time>2013-01-20T09:12:10Z</time>
      </trkpt>
      <trkpt lat="44.46064" lon="2.44354">
        <ele>725</ele>
        <time>2013-01-20T09:12:11Z</time>
      </trkpt>
      <trkpt lat="44.46067" lon="2.44355">
        <ele>725</ele>
        <time>2013-01-20T09:12:12Z</time>
      </trkpt>
      <trkpt lat="44.46069" lon="2.44355">
        <ele>725</ele>
        <time>2013-01-20T09:12:13Z</time>
      </trkpt>
      <trkpt lat="44.46072" lon="2.44355">
        <ele>724.6</ele>
        <time>2013-01-20T09:12:14Z</time>
      </trkpt>
      <trkpt lat="44.46076" lon="2.44356">
        <ele>724.4</ele>
        <time>2013-01-20T09:12:15Z</time>
      </trkpt>
      <trkpt lat="44.46079" lon="2.44357">
        <ele>724.1</ele>
        <time>2013-01-20T09:12:16Z</time>
      </trkpt>
      <trkpt lat="44.46083" lon="2.44358">
        <ele>723.8</ele>
        <time>2013-01-20T09:12:17Z</time>
      </trkpt>
      <trkpt lat="44.46087" lon="2.44359">
        <ele>723.6</ele>
        <time>2013-01-20T09:12:18Z</time>
      </trkpt>
      <trkpt lat="44.46091" lon="2.44361">
        <ele>723.4</ele>
        <time>2013-01-20T09:12:19Z</time>
      </trkpt>
      <trkpt lat="44.46095" lon="2.44362">
        <ele>723.3</ele>
        <time>2013-01-20T09:12:20Z</time>
      </trkpt>
      <trkpt lat="44.46098" lon="2.44363">
        <ele>722.7</ele>
        <time>2013-01-20T09:12:21Z</time>
      </trkpt>
      <trkpt lat="44.46102" lon="2.44365">
        <ele>722.2</ele>
        <time>2013-01-20T09:12:22Z</time>
      </trkpt>
      <trkpt lat="44.46105" lon="2.44366">
        <ele>721.9</ele>
        <time>2013-01-20T09:12:23Z</time>
      </trkpt>
      <trkpt lat="44.46108" lon="2.44367">
        <ele>722.1</ele>
        <time>2013-01-20T09:12:24Z</time>
      </trkpt>
      <trkpt lat="44.46112" lon="2.44368">
        <ele>722.2</ele>
        <time>2013-01-20T09:12:25Z</time>
      </trkpt>
      <trkpt lat="44.46115" lon="2.44368">
        <ele>722.2</ele>
        <time>2013-01-20T09:12:26Z</time>
      </trkpt>
      <trkpt lat="44.46118" lon="2.44369">
        <ele>722.6</ele>
        <time>2013-01-20T09:12:27Z</time>
      </trkpt>
      <trkpt lat="44.46121" lon="2.4437">
        <ele>722.8</ele>
        <time>2013-01-20T09:12:28Z</time>
      </trkpt>
      <trkpt lat="44.46124" lon="2.44371">
        <ele>723</ele>
        <time>2013-01-20T09:12:29Z</time>
      </trkpt>
      <trkpt lat="44.46128" lon="2.44371">
        <ele>723.1</ele>
        <time>2013-01-20T09:12:30Z</time>
      </trkpt>
      <trkpt lat="44.46132" lon="2.44372">
        <ele>723.2</ele>
        <time>2013-01-20T09:12:31Z</time>
      </trkpt>
      <trkpt lat="44.46136" lon="2.44372">
        <ele>723.3</ele>
        <time>2013-01-20T09:12:32Z</time>
      </trkpt>
      <trkpt lat="44.4614" lon="2.44372">
        <ele>723</ele>
        <time>2013-01-20T09:12:33Z</time>
      </trkpt>
      <trkpt lat="44.46144" lon="2.44373">
        <ele>722.8</ele>
        <time>2013-01-20T09:12:34Z</time>
      </trkpt>
      <trkpt lat="44.46148" lon="2.44374">
        <ele>722.7</ele>
        <time>2013-01-20T09:12:35Z</time>
      </trkpt>
      <trkpt lat="44.46152" lon="2.44374">
        <ele>722.5</ele>
        <time>2013-01-20T09:12:36Z</time>
      </trkpt>
      <trkpt lat="44.46156" lon="2.44375">
        <ele>722.1</ele>
        <time>2013-01-20T09:12:37Z</time>
      </trkpt>
      <trkpt lat="44.46161" lon="2.44377">
        <ele>721.8</ele>
        <time>2013-01-20T09:12:38Z</time>
      </trkpt>
      <trkpt lat="44.46166" lon="2.44379">
        <ele>721.6</ele>
        <time>2013-01-20T09:12:39Z</time>
      </trkpt>
      <trkpt lat="44.46171" lon="2.4438">
        <ele>720.9</ele>
        <time>2013-01-20T09:12:40Z</time>
      </trkpt>
      <trkpt lat="44.46176" lon="2.44382">
        <ele>720.3</ele>
        <time>2013-01-20T09:12:41Z</time>
      </trkpt>
      <trkpt lat="44.46182" lon="2.44383">
        <ele>719.9</ele>
        <time>2013-01-20T09:12:42Z</time>
      </trkpt>
      <trkpt lat="44.46187" lon="2.44384">
        <ele>719.8</ele>
        <time>2013-01-20T09:12:43Z</time>
      </trkpt>
      <trkpt lat="44.46192" lon="2.44386">
        <ele>719.7</ele>
        <time>2013-01-20T09:12:44Z</time>
      </trkpt>
      <trkpt lat="44.46197" lon="2.44387">
        <ele>719.7</ele>
        <time>2013-01-20T09:12:45Z</time>
      </trkpt>
      <trkpt lat="44.46201" lon="2.44388">
        <ele>719.4</ele>
        <time>2013-01-20T09:12:46Z</time>
      </trkpt>
      <trkpt lat="44.46206" lon="2.4439">
        <ele>719.2</ele>
        <time>2013-01-20T09:12:47Z</time>
      </trkpt>
      <trkpt lat="44.4621" lon="2.44391">
        <ele>719</ele>
        <time>2013-01-20T09:12:48Z</time>
      </trkpt>
      <trkpt lat="44.46213" lon="2.44392">
        <ele>718.6</ele>
        <time>2013-01-20T09:12:49Z</time>
      </trkpt>
      <trkpt lat="44.46217" lon="2.44393">
        <ele>718.2</ele>
        <time>2013-01-20T09:12:50Z</time>
      </trkpt>
      <trkpt lat="44.46221" lon="2.44394">
        <ele>718</ele>
        <time>2013-01-20T09:12:51Z</time>
      </trkpt>
      <trkpt lat="44.46225" lon="2.44395">
        <ele>717.9</ele>
        <time>2013-01-20T09:12:52Z</time>
      </trkpt>
      <trkpt lat="44.46229" lon="2.44396">
        <ele>717.8</ele>
        <time>2013-01-20T09:12:53Z</time>
      </trkpt>
      <trkpt lat="44.46233" lon="2.44397">
        <ele>717.7</ele>
        <time>2013-01-20T09:12:54Z</time>
      </trkpt>
      <trkpt lat="44.46238" lon="2.44399">
        <ele>717.6</ele>
        <time>2013-01-20T09:12:55Z</time>
      </trkpt>
      <trkpt lat="44.46242" lon="2.444">
        <ele>717.1</ele>
        <time>2013-01-20T09:12:56Z</time>
      </trkpt>
      <trkpt lat="44.46246" lon="2.44402">
        <ele>716.7</ele>
        <time>2013-01-20T09:12:57Z</time>
      </trkpt>
      <trkpt lat="44.46248" lon="2.44404">
        <ele>716.4</ele>
        <time>2013-01-20T09:12:58Z</time>
      </trkpt>
      <trkpt lat="44.46252" lon="2.44406">
        <ele>716</ele>
        <time>2013-01-20T09:13:00Z</time>
      </trkpt>
      <trkpt lat="44.46255" lon="2.44411">
        <ele>715.4</ele>
        <time>2013-01-20T09:14:43Z</time>
      </trkpt>
      <trkpt lat="44.46255" lon="2.44411">
        <ele>715.3</ele>
        <time>2013-01-20T09:14:44Z</time>
      </trkpt>
      <trkpt lat="44.4626" lon="2.44409">
        <ele>714</ele>
        <time>2013-01-20T09:18:12Z</time>
      </trkpt>
      <trkpt lat="44.46263" lon="2.4441">
        <ele>713.7</ele>
        <time>2013-01-20T09:18:13Z</time>
      </trkpt>
      <trkpt lat="44.46265" lon="2.4441">
        <ele>713.5</ele>
        <time>2013-01-20T09:18:14Z</time>
      </trkpt>
      <trkpt lat="44.46268" lon="2.44408">
        <ele>713</ele>
        <time>2013-01-20T09:18:15Z</time>
      </trkpt>
      <trkpt lat="44.46271" lon="2.44407">
        <ele>712.7</ele>
        <time>2013-01-20T09:18:16Z</time>
      </trkpt>
      <trkpt lat="44.46274" lon="2.44409">
        <ele>712.5</ele>
        <time>2013-01-20T09:18:17Z</time>
      </trkpt>
      <trkpt lat="44.46279" lon="2.4441">
        <ele>711.4</ele>
        <time>2013-01-20T09:18:18Z</time>
      </trkpt>
      <trkpt lat="44.46284" lon="2.44411">
        <ele>710.6</ele>
        <time>2013-01-20T09:18:19Z</time>
      </trkpt>
      <trkpt lat="44.46288" lon="2.44411">
        <ele>710</ele>
        <time>2013-01-20T09:18:20Z</time>
      </trkpt>
      <trkpt lat="44.46293" lon="2.44411">
        <ele>709.2</ele>
        <time>2013-01-20T09:18:21Z</time>
      </trkpt>
      <trkpt lat="44.46297" lon="2.4441">
        <ele>708.5</ele>
        <time>2013-01-20T09:18:22Z</time>
      </trkpt>
      <trkpt lat="44.46301" lon="2.44409">
        <ele>708</ele>
        <time>2013-01-20T09:18:23Z</time>
      </trkpt>
      <trkpt lat="44.46305" lon="2.44409">
        <ele>706.3</ele>
        <time>2013-01-20T09:18:24Z</time>
      </trkpt>
      <trkpt lat="44.46309" lon="2.44409">
        <ele>705.1</ele>
        <time>2013-01-20T09:18:25Z</time>
      </trkpt>
      <trkpt lat="44.46313" lon="2.44407">
        <ele>704.1</ele>
        <time>2013-01-20T09:18:26Z</time>
      </trkpt>
      <trkpt lat="44.46315" lon="2.44405">
        <ele>703.4</ele>
        <time>2013-01-20T09:18:27Z</time>
      </trkpt>
      <trkpt lat="44.46318" lon="2.44402">
        <ele>701.9</ele>
        <time>2013-01-20T09:18:28Z</time>
      </trkpt>
      <trkpt lat="44.46321" lon="2.44401">
        <ele>700.7</ele>
        <time>2013-01-20T09:18:29Z</time>
      </trkpt>
      <trkpt lat="44.46324" lon="2.444">
        <ele>699.8</ele>
        <time>2013-01-20T09:18:30Z</time>
      </trkpt>
      <trkpt lat="44.46327" lon="2.44399">
        <ele>698.2</ele>
        <time>2013-01-20T09:18:31Z</time>
      </trkpt>
      <trkpt lat="44.4633" lon="2.44399">
        <ele>697</ele>
        <time>2013-01-20T09:18:32Z</time>
      </trkpt>
      <trkpt lat="44.46334" lon="2.44399">
        <ele>696.1</ele>
        <time>2013-01-20T09:18:33Z</time>
      </trkpt>
      <trkpt lat="44.46338" lon="2.444">
        <ele>694.5</ele>
        <time>2013-01-20T09:18:34Z</time>
      </trkpt>
      <trkpt lat="44.46343" lon="2.44401">
        <ele>693.4</ele>
        <time>2013-01-20T09:18:35Z</time>
      </trkpt>
      <trkpt lat="44.46348" lon="2.44403">
        <ele>692.5</ele>
        <time>2013-01-20T09:18:36Z</time>
      </trkpt>
      <trkpt lat="44.46354" lon="2.44407">
        <ele>690.6</ele>
        <time>2013-01-20T09:18:37Z</time>
      </trkpt>
      <trkpt lat="44.46361" lon="2.44411">
        <ele>689.3</ele>
        <time>2013-01-20T09:18:38Z</time>
      </trkpt>
      <trkpt lat="44.46367" lon="2.44416">
        <ele>688.2</ele>
        <time>2013-01-20T09:18:39Z</time>
      </trkpt>
      <trkpt lat="44.46374" lon="2.4442">
        <ele>686.6</ele>
        <time>2013-01-20T09:18:40Z</time>
      </trkpt>
      <trkpt lat="44.46381" lon="2.44422">
        <ele>685.5</ele>
        <time>2013-01-20T09:18:41Z</time>
      </trkpt>
      <trkpt lat="44.46388" lon="2.44424">
        <ele>684.6</ele>
        <time>2013-01-20T09:18:42Z</time>
      </trkpt>
      <trkpt lat="44.46395" lon="2.44425">
        <ele>683.9</ele>
        <time>2013-01-20T09:18:43Z</time>
      </trkpt>
      <trkpt lat="44.46401" lon="2.44428">
        <ele>682.5</ele>
        <time>2013-01-20T09:18:44Z</time>
      </trkpt>
      <trkpt lat="44.46406" lon="2.44429">
        <ele>681.4</ele>
        <time>2013-01-20T09:18:45Z</time>
      </trkpt>
      <trkpt lat="44.46411" lon="2.44431">
        <ele>680.6</ele>
        <time>2013-01-20T09:18:46Z</time>
      </trkpt>
      <trkpt lat="44.46415" lon="2.44434">
        <ele>679.1</ele>
        <time>2013-01-20T09:18:47Z</time>
      </trkpt>
      <trkpt lat="44.4642" lon="2.44438">
        <ele>678</ele>
        <time>2013-01-20T09:18:48Z</time>
      </trkpt>
      <trkpt lat="44.46424" lon="2.44444">
        <ele>677.2</ele>
        <time>2013-01-20T09:18:49Z</time>
      </trkpt>
      <trkpt lat="44.46429" lon="2.44451">
        <ele>675.5</ele>
        <time>2013-01-20T09:18:50Z</time>
      </trkpt>
      <trkpt lat="44.46434" lon="2.44458">
        <ele>674.1</ele>
        <time>2013-01-20T09:18:51Z</time>
      </trkpt>
      <trkpt lat="44.4644" lon="2.44464">
        <ele>673.2</ele>
        <time>2013-01-20T09:18:52Z</time>
      </trkpt>
      <trkpt lat="44.46446" lon="2.44471">
        <ele>671.5</ele>
        <time>2013-01-20T09:18:53Z</time>
      </trkpt>
      <trkpt lat="44.46451" lon="2.44477">
        <ele>670.3</ele>
        <time>2013-01-20T09:18:54Z</time>
      </trkpt>
      <trkpt lat="44.46455" lon="2.44484">
        <ele>669.4</ele>
        <time>2013-01-20T09:18:55Z</time>
      </trkpt>
      <trkpt lat="44.46457" lon="2.44492">
        <ele>667.9</ele>
        <time>2013-01-20T09:18:56Z</time>
      </trkpt>
      <trkpt lat="44.46461" lon="2.445">
        <ele>666.8</ele>
        <time>2013-01-20T09:18:57Z</time>
      </trkpt>
      <trkpt lat="44.46464" lon="2.44507">
        <ele>665.9</ele>
        <time>2013-01-20T09:18:58Z</time>
      </trkpt>
      <trkpt lat="44.46469" lon="2.4451">
        <ele>665.3</ele>
        <time>2013-01-20T09:18:59Z</time>
      </trkpt>
      <trkpt lat="44.46474" lon="2.44509">
        <ele>664.5</ele>
        <time>2013-01-20T09:19:00Z</time>
      </trkpt>
      <trkpt lat="44.46478" lon="2.44506">
        <ele>663.9</ele>
        <time>2013-01-20T09:19:01Z</time>
      </trkpt>
      <trkpt lat="44.46482" lon="2.44504">
        <ele>663.4</ele>
        <time>2013-01-20T09:19:02Z</time>
      </trkpt>
      <trkpt lat="44.46486" lon="2.44502">
        <ele>662.4</ele>
        <time>2013-01-20T09:19:03Z</time>
      </trkpt>
      <trkpt lat="44.4649" lon="2.44499">
        <ele>661.6</ele>
        <time>2013-01-20T09:19:04Z</time>
      </trkpt>
      <trkpt lat="44.46494" lon="2.44499">
        <ele>660.3</ele>
        <time>2013-01-20T09:19:06Z</time>
      </trkpt>
      <trkpt lat="44.46498" lon="2.44503">
        <ele>657.3</ele>
        <time>2013-01-20T09:19:30Z</time>
      </trkpt>
      <trkpt lat="44.46498" lon="2.44503">
        <ele>657.3</ele>
        <time>2013-01-20T09:19:31Z</time>
      </trkpt>
      <trkpt lat="44.46499" lon="2.44511">
        <ele>657.6</ele>
        <time>2013-01-20T09:20:12Z</time>
      </trkpt>
      <trkpt lat="44.46499" lon="2.44515">
        <ele>657.1</ele>
        <time>2013-01-20T09:20:13Z</time>
      </trkpt>
      <trkpt lat="44.465" lon="2.4452">
        <ele>656.8</ele>
        <time>2013-01-20T09:20:14Z</time>
      </trkpt>
      <trkpt lat="44.46501" lon="2.44526">
        <ele>656.6</ele>
        <time>2013-01-20T09:20:15Z</time>
      </trkpt>
      <trkpt lat="44.46502" lon="2.44532">
        <ele>656.1</ele>
        <time>2013-01-20T09:20:16Z</time>
      </trkpt>
      <trkpt lat="44.46503" lon="2.44536">
        <ele>655.8</ele>
        <time>2013-01-20T09:20:17Z</time>
      </trkpt>
      <trkpt lat="44.46504" lon="2.4454">
        <ele>655.5</ele>
        <time>2013-01-20T09:20:18Z</time>
      </trkpt>
      <trkpt lat="44.46505" lon="2.44544">
        <ele>655.3</ele>
        <time>2013-01-20T09:20:19Z</time>
      </trkpt>
      <trkpt lat="44.46506" lon="2.44549">
        <ele>655.1</ele>
        <time>2013-01-20T09:20:20Z</time>
      </trkpt>
      <trkpt lat="44.46507" lon="2.44554">
        <ele>655</ele>
        <time>2013-01-20T09:20:21Z</time>
      </trkpt>
      <trkpt lat="44.46507" lon="2.44559">
        <ele>654.9</ele>
        <time>2013-01-20T09:20:22Z</time>
      </trkpt>
      <trkpt lat="44.46508" lon="2.44565">
        <ele>654.3</ele>
        <time>2013-01-20T09:20:23Z</time>
      </trkpt>
      <trkpt lat="44.4651" lon="2.44571">
        <ele>653.9</ele>
        <time>2013-01-20T09:20:24Z</time>
      </trkpt>
      <trkpt lat="44.46512" lon="2.44575">
        <ele>653.6</ele>
        <time>2013-01-20T09:20:25Z</time>
      </trkpt>
      <trkpt lat="44.46514" lon="2.4458">
        <ele>651</ele>
        <time>2013-01-20T09:20:27Z</time>
      </trkpt>
      <trkpt lat="44.46515" lon="2.44585">
        <ele>648.8</ele>
        <time>2013-01-20T09:20:30Z</time>
      </trkpt>
      <trkpt lat="44.46516" lon="2.44587">
        <ele>648.4</ele>
        <time>2013-01-20T09:20:31Z</time>
      </trkpt>
      <trkpt lat="44.46518" lon="2.4459">
        <ele>647.5</ele>
        <time>2013-01-20T09:20:32Z</time>
      </trkpt>
      <trkpt lat="44.46521" lon="2.44592">
        <ele>646.9</ele>
        <time>2013-01-20T09:20:33Z</time>
      </trkpt>
      <trkpt lat="44.46524" lon="2.44594">
        <ele>646.4</ele>
        <time>2013-01-20T09:20:34Z</time>
      </trkpt>
      <trkpt lat="44.46528" lon="2.44598">
        <ele>646</ele>
        <time>2013-01-20T09:20:35Z</time>
      </trkpt>
      <trkpt lat="44.4653" lon="2.44603">
        <ele>645.7</ele>
        <time>2013-01-20T09:20:36Z</time>
      </trkpt>
      <trkpt lat="44.46532" lon="2.4461">
        <ele>645.4</ele>
        <time>2013-01-20T09:20:37Z</time>
      </trkpt>
      <trkpt lat="44.46534" lon="2.44618">
        <ele>645.2</ele>
        <time>2013-01-20T09:20:38Z</time>
      </trkpt>
      <trkpt lat="44.46536" lon="2.44627">
        <ele>644.8</ele>
        <time>2013-01-20T09:20:39Z</time>
      </trkpt>
      <trkpt lat="44.46539" lon="2.44635">
        <ele>644.5</ele>
        <time>2013-01-20T09:20:40Z</time>
      </trkpt>
      <trkpt lat="44.46541" lon="2.44642">
        <ele>644.3</ele>
        <time>2013-01-20T09:20:41Z</time>
      </trkpt>
      <trkpt lat="44.46544" lon="2.44649">
        <ele>643.1</ele>
        <time>2013-01-20T09:20:42Z</time>
      </trkpt>
      <trkpt lat="44.46546" lon="2.44656">
        <ele>642.1</ele>
        <time>2013-01-20T09:20:43Z</time>
      </trkpt>
      <trkpt lat="44.46549" lon="2.44663">
        <ele>641.5</ele>
        <time>2013-01-20T09:20:44Z</time>
      </trkpt>
      <trkpt lat="44.46552" lon="2.44671">
        <ele>640.2</ele>
        <time>2013-01-20T09:20:45Z</time>
      </trkpt>
      <trkpt lat="44.46554" lon="2.44678">
        <ele>639.2</ele>
        <time>2013-01-20T09:20:46Z</time>
      </trkpt>
      <trkpt lat="44.46556" lon="2.44684">
        <ele>638.5</ele>
        <time>2013-01-20T09:20:47Z</time>
      </trkpt>
      <trkpt lat="44.46557" lon="2.44688">
        <ele>637.7</ele>
        <time>2013-01-20T09:20:48Z</time>
      </trkpt>
      <trkpt lat="44.46558" lon="2.44693">
        <ele>637.1</ele>
        <time>2013-01-20T09:20:49Z</time>
      </trkpt>
      <trkpt lat="44.4656" lon="2.44699">
        <ele>636.7</ele>
        <time>2013-01-20T09:20:50Z</time>
      </trkpt>
      <trkpt lat="44.46561" lon="2.44705">
        <ele>636</ele>
        <time>2013-01-20T09:20:51Z</time>
      </trkpt>
      <trkpt lat="44.46563" lon="2.44711">
        <ele>635.4</ele>
        <time>2013-01-20T09:20:52Z</time>
      </trkpt>
      <trkpt lat="44.46565" lon="2.44717">
        <ele>635.1</ele>
        <time>2013-01-20T09:20:53Z</time>
      </trkpt>
      <trkpt lat="44.46566" lon="2.44723">
        <ele>634.8</ele>
        <time>2013-01-20T09:20:54Z</time>
      </trkpt>
      <trkpt lat="44.46568" lon="2.44729">
        <ele>634</ele>
        <time>2013-01-20T09:20:55Z</time>
      </trkpt>
      <trkpt lat="44.4657" lon="2.44737">
        <ele>633.5</ele>
        <time>2013-01-20T09:20:56Z</time>
      </trkpt>
      <trkpt lat="44.46573" lon="2.44744">
        <ele>633</ele>
        <time>2013-01-20T09:20:57Z</time>
      </trkpt>
      <trkpt lat="44.46575" lon="2.44752">
        <ele>632.5</ele>
        <time>2013-01-20T09:20:58Z</time>
      </trkpt>
      <trkpt lat="44.46577" lon="2.44758">
        <ele>632.1</ele>
        <time>2013-01-20T09:20:59Z</time>
      </trkpt>
      <trkpt lat="44.46578" lon="2.44764">
        <ele>631.8</ele>
        <time>2013-01-20T09:21:00Z</time>
      </trkpt>
      <trkpt lat="44.4658" lon="2.4477">
        <ele>631.2</ele>
        <time>2013-01-20T09:21:01Z</time>
      </trkpt>
      <trkpt lat="44.46582" lon="2.44777">
        <ele>630.7</ele>
        <time>2013-01-20T09:21:02Z</time>
      </trkpt>
      <trkpt lat="44.46583" lon="2.44783">
        <ele>630.3</ele>
        <time>2013-01-20T09:21:03Z</time>
      </trkpt>
      <trkpt lat="44.46585" lon="2.4479">
        <ele>630.3</ele>
        <time>2013-01-20T09:21:04Z</time>
      </trkpt>
      <trkpt lat="44.46586" lon="2.44797">
        <ele>630.3</ele>
        <time>2013-01-20T09:21:05Z</time>
      </trkpt>
      <trkpt lat="44.46587" lon="2.44805">
        <ele>630.2</ele>
        <time>2013-01-20T09:21:06Z</time>
      </trkpt>
      <trkpt lat="44.46588" lon="2.44814">
        <ele>629.6</ele>
        <time>2013-01-20T09:21:07Z</time>
      </trkpt>
      <trkpt lat="44.46587" lon="2.44822">
        <ele>629.1</ele>
        <time>2013-01-20T09:21:08Z</time>
      </trkpt>
      <trkpt lat="44.46587" lon="2.44828">
        <ele>628.8</ele>
        <time>2013-01-20T09:21:09Z</time>
      </trkpt>
      <trkpt lat="44.46587" lon="2.44835">
        <ele>627.9</ele>
        <time>2013-01-20T09:21:10Z</time>
      </trkpt>
      <trkpt lat="44.46587" lon="2.4484">
        <ele>627.3</ele>
        <time>2013-01-20T09:21:11Z</time>
      </trkpt>
      <trkpt lat="44.46586" lon="2.44845">
        <ele>626.8</ele>
        <time>2013-01-20T09:21:12Z</time>
      </trkpt>
      <trkpt lat="44.46586" lon="2.44849">
        <ele>626.5</ele>
        <time>2013-01-20T09:21:13Z</time>
      </trkpt>
      <trkpt lat="44.46585" lon="2.44854">
        <ele>626.7</ele>
        <time>2013-01-20T09:21:15Z</time>
      </trkpt>
      <trkpt lat="44.46584" lon="2.4486">
        <ele>627.2</ele>
        <time>2013-01-20T09:21:17Z</time>
      </trkpt>
      <trkpt lat="44.46582" lon="2.44866">
        <ele>627.8</ele>
        <time>2013-01-20T09:21:19Z</time>
      </trkpt>
      <trkpt lat="44.46583" lon="2.44871">
        <ele>628</ele>
        <time>2013-01-20T09:21:21Z</time>
      </trkpt>
      <trkpt lat="44.46582" lon="2.44875">
        <ele>627.8</ele>
        <time>2013-01-20T09:21:23Z</time>
      </trkpt>
      <trkpt lat="44.4658" lon="2.4488">
        <ele>627.4</ele>
        <time>2013-01-20T09:21:25Z</time>
      </trkpt>
      <trkpt lat="44.4658" lon="2.44886">
        <ele>628.1</ele>
        <time>2013-01-20T09:21:27Z</time>
      </trkpt>
      <trkpt lat="44.46581" lon="2.44891">
        <ele>628.7</ele>
        <time>2013-01-20T09:21:30Z</time>
      </trkpt>
      <trkpt lat="44.46584" lon="2.44894">
        <ele>628.9</ele>
        <time>2013-01-20T09:21:33Z</time>
      </trkpt>
      <trkpt lat="44.46585" lon="2.44896">
        <ele>628.8</ele>
        <time>2013-01-20T09:21:34Z</time>
      </trkpt>
      <trkpt lat="44.46589" lon="2.449">
        <ele>628.6</ele>
        <time>2013-01-20T09:21:36Z</time>
      </trkpt>
      <trkpt lat="44.46592" lon="2.44902">
        <ele>628.5</ele>
        <time>2013-01-20T09:21:37Z</time>
      </trkpt>
      <trkpt lat="44.46596" lon="2.44905">
        <ele>628.5</ele>
        <time>2013-01-20T09:21:38Z</time>
      </trkpt>
      <trkpt lat="44.46599" lon="2.4491">
        <ele>627.8</ele>
        <time>2013-01-20T09:21:39Z</time>
      </trkpt>
      <trkpt lat="44.46602" lon="2.44917">
        <ele>627.4</ele>
        <time>2013-01-20T09:21:40Z</time>
      </trkpt>
      <trkpt lat="44.46604" lon="2.44926">
        <ele>627</ele>
        <time>2013-01-20T09:21:41Z</time>
      </trkpt>
      <trkpt lat="44.46607" lon="2.44936">
        <ele>625.9</ele>
        <time>2013-01-20T09:21:42Z</time>
      </trkpt>
      <trkpt lat="44.46611" lon="2.44946">
        <ele>625.1</ele>
        <time>2013-01-20T09:21:43Z</time>
      </trkpt>
      <trkpt lat="44.46617" lon="2.44957">
        <ele>624.5</ele>
        <time>2013-01-20T09:21:44Z</time>
      </trkpt>
      <trkpt lat="44.46622" lon="2.44966">
        <ele>624.1</ele>
        <time>2013-01-20T09:21:45Z</time>
      </trkpt>
      <trkpt lat="44.46628" lon="2.44971">
        <ele>622.3</ele>
        <time>2013-01-20T09:21:46Z</time>
      </trkpt>
      <trkpt lat="44.46635" lon="2.44976">
        <ele>621</ele>
        <time>2013-01-20T09:21:47Z</time>
      </trkpt>
      <trkpt lat="44.46642" lon="2.44979">
        <ele>620</ele>
        <time>2013-01-20T09:21:48Z</time>
      </trkpt>
      <trkpt lat="44.46649" lon="2.44982">
        <ele>618.1</ele>
        <time>2013-01-20T09:21:49Z</time>
      </trkpt>
      <trkpt lat="44.46655" lon="2.44986">
        <ele>616.8</ele>
        <time>2013-01-20T09:21:50Z</time>
      </trkpt>
      <trkpt lat="44.46662" lon="2.44988">
        <ele>615.8</ele>
        <time>2013-01-20T09:21:51Z</time>
      </trkpt>
      <trkpt lat="44.4667" lon="2.44989">
        <ele>614</ele>
        <time>2013-01-20T09:21:52Z</time>
      </trkpt>
      <trkpt lat="44.46676" lon="2.4499">
        <ele>612.7</ele>
        <time>2013-01-20T09:21:53Z</time>
      </trkpt>
      <trkpt lat="44.46682" lon="2.4499">
        <ele>611.7</ele>
        <time>2013-01-20T09:21:54Z</time>
      </trkpt>
      <trkpt lat="44.46688" lon="2.44992">
        <ele>610.4</ele>
        <time>2013-01-20T09:21:55Z</time>
      </trkpt>
      <trkpt lat="44.46694" lon="2.44995">
        <ele>609.4</ele>
        <time>2013-01-20T09:21:56Z</time>
      </trkpt>
      <trkpt lat="44.46701" lon="2.44999">
        <ele>608.7</ele>
        <time>2013-01-20T09:21:57Z</time>
      </trkpt>
      <trkpt lat="44.46707" lon="2.45003">
        <ele>607.4</ele>
        <time>2013-01-20T09:21:58Z</time>
      </trkpt>
      <trkpt lat="44.46713" lon="2.45009">
        <ele>606.5</ele>
        <time>2013-01-20T09:21:59Z</time>
      </trkpt>
      <trkpt lat="44.46718" lon="2.45016">
        <ele>605.8</ele>
        <time>2013-01-20T09:22:00Z</time>
      </trkpt>
      <trkpt lat="44.46722" lon="2.45023">
        <ele>604.6</ele>
        <time>2013-01-20T09:22:01Z</time>
      </trkpt>
      <trkpt lat="44.46727" lon="2.45028">
        <ele>603.7</ele>
        <time>2013-01-20T09:22:02Z</time>
      </trkpt>
      <trkpt lat="44.46732" lon="2.45034">
        <ele>603</ele>
        <time>2013-01-20T09:22:03Z</time>
      </trkpt>
      <trkpt lat="44.46736" lon="2.45041">
        <ele>602.5</ele>
        <time>2013-01-20T09:22:04Z</time>
      </trkpt>
      <trkpt lat="44.46738" lon="2.45049">
        <ele>601.1</ele>
        <time>2013-01-20T09:22:05Z</time>
      </trkpt>
      <trkpt lat="44.46741" lon="2.45058">
        <ele>600</ele>
        <time>2013-01-20T09:22:06Z</time>
      </trkpt>
      <trkpt lat="44.46743" lon="2.45068">
        <ele>599.2</ele>
        <time>2013-01-20T09:22:07Z</time>
      </trkpt>
      <trkpt lat="44.46744" lon="2.45078">
        <ele>597.6</ele>
        <time>2013-01-20T09:22:08Z</time>
      </trkpt>
      <trkpt lat="44.46745" lon="2.45086">
        <ele>596.5</ele>
        <time>2013-01-20T09:22:09Z</time>
      </trkpt>
      <trkpt lat="44.46746" lon="2.45093">
        <ele>595.6</ele>
        <time>2013-01-20T09:22:10Z</time>
      </trkpt>
      <trkpt lat="44.46746" lon="2.451">
        <ele>594.7</ele>
        <time>2013-01-20T09:22:11Z</time>
      </trkpt>
      <trkpt lat="44.46747" lon="2.45107">
        <ele>594.1</ele>
        <time>2013-01-20T09:22:12Z</time>
      </trkpt>
      <trkpt lat="44.46747" lon="2.45114">
        <ele>593.6</ele>
        <time>2013-01-20T09:22:13Z</time>
      </trkpt>
      <trkpt lat="44.46748" lon="2.45121">
        <ele>592.9</ele>
        <time>2013-01-20T09:22:14Z</time>
      </trkpt>
      <trkpt lat="44.4675" lon="2.45126">
        <ele>592.3</ele>
        <time>2013-01-20T09:22:15Z</time>
      </trkpt>
      <trkpt lat="44.46752" lon="2.45132">
        <ele>591.9</ele>
        <time>2013-01-20T09:22:16Z</time>
      </trkpt>
      <trkpt lat="44.46755" lon="2.45136">
        <ele>591.7</ele>
        <time>2013-01-20T09:22:17Z</time>
      </trkpt>
      <trkpt lat="44.46759" lon="2.4514">
        <ele>591.6</ele>
        <time>2013-01-20T09:22:18Z</time>
      </trkpt>
      <trkpt lat="44.46762" lon="2.45144">
        <ele>591.4</ele>
        <time>2013-01-20T09:22:19Z</time>
      </trkpt>
      <trkpt lat="44.46767" lon="2.45148">
        <ele>591.4</ele>
        <time>2013-01-20T09:22:20Z</time>
      </trkpt>
      <trkpt lat="44.46771" lon="2.45152">
        <ele>590.2</ele>
        <time>2013-01-20T09:22:21Z</time>
      </trkpt>
      <trkpt lat="44.46775" lon="2.45158">
        <ele>589.4</ele>
        <time>2013-01-20T09:22:22Z</time>
      </trkpt>
      <trkpt lat="44.46779" lon="2.45164">
        <ele>588.7</ele>
        <time>2013-01-20T09:22:23Z</time>
      </trkpt>
      <trkpt lat="44.46783" lon="2.45171">
        <ele>587.8</ele>
        <time>2013-01-20T09:22:24Z</time>
      </trkpt>
      <trkpt lat="44.46787" lon="2.45177">
        <ele>587.2</ele>
        <time>2013-01-20T09:22:25Z</time>
      </trkpt>
      <trkpt lat="44.46792" lon="2.45183">
        <ele>586.7</ele>
        <time>2013-01-20T09:22:26Z</time>
      </trkpt>
      <trkpt lat="44.46796" lon="2.4519">
        <ele>585.8</ele>
        <time>2013-01-20T09:22:27Z</time>
      </trkpt>
      <trkpt lat="44.46801" lon="2.45197">
        <ele>585.2</ele>
        <time>2013-01-20T09:22:28Z</time>
      </trkpt>
      <trkpt lat="44.46805" lon="2.45204">
        <ele>584.8</ele>
        <time>2013-01-20T09:22:29Z</time>
      </trkpt>
      <trkpt lat="44.4681" lon="2.4521">
        <ele>583.5</ele>
        <time>2013-01-20T09:22:30Z</time>
      </trkpt>
      <trkpt lat="44.46815" lon="2.45216">
        <ele>582.6</ele>
        <time>2013-01-20T09:22:31Z</time>
      </trkpt>
      <trkpt lat="44.46821" lon="2.4522">
        <ele>581.9</ele>
        <time>2013-01-20T09:22:32Z</time>
      </trkpt>
      <trkpt lat="44.46827" lon="2.45222">
        <ele>581</ele>
        <time>2013-01-20T09:22:33Z</time>
      </trkpt>
      <trkpt lat="44.46833" lon="2.45224">
        <ele>580.3</ele>
        <time>2013-01-20T09:22:34Z</time>
      </trkpt>
      <trkpt lat="44.46839" lon="2.45227">
        <ele>579.8</ele>
        <time>2013-01-20T09:22:35Z</time>
      </trkpt>
      <trkpt lat="44.46844" lon="2.4523">
        <ele>579.4</ele>
        <time>2013-01-20T09:22:36Z</time>
      </trkpt>
      <trkpt lat="44.46849" lon="2.45231">
        <ele>578.3</ele>
        <time>2013-01-20T09:22:37Z</time>
      </trkpt>
      <trkpt lat="44.46854" lon="2.45233">
        <ele>577.5</ele>
        <time>2013-01-20T09:22:38Z</time>
      </trkpt>
      <trkpt lat="44.4686" lon="2.45234">
        <ele>576.9</ele>
        <time>2013-01-20T09:22:39Z</time>
      </trkpt>
      <trkpt lat="44.46865" lon="2.45235">
        <ele>576.5</ele>
        <time>2013-01-20T09:22:40Z</time>
      </trkpt>
      <trkpt lat="44.46871" lon="2.45236">
        <ele>576.2</ele>
        <time>2013-01-20T09:22:41Z</time>
      </trkpt>
      <trkpt lat="44.46876" lon="2.45237">
        <ele>576</ele>
        <time>2013-01-20T09:22:42Z</time>
      </trkpt>
      <trkpt lat="44.46881" lon="2.45236">
        <ele>575.3</ele>
        <time>2013-01-20T09:22:43Z</time>
      </trkpt>
      <trkpt lat="44.46886" lon="2.45236">
        <ele>574.7</ele>
        <time>2013-01-20T09:22:44Z</time>
      </trkpt>
      <trkpt lat="44.46891" lon="2.45236">
        <ele>574.3</ele>
        <time>2013-01-20T09:22:45Z</time>
      </trkpt>
      <trkpt lat="44.46896" lon="2.45237">
        <ele>573.3</ele>
        <time>2013-01-20T09:22:46Z</time>
      </trkpt>
      <trkpt lat="44.46901" lon="2.4524">
        <ele>572.5</ele>
        <time>2013-01-20T09:22:47Z</time>
      </trkpt>
      <trkpt lat="44.46906" lon="2.45243">
        <ele>571.9</ele>
        <time>2013-01-20T09:22:48Z</time>
      </trkpt>
      <trkpt lat="44.46912" lon="2.45246">
        <ele>571</ele>
        <time>2013-01-20T09:22:49Z</time>
      </trkpt>
      <trkpt lat="44.46917" lon="2.4525">
        <ele>570.3</ele>
        <time>2013-01-20T09:22:50Z</time>
      </trkpt>
      <trkpt lat="44.46922" lon="2.45253">
        <ele>569.8</ele>
        <time>2013-01-20T09:22:51Z</time>
      </trkpt>
      <trkpt lat="44.46927" lon="2.45257">
        <ele>569.4</ele>
        <time>2013-01-20T09:22:52Z</time>
      </trkpt>
      <trkpt lat="44.46931" lon="2.45259">
        <ele>568.9</ele>
        <time>2013-01-20T09:22:53Z</time>
      </trkpt>
      <trkpt lat="44.46935" lon="2.45261">
        <ele>568.5</ele>
        <time>2013-01-20T09:22:54Z</time>
      </trkpt>
      <trkpt lat="44.46939" lon="2.45262">
        <ele>568.2</ele>
        <time>2013-01-20T09:22:55Z</time>
      </trkpt>
      <trkpt lat="44.46942" lon="2.45262">
        <ele>567.7</ele>
        <time>2013-01-20T09:22:56Z</time>
      </trkpt>
      <trkpt lat="44.46945" lon="2.45262">
        <ele>567.3</ele>
        <time>2013-01-20T09:22:57Z</time>
      </trkpt>
      <trkpt lat="44.46948" lon="2.45261">
        <ele>567</ele>
        <time>2013-01-20T09:22:58Z</time>
      </trkpt>
      <trkpt lat="44.46952" lon="2.4526">
        <ele>567</ele>
        <time>2013-01-20T09:22:59Z</time>
      </trkpt>
      <trkpt lat="44.46955" lon="2.45258">
        <ele>567</ele>
        <time>2013-01-20T09:23:00Z</time>
      </trkpt>
      <trkpt lat="44.46958" lon="2.45256">
        <ele>567</ele>
        <time>2013-01-20T09:23:01Z</time>
      </trkpt>
      <trkpt lat="44.46961" lon="2.45254">
        <ele>566.7</ele>
        <time>2013-01-20T09:23:02Z</time>
      </trkpt>
      <trkpt lat="44.46964" lon="2.45251">
        <ele>566.5</ele>
        <time>2013-01-20T09:23:03Z</time>
      </trkpt>
      <trkpt lat="44.46968" lon="2.45249">
        <ele>566.4</ele>
        <time>2013-01-20T09:23:04Z</time>
      </trkpt>
      <trkpt lat="44.46972" lon="2.45248">
        <ele>566.3</ele>
        <time>2013-01-20T09:23:05Z</time>
      </trkpt>
      <trkpt lat="44.46977" lon="2.45247">
        <ele>566.2</ele>
        <time>2013-01-20T09:23:06Z</time>
      </trkpt>
      <trkpt lat="44.4698" lon="2.45246">
        <ele>566.1</ele>
        <time>2013-01-20T09:23:07Z</time>
      </trkpt>
      <trkpt lat="44.46985" lon="2.45246">
        <ele>566.1</ele>
        <time>2013-01-20T09:23:08Z</time>
      </trkpt>
      <trkpt lat="44.46989" lon="2.45242">
        <ele>565.9</ele>
        <time>2013-01-20T09:23:09Z</time>
      </trkpt>
      <trkpt lat="44.46993" lon="2.45237">
        <ele>565.7</ele>
        <time>2013-01-20T09:23:10Z</time>
      </trkpt>
      <trkpt lat="44.46996" lon="2.45231">
        <ele>565.6</ele>
        <time>2013-01-20T09:23:11Z</time>
      </trkpt>
      <trkpt lat="44.46999" lon="2.45226">
        <ele>565.2</ele>
        <time>2013-01-20T09:23:12Z</time>
      </trkpt>
      <trkpt lat="44.47003" lon="2.45222">
        <ele>564.9</ele>
        <time>2013-01-20T09:23:13Z</time>
      </trkpt>
      <trkpt lat="44.47007" lon="2.45219">
        <ele>564.6</ele>
        <time>2013-01-20T09:23:14Z</time>
      </trkpt>
      <trkpt lat="44.47012" lon="2.45217">
        <ele>564.2</ele>
        <time>2013-01-20T09:23:15Z</time>
      </trkpt>
      <trkpt lat="44.47016" lon="2.45216">
        <ele>563.8</ele>
        <time>2013-01-20T09:23:16Z</time>
      </trkpt>
      <trkpt lat="44.47019" lon="2.45215">
        <ele>563.6</ele>
        <time>2013-01-20T09:23:17Z</time>
      </trkpt>
      <trkpt lat="44.47022" lon="2.45215">
        <ele>563.6</ele>
        <time>2013-01-20T09:23:18Z</time>
      </trkpt>
      <trkpt lat="44.47025" lon="2.45216">
        <ele>563.5</ele>
        <time>2013-01-20T09:23:19Z</time>
      </trkpt>
      <trkpt lat="44.47027" lon="2.45216">
        <ele>563.5</ele>
        <time>2013-01-20T09:23:20Z</time>
      </trkpt>
      <trkpt lat="44.4703" lon="2.45216">
        <ele>563.6</ele>
        <time>2013-01-20T09:23:21Z</time>
      </trkpt>
      <trkpt lat="44.47032" lon="2.45215">
        <ele>563.7</ele>
        <time>2013-01-20T09:23:22Z</time>
      </trkpt>
      <trkpt lat="44.47035" lon="2.45215">
        <ele>563.8</ele>
        <time>2013-01-20T09:23:23Z</time>
      </trkpt>
      <trkpt lat="44.47037" lon="2.45215">
        <ele>563.9</ele>
        <time>2013-01-20T09:23:24Z</time>
      </trkpt>
      <trkpt lat="44.4704" lon="2.45215">
        <ele>563.9</ele>
        <time>2013-01-20T09:23:25Z</time>
      </trkpt>
      <trkpt lat="44.47043" lon="2.45215">
        <ele>564</ele>
        <time>2013-01-20T09:23:26Z</time>
      </trkpt>
      <trkpt lat="44.47045" lon="2.45215">
        <ele>564</ele>
        <time>2013-01-20T09:23:27Z</time>
      </trkpt>
      <trkpt lat="44.47048" lon="2.45215">
        <ele>564.1</ele>
        <time>2013-01-20T09:23:28Z</time>
      </trkpt>
      <trkpt lat="44.47052" lon="2.45215">
        <ele>564.2</ele>
        <time>2013-01-20T09:23:30Z</time>
      </trkpt>
      <trkpt lat="44.47056" lon="2.45215">
        <ele>564.4</ele>
        <time>2013-01-20T09:23:32Z</time>
      </trkpt>
      <trkpt lat="44.47061" lon="2.45215">
        <ele>564.5</ele>
        <time>2013-01-20T09:23:34Z</time>
      </trkpt>
      <trkpt lat="44.47063" lon="2.45215">
        <ele>564.5</ele>
        <time>2013-01-20T09:23:35Z</time>
      </trkpt>
      <trkpt lat="44.47065" lon="2.45215">
        <ele>564.5</ele>
        <time>2013-01-20T09:23:36Z</time>
      </trkpt>
      <trkpt lat="44.47068" lon="2.45214">
        <ele>564.6</ele>
        <time>2013-01-20T09:23:37Z</time>
      </trkpt>
      <trkpt lat="44.4707" lon="2.45213">
        <ele>564.8</ele>
        <time>2013-01-20T09:23:38Z</time>
      </trkpt>
      <trkpt lat="44.47073" lon="2.45213">
        <ele>564.8</ele>
        <time>2013-01-20T09:23:39Z</time>
      </trkpt>
      <trkpt lat="44.47075" lon="2.45212">
        <ele>565.3</ele>
        <time>2013-01-20T09:23:40Z</time>
      </trkpt>
      <trkpt lat="44.47077" lon="2.45212">
        <ele>565.6</ele>
        <time>2013-01-20T09:23:41Z</time>
      </trkpt>
      <trkpt lat="44.4708" lon="2.45211">
        <ele>565.8</ele>
        <time>2013-01-20T09:23:42Z</time>
      </trkpt>
      <trkpt lat="44.47082" lon="2.45211">
        <ele>566</ele>
        <time>2013-01-20T09:23:43Z</time>
      </trkpt>
      <trkpt lat="44.47084" lon="2.45211">
        <ele>566.1</ele>
        <time>2013-01-20T09:23:44Z</time>
      </trkpt>
      <trkpt lat="44.47087" lon="2.45211">
        <ele>566.2</ele>
        <time>2013-01-20T09:23:45Z</time>
      </trkpt>
      <trkpt lat="44.47089" lon="2.4521">
        <ele>566.2</ele>
        <time>2013-01-20T09:23:46Z</time>
      </trkpt>
      <trkpt lat="44.47093" lon="2.4521">
        <ele>566</ele>
        <time>2013-01-20T09:23:48Z</time>
      </trkpt>
      <trkpt lat="44.47097" lon="2.4521">
        <ele>566.1</ele>
        <time>2013-01-20T09:23:50Z</time>
      </trkpt>
      <trkpt lat="44.47102" lon="2.45211">
        <ele>566.3</ele>
        <time>2013-01-20T09:23:52Z</time>
      </trkpt>
      <trkpt lat="44.47104" lon="2.45212">
        <ele>566.3</ele>
        <time>2013-01-20T09:23:53Z</time>
      </trkpt>
      <trkpt lat="44.47107" lon="2.45212">
        <ele>566.4</ele>
        <time>2013-01-20T09:23:54Z</time>
      </trkpt>
      <trkpt lat="44.47111" lon="2.45213">
        <ele>566.4</ele>
        <time>2013-01-20T09:23:55Z</time>
      </trkpt>
      <trkpt lat="44.47115" lon="2.45214">
        <ele>566</ele>
        <time>2013-01-20T09:23:56Z</time>
      </trkpt>
      <trkpt lat="44.47118" lon="2.45214">
        <ele>565.6</ele>
        <time>2013-01-20T09:23:57Z</time>
      </trkpt>
      <trkpt lat="44.47122" lon="2.45214">
        <ele>565.4</ele>
        <time>2013-01-20T09:23:58Z</time>
      </trkpt>
      <trkpt lat="44.47125" lon="2.45215">
        <ele>565.2</ele>
        <time>2013-01-20T09:23:59Z</time>
      </trkpt>
      <trkpt lat="44.47128" lon="2.45215">
        <ele>565.1</ele>
        <time>2013-01-20T09:24:00Z</time>
      </trkpt>
      <trkpt lat="44.47131" lon="2.45215">
        <ele>565.1</ele>
        <time>2013-01-20T09:24:01Z</time>
      </trkpt>
      <trkpt lat="44.47134" lon="2.45216">
        <ele>565</ele>
        <time>2013-01-20T09:24:02Z</time>
      </trkpt>
      <trkpt lat="44.47136" lon="2.45217">
        <ele>565.1</ele>
        <time>2013-01-20T09:24:03Z</time>
      </trkpt>
      <trkpt lat="44.47139" lon="2.45218">
        <ele>565.2</ele>
        <time>2013-01-20T09:24:04Z</time>
      </trkpt>
      <trkpt lat="44.47141" lon="2.45219">
        <ele>565.2</ele>
        <time>2013-01-20T09:24:05Z</time>
      </trkpt>
      <trkpt lat="44.47143" lon="2.45219">
        <ele>565</ele>
        <time>2013-01-20T09:24:06Z</time>
      </trkpt>
      <trkpt lat="44.47146" lon="2.45218">
        <ele>564.9</ele>
        <time>2013-01-20T09:24:07Z</time>
      </trkpt>
      <trkpt lat="44.47148" lon="2.45218">
        <ele>564.8</ele>
        <time>2013-01-20T09:24:08Z</time>
      </trkpt>
      <trkpt lat="44.47151" lon="2.45218">
        <ele>565</ele>
        <time>2013-01-20T09:24:09Z</time>
      </trkpt>
      <trkpt lat="44.47153" lon="2.45218">
        <ele>565.1</ele>
        <time>2013-01-20T09:24:10Z</time>
      </trkpt>
      <trkpt lat="44.47156" lon="2.45218">
        <ele>565.2</ele>
        <time>2013-01-20T09:24:11Z</time>
      </trkpt>
      <trkpt lat="44.47158" lon="2.45217">
        <ele>564.7</ele>
        <time>2013-01-20T09:24:12Z</time>
      </trkpt>
      <trkpt lat="44.4716" lon="2.45218">
        <ele>564.4</ele>
        <time>2013-01-20T09:24:13Z</time>
      </trkpt>
      <trkpt lat="44.47165" lon="2.45217">
        <ele>564</ele>
        <time>2013-01-20T09:24:15Z</time>
      </trkpt>
      <trkpt lat="44.47167" lon="2.45217">
        <ele>564</ele>
        <time>2013-01-20T09:24:16Z</time>
      </trkpt>
      <trkpt lat="44.4717" lon="2.45217">
        <ele>564.1</ele>
        <time>2013-01-20T09:24:17Z</time>
      </trkpt>
      <trkpt lat="44.47174" lon="2.45218">
        <ele>564.2</ele>
        <time>2013-01-20T09:24:19Z</time>
      </trkpt>
      <trkpt lat="44.47178" lon="2.45218">
        <ele>564.4</ele>
        <time>2013-01-20T09:24:21Z</time>
      </trkpt>
      <trkpt lat="44.4718" lon="2.45219">
        <ele>564.2</ele>
        <time>2013-01-20T09:24:22Z</time>
      </trkpt>
      <trkpt lat="44.47183" lon="2.4522">
        <ele>564.1</ele>
        <time>2013-01-20T09:24:23Z</time>
      </trkpt>
      <trkpt lat="44.47185" lon="2.45222">
        <ele>564</ele>
        <time>2013-01-20T09:24:24Z</time>
      </trkpt>
      <trkpt lat="44.47187" lon="2.45224">
        <ele>563.9</ele>
        <time>2013-01-20T09:24:25Z</time>
      </trkpt>
      <trkpt lat="44.47189" lon="2.45226">
        <ele>563.8</ele>
        <time>2013-01-20T09:24:26Z</time>
      </trkpt>
      <trkpt lat="44.47192" lon="2.45229">
        <ele>563.8</ele>
        <time>2013-01-20T09:24:27Z</time>
      </trkpt>
      <trkpt lat="44.47195" lon="2.45232">
        <ele>563.7</ele>
        <time>2013-01-20T09:24:28Z</time>
      </trkpt>
      <trkpt lat="44.47198" lon="2.45234">
        <ele>563.6</ele>
        <time>2013-01-20T09:24:29Z</time>
      </trkpt>
      <trkpt lat="44.47202" lon="2.45235">
        <ele>563.5</ele>
        <time>2013-01-20T09:24:30Z</time>
      </trkpt>
      <trkpt lat="44.47205" lon="2.45236">
        <ele>563.4</ele>
        <time>2013-01-20T09:24:31Z</time>
      </trkpt>
      <trkpt lat="44.47208" lon="2.45237">
        <ele>563.3</ele>
        <time>2013-01-20T09:24:32Z</time>
      </trkpt>
      <trkpt lat="44.47211" lon="2.45239">
        <ele>563.2</ele>
        <time>2013-01-20T09:24:33Z</time>
      </trkpt>
      <trkpt lat="44.47214" lon="2.4524">
        <ele>563.2</ele>
        <time>2013-01-20T09:24:34Z</time>
      </trkpt>
      <trkpt lat="44.47217" lon="2.45242">
        <ele>563.4</ele>
        <time>2013-01-20T09:24:35Z</time>
      </trkpt>
      <trkpt lat="44.4722" lon="2.45243">
        <ele>563.6</ele>
        <time>2013-01-20T09:24:36Z</time>
      </trkpt>
      <trkpt lat="44.47224" lon="2.45244">
        <ele>563.7</ele>
        <time>2013-01-20T09:24:37Z</time>
      </trkpt>
      <trkpt lat="44.47227" lon="2.45244">
        <ele>563.9</ele>
        <time>2013-01-20T09:24:38Z</time>
      </trkpt>
      <trkpt lat="44.4723" lon="2.45245">
        <ele>564.1</ele>
        <time>2013-01-20T09:24:39Z</time>
      </trkpt>
      <trkpt lat="44.47233" lon="2.45246">
        <ele>564.2</ele>
        <time>2013-01-20T09:24:40Z</time>
      </trkpt>
      <trkpt lat="44.47237" lon="2.45247">
        <ele>564.1</ele>
        <time>2013-01-20T09:24:41Z</time>
      </trkpt>
      <trkpt lat="44.4724" lon="2.45248">
        <ele>564</ele>
        <time>2013-01-20T09:24:42Z</time>
      </trkpt>
      <trkpt lat="44.47243" lon="2.45249">
        <ele>564</ele>
        <time>2013-01-20T09:24:43Z</time>
      </trkpt>
      <trkpt lat="44.47246" lon="2.45249">
        <ele>564.1</ele>
        <time>2013-01-20T09:24:44Z</time>
      </trkpt>
      <trkpt lat="44.47249" lon="2.4525">
        <ele>564.2</ele>
        <time>2013-01-20T09:24:45Z</time>
      </trkpt>
      <trkpt lat="44.47253" lon="2.4525">
        <ele>564.3</ele>
        <time>2013-01-20T09:24:46Z</time>
      </trkpt>
      <trkpt lat="44.47256" lon="2.45251">
        <ele>564.6</ele>
        <time>2013-01-20T09:24:47Z</time>
      </trkpt>
      <trkpt lat="44.47259" lon="2.45251">
        <ele>564.8</ele>
        <time>2013-01-20T09:24:48Z</time>
      </trkpt>
      <trkpt lat="44.47261" lon="2.45252">
        <ele>565</ele>
        <time>2013-01-20T09:24:49Z</time>
      </trkpt>
      <trkpt lat="44.47264" lon="2.45253">
        <ele>565.2</ele>
        <time>2013-01-20T09:24:50Z</time>
      </trkpt>
      <trkpt lat="44.47267" lon="2.45253">
        <ele>564.9</ele>
        <time>2013-01-20T09:24:51Z</time>
      </trkpt>
      <trkpt lat="44.4727" lon="2.45252">
        <ele>564.8</ele>
        <time>2013-01-20T09:24:52Z</time>
      </trkpt>
      <trkpt lat="44.47272" lon="2.45252">
        <ele>564.7</ele>
        <time>2013-01-20T09:24:53Z</time>
      </trkpt>
      <trkpt lat="44.47275" lon="2.45252">
        <ele>564.7</ele>
        <time>2013-01-20T09:24:54Z</time>
      </trkpt>
      <trkpt lat="44.47278" lon="2.45253">
        <ele>564.7</ele>
        <time>2013-01-20T09:24:55Z</time>
      </trkpt>
      <trkpt lat="44.4728" lon="2.45253">
        <ele>564.7</ele>
        <time>2013-01-20T09:24:56Z</time>
      </trkpt>
      <trkpt lat="44.47284" lon="2.45254">
        <ele>564.8</ele>
        <time>2013-01-20T09:24:58Z</time>
      </trkpt>
      <trkpt lat="44.47287" lon="2.45254">
        <ele>564.8</ele>
        <time>2013-01-20T09:24:59Z</time>
      </trkpt>
      <trkpt lat="44.47289" lon="2.45255">
        <ele>564.9</ele>
        <time>2013-01-20T09:25:00Z</time>
      </trkpt>
      <trkpt lat="44.47293" lon="2.45257">
        <ele>565.2</ele>
        <time>2013-01-20T09:25:02Z</time>
      </trkpt>
      <trkpt lat="44.47296" lon="2.45259">
        <ele>564.9</ele>
        <time>2013-01-20T09:25:04Z</time>
      </trkpt>
      <trkpt lat="44.47299" lon="2.45262">
        <ele>564.8</ele>
        <time>2013-01-20T09:25:06Z</time>
      </trkpt>
      <trkpt lat="44.47302" lon="2.45266">
        <ele>565.2</ele>
        <time>2013-01-20T09:25:08Z</time>
      </trkpt>
      <trkpt lat="44.47305" lon="2.45268">
        <ele>565.4</ele>
        <time>2013-01-20T09:25:10Z</time>
      </trkpt>
      <trkpt lat="44.47308" lon="2.4527">
        <ele>565.4</ele>
        <time>2013-01-20T09:25:12Z</time>
      </trkpt>
      <trkpt lat="44.47311" lon="2.45272">
        <ele>565.9</ele>
        <time>2013-01-20T09:25:14Z</time>
      </trkpt>
      <trkpt lat="44.47315" lon="2.45274">
        <ele>565.9</ele>
        <time>2013-01-20T09:25:16Z</time>
      </trkpt>
      <trkpt lat="44.47318" lon="2.45277">
        <ele>565.8</ele>
        <time>2013-01-20T09:25:18Z</time>
      </trkpt>
      <trkpt lat="44.47322" lon="2.4528">
        <ele>565.8</ele>
        <time>2013-01-20T09:25:20Z</time>
      </trkpt>
      <trkpt lat="44.47325" lon="2.45283">
        <ele>565.7</ele>
        <time>2013-01-20T09:25:22Z</time>
      </trkpt>
      <trkpt lat="44.47328" lon="2.45285">
        <ele>565.8</ele>
        <time>2013-01-20T09:25:24Z</time>
      </trkpt>
      <trkpt lat="44.47331" lon="2.45288">
        <ele>566.1</ele>
        <time>2013-01-20T09:25:26Z</time>
      </trkpt>
      <trkpt lat="44.47334" lon="2.4529">
        <ele>566.6</ele>
        <time>2013-01-20T09:25:28Z</time>
      </trkpt>
      <trkpt lat="44.47337" lon="2.45293">
        <ele>567</ele>
        <time>2013-01-20T09:25:30Z</time>
      </trkpt>
      <trkpt lat="44.4734" lon="2.45296">
        <ele>567.6</ele>
        <time>2013-01-20T09:25:32Z</time>
      </trkpt>
      <trkpt lat="44.47342" lon="2.45299">
        <ele>568.3</ele>
        <time>2013-01-20T09:25:34Z</time>
      </trkpt>
      <trkpt lat="44.47344" lon="2.45302">
        <ele>568.2</ele>
        <time>2013-01-20T09:25:36Z</time>
      </trkpt>
      <trkpt lat="44.47347" lon="2.45304">
        <ele>568.1</ele>
        <time>2013-01-20T09:25:38Z</time>
      </trkpt>
      <trkpt lat="44.47348" lon="2.45306">
        <ele>568.7</ele>
        <time>2013-01-20T09:25:39Z</time>
      </trkpt>
      <trkpt lat="44.47352" lon="2.45311">
        <ele>569.8</ele>
        <time>2013-01-20T09:25:42Z</time>
      </trkpt>
      <trkpt lat="44.47354" lon="2.45314">
        <ele>570.2</ele>
        <time>2013-01-20T09:25:44Z</time>
      </trkpt>
      <trkpt lat="44.47357" lon="2.45318">
        <ele>570.9</ele>
        <time>2013-01-20T09:25:46Z</time>
      </trkpt>
      <trkpt lat="44.4736" lon="2.45321">
        <ele>571.2</ele>
        <time>2013-01-20T09:25:48Z</time>
      </trkpt>
      <trkpt lat="44.47362" lon="2.45324">
        <ele>571.3</ele>
        <time>2013-01-20T09:25:50Z</time>
      </trkpt>
      <trkpt lat="44.47364" lon="2.45328">
        <ele>572</ele>
        <time>2013-01-20T09:25:52Z</time>
      </trkpt>
      <trkpt lat="44.47367" lon="2.45331">
        <ele>572.4</ele>
        <time>2013-01-20T09:25:54Z</time>
      </trkpt>
      <trkpt lat="44.4737" lon="2.45335">
        <ele>572.3</ele>
        <time>2013-01-20T09:25:56Z</time>
      </trkpt>
      <trkpt lat="44.47373" lon="2.45339">
        <ele>572.5</ele>
        <time>2013-01-20T09:25:59Z</time>
      </trkpt>
      <trkpt lat="44.47376" lon="2.45341">
        <ele>572.9</ele>
        <time>2013-01-20T09:26:01Z</time>
      </trkpt>
      <trkpt lat="44.47378" lon="2.45345">
        <ele>573.4</ele>
        <time>2013-01-20T09:26:03Z</time>
      </trkpt>
      <trkpt lat="44.4738" lon="2.45348">
        <ele>573.8</ele>
        <time>2013-01-20T09:26:05Z</time>
      </trkpt>
      <trkpt lat="44.47382" lon="2.45351">
        <ele>574</ele>
        <time>2013-01-20T09:26:07Z</time>
      </trkpt>
      <trkpt lat="44.47384" lon="2.45355">
        <ele>574.2</ele>
        <time>2013-01-20T09:26:09Z</time>
      </trkpt>
      <trkpt lat="44.47386" lon="2.45359">
        <ele>575.4</ele>
        <time>2013-01-20T09:26:11Z</time>
      </trkpt>
      <trkpt lat="44.47388" lon="2.45363">
        <ele>576</ele>
        <time>2013-01-20T09:26:13Z</time>
      </trkpt>
      <trkpt lat="44.47391" lon="2.45367">
        <ele>575.6</ele>
        <time>2013-01-20T09:26:15Z</time>
      </trkpt>
      <trkpt lat="44.47394" lon="2.45371">
        <ele>575.6</ele>
        <time>2013-01-20T09:26:17Z</time>
      </trkpt>
      <trkpt lat="44.47397" lon="2.45374">
        <ele>575.7</ele>
        <time>2013-01-20T09:26:19Z</time>
      </trkpt>
      <trkpt lat="44.474" lon="2.45377">
        <ele>576.5</ele>
        <time>2013-01-20T09:26:21Z</time>
      </trkpt>
      <trkpt lat="44.47402" lon="2.45381">
        <ele>577</ele>
        <time>2013-01-20T09:26:23Z</time>
      </trkpt>
      <trkpt lat="44.47405" lon="2.45385">
        <ele>577.2</ele>
        <time>2013-01-20T09:26:25Z</time>
      </trkpt>
      <trkpt lat="44.47407" lon="2.45389">
        <ele>577.4</ele>
        <time>2013-01-20T09:26:27Z</time>
      </trkpt>
      <trkpt lat="44.47409" lon="2.45393">
        <ele>577.6</ele>
        <time>2013-01-20T09:26:29Z</time>
      </trkpt>
      <trkpt lat="44.47411" lon="2.45397">
        <ele>577.8</ele>
        <time>2013-01-20T09:26:31Z</time>
      </trkpt>
      <trkpt lat="44.47414" lon="2.45401">
        <ele>578.2</ele>
        <time>2013-01-20T09:26:34Z</time>
      </trkpt>
      <trkpt lat="44.47416" lon="2.45407">
        <ele>579.1</ele>
        <time>2013-01-20T09:26:37Z</time>
      </trkpt>
      <trkpt lat="44.47418" lon="2.45411">
        <ele>579.7</ele>
        <time>2013-01-20T09:26:40Z</time>
      </trkpt>
      <trkpt lat="44.47418" lon="2.45413">
        <ele>579.8</ele>
        <time>2013-01-20T09:26:41Z</time>
      </trkpt>
      <trkpt lat="44.4742" lon="2.45419">
        <ele>580.2</ele>
        <time>2013-01-20T09:26:44Z</time>
      </trkpt>
      <trkpt lat="44.47421" lon="2.45424">
        <ele>580.4</ele>
        <time>2013-01-20T09:26:46Z</time>
      </trkpt>
      <trkpt lat="44.47424" lon="2.45429">
        <ele>581.3</ele>
        <time>2013-01-20T09:26:49Z</time>
      </trkpt>
      <trkpt lat="44.47425" lon="2.45434">
        <ele>582.2</ele>
        <time>2013-01-20T09:26:52Z</time>
      </trkpt>
      <trkpt lat="44.47428" lon="2.45439">
        <ele>582.6</ele>
        <time>2013-01-20T09:26:55Z</time>
      </trkpt>
      <trkpt lat="44.4743" lon="2.45443">
        <ele>583.1</ele>
        <time>2013-01-20T09:26:58Z</time>
      </trkpt>
      <trkpt lat="44.47431" lon="2.45448">
        <ele>583.7</ele>
        <time>2013-01-20T09:27:01Z</time>
      </trkpt>
      <trkpt lat="44.47433" lon="2.45453">
        <ele>584.3</ele>
        <time>2013-01-20T09:27:04Z</time>
      </trkpt>
      <trkpt lat="44.47434" lon="2.45459">
        <ele>584.9</ele>
        <time>2013-01-20T09:27:07Z</time>
      </trkpt>
      <trkpt lat="44.47435" lon="2.45464">
        <ele>585.5</ele>
        <time>2013-01-20T09:27:10Z</time>
      </trkpt>
      <trkpt lat="44.47435" lon="2.45469">
        <ele>585.9</ele>
        <time>2013-01-20T09:27:13Z</time>
      </trkpt>
      <trkpt lat="44.47435" lon="2.45473">
        <ele>586.5</ele>
        <time>2013-01-20T09:27:15Z</time>
      </trkpt>
      <trkpt lat="44.47435" lon="2.45478">
        <ele>586.8</ele>
        <time>2013-01-20T09:27:17Z</time>
      </trkpt>
      <trkpt lat="44.47434" lon="2.45483">
        <ele>586.8</ele>
        <time>2013-01-20T09:27:19Z</time>
      </trkpt>
      <trkpt lat="44.47433" lon="2.45489">
        <ele>586.8</ele>
        <time>2013-01-20T09:27:21Z</time>
      </trkpt>
      <trkpt lat="44.47432" lon="2.45492">
        <ele>586.8</ele>
        <time>2013-01-20T09:27:22Z</time>
      </trkpt>
      <trkpt lat="44.47432" lon="2.45495">
        <ele>586.8</ele>
        <time>2013-01-20T09:27:23Z</time>
      </trkpt>
      <trkpt lat="44.47432" lon="2.45499">
        <ele>586.6</ele>
        <time>2013-01-20T09:27:24Z</time>
      </trkpt>
      <trkpt lat="44.47431" lon="2.45502">
        <ele>586.4</ele>
        <time>2013-01-20T09:27:25Z</time>
      </trkpt>
      <trkpt lat="44.4743" lon="2.45506">
        <ele>586.3</ele>
        <time>2013-01-20T09:27:26Z</time>
      </trkpt>
      <trkpt lat="44.47429" lon="2.4551">
        <ele>585.8</ele>
        <time>2013-01-20T09:27:27Z</time>
      </trkpt>
      <trkpt lat="44.47428" lon="2.45514">
        <ele>585.4</ele>
        <time>2013-01-20T09:27:28Z</time>
      </trkpt>
      <trkpt lat="44.47427" lon="2.45517">
        <ele>585.2</ele>
        <time>2013-01-20T09:27:29Z</time>
      </trkpt>
      <trkpt lat="44.47427" lon="2.4552">
        <ele>585.1</ele>
        <time>2013-01-20T09:27:30Z</time>
      </trkpt>
      <trkpt lat="44.47426" lon="2.45523">
        <ele>585</ele>
        <time>2013-01-20T09:27:31Z</time>
      </trkpt>
      <trkpt lat="44.47425" lon="2.45527">
        <ele>584.9</ele>
        <time>2013-01-20T09:27:32Z</time>
      </trkpt>
      <trkpt lat="44.47424" lon="2.45533">
        <ele>584.6</ele>
        <time>2013-01-20T09:27:34Z</time>
      </trkpt>
      <trkpt lat="44.47422" lon="2.45537">
        <ele>584.5</ele>
        <time>2013-01-20T09:27:36Z</time>
      </trkpt>
      <trkpt lat="44.4742" lon="2.45542">
        <ele>584.2</ele>
        <time>2013-01-20T09:27:38Z</time>
      </trkpt>
      <trkpt lat="44.47419" lon="2.45547">
        <ele>584.2</ele>
        <time>2013-01-20T09:27:40Z</time>
      </trkpt>
      <trkpt lat="44.47416" lon="2.45551">
        <ele>584.1</ele>
        <time>2013-01-20T09:27:43Z</time>
      </trkpt>
      <trkpt lat="44.47415" lon="2.45554">
        <ele>584</ele>
        <time>2013-01-20T09:27:44Z</time>
      </trkpt>
      <trkpt lat="44.47412" lon="2.45561">
        <ele>583.9</ele>
        <time>2013-01-20T09:27:47Z</time>
      </trkpt>
      <trkpt lat="44.4741" lon="2.45566">
        <ele>583.6</ele>
        <time>2013-01-20T09:27:49Z</time>
      </trkpt>
      <trkpt lat="44.47409" lon="2.45569">
        <ele>583.3</ele>
        <time>2013-01-20T09:27:50Z</time>
      </trkpt>
      <trkpt lat="44.47408" lon="2.45572">
        <ele>583.1</ele>
        <time>2013-01-20T09:27:51Z</time>
      </trkpt>
      <trkpt lat="44.47407" lon="2.45575">
        <ele>583</ele>
        <time>2013-01-20T09:27:52Z</time>
      </trkpt>
      <trkpt lat="44.47406" lon="2.45578">
        <ele>583.4</ele>
        <time>2013-01-20T09:27:53Z</time>
      </trkpt>
      <trkpt lat="44.47405" lon="2.45581">
        <ele>583.7</ele>
        <time>2013-01-20T09:27:54Z</time>
      </trkpt>
      <trkpt lat="44.47403" lon="2.45584">
        <ele>583.9</ele>
        <time>2013-01-20T09:27:55Z</time>
      </trkpt>
      <trkpt lat="44.47402" lon="2.45586">
        <ele>583.9</ele>
        <time>2013-01-20T09:27:56Z</time>
      </trkpt>
      <trkpt lat="44.474" lon="2.45589">
        <ele>584</ele>
        <time>2013-01-20T09:27:57Z</time>
      </trkpt>
      <trkpt lat="44.47399" lon="2.45592">
        <ele>584</ele>
        <time>2013-01-20T09:27:58Z</time>
      </trkpt>
      <trkpt lat="44.47398" lon="2.45594">
        <ele>583.5</ele>
        <time>2013-01-20T09:27:59Z</time>
      </trkpt>
      <trkpt lat="44.47396" lon="2.45597">
        <ele>583.2</ele>
        <time>2013-01-20T09:28:00Z</time>
      </trkpt>
      <trkpt lat="44.47394" lon="2.45599">
        <ele>582.9</ele>
        <time>2013-01-20T09:28:01Z</time>
      </trkpt>
      <trkpt lat="44.47392" lon="2.45602">
        <ele>582.5</ele>
        <time>2013-01-20T09:28:02Z</time>
      </trkpt>
      <trkpt lat="44.4739" lon="2.45605">
        <ele>582.2</ele>
        <time>2013-01-20T09:28:03Z</time>
      </trkpt>
      <trkpt lat="44.47388" lon="2.45608">
        <ele>582</ele>
        <time>2013-01-20T09:28:04Z</time>
      </trkpt>
      <trkpt lat="44.47386" lon="2.45612">
        <ele>581.9</ele>
        <time>2013-01-20T09:28:05Z</time>
      </trkpt>
      <trkpt lat="44.47384" lon="2.45615">
        <ele>581.8</ele>
        <time>2013-01-20T09:28:06Z</time>
      </trkpt>
      <trkpt lat="44.47382" lon="2.45619">
        <ele>581.7</ele>
        <time>2013-01-20T09:28:07Z</time>
      </trkpt>
      <trkpt lat="44.47379" lon="2.45623">
        <ele>581.6</ele>
        <time>2013-01-20T09:28:08Z</time>
      </trkpt>
      <trkpt lat="44.47376" lon="2.45627">
        <ele>581.5</ele>
        <time>2013-01-20T09:28:09Z</time>
      </trkpt>
      <trkpt lat="44.47374" lon="2.45631">
        <ele>581.3</ele>
        <time>2013-01-20T09:28:10Z</time>
      </trkpt>
      <trkpt lat="44.47371" lon="2.45635">
        <ele>581.2</ele>
        <time>2013-01-20T09:28:11Z</time>
      </trkpt>
      <trkpt lat="44.47369" lon="2.45639">
        <ele>580.9</ele>
        <time>2013-01-20T09:28:12Z</time>
      </trkpt>
      <trkpt lat="44.47366" lon="2.45643">
        <ele>580.7</ele>
        <time>2013-01-20T09:28:13Z</time>
      </trkpt>
      <trkpt lat="44.47363" lon="2.45648">
        <ele>580.5</ele>
        <time>2013-01-20T09:28:14Z</time>
      </trkpt>
      <trkpt lat="44.4736" lon="2.45653">
        <ele>580.2</ele>
        <time>2013-01-20T09:28:15Z</time>
      </trkpt>
      <trkpt lat="44.47357" lon="2.45657">
        <ele>579.9</ele>
        <time>2013-01-20T09:28:16Z</time>
      </trkpt>
      <trkpt lat="44.47354" lon="2.45662">
        <ele>579.7</ele>
        <time>2013-01-20T09:28:17Z</time>
      </trkpt>
      <trkpt lat="44.47351" lon="2.45668">
        <ele>579.3</ele>
        <time>2013-01-20T09:28:18Z</time>
      </trkpt>
      <trkpt lat="44.47347" lon="2.45673">
        <ele>578.9</ele>
        <time>2013-01-20T09:28:19Z</time>
      </trkpt>
      <trkpt lat="44.47344" lon="2.45679">
        <ele>578.6</ele>
        <time>2013-01-20T09:28:20Z</time>
      </trkpt>
      <trkpt lat="44.47341" lon="2.45686">
        <ele>578</ele>
        <time>2013-01-20T09:28:21Z</time>
      </trkpt>
      <trkpt lat="44.47339" lon="2.45693">
        <ele>577.6</ele>
        <time>2013-01-20T09:28:22Z</time>
      </trkpt>
      <trkpt lat="44.47337" lon="2.45701">
        <ele>577.3</ele>
        <time>2013-01-20T09:28:23Z</time>
      </trkpt>
      <trkpt lat="44.47337" lon="2.45709">
        <ele>576.4</ele>
        <time>2013-01-20T09:28:24Z</time>
      </trkpt>
      <trkpt lat="44.47337" lon="2.45716">
        <ele>575.8</ele>
        <time>2013-01-20T09:28:25Z</time>
      </trkpt>
      <trkpt lat="44.47337" lon="2.45723">
        <ele>575.3</ele>
        <time>2013-01-20T09:28:26Z</time>
      </trkpt>
      <trkpt lat="44.47337" lon="2.4573">
        <ele>574.9</ele>
        <time>2013-01-20T09:28:27Z</time>
      </trkpt>
      <trkpt lat="44.47337" lon="2.45738">
        <ele>574.5</ele>
        <time>2013-01-20T09:28:28Z</time>
      </trkpt>
      <trkpt lat="44.47336" lon="2.45745">
        <ele>574.2</ele>
        <time>2013-01-20T09:28:29Z</time>
      </trkpt>
      <trkpt lat="44.47335" lon="2.45752">
        <ele>573.9</ele>
        <time>2013-01-20T09:28:30Z</time>
      </trkpt>
      <trkpt lat="44.47334" lon="2.4576">
        <ele>573.4</ele>
        <time>2013-01-20T09:28:31Z</time>
      </trkpt>
      <trkpt lat="44.47332" lon="2.45768">
        <ele>573</ele>
        <time>2013-01-20T09:28:32Z</time>
      </trkpt>
      <trkpt lat="44.4733" lon="2.45775">
        <ele>572.7</ele>
        <time>2013-01-20T09:28:33Z</time>
      </trkpt>
      <trkpt lat="44.47329" lon="2.45783">
        <ele>572.4</ele>
        <time>2013-01-20T09:28:34Z</time>
      </trkpt>
      <trkpt lat="44.47328" lon="2.4579">
        <ele>572.2</ele>
        <time>2013-01-20T09:28:35Z</time>
      </trkpt>
      <trkpt lat="44.47327" lon="2.45798">
        <ele>572.1</ele>
        <time>2013-01-20T09:28:36Z</time>
      </trkpt>
      <trkpt lat="44.47327" lon="2.45806">
        <ele>571.6</ele>
        <time>2013-01-20T09:28:37Z</time>
      </trkpt>
      <trkpt lat="44.47328" lon="2.45815">
        <ele>571.2</ele>
        <time>2013-01-20T09:28:38Z</time>
      </trkpt>
      <trkpt lat="44.47328" lon="2.45823">
        <ele>571</ele>
        <time>2013-01-20T09:28:39Z</time>
      </trkpt>
      <trkpt lat="44.47328" lon="2.45832">
        <ele>570</ele>
        <time>2013-01-20T09:28:40Z</time>
      </trkpt>
      <trkpt lat="44.47327" lon="2.45841">
        <ele>569.3</ele>
        <time>2013-01-20T09:28:41Z</time>
      </trkpt>
      <trkpt lat="44.47324" lon="2.45849">
        <ele>568.8</ele>
        <time>2013-01-20T09:28:42Z</time>
      </trkpt>
      <trkpt lat="44.47321" lon="2.45857">
        <ele>568.4</ele>
        <time>2013-01-20T09:28:43Z</time>
      </trkpt>
      <trkpt lat="44.47317" lon="2.45865">
        <ele>567.8</ele>
        <time>2013-01-20T09:28:44Z</time>
      </trkpt>
      <trkpt lat="44.47313" lon="2.45873">
        <ele>567.5</ele>
        <time>2013-01-20T09:28:45Z</time>
      </trkpt>
      <trkpt lat="44.47309" lon="2.45881">
        <ele>567.2</ele>
        <time>2013-01-20T09:28:46Z</time>
      </trkpt>
      <trkpt lat="44.47305" lon="2.45889">
        <ele>566.8</ele>
        <time>2013-01-20T09:28:47Z</time>
      </trkpt>
      <trkpt lat="44.47301" lon="2.45896">
        <ele>566.5</ele>
        <time>2013-01-20T09:28:48Z</time>
      </trkpt>
      <trkpt lat="44.47297" lon="2.45904">
        <ele>566.2</ele>
        <time>2013-01-20T09:28:49Z</time>
      </trkpt>
      <trkpt lat="44.47293" lon="2.45912">
        <ele>565.8</ele>
        <time>2013-01-20T09:28:50Z</time>
      </trkpt>
      <trkpt lat="44.47289" lon="2.4592">
        <ele>565.5</ele>
        <time>2013-01-20T09:28:51Z</time>
      </trkpt>
      <trkpt lat="44.47285" lon="2.45929">
        <ele>565.3</ele>
        <time>2013-01-20T09:28:52Z</time>
      </trkpt>
      <trkpt lat="44.47282" lon="2.45937">
        <ele>564.4</ele>
        <time>2013-01-20T09:28:53Z</time>
      </trkpt>
      <trkpt lat="44.47278" lon="2.45946">
        <ele>563.8</ele>
        <time>2013-01-20T09:28:54Z</time>
      </trkpt>
      <trkpt lat="44.47275" lon="2.45954">
        <ele>563.3</ele>
        <time>2013-01-20T09:28:55Z</time>
      </trkpt>
      <trkpt lat="44.47271" lon="2.45963">
        <ele>562.3</ele>
        <time>2013-01-20T09:28:56Z</time>
      </trkpt>
      <trkpt lat="44.47268" lon="2.45971">
        <ele>561.6</ele>
        <time>2013-01-20T09:28:57Z</time>
      </trkpt>
      <trkpt lat="44.47265" lon="2.45979">
        <ele>561.1</ele>
        <time>2013-01-20T09:28:58Z</time>
      </trkpt>
      <trkpt lat="44.47262" lon="2.45988">
        <ele>560.7</ele>
        <time>2013-01-20T09:28:59Z</time>
      </trkpt>
      <trkpt lat="44.47259" lon="2.45997">
        <ele>560.4</ele>
        <time>2013-01-20T09:29:00Z</time>
      </trkpt>
      <trkpt lat="44.47257" lon="2.46007">
        <ele>560.2</ele>
        <time>2013-01-20T09:29:01Z</time>
      </trkpt>
      <trkpt lat="44.47256" lon="2.46017">
        <ele>560.1</ele>
        <time>2013-01-20T09:29:02Z</time>
      </trkpt>
      <trkpt lat="44.47256" lon="2.46026">
        <ele>559.1</ele>
        <time>2013-01-20T09:29:03Z</time>
      </trkpt>
      <trkpt lat="44.47257" lon="2.46035">
        <ele>558.4</ele>
        <time>2013-01-20T09:29:04Z</time>
      </trkpt>
      <trkpt lat="44.47258" lon="2.46043">
        <ele>557.9</ele>
        <time>2013-01-20T09:29:05Z</time>
      </trkpt>
      <trkpt lat="44.47259" lon="2.46051">
        <ele>557.3</ele>
        <time>2013-01-20T09:29:06Z</time>
      </trkpt>
      <trkpt lat="44.47259" lon="2.46057">
        <ele>556.9</ele>
        <time>2013-01-20T09:29:07Z</time>
      </trkpt>
      <trkpt lat="44.47261" lon="2.46062">
        <ele>556.7</ele>
        <time>2013-01-20T09:29:08Z</time>
      </trkpt>
      <trkpt lat="44.47263" lon="2.46066">
        <ele>556.5</ele>
        <time>2013-01-20T09:29:09Z</time>
      </trkpt>
      <trkpt lat="44.47264" lon="2.46071">
        <ele>556.3</ele>
        <time>2013-01-20T09:29:10Z</time>
      </trkpt>
      <trkpt lat="44.47265" lon="2.46077">
        <ele>556.2</ele>
        <time>2013-01-20T09:29:11Z</time>
      </trkpt>
      <trkpt lat="44.47265" lon="2.46083">
        <ele>555.6</ele>
        <time>2013-01-20T09:29:12Z</time>
      </trkpt>
      <trkpt lat="44.47266" lon="2.46089">
        <ele>555.2</ele>
        <time>2013-01-20T09:29:13Z</time>
      </trkpt>
      <trkpt lat="44.47266" lon="2.46096">
        <ele>554.9</ele>
        <time>2013-01-20T09:29:14Z</time>
      </trkpt>
      <trkpt lat="44.47265" lon="2.46103">
        <ele>554.7</ele>
        <time>2013-01-20T09:29:15Z</time>
      </trkpt>
      <trkpt lat="44.47264" lon="2.46109">
        <ele>554.6</ele>
        <time>2013-01-20T09:29:16Z</time>
      </trkpt>
      <trkpt lat="44.47263" lon="2.46116">
        <ele>554.5</ele>
        <time>2013-01-20T09:29:17Z</time>
      </trkpt>
      <trkpt lat="44.47261" lon="2.46123">
        <ele>554.4</ele>
        <time>2013-01-20T09:29:18Z</time>
      </trkpt>
      <trkpt lat="44.47259" lon="2.46129">
        <ele>554.2</ele>
        <time>2013-01-20T09:29:19Z</time>
      </trkpt>
      <trkpt lat="44.47256" lon="2.46136">
        <ele>554</ele>
        <time>2013-01-20T09:29:20Z</time>
      </trkpt>
      <trkpt lat="44.47254" lon="2.46142">
        <ele>553.8</ele>
        <time>2013-01-20T09:29:21Z</time>
      </trkpt>
      <trkpt lat="44.47252" lon="2.4615">
        <ele>553.2</ele>
        <time>2013-01-20T09:29:22Z</time>
      </trkpt>
      <trkpt lat="44.47249" lon="2.46157">
        <ele>552.7</ele>
        <time>2013-01-20T09:29:23Z</time>
      </trkpt>
      <trkpt lat="44.47245" lon="2.46164">
        <ele>552.4</ele>
        <time>2013-01-20T09:29:24Z</time>
      </trkpt>
      <trkpt lat="44.47242" lon="2.46171">
        <ele>551.8</ele>
        <time>2013-01-20T09:29:25Z</time>
      </trkpt>
      <trkpt lat="44.4724" lon="2.46179">
        <ele>551.4</ele>
        <time>2013-01-20T09:29:26Z</time>
      </trkpt>
      <trkpt lat="44.47237" lon="2.46187">
        <ele>551.1</ele>
        <time>2013-01-20T09:29:27Z</time>
      </trkpt>
      <trkpt lat="44.47235" lon="2.46196">
        <ele>550.5</ele>
        <time>2013-01-20T09:29:28Z</time>
      </trkpt>
      <trkpt lat="44.47233" lon="2.46205">
        <ele>550.1</ele>
        <time>2013-01-20T09:29:29Z</time>
      </trkpt>
      <trkpt lat="44.4723" lon="2.46214">
        <ele>549.8</ele>
        <time>2013-01-20T09:29:30Z</time>
      </trkpt>
      <trkpt lat="44.47228" lon="2.46223">
        <ele>549.4</ele>
        <time>2013-01-20T09:29:31Z</time>
      </trkpt>
      <trkpt lat="44.47224" lon="2.46231">
        <ele>549.1</ele>
        <time>2013-01-20T09:29:32Z</time>
      </trkpt>
      <trkpt lat="44.47219" lon="2.46239">
        <ele>548.9</ele>
        <time>2013-01-20T09:29:33Z</time>
      </trkpt>
      <trkpt lat="44.47215" lon="2.46247">
        <ele>548.8</ele>
        <time>2013-01-20T09:29:34Z</time>
      </trkpt>
      <trkpt lat="44.4721" lon="2.46254">
        <ele>548</ele>
        <time>2013-01-20T09:29:35Z</time>
      </trkpt>
      <trkpt lat="44.47205" lon="2.46262">
        <ele>547.4</ele>
        <time>2013-01-20T09:29:36Z</time>
      </trkpt>
      <trkpt lat="44.47201" lon="2.4627">
        <ele>547</ele>
        <time>2013-01-20T09:29:37Z</time>
      </trkpt>
      <trkpt lat="44.47198" lon="2.46279">
        <ele>546.6</ele>
        <time>2013-01-20T09:29:38Z</time>
      </trkpt>
      <trkpt lat="44.47196" lon="2.46288">
        <ele>546.2</ele>
        <time>2013-01-20T09:29:39Z</time>
      </trkpt>
      <trkpt lat="44.47194" lon="2.46297">
        <ele>546</ele>
        <time>2013-01-20T09:29:40Z</time>
      </trkpt>
      <trkpt lat="44.47193" lon="2.46306">
        <ele>545.2</ele>
        <time>2013-01-20T09:29:41Z</time>
      </trkpt>
      <trkpt lat="44.47191" lon="2.46315">
        <ele>544.6</ele>
        <time>2013-01-20T09:29:42Z</time>
      </trkpt>
      <trkpt lat="44.4719" lon="2.46325">
        <ele>544.2</ele>
        <time>2013-01-20T09:29:43Z</time>
      </trkpt>
      <trkpt lat="44.47189" lon="2.46335">
        <ele>543.8</ele>
        <time>2013-01-20T09:29:44Z</time>
      </trkpt>
      <trkpt lat="44.47188" lon="2.46345">
        <ele>543.4</ele>
        <time>2013-01-20T09:29:45Z</time>
      </trkpt>
      <trkpt lat="44.47186" lon="2.46356">
        <ele>543.2</ele>
        <time>2013-01-20T09:29:46Z</time>
      </trkpt>
      <trkpt lat="44.47185" lon="2.46365">
        <ele>542</ele>
        <time>2013-01-20T09:29:47Z</time>
      </trkpt>
      <trkpt lat="44.47184" lon="2.46375">
        <ele>541.2</ele>
        <time>2013-01-20T09:29:48Z</time>
      </trkpt>
      <trkpt lat="44.47183" lon="2.46384">
        <ele>540.5</ele>
        <time>2013-01-20T09:29:49Z</time>
      </trkpt>
      <trkpt lat="44.47183" lon="2.46391">
        <ele>540.1</ele>
        <time>2013-01-20T09:29:50Z</time>
      </trkpt>
      <trkpt lat="44.47184" lon="2.46397">
        <ele>539.6</ele>
        <time>2013-01-20T09:29:51Z</time>
      </trkpt>
      <trkpt lat="44.47186" lon="2.46402">
        <ele>539.2</ele>
        <time>2013-01-20T09:29:52Z</time>
      </trkpt>
      <trkpt lat="44.47189" lon="2.46406">
        <ele>538.9</ele>
        <time>2013-01-20T09:29:53Z</time>
      </trkpt>
      <trkpt lat="44.47193" lon="2.46409">
        <ele>538.6</ele>
        <time>2013-01-20T09:29:54Z</time>
      </trkpt>
      <trkpt lat="44.47198" lon="2.46411">
        <ele>538.3</ele>
        <time>2013-01-20T09:29:55Z</time>
      </trkpt>
      <trkpt lat="44.47203" lon="2.46413">
        <ele>538.1</ele>
        <time>2013-01-20T09:29:56Z</time>
      </trkpt>
      <trkpt lat="44.47209" lon="2.46415">
        <ele>537.5</ele>
        <time>2013-01-20T09:29:57Z</time>
      </trkpt>
      <trkpt lat="44.47213" lon="2.46417">
        <ele>537.1</ele>
        <time>2013-01-20T09:29:58Z</time>
      </trkpt>
      <trkpt lat="44.47216" lon="2.46418">
        <ele>536.7</ele>
        <time>2013-01-20T09:29:59Z</time>
      </trkpt>
      <trkpt lat="44.4722" lon="2.46421">
        <ele>535</ele>
        <time>2013-01-20T09:30:05Z</time>
      </trkpt>
      <trkpt lat="44.47223" lon="2.46418">
        <ele>534.9</ele>
        <time>2013-01-20T09:30:09Z</time>
      </trkpt>
      <trkpt lat="44.47224" lon="2.46413">
        <ele>534.7</ele>
        <time>2013-01-20T09:30:11Z</time>
      </trkpt>
      <trkpt lat="44.47226" lon="2.4641">
        <ele>534.6</ele>
        <time>2013-01-20T09:30:12Z</time>
      </trkpt>
      <trkpt lat="44.47228" lon="2.46406">
        <ele>534.3</ele>
        <time>2013-01-20T09:30:13Z</time>
      </trkpt>
      <trkpt lat="44.47231" lon="2.46402">
        <ele>534</ele>
        <time>2013-01-20T09:30:14Z</time>
      </trkpt>
      <trkpt lat="44.47234" lon="2.46398">
        <ele>533.8</ele>
        <time>2013-01-20T09:30:15Z</time>
      </trkpt>
      <trkpt lat="44.47237" lon="2.46394">
        <ele>533.5</ele>
        <time>2013-01-20T09:30:16Z</time>
      </trkpt>
      <trkpt lat="44.47239" lon="2.4639">
        <ele>533.2</ele>
        <time>2013-01-20T09:30:17Z</time>
      </trkpt>
      <trkpt lat="44.47242" lon="2.46386">
        <ele>533</ele>
        <time>2013-01-20T09:30:18Z</time>
      </trkpt>
      <trkpt lat="44.47244" lon="2.46383">
        <ele>532.9</ele>
        <time>2013-01-20T09:30:19Z</time>
      </trkpt>
      <trkpt lat="44.47246" lon="2.46379">
        <ele>532.7</ele>
        <time>2013-01-20T09:30:20Z</time>
      </trkpt>
      <trkpt lat="44.47248" lon="2.46375">
        <ele>532.6</ele>
        <time>2013-01-20T09:30:21Z</time>
      </trkpt>
      <trkpt lat="44.4725" lon="2.4637">
        <ele>532.6</ele>
        <time>2013-01-20T09:30:22Z</time>
      </trkpt>
      <trkpt lat="44.47252" lon="2.46365">
        <ele>532.6</ele>
        <time>2013-01-20T09:30:23Z</time>
      </trkpt>
      <trkpt lat="44.47254" lon="2.46361">
        <ele>532.6</ele>
        <time>2013-01-20T09:30:24Z</time>
      </trkpt>
      <trkpt lat="44.47256" lon="2.46357">
        <ele>532.6</ele>
        <time>2013-01-20T09:30:25Z</time>
      </trkpt>
      <trkpt lat="44.47259" lon="2.46353">
        <ele>532.7</ele>
        <time>2013-01-20T09:30:26Z</time>
      </trkpt>
      <trkpt lat="44.47261" lon="2.46349">
        <ele>532.8</ele>
        <time>2013-01-20T09:30:27Z</time>
      </trkpt>
      <trkpt lat="44.47264" lon="2.46345">
        <ele>532.9</ele>
        <time>2013-01-20T09:30:28Z</time>
      </trkpt>
      <trkpt lat="44.47267" lon="2.46341">
        <ele>532.8</ele>
        <time>2013-01-20T09:30:30Z</time>
      </trkpt>
      <trkpt lat="44.47269" lon="2.46339">
        <ele>532.6</ele>
        <time>2013-01-20T09:30:32Z</time>
      </trkpt>
      <trkpt lat="44.47273" lon="2.46336">
        <ele>532.4</ele>
        <time>2013-01-20T09:30:34Z</time>
      </trkpt>
      <trkpt lat="44.47276" lon="2.46333">
        <ele>532.6</ele>
        <time>2013-01-20T09:30:36Z</time>
      </trkpt>
      <trkpt lat="44.47279" lon="2.4633">
        <ele>532.8</ele>
        <time>2013-01-20T09:30:38Z</time>
      </trkpt>
      <trkpt lat="44.47281" lon="2.46327">
        <ele>532.6</ele>
        <time>2013-01-20T09:30:39Z</time>
      </trkpt>
      <trkpt lat="44.47282" lon="2.46325">
        <ele>532.4</ele>
        <time>2013-01-20T09:30:40Z</time>
      </trkpt>
      <trkpt lat="44.47284" lon="2.46322">
        <ele>532.4</ele>
        <time>2013-01-20T09:30:41Z</time>
      </trkpt>
      <trkpt lat="44.47287" lon="2.4632">
        <ele>532.3</ele>
        <time>2013-01-20T09:30:42Z</time>
      </trkpt>
      <trkpt lat="44.4729" lon="2.46316">
        <ele>532.3</ele>
        <time>2013-01-20T09:30:43Z</time>
      </trkpt>
      <trkpt lat="44.47294" lon="2.46311">
        <ele>532.3</ele>
        <time>2013-01-20T09:30:44Z</time>
      </trkpt>
      <trkpt lat="44.47297" lon="2.46306">
        <ele>531.9</ele>
        <time>2013-01-20T09:30:45Z</time>
      </trkpt>
      <trkpt lat="44.473" lon="2.46303">
        <ele>531.6</ele>
        <time>2013-01-20T09:30:46Z</time>
      </trkpt>
      <trkpt lat="44.47303" lon="2.46301">
        <ele>531.4</ele>
        <time>2013-01-20T09:30:47Z</time>
      </trkpt>
      <trkpt lat="44.47305" lon="2.46298">
        <ele>531.7</ele>
        <time>2013-01-20T09:30:48Z</time>
      </trkpt>
      <trkpt lat="44.47307" lon="2.46295">
        <ele>531.9</ele>
        <time>2013-01-20T09:30:49Z</time>
      </trkpt>
      <trkpt lat="44.47309" lon="2.46293">
        <ele>532.1</ele>
        <time>2013-01-20T09:30:50Z</time>
      </trkpt>
      <trkpt lat="44.47311" lon="2.46291">
        <ele>531.9</ele>
        <time>2013-01-20T09:30:51Z</time>
      </trkpt>
      <trkpt lat="44.47313" lon="2.46288">
        <ele>531.8</ele>
        <time>2013-01-20T09:30:52Z</time>
      </trkpt>
      <trkpt lat="44.47317" lon="2.46285">
        <ele>531.7</ele>
        <time>2013-01-20T09:30:54Z</time>
      </trkpt>
      <trkpt lat="44.47318" lon="2.46281">
        <ele>531.7</ele>
        <time>2013-01-20T09:30:56Z</time>
      </trkpt>
      <trkpt lat="44.47321" lon="2.46276">
        <ele>531.4</ele>
        <time>2013-01-20T09:30:58Z</time>
      </trkpt>
      <trkpt lat="44.47323" lon="2.4627">
        <ele>530.9</ele>
        <time>2013-01-20T09:31:00Z</time>
      </trkpt>
      <trkpt lat="44.47325" lon="2.46265">
        <ele>531</ele>
        <time>2013-01-20T09:31:02Z</time>
      </trkpt>
      <trkpt lat="44.47327" lon="2.46262">
        <ele>531</ele>
        <time>2013-01-20T09:31:03Z</time>
      </trkpt>
      <trkpt lat="44.47328" lon="2.46259">
        <ele>531</ele>
        <time>2013-01-20T09:31:04Z</time>
      </trkpt>
      <trkpt lat="44.47329" lon="2.46256">
        <ele>531</ele>
        <time>2013-01-20T09:31:05Z</time>
      </trkpt>
      <trkpt lat="44.47331" lon="2.46251">
        <ele>531</ele>
        <time>2013-01-20T09:31:07Z</time>
      </trkpt>
      <trkpt lat="44.47331" lon="2.46247">
        <ele>531.1</ele>
        <time>2013-01-20T09:31:09Z</time>
      </trkpt>
      <trkpt lat="44.47331" lon="2.46241">
        <ele>531.3</ele>
        <time>2013-01-20T09:31:12Z</time>
      </trkpt>
      <trkpt lat="44.47333" lon="2.46237">
        <ele>531.3</ele>
        <time>2013-01-20T09:31:15Z</time>
      </trkpt>
      <trkpt lat="44.47334" lon="2.46233">
        <ele>531.4</ele>
        <time>2013-01-20T09:31:17Z</time>
      </trkpt>
      <trkpt lat="44.47335" lon="2.4623">
        <ele>531.5</ele>
        <time>2013-01-20T09:31:18Z</time>
      </trkpt>
      <trkpt lat="44.47335" lon="2.46227">
        <ele>531.6</ele>
        <time>2013-01-20T09:31:19Z</time>
      </trkpt>
      <trkpt lat="44.47336" lon="2.46224">
        <ele>531.2</ele>
        <time>2013-01-20T09:31:20Z</time>
      </trkpt>
      <trkpt lat="44.47338" lon="2.46219">
        <ele>530.8</ele>
        <time>2013-01-20T09:31:22Z</time>
      </trkpt>
      <trkpt lat="44.47339" lon="2.46214">
        <ele>530.7</ele>
        <time>2013-01-20T09:31:25Z</time>
      </trkpt>
      <trkpt lat="44.47341" lon="2.46208">
        <ele>531.5</ele>
        <time>2013-01-20T09:31:29Z</time>
      </trkpt>
      <trkpt lat="44.47342" lon="2.46202">
        <ele>532.2</ele>
        <time>2013-01-20T09:31:33Z</time>
      </trkpt>
      <trkpt lat="44.47343" lon="2.46197">
        <ele>532.1</ele>
        <time>2013-01-20T09:31:36Z</time>
      </trkpt>
      <trkpt lat="44.47341" lon="2.46192">
        <ele>531.8</ele>
        <time>2013-01-20T09:31:39Z</time>
      </trkpt>
      <trkpt lat="44.47338" lon="2.46189">
        <ele>531.8</ele>
        <time>2013-01-20T09:31:42Z</time>
      </trkpt>
      <trkpt lat="44.47335" lon="2.46184">
        <ele>531.8</ele>
        <time>2013-01-20T09:31:45Z</time>
      </trkpt>
      <trkpt lat="44.47333" lon="2.46182">
        <ele>531.8</ele>
        <time>2013-01-20T09:31:47Z</time>
      </trkpt>
      <trkpt lat="44.47332" lon="2.4618">
        <ele>531.9</ele>
        <time>2013-01-20T09:31:48Z</time>
      </trkpt>
      <trkpt lat="44.47329" lon="2.46173">
        <ele>533.4</ele>
        <time>2013-01-20T09:31:52Z</time>
      </trkpt>
      <trkpt lat="44.47331" lon="2.46169">
        <ele>533.4</ele>
        <time>2013-01-20T09:31:54Z</time>
      </trkpt>
      <trkpt lat="44.47333" lon="2.46164">
        <ele>533.8</ele>
        <time>2013-01-20T09:31:56Z</time>
      </trkpt>
      <trkpt lat="44.47335" lon="2.46159">
        <ele>534.1</ele>
        <time>2013-01-20T09:31:58Z</time>
      </trkpt>
      <trkpt lat="44.47337" lon="2.46154">
        <ele>534.3</ele>
        <time>2013-01-20T09:32:00Z</time>
      </trkpt>
      <trkpt lat="44.4734" lon="2.4615">
        <ele>534.1</ele>
        <time>2013-01-20T09:32:02Z</time>
      </trkpt>
      <trkpt lat="44.47343" lon="2.46148">
        <ele>534</ele>
        <time>2013-01-20T09:32:04Z</time>
      </trkpt>
      <trkpt lat="44.47346" lon="2.46148">
        <ele>534.1</ele>
        <time>2013-01-20T09:32:06Z</time>
      </trkpt>
      <trkpt lat="44.4735" lon="2.46147">
        <ele>533.7</ele>
        <time>2013-01-20T09:32:08Z</time>
      </trkpt>
      <trkpt lat="44.47354" lon="2.46143">
        <ele>533.1</ele>
        <time>2013-01-20T09:32:11Z</time>
      </trkpt>
      <trkpt lat="44.47356" lon="2.4614">
        <ele>533.1</ele>
        <time>2013-01-20T09:32:13Z</time>
      </trkpt>
      <trkpt lat="44.47357" lon="2.46136">
        <ele>532.6</ele>
        <time>2013-01-20T09:32:15Z</time>
      </trkpt>
      <trkpt lat="44.4736" lon="2.46131">
        <ele>532.3</ele>
        <time>2013-01-20T09:32:17Z</time>
      </trkpt>
      <trkpt lat="44.47362" lon="2.46125">
        <ele>532</ele>
        <time>2013-01-20T09:32:19Z</time>
      </trkpt>
      <trkpt lat="44.47364" lon="2.4612">
        <ele>532.1</ele>
        <time>2013-01-20T09:32:21Z</time>
      </trkpt>
      <trkpt lat="44.47365" lon="2.46116">
        <ele>532.4</ele>
        <time>2013-01-20T09:32:23Z</time>
      </trkpt>
      <trkpt lat="44.47367" lon="2.46112">
        <ele>532.1</ele>
        <time>2013-01-20T09:32:25Z</time>
      </trkpt>
      <trkpt lat="44.47369" lon="2.46108">
        <ele>532.2</ele>
        <time>2013-01-20T09:32:27Z</time>
      </trkpt>
      <trkpt lat="44.47371" lon="2.46104">
        <ele>532.6</ele>
        <time>2013-01-20T09:32:29Z</time>
      </trkpt>
      <trkpt lat="44.47372" lon="2.461">
        <ele>532.5</ele>
        <time>2013-01-20T09:32:31Z</time>
      </trkpt>
      <trkpt lat="44.47374" lon="2.46096">
        <ele>532.9</ele>
        <time>2013-01-20T09:32:33Z</time>
      </trkpt>
      <trkpt lat="44.47376" lon="2.46092">
        <ele>533.4</ele>
        <time>2013-01-20T09:32:35Z</time>
      </trkpt>
      <trkpt lat="44.47377" lon="2.46088">
        <ele>533.6</ele>
        <time>2013-01-20T09:32:37Z</time>
      </trkpt>
      <trkpt lat="44.4738" lon="2.46085">
        <ele>533.1</ele>
        <time>2013-01-20T09:32:40Z</time>
      </trkpt>
      <trkpt lat="44.47384" lon="2.46086">
        <ele>532.5</ele>
        <time>2013-01-20T09:32:42Z</time>
      </trkpt>
      <trkpt lat="44.47387" lon="2.4609">
        <ele>533.4</ele>
        <time>2013-01-20T09:32:44Z</time>
      </trkpt>
      <trkpt lat="44.4739" lon="2.46094">
        <ele>533.6</ele>
        <time>2013-01-20T09:32:46Z</time>
      </trkpt>
      <trkpt lat="44.47392" lon="2.46096">
        <ele>533.6</ele>
        <time>2013-01-20T09:32:47Z</time>
      </trkpt>
      <trkpt lat="44.47395" lon="2.461">
        <ele>533</ele>
        <time>2013-01-20T09:32:49Z</time>
      </trkpt>
      <trkpt lat="44.47396" lon="2.46102">
        <ele>532.6</ele>
        <time>2013-01-20T09:32:50Z</time>
      </trkpt>
      <trkpt lat="44.47401" lon="2.46106">
        <ele>532.1</ele>
        <time>2013-01-20T09:32:53Z</time>
      </trkpt>
      <trkpt lat="44.47404" lon="2.4611">
        <ele>532.2</ele>
        <time>2013-01-20T09:32:55Z</time>
      </trkpt>
      <trkpt lat="44.47407" lon="2.46115">
        <ele>531.9</ele>
        <time>2013-01-20T09:32:57Z</time>
      </trkpt>
      <trkpt lat="44.47409" lon="2.46116">
        <ele>531.8</ele>
        <time>2013-01-20T09:32:58Z</time>
      </trkpt>
      <trkpt lat="44.47411" lon="2.46118">
        <ele>531.6</ele>
        <time>2013-01-20T09:32:59Z</time>
      </trkpt>
      <trkpt lat="44.47413" lon="2.46121">
        <ele>531.4</ele>
        <time>2013-01-20T09:33:00Z</time>
      </trkpt>
      <trkpt lat="44.47414" lon="2.46123">
        <ele>531.3</ele>
        <time>2013-01-20T09:33:01Z</time>
      </trkpt>
      <trkpt lat="44.47416" lon="2.46125">
        <ele>530.9</ele>
        <time>2013-01-20T09:33:02Z</time>
      </trkpt>
      <trkpt lat="44.47418" lon="2.46127">
        <ele>530.6</ele>
        <time>2013-01-20T09:33:03Z</time>
      </trkpt>
      <trkpt lat="44.4742" lon="2.46129">
        <ele>530.3</ele>
        <time>2013-01-20T09:33:04Z</time>
      </trkpt>
      <trkpt lat="44.47423" lon="2.46134">
        <ele>531.1</ele>
        <time>2013-01-20T09:33:06Z</time>
      </trkpt>
      <trkpt lat="44.47426" lon="2.46138">
        <ele>531.8</ele>
        <time>2013-01-20T09:33:09Z</time>
      </trkpt>
      <trkpt lat="44.47429" lon="2.46141">
        <ele>532.9</ele>
        <time>2013-01-20T09:33:15Z</time>
      </trkpt>
      <trkpt lat="44.47433" lon="2.46141">
        <ele>533.3</ele>
        <time>2013-01-20T09:33:17Z</time>
      </trkpt>
      <trkpt lat="44.47436" lon="2.46136">
        <ele>533.5</ele>
        <time>2013-01-20T09:33:19Z</time>
      </trkpt>
      <trkpt lat="44.47437" lon="2.46134">
        <ele>533.5</ele>
        <time>2013-01-20T09:33:20Z</time>
      </trkpt>
      <trkpt lat="44.47438" lon="2.4613">
        <ele>533.4</ele>
        <time>2013-01-20T09:33:21Z</time>
      </trkpt>
      <trkpt lat="44.4744" lon="2.46127">
        <ele>533.2</ele>
        <time>2013-01-20T09:33:22Z</time>
      </trkpt>
      <trkpt lat="44.47441" lon="2.46124">
        <ele>533.1</ele>
        <time>2013-01-20T09:33:23Z</time>
      </trkpt>
      <trkpt lat="44.47442" lon="2.46121">
        <ele>533.3</ele>
        <time>2013-01-20T09:33:24Z</time>
      </trkpt>
      <trkpt lat="44.47444" lon="2.46115">
        <ele>533.4</ele>
        <time>2013-01-20T09:33:26Z</time>
      </trkpt>
      <trkpt lat="44.47445" lon="2.4611">
        <ele>533.5</ele>
        <time>2013-01-20T09:33:28Z</time>
      </trkpt>
      <trkpt lat="44.47447" lon="2.46106">
        <ele>533.5</ele>
        <time>2013-01-20T09:33:30Z</time>
      </trkpt>
      <trkpt lat="44.47449" lon="2.46103">
        <ele>533.3</ele>
        <time>2013-01-20T09:33:31Z</time>
      </trkpt>
      <trkpt lat="44.47451" lon="2.46101">
        <ele>533.1</ele>
        <time>2013-01-20T09:33:32Z</time>
      </trkpt>
      <trkpt lat="44.47452" lon="2.46098">
        <ele>533</ele>
        <time>2013-01-20T09:33:33Z</time>
      </trkpt>
      <trkpt lat="44.47454" lon="2.46095">
        <ele>532.7</ele>
        <time>2013-01-20T09:33:34Z</time>
      </trkpt>
      <trkpt lat="44.47455" lon="2.46092">
        <ele>532.5</ele>
        <time>2013-01-20T09:33:35Z</time>
      </trkpt>
      <trkpt lat="44.47457" lon="2.46089">
        <ele>532.4</ele>
        <time>2013-01-20T09:33:36Z</time>
      </trkpt>
      <trkpt lat="44.47458" lon="2.46085">
        <ele>532.3</ele>
        <time>2013-01-20T09:33:37Z</time>
      </trkpt>
      <trkpt lat="44.47459" lon="2.46081">
        <ele>532.3</ele>
        <time>2013-01-20T09:33:38Z</time>
      </trkpt>
      <trkpt lat="44.47461" lon="2.46078">
        <ele>532.3</ele>
        <time>2013-01-20T09:33:39Z</time>
      </trkpt>
      <trkpt lat="44.47463" lon="2.46075">
        <ele>532.3</ele>
        <time>2013-01-20T09:33:40Z</time>
      </trkpt>
      <trkpt lat="44.47465" lon="2.46071">
        <ele>532.2</ele>
        <time>2013-01-20T09:33:41Z</time>
      </trkpt>
      <trkpt lat="44.47466" lon="2.46068">
        <ele>532.2</ele>
        <time>2013-01-20T09:33:42Z</time>
      </trkpt>
      <trkpt lat="44.47468" lon="2.46064">
        <ele>532.2</ele>
        <time>2013-01-20T09:33:43Z</time>
      </trkpt>
      <trkpt lat="44.47469" lon="2.4606">
        <ele>532.2</ele>
        <time>2013-01-20T09:33:44Z</time>
      </trkpt>
      <trkpt lat="44.47471" lon="2.46056">
        <ele>532.2</ele>
        <time>2013-01-20T09:33:45Z</time>
      </trkpt>
      <trkpt lat="44.47472" lon="2.46053">
        <ele>532.2</ele>
        <time>2013-01-20T09:33:46Z</time>
      </trkpt>
      <trkpt lat="44.47474" lon="2.46049">
        <ele>531.8</ele>
        <time>2013-01-20T09:33:47Z</time>
      </trkpt>
      <trkpt lat="44.47475" lon="2.46046">
        <ele>531.5</ele>
        <time>2013-01-20T09:33:48Z</time>
      </trkpt>
      <trkpt lat="44.47476" lon="2.46041">
        <ele>531.3</ele>
        <time>2013-01-20T09:33:49Z</time>
      </trkpt>
      <trkpt lat="44.47477" lon="2.46038">
        <ele>531.2</ele>
        <time>2013-01-20T09:33:50Z</time>
      </trkpt>
      <trkpt lat="44.47478" lon="2.46034">
        <ele>531.1</ele>
        <time>2013-01-20T09:33:51Z</time>
      </trkpt>
      <trkpt lat="44.4748" lon="2.4603">
        <ele>531</ele>
        <time>2013-01-20T09:33:52Z</time>
      </trkpt>
      <trkpt lat="44.47481" lon="2.46026">
        <ele>531.4</ele>
        <time>2013-01-20T09:33:53Z</time>
      </trkpt>
      <trkpt lat="44.47483" lon="2.46022">
        <ele>531.7</ele>
        <time>2013-01-20T09:33:54Z</time>
      </trkpt>
      <trkpt lat="44.47484" lon="2.46018">
        <ele>532</ele>
        <time>2013-01-20T09:33:55Z</time>
      </trkpt>
      <trkpt lat="44.47486" lon="2.46015">
        <ele>532</ele>
        <time>2013-01-20T09:33:56Z</time>
      </trkpt>
      <trkpt lat="44.47487" lon="2.46011">
        <ele>532</ele>
        <time>2013-01-20T09:33:57Z</time>
      </trkpt>
      <trkpt lat="44.47489" lon="2.46007">
        <ele>532</ele>
        <time>2013-01-20T09:33:58Z</time>
      </trkpt>
      <trkpt lat="44.4749" lon="2.46003">
        <ele>532</ele>
        <time>2013-01-20T09:33:59Z</time>
      </trkpt>
      <trkpt lat="44.47492" lon="2.45999">
        <ele>531.7</ele>
        <time>2013-01-20T09:34:00Z</time>
      </trkpt>
      <trkpt lat="44.47493" lon="2.45996">
        <ele>531.6</ele>
        <time>2013-01-20T09:34:01Z</time>
      </trkpt>
      <trkpt lat="44.47495" lon="2.45992">
        <ele>531.4</ele>
        <time>2013-01-20T09:34:02Z</time>
      </trkpt>
      <trkpt lat="44.47496" lon="2.45988">
        <ele>531.3</ele>
        <time>2013-01-20T09:34:03Z</time>
      </trkpt>
      <trkpt lat="44.47498" lon="2.45984">
        <ele>531.1</ele>
        <time>2013-01-20T09:34:04Z</time>
      </trkpt>
      <trkpt lat="44.47499" lon="2.4598">
        <ele>531</ele>
        <time>2013-01-20T09:34:05Z</time>
      </trkpt>
      <trkpt lat="44.47501" lon="2.45977">
        <ele>531.3</ele>
        <time>2013-01-20T09:34:06Z</time>
      </trkpt>
      <trkpt lat="44.47502" lon="2.45972">
        <ele>531.5</ele>
        <time>2013-01-20T09:34:07Z</time>
      </trkpt>
      <trkpt lat="44.47504" lon="2.45968">
        <ele>531.7</ele>
        <time>2013-01-20T09:34:08Z</time>
      </trkpt>
      <trkpt lat="44.47506" lon="2.45964">
        <ele>531.6</ele>
        <time>2013-01-20T09:34:09Z</time>
      </trkpt>
      <trkpt lat="44.47507" lon="2.4596">
        <ele>531.5</ele>
        <time>2013-01-20T09:34:10Z</time>
      </trkpt>
      <trkpt lat="44.47508" lon="2.45955">
        <ele>531.5</ele>
        <time>2013-01-20T09:34:11Z</time>
      </trkpt>
      <trkpt lat="44.4751" lon="2.45951">
        <ele>531.1</ele>
        <time>2013-01-20T09:34:12Z</time>
      </trkpt>
      <trkpt lat="44.47512" lon="2.45947">
        <ele>530.8</ele>
        <time>2013-01-20T09:34:13Z</time>
      </trkpt>
      <trkpt lat="44.47513" lon="2.45943">
        <ele>530.5</ele>
        <time>2013-01-20T09:34:14Z</time>
      </trkpt>
      <trkpt lat="44.47515" lon="2.45939">
        <ele>530.4</ele>
        <time>2013-01-20T09:34:15Z</time>
      </trkpt>
      <trkpt lat="44.47516" lon="2.45934">
        <ele>530.4</ele>
        <time>2013-01-20T09:34:16Z</time>
      </trkpt>
      <trkpt lat="44.47518" lon="2.45931">
        <ele>530.4</ele>
        <time>2013-01-20T09:34:17Z</time>
      </trkpt>
      <trkpt lat="44.4752" lon="2.45926">
        <ele>530.4</ele>
        <time>2013-01-20T09:34:18Z</time>
      </trkpt>
      <trkpt lat="44.47522" lon="2.45922">
        <ele>530.2</ele>
        <time>2013-01-20T09:34:19Z</time>
      </trkpt>
      <trkpt lat="44.47523" lon="2.45918">
        <ele>530</ele>
        <time>2013-01-20T09:34:20Z</time>
      </trkpt>
      <trkpt lat="44.47525" lon="2.45914">
        <ele>529.9</ele>
        <time>2013-01-20T09:34:21Z</time>
      </trkpt>
      <trkpt lat="44.47526" lon="2.4591">
        <ele>530.4</ele>
        <time>2013-01-20T09:34:22Z</time>
      </trkpt>
      <trkpt lat="44.47528" lon="2.45905">
        <ele>530.7</ele>
        <time>2013-01-20T09:34:23Z</time>
      </trkpt>
      <trkpt lat="44.4753" lon="2.45901">
        <ele>530.9</ele>
        <time>2013-01-20T09:34:24Z</time>
      </trkpt>
      <trkpt lat="44.47531" lon="2.45896">
        <ele>531.1</ele>
        <time>2013-01-20T09:34:25Z</time>
      </trkpt>
      <trkpt lat="44.47533" lon="2.45892">
        <ele>531.2</ele>
        <time>2013-01-20T09:34:26Z</time>
      </trkpt>
      <trkpt lat="44.47535" lon="2.45888">
        <ele>531.2</ele>
        <time>2013-01-20T09:34:27Z</time>
      </trkpt>
      <trkpt lat="44.47537" lon="2.45883">
        <ele>531</ele>
        <time>2013-01-20T09:34:28Z</time>
      </trkpt>
      <trkpt lat="44.47538" lon="2.45878">
        <ele>530.8</ele>
        <time>2013-01-20T09:34:29Z</time>
      </trkpt>
      <trkpt lat="44.4754" lon="2.45874">
        <ele>530.7</ele>
        <time>2013-01-20T09:34:30Z</time>
      </trkpt>
      <trkpt lat="44.47542" lon="2.45869">
        <ele>530.6</ele>
        <time>2013-01-20T09:34:31Z</time>
      </trkpt>
      <trkpt lat="44.47543" lon="2.45865">
        <ele>530.7</ele>
        <time>2013-01-20T09:34:32Z</time>
      </trkpt>
      <trkpt lat="44.47545" lon="2.45861">
        <ele>530.7</ele>
        <time>2013-01-20T09:34:33Z</time>
      </trkpt>
      <trkpt lat="44.47547" lon="2.45856">
        <ele>530.8</ele>
        <time>2013-01-20T09:34:34Z</time>
      </trkpt>
      <trkpt lat="44.47548" lon="2.45851">
        <ele>531</ele>
        <time>2013-01-20T09:34:35Z</time>
      </trkpt>
      <trkpt lat="44.4755" lon="2.45846">
        <ele>531.1</ele>
        <time>2013-01-20T09:34:36Z</time>
      </trkpt>
      <trkpt lat="44.47552" lon="2.45841">
        <ele>531.3</ele>
        <time>2013-01-20T09:34:37Z</time>
      </trkpt>
      <trkpt lat="44.47554" lon="2.45837">
        <ele>531.4</ele>
        <time>2013-01-20T09:34:38Z</time>
      </trkpt>
      <trkpt lat="44.47556" lon="2.45832">
        <ele>531.5</ele>
        <time>2013-01-20T09:34:39Z</time>
      </trkpt>
      <trkpt lat="44.47558" lon="2.45827">
        <ele>531.6</ele>
        <time>2013-01-20T09:34:40Z</time>
      </trkpt>
      <trkpt lat="44.4756" lon="2.45822">
        <ele>531.6</ele>
        <time>2013-01-20T09:34:41Z</time>
      </trkpt>
      <trkpt lat="44.47562" lon="2.45817">
        <ele>531.7</ele>
        <time>2013-01-20T09:34:42Z</time>
      </trkpt>
      <trkpt lat="44.47564" lon="2.45812">
        <ele>531.7</ele>
        <time>2013-01-20T09:34:43Z</time>
      </trkpt>
      <trkpt lat="44.47565" lon="2.45808">
        <ele>531.4</ele>
        <time>2013-01-20T09:34:44Z</time>
      </trkpt>
      <trkpt lat="44.47567" lon="2.45803">
        <ele>531.1</ele>
        <time>2013-01-20T09:34:45Z</time>
      </trkpt>
      <trkpt lat="44.47569" lon="2.45798">
        <ele>530.9</ele>
        <time>2013-01-20T09:34:46Z</time>
      </trkpt>
      <trkpt lat="44.47571" lon="2.45793">
        <ele>530.9</ele>
        <time>2013-01-20T09:34:47Z</time>
      </trkpt>
      <trkpt lat="44.47573" lon="2.45788">
        <ele>530.9</ele>
        <time>2013-01-20T09:34:48Z</time>
      </trkpt>
      <trkpt lat="44.47575" lon="2.45784">
        <ele>530.8</ele>
        <time>2013-01-20T09:34:49Z</time>
      </trkpt>
      <trkpt lat="44.47576" lon="2.45779">
        <ele>530.8</ele>
        <time>2013-01-20T09:34:50Z</time>
      </trkpt>
      <trkpt lat="44.47578" lon="2.45775">
        <ele>530.7</ele>
        <time>2013-01-20T09:34:51Z</time>
      </trkpt>
      <trkpt lat="44.47579" lon="2.45771">
        <ele>530.7</ele>
        <time>2013-01-20T09:34:52Z</time>
      </trkpt>
      <trkpt lat="44.47581" lon="2.45767">
        <ele>530.6</ele>
        <time>2013-01-20T09:34:53Z</time>
      </trkpt>
      <trkpt lat="44.47582" lon="2.45763">
        <ele>530.7</ele>
        <time>2013-01-20T09:34:54Z</time>
      </trkpt>
      <trkpt lat="44.47584" lon="2.45759">
        <ele>530.7</ele>
        <time>2013-01-20T09:34:55Z</time>
      </trkpt>
      <trkpt lat="44.47585" lon="2.45755">
        <ele>530.7</ele>
        <time>2013-01-20T09:34:56Z</time>
      </trkpt>
      <trkpt lat="44.47587" lon="2.4575">
        <ele>530.7</ele>
        <time>2013-01-20T09:34:57Z</time>
      </trkpt>
      <trkpt lat="44.47588" lon="2.45746">
        <ele>530.7</ele>
        <time>2013-01-20T09:34:58Z</time>
      </trkpt>
      <trkpt lat="44.47589" lon="2.45742">
        <ele>530.7</ele>
        <time>2013-01-20T09:34:59Z</time>
      </trkpt>
      <trkpt lat="44.47591" lon="2.45738">
        <ele>530.5</ele>
        <time>2013-01-20T09:35:00Z</time>
      </trkpt>
      <trkpt lat="44.47592" lon="2.45733">
        <ele>530.4</ele>
        <time>2013-01-20T09:35:01Z</time>
      </trkpt>
      <trkpt lat="44.47594" lon="2.45729">
        <ele>530.3</ele>
        <time>2013-01-20T09:35:02Z</time>
      </trkpt>
      <trkpt lat="44.47595" lon="2.45725">
        <ele>530.5</ele>
        <time>2013-01-20T09:35:03Z</time>
      </trkpt>
      <trkpt lat="44.47597" lon="2.4572">
        <ele>530.7</ele>
        <time>2013-01-20T09:35:04Z</time>
      </trkpt>
      <trkpt lat="44.47599" lon="2.45716">
        <ele>530.9</ele>
        <time>2013-01-20T09:35:05Z</time>
      </trkpt>
      <trkpt lat="44.476" lon="2.45712">
        <ele>531</ele>
        <time>2013-01-20T09:35:06Z</time>
      </trkpt>
      <trkpt lat="44.47602" lon="2.45708">
        <ele>530.6</ele>
        <time>2013-01-20T09:35:07Z</time>
      </trkpt>
      <trkpt lat="44.47604" lon="2.45703">
        <ele>530.4</ele>
        <time>2013-01-20T09:35:08Z</time>
      </trkpt>
      <trkpt lat="44.47605" lon="2.45699">
        <ele>530.1</ele>
        <time>2013-01-20T09:35:09Z</time>
      </trkpt>
      <trkpt lat="44.47607" lon="2.45695">
        <ele>530.3</ele>
        <time>2013-01-20T09:35:10Z</time>
      </trkpt>
      <trkpt lat="44.47609" lon="2.4569">
        <ele>530.5</ele>
        <time>2013-01-20T09:35:11Z</time>
      </trkpt>
      <trkpt lat="44.4761" lon="2.45686">
        <ele>530.6</ele>
        <time>2013-01-20T09:35:12Z</time>
      </trkpt>
      <trkpt lat="44.47612" lon="2.45682">
        <ele>530.3</ele>
        <time>2013-01-20T09:35:13Z</time>
      </trkpt>
      <trkpt lat="44.47614" lon="2.45678">
        <ele>530</ele>
        <time>2013-01-20T09:35:14Z</time>
      </trkpt>
      <trkpt lat="44.47615" lon="2.45674">
        <ele>529.8</ele>
        <time>2013-01-20T09:35:15Z</time>
      </trkpt>
      <trkpt lat="44.47617" lon="2.4567">
        <ele>530.2</ele>
        <time>2013-01-20T09:35:16Z</time>
      </trkpt>
      <trkpt lat="44.47618" lon="2.45666">
        <ele>530.5</ele>
        <time>2013-01-20T09:35:17Z</time>
      </trkpt>
      <trkpt lat="44.4762" lon="2.45662">
        <ele>530.7</ele>
        <time>2013-01-20T09:35:18Z</time>
      </trkpt>
      <trkpt lat="44.47622" lon="2.45657">
        <ele>531</ele>
        <time>2013-01-20T09:35:19Z</time>
      </trkpt>
      <trkpt lat="44.47623" lon="2.45653">
        <ele>531.3</ele>
        <time>2013-01-20T09:35:20Z</time>
      </trkpt>
      <trkpt lat="44.47625" lon="2.45649">
        <ele>531.5</ele>
        <time>2013-01-20T09:35:21Z</time>
      </trkpt>
      <trkpt lat="44.47627" lon="2.45645">
        <ele>531.6</ele>
        <time>2013-01-20T09:35:22Z</time>
      </trkpt>
      <trkpt lat="44.47629" lon="2.45641">
        <ele>531.3</ele>
        <time>2013-01-20T09:35:23Z</time>
      </trkpt>
      <trkpt lat="44.47631" lon="2.45637">
        <ele>531</ele>
        <time>2013-01-20T09:35:24Z</time>
      </trkpt>
      <trkpt lat="44.47633" lon="2.45634">
        <ele>530.8</ele>
        <time>2013-01-20T09:35:25Z</time>
      </trkpt>
      <trkpt lat="44.47634" lon="2.4563">
        <ele>530.8</ele>
        <time>2013-01-20T09:35:26Z</time>
      </trkpt>
      <trkpt lat="44.47636" lon="2.45626">
        <ele>530.8</ele>
        <time>2013-01-20T09:35:27Z</time>
      </trkpt>
      <trkpt lat="44.47638" lon="2.45623">
        <ele>530.9</ele>
        <time>2013-01-20T09:35:28Z</time>
      </trkpt>
      <trkpt lat="44.4764" lon="2.45619">
        <ele>530.8</ele>
        <time>2013-01-20T09:35:29Z</time>
      </trkpt>
      <trkpt lat="44.47642" lon="2.45615">
        <ele>530.8</ele>
        <time>2013-01-20T09:35:30Z</time>
      </trkpt>
      <trkpt lat="44.47644" lon="2.45612">
        <ele>530.8</ele>
        <time>2013-01-20T09:35:31Z</time>
      </trkpt>
      <trkpt lat="44.47646" lon="2.45608">
        <ele>530.7</ele>
        <time>2013-01-20T09:35:32Z</time>
      </trkpt>
      <trkpt lat="44.47648" lon="2.45604">
        <ele>530.6</ele>
        <time>2013-01-20T09:35:33Z</time>
      </trkpt>
      <trkpt lat="44.4765" lon="2.456">
        <ele>530.5</ele>
        <time>2013-01-20T09:35:34Z</time>
      </trkpt>
      <trkpt lat="44.47652" lon="2.45597">
        <ele>530.4</ele>
        <time>2013-01-20T09:35:35Z</time>
      </trkpt>
      <trkpt lat="44.47654" lon="2.45593">
        <ele>530.3</ele>
        <time>2013-01-20T09:35:36Z</time>
      </trkpt>
      <trkpt lat="44.47657" lon="2.45589">
        <ele>530.2</ele>
        <time>2013-01-20T09:35:37Z</time>
      </trkpt>
      <trkpt lat="44.47659" lon="2.45585">
        <ele>530.1</ele>
        <time>2013-01-20T09:35:38Z</time>
      </trkpt>
      <trkpt lat="44.47661" lon="2.45581">
        <ele>530.4</ele>
        <time>2013-01-20T09:35:39Z</time>
      </trkpt>
      <trkpt lat="44.47663" lon="2.45578">
        <ele>530.6</ele>
        <time>2013-01-20T09:35:40Z</time>
      </trkpt>
      <trkpt lat="44.47665" lon="2.45574">
        <ele>530.8</ele>
        <time>2013-01-20T09:35:41Z</time>
      </trkpt>
      <trkpt lat="44.47667" lon="2.4557">
        <ele>530.7</ele>
        <time>2013-01-20T09:35:42Z</time>
      </trkpt>
      <trkpt lat="44.47669" lon="2.45566">
        <ele>530.6</ele>
        <time>2013-01-20T09:35:43Z</time>
      </trkpt>
      <trkpt lat="44.47671" lon="2.45563">
        <ele>530.5</ele>
        <time>2013-01-20T09:35:44Z</time>
      </trkpt>
      <trkpt lat="44.47673" lon="2.45559">
        <ele>530.2</ele>
        <time>2013-01-20T09:35:45Z</time>
      </trkpt>
      <trkpt lat="44.47675" lon="2.45555">
        <ele>530</ele>
        <time>2013-01-20T09:35:46Z</time>
      </trkpt>
      <trkpt lat="44.47677" lon="2.45551">
        <ele>529.8</ele>
        <time>2013-01-20T09:35:47Z</time>
      </trkpt>
      <trkpt lat="44.4768" lon="2.45547">
        <ele>529.7</ele>
        <time>2013-01-20T09:35:48Z</time>
      </trkpt>
      <trkpt lat="44.47682" lon="2.45543">
        <ele>529.7</ele>
        <time>2013-01-20T09:35:49Z</time>
      </trkpt>
      <trkpt lat="44.47684" lon="2.45539">
        <ele>529.7</ele>
        <time>2013-01-20T09:35:50Z</time>
      </trkpt>
      <trkpt lat="44.47686" lon="2.45535">
        <ele>529.5</ele>
        <time>2013-01-20T09:35:51Z</time>
      </trkpt>
      <trkpt lat="44.47688" lon="2.45531">
        <ele>529.3</ele>
        <time>2013-01-20T09:35:52Z</time>
      </trkpt>
      <trkpt lat="44.4769" lon="2.45527">
        <ele>529.2</ele>
        <time>2013-01-20T09:35:53Z</time>
      </trkpt>
      <trkpt lat="44.47692" lon="2.45523">
        <ele>529.1</ele>
        <time>2013-01-20T09:35:54Z</time>
      </trkpt>
      <trkpt lat="44.47695" lon="2.4552">
        <ele>529.5</ele>
        <time>2013-01-20T09:35:55Z</time>
      </trkpt>
      <trkpt lat="44.47697" lon="2.45516">
        <ele>529.8</ele>
        <time>2013-01-20T09:35:56Z</time>
      </trkpt>
      <trkpt lat="44.47699" lon="2.45512">
        <ele>530.1</ele>
        <time>2013-01-20T09:35:57Z</time>
      </trkpt>
      <trkpt lat="44.47702" lon="2.45509">
        <ele>530</ele>
        <time>2013-01-20T09:35:58Z</time>
      </trkpt>
      <trkpt lat="44.47703" lon="2.45505">
        <ele>530</ele>
        <time>2013-01-20T09:35:59Z</time>
      </trkpt>
      <trkpt lat="44.47705" lon="2.45501">
        <ele>529.9</ele>
        <time>2013-01-20T09:36:00Z</time>
      </trkpt>
      <trkpt lat="44.47707" lon="2.45497">
        <ele>529.9</ele>
        <time>2013-01-20T09:36:01Z</time>
      </trkpt>
      <trkpt lat="44.47709" lon="2.45493">
        <ele>529.9</ele>
        <time>2013-01-20T09:36:02Z</time>
      </trkpt>
      <trkpt lat="44.47711" lon="2.45489">
        <ele>529.9</ele>
        <time>2013-01-20T09:36:03Z</time>
      </trkpt>
      <trkpt lat="44.47713" lon="2.45485">
        <ele>530.1</ele>
        <time>2013-01-20T09:36:04Z</time>
      </trkpt>
      <trkpt lat="44.47714" lon="2.45481">
        <ele>530.2</ele>
        <time>2013-01-20T09:36:05Z</time>
      </trkpt>
      <trkpt lat="44.47716" lon="2.45477">
        <ele>530.2</ele>
        <time>2013-01-20T09:36:06Z</time>
      </trkpt>
      <trkpt lat="44.47718" lon="2.45473">
        <ele>530.1</ele>
        <time>2013-01-20T09:36:07Z</time>
      </trkpt>
      <trkpt lat="44.47719" lon="2.4547">
        <ele>530</ele>
        <time>2013-01-20T09:36:08Z</time>
      </trkpt>
      <trkpt lat="44.47721" lon="2.45466">
        <ele>529.9</ele>
        <time>2013-01-20T09:36:09Z</time>
      </trkpt>
      <trkpt lat="44.47724" lon="2.45463">
        <ele>529.7</ele>
        <time>2013-01-20T09:36:10Z</time>
      </trkpt>
      <trkpt lat="44.47726" lon="2.4546">
        <ele>529.6</ele>
        <time>2013-01-20T09:36:11Z</time>
      </trkpt>
      <trkpt lat="44.47729" lon="2.45459">
        <ele>529.5</ele>
        <time>2013-01-20T09:36:12Z</time>
      </trkpt>
      <trkpt lat="44.47732" lon="2.45459">
        <ele>529.4</ele>
        <time>2013-01-20T09:36:13Z</time>
      </trkpt>
      <trkpt lat="44.47736" lon="2.45459">
        <ele>529.6</ele>
        <time>2013-01-20T09:36:14Z</time>
      </trkpt>
      <trkpt lat="44.47739" lon="2.45459">
        <ele>529.7</ele>
        <time>2013-01-20T09:36:15Z</time>
      </trkpt>
      <trkpt lat="44.47742" lon="2.4546">
        <ele>529.8</ele>
        <time>2013-01-20T09:36:16Z</time>
      </trkpt>
      <trkpt lat="44.47745" lon="2.45461">
        <ele>529.8</ele>
        <time>2013-01-20T09:36:17Z</time>
      </trkpt>
      <trkpt lat="44.47748" lon="2.45463">
        <ele>529.7</ele>
        <time>2013-01-20T09:36:18Z</time>
      </trkpt>
      <trkpt lat="44.4775" lon="2.45465">
        <ele>529.7</ele>
        <time>2013-01-20T09:36:19Z</time>
      </trkpt>
      <trkpt lat="44.47753" lon="2.45467">
        <ele>530</ele>
        <time>2013-01-20T09:36:20Z</time>
      </trkpt>
      <trkpt lat="44.47755" lon="2.45468">
        <ele>530.2</ele>
        <time>2013-01-20T09:36:21Z</time>
      </trkpt>
      <trkpt lat="44.47758" lon="2.4547">
        <ele>530.3</ele>
        <time>2013-01-20T09:36:22Z</time>
      </trkpt>
      <trkpt lat="44.4776" lon="2.45472">
        <ele>530.7</ele>
        <time>2013-01-20T09:36:23Z</time>
      </trkpt>
      <trkpt lat="44.47762" lon="2.45473">
        <ele>530.9</ele>
        <time>2013-01-20T09:36:24Z</time>
      </trkpt>
      <trkpt lat="44.47765" lon="2.45475">
        <ele>531.2</ele>
        <time>2013-01-20T09:36:25Z</time>
      </trkpt>
      <trkpt lat="44.47767" lon="2.45477">
        <ele>531.3</ele>
        <time>2013-01-20T09:36:26Z</time>
      </trkpt>
      <trkpt lat="44.47769" lon="2.45478">
        <ele>531.4</ele>
        <time>2013-01-20T09:36:27Z</time>
      </trkpt>
      <trkpt lat="44.47772" lon="2.4548">
        <ele>531.5</ele>
        <time>2013-01-20T09:36:28Z</time>
      </trkpt>
      <trkpt lat="44.47774" lon="2.45481">
        <ele>531.6</ele>
        <time>2013-01-20T09:36:29Z</time>
      </trkpt>
      <trkpt lat="44.47776" lon="2.45482">
        <ele>531.7</ele>
        <time>2013-01-20T09:36:30Z</time>
      </trkpt>
      <trkpt lat="44.47778" lon="2.45483">
        <ele>531.8</ele>
        <time>2013-01-20T09:36:31Z</time>
      </trkpt>
      <trkpt lat="44.47781" lon="2.45485">
        <ele>531.8</ele>
        <time>2013-01-20T09:36:32Z</time>
      </trkpt>
      <trkpt lat="44.47783" lon="2.45486">
        <ele>532</ele>
        <time>2013-01-20T09:36:33Z</time>
      </trkpt>
      <trkpt lat="44.47785" lon="2.45487">
        <ele>532.2</ele>
        <time>2013-01-20T09:36:34Z</time>
      </trkpt>
      <trkpt lat="44.47787" lon="2.45489">
        <ele>532.3</ele>
        <time>2013-01-20T09:36:35Z</time>
      </trkpt>
      <trkpt lat="44.47789" lon="2.45491">
        <ele>532.2</ele>
        <time>2013-01-20T09:36:36Z</time>
      </trkpt>
      <trkpt lat="44.47792" lon="2.45492">
        <ele>532.2</ele>
        <time>2013-01-20T09:36:37Z</time>
      </trkpt>
      <trkpt lat="44.47794" lon="2.45493">
        <ele>532.1</ele>
        <time>2013-01-20T09:36:38Z</time>
      </trkpt>
      <trkpt lat="44.47797" lon="2.45495">
        <ele>532.3</ele>
        <time>2013-01-20T09:36:39Z</time>
      </trkpt>
      <trkpt lat="44.47799" lon="2.45496">
        <ele>532.4</ele>
        <time>2013-01-20T09:36:40Z</time>
      </trkpt>
      <trkpt lat="44.47801" lon="2.45497">
        <ele>532.4</ele>
        <time>2013-01-20T09:36:41Z</time>
      </trkpt>
      <trkpt lat="44.47803" lon="2.45498">
        <ele>532.5</ele>
        <time>2013-01-20T09:36:42Z</time>
      </trkpt>
      <trkpt lat="44.47805" lon="2.455">
        <ele>532.5</ele>
        <time>2013-01-20T09:36:43Z</time>
      </trkpt>
      <trkpt lat="44.47808" lon="2.45501">
        <ele>532.6</ele>
        <time>2013-01-20T09:36:44Z</time>
      </trkpt>
      <trkpt lat="44.4781" lon="2.45502">
        <ele>532.6</ele>
        <time>2013-01-20T09:36:45Z</time>
      </trkpt>
      <trkpt lat="44.47812" lon="2.45502">
        <ele>532.6</ele>
        <time>2013-01-20T09:36:46Z</time>
      </trkpt>
      <trkpt lat="44.47815" lon="2.45503">
        <ele>532.7</ele>
        <time>2013-01-20T09:36:47Z</time>
      </trkpt>
      <trkpt lat="44.47817" lon="2.45503">
        <ele>532.7</ele>
        <time>2013-01-20T09:36:48Z</time>
      </trkpt>
      <trkpt lat="44.4782" lon="2.45504">
        <ele>532.9</ele>
        <time>2013-01-20T09:36:49Z</time>
      </trkpt>
      <trkpt lat="44.47823" lon="2.45504">
        <ele>533.1</ele>
        <time>2013-01-20T09:36:50Z</time>
      </trkpt>
      <trkpt lat="44.47825" lon="2.45505">
        <ele>533.3</ele>
        <time>2013-01-20T09:36:51Z</time>
      </trkpt>
      <trkpt lat="44.47828" lon="2.45505">
        <ele>533</ele>
        <time>2013-01-20T09:36:52Z</time>
      </trkpt>
      <trkpt lat="44.47831" lon="2.45505">
        <ele>532.8</ele>
        <time>2013-01-20T09:36:53Z</time>
      </trkpt>
      <trkpt lat="44.47834" lon="2.45505">
        <ele>532.6</ele>
        <time>2013-01-20T09:36:54Z</time>
      </trkpt>
      <trkpt lat="44.47837" lon="2.45505">
        <ele>532.7</ele>
        <time>2013-01-20T09:36:55Z</time>
      </trkpt>
      <trkpt lat="44.4784" lon="2.45505">
        <ele>532.7</ele>
        <time>2013-01-20T09:36:56Z</time>
      </trkpt>
      <trkpt lat="44.47843" lon="2.45504">
        <ele>532.7</ele>
        <time>2013-01-20T09:36:57Z</time>
      </trkpt>
      <trkpt lat="44.47845" lon="2.45504">
        <ele>533.3</ele>
        <time>2013-01-20T09:36:58Z</time>
      </trkpt>
      <trkpt lat="44.47848" lon="2.45503">
        <ele>533.7</ele>
        <time>2013-01-20T09:36:59Z</time>
      </trkpt>
      <trkpt lat="44.47851" lon="2.45502">
        <ele>534</ele>
        <time>2013-01-20T09:37:00Z</time>
      </trkpt>
      <trkpt lat="44.47854" lon="2.45501">
        <ele>534.2</ele>
        <time>2013-01-20T09:37:01Z</time>
      </trkpt>
      <trkpt lat="44.47857" lon="2.455">
        <ele>534</ele>
        <time>2013-01-20T09:37:02Z</time>
      </trkpt>
      <trkpt lat="44.4786" lon="2.45499">
        <ele>533.8</ele>
        <time>2013-01-20T09:37:03Z</time>
      </trkpt>
      <trkpt lat="44.47862" lon="2.45498">
        <ele>533.7</ele>
        <time>2013-01-20T09:37:04Z</time>
      </trkpt>
      <trkpt lat="44.47865" lon="2.45496">
        <ele>533.5</ele>
        <time>2013-01-20T09:37:05Z</time>
      </trkpt>
      <trkpt lat="44.47868" lon="2.45495">
        <ele>533.3</ele>
        <time>2013-01-20T09:37:06Z</time>
      </trkpt>
      <trkpt lat="44.47871" lon="2.45493">
        <ele>533.2</ele>
        <time>2013-01-20T09:37:07Z</time>
      </trkpt>
      <trkpt lat="44.47874" lon="2.45492">
        <ele>533.3</ele>
        <time>2013-01-20T09:37:08Z</time>
      </trkpt>
      <trkpt lat="44.47876" lon="2.4549">
        <ele>533.3</ele>
        <time>2013-01-20T09:37:09Z</time>
      </trkpt>
      <trkpt lat="44.47879" lon="2.45488">
        <ele>533.3</ele>
        <time>2013-01-20T09:37:10Z</time>
      </trkpt>
      <trkpt lat="44.47882" lon="2.45486">
        <ele>533.3</ele>
        <time>2013-01-20T09:37:11Z</time>
      </trkpt>
      <trkpt lat="44.47884" lon="2.45483">
        <ele>533.3</ele>
        <time>2013-01-20T09:37:12Z</time>
      </trkpt>
      <trkpt lat="44.47887" lon="2.45481">
        <ele>533.3</ele>
        <time>2013-01-20T09:37:13Z</time>
      </trkpt>
      <trkpt lat="44.47889" lon="2.45479">
        <ele>533.6</ele>
        <time>2013-01-20T09:37:14Z</time>
      </trkpt>
      <trkpt lat="44.47892" lon="2.45476">
        <ele>533.8</ele>
        <time>2013-01-20T09:37:15Z</time>
      </trkpt>
      <trkpt lat="44.47894" lon="2.45474">
        <ele>534</ele>
        <time>2013-01-20T09:37:16Z</time>
      </trkpt>
      <trkpt lat="44.47896" lon="2.45471">
        <ele>534</ele>
        <time>2013-01-20T09:37:17Z</time>
      </trkpt>
      <trkpt lat="44.47899" lon="2.45468">
        <ele>534.1</ele>
        <time>2013-01-20T09:37:18Z</time>
      </trkpt>
      <trkpt lat="44.47901" lon="2.45465">
        <ele>534.1</ele>
        <time>2013-01-20T09:37:19Z</time>
      </trkpt>
      <trkpt lat="44.47903" lon="2.45462">
        <ele>534.1</ele>
        <time>2013-01-20T09:37:20Z</time>
      </trkpt>
      <trkpt lat="44.47905" lon="2.45459">
        <ele>534.3</ele>
        <time>2013-01-20T09:37:21Z</time>
      </trkpt>
      <trkpt lat="44.47907" lon="2.45456">
        <ele>534.5</ele>
        <time>2013-01-20T09:37:22Z</time>
      </trkpt>
      <trkpt lat="44.47909" lon="2.45453">
        <ele>534.6</ele>
        <time>2013-01-20T09:37:23Z</time>
      </trkpt>
      <trkpt lat="44.4791" lon="2.45449">
        <ele>534.6</ele>
        <time>2013-01-20T09:37:24Z</time>
      </trkpt>
      <trkpt lat="44.47912" lon="2.45446">
        <ele>534.6</ele>
        <time>2013-01-20T09:37:25Z</time>
      </trkpt>
      <trkpt lat="44.47914" lon="2.45442">
        <ele>534.6</ele>
        <time>2013-01-20T09:37:26Z</time>
      </trkpt>
      <trkpt lat="44.47915" lon="2.45439">
        <ele>534.9</ele>
        <time>2013-01-20T09:37:27Z</time>
      </trkpt>
      <trkpt lat="44.47917" lon="2.45435">
        <ele>535.1</ele>
        <time>2013-01-20T09:37:28Z</time>
      </trkpt>
      <trkpt lat="44.47918" lon="2.45431">
        <ele>535.2</ele>
        <time>2013-01-20T09:37:29Z</time>
      </trkpt>
      <trkpt lat="44.4792" lon="2.45427">
        <ele>535</ele>
        <time>2013-01-20T09:37:30Z</time>
      </trkpt>
      <trkpt lat="44.47921" lon="2.45423">
        <ele>534.9</ele>
        <time>2013-01-20T09:37:31Z</time>
      </trkpt>
      <trkpt lat="44.47923" lon="2.45419">
        <ele>534.8</ele>
        <time>2013-01-20T09:37:32Z</time>
      </trkpt>
      <trkpt lat="44.47924" lon="2.45416">
        <ele>535.1</ele>
        <time>2013-01-20T09:37:33Z</time>
      </trkpt>
      <trkpt lat="44.47925" lon="2.45412">
        <ele>535.4</ele>
        <time>2013-01-20T09:37:34Z</time>
      </trkpt>
      <trkpt lat="44.47926" lon="2.45408">
        <ele>535.6</ele>
        <time>2013-01-20T09:37:35Z</time>
      </trkpt>
      <trkpt lat="44.47928" lon="2.45404">
        <ele>535.8</ele>
        <time>2013-01-20T09:37:36Z</time>
      </trkpt>
      <trkpt lat="44.47929" lon="2.454">
        <ele>536.1</ele>
        <time>2013-01-20T09:37:37Z</time>
      </trkpt>
      <trkpt lat="44.4793" lon="2.45396">
        <ele>536.4</ele>
        <time>2013-01-20T09:37:38Z</time>
      </trkpt>
      <trkpt lat="44.47931" lon="2.45392">
        <ele>536.6</ele>
        <time>2013-01-20T09:37:39Z</time>
      </trkpt>
      <trkpt lat="44.47932" lon="2.45388">
        <ele>536.5</ele>
        <time>2013-01-20T09:37:40Z</time>
      </trkpt>
      <trkpt lat="44.47934" lon="2.45384">
        <ele>536.5</ele>
        <time>2013-01-20T09:37:41Z</time>
      </trkpt>
      <trkpt lat="44.47935" lon="2.4538">
        <ele>536.5</ele>
        <time>2013-01-20T09:37:42Z</time>
      </trkpt>
      <trkpt lat="44.47936" lon="2.45376">
        <ele>536.6</ele>
        <time>2013-01-20T09:37:43Z</time>
      </trkpt>
      <trkpt lat="44.47937" lon="2.45372">
        <ele>536.7</ele>
        <time>2013-01-20T09:37:44Z</time>
      </trkpt>
      <trkpt lat="44.47939" lon="2.45369">
        <ele>536.8</ele>
        <time>2013-01-20T09:37:45Z</time>
      </trkpt>
      <trkpt lat="44.4794" lon="2.45364">
        <ele>536.7</ele>
        <time>2013-01-20T09:37:46Z</time>
      </trkpt>
      <trkpt lat="44.47941" lon="2.4536">
        <ele>536.7</ele>
        <time>2013-01-20T09:37:47Z</time>
      </trkpt>
      <trkpt lat="44.47942" lon="2.45356">
        <ele>536.7</ele>
        <time>2013-01-20T09:37:48Z</time>
      </trkpt>
      <trkpt lat="44.47943" lon="2.45352">
        <ele>536.9</ele>
        <time>2013-01-20T09:37:49Z</time>
      </trkpt>
      <trkpt lat="44.47944" lon="2.45348">
        <ele>537.1</ele>
        <time>2013-01-20T09:37:50Z</time>
      </trkpt>
      <trkpt lat="44.47945" lon="2.45345">
        <ele>537.2</ele>
        <time>2013-01-20T09:37:51Z</time>
      </trkpt>
      <trkpt lat="44.47946" lon="2.45341">
        <ele>537.3</ele>
        <time>2013-01-20T09:37:52Z</time>
      </trkpt>
      <trkpt lat="44.47947" lon="2.45337">
        <ele>537.1</ele>
        <time>2013-01-20T09:37:53Z</time>
      </trkpt>
      <trkpt lat="44.47948" lon="2.45334">
        <ele>537</ele>
        <time>2013-01-20T09:37:54Z</time>
      </trkpt>
      <trkpt lat="44.47949" lon="2.4533">
        <ele>536.9</ele>
        <time>2013-01-20T09:37:55Z</time>
      </trkpt>
      <trkpt lat="44.4795" lon="2.45326">
        <ele>537.2</ele>
        <time>2013-01-20T09:37:56Z</time>
      </trkpt>
      <trkpt lat="44.47951" lon="2.45322">
        <ele>537.5</ele>
        <time>2013-01-20T09:37:57Z</time>
      </trkpt>
      <trkpt lat="44.47953" lon="2.45319">
        <ele>537.7</ele>
        <time>2013-01-20T09:37:58Z</time>
      </trkpt>
      <trkpt lat="44.47954" lon="2.45315">
        <ele>537.9</ele>
        <time>2013-01-20T09:37:59Z</time>
      </trkpt>
      <trkpt lat="44.47955" lon="2.45311">
        <ele>538.1</ele>
        <time>2013-01-20T09:38:00Z</time>
      </trkpt>
      <trkpt lat="44.47956" lon="2.45307">
        <ele>538.2</ele>
        <time>2013-01-20T09:38:01Z</time>
      </trkpt>
      <trkpt lat="44.47957" lon="2.45303">
        <ele>538.1</ele>
        <time>2013-01-20T09:38:02Z</time>
      </trkpt>
      <trkpt lat="44.47958" lon="2.45299">
        <ele>538.1</ele>
        <time>2013-01-20T09:38:03Z</time>
      </trkpt>
      <trkpt lat="44.47959" lon="2.45295">
        <ele>538</ele>
        <time>2013-01-20T09:38:04Z</time>
      </trkpt>
      <trkpt lat="44.4796" lon="2.45292">
        <ele>538.1</ele>
        <time>2013-01-20T09:38:05Z</time>
      </trkpt>
      <trkpt lat="44.47961" lon="2.45288">
        <ele>538.2</ele>
        <time>2013-01-20T09:38:06Z</time>
      </trkpt>
      <trkpt lat="44.47962" lon="2.45284">
        <ele>538.2</ele>
        <time>2013-01-20T09:38:07Z</time>
      </trkpt>
      <trkpt lat="44.47963" lon="2.4528">
        <ele>538.2</ele>
        <time>2013-01-20T09:38:08Z</time>
      </trkpt>
      <trkpt lat="44.47964" lon="2.45277">
        <ele>538.5</ele>
        <time>2013-01-20T09:38:09Z</time>
      </trkpt>
      <trkpt lat="44.47966" lon="2.45273">
        <ele>538.8</ele>
        <time>2013-01-20T09:38:10Z</time>
      </trkpt>
      <trkpt lat="44.47967" lon="2.45269">
        <ele>538.9</ele>
        <time>2013-01-20T09:38:11Z</time>
      </trkpt>
      <trkpt lat="44.47968" lon="2.45265">
        <ele>539.3</ele>
        <time>2013-01-20T09:38:12Z</time>
      </trkpt>
      <trkpt lat="44.47969" lon="2.45261">
        <ele>539.6</ele>
        <time>2013-01-20T09:38:13Z</time>
      </trkpt>
      <trkpt lat="44.4797" lon="2.45257">
        <ele>539.9</ele>
        <time>2013-01-20T09:38:14Z</time>
      </trkpt>
      <trkpt lat="44.4797" lon="2.45253">
        <ele>539.7</ele>
        <time>2013-01-20T09:38:15Z</time>
      </trkpt>
      <trkpt lat="44.4797" lon="2.45249">
        <ele>539.5</ele>
        <time>2013-01-20T09:38:16Z</time>
      </trkpt>
      <trkpt lat="44.47971" lon="2.45245">
        <ele>539.4</ele>
        <time>2013-01-20T09:38:17Z</time>
      </trkpt>
      <trkpt lat="44.47971" lon="2.45241">
        <ele>539.5</ele>
        <time>2013-01-20T09:38:18Z</time>
      </trkpt>
      <trkpt lat="44.47971" lon="2.45236">
        <ele>539.6</ele>
        <time>2013-01-20T09:38:19Z</time>
      </trkpt>
      <trkpt lat="44.47971" lon="2.45232">
        <ele>539.7</ele>
        <time>2013-01-20T09:38:20Z</time>
      </trkpt>
      <trkpt lat="44.47971" lon="2.45228">
        <ele>539.7</ele>
        <time>2013-01-20T09:38:21Z</time>
      </trkpt>
      <trkpt lat="44.47971" lon="2.45224">
        <ele>539.8</ele>
        <time>2013-01-20T09:38:22Z</time>
      </trkpt>
      <trkpt lat="44.47971" lon="2.45219">
        <ele>539.8</ele>
        <time>2013-01-20T09:38:23Z</time>
      </trkpt>
      <trkpt lat="44.47971" lon="2.45215">
        <ele>539.9</ele>
        <time>2013-01-20T09:38:24Z</time>
      </trkpt>
      <trkpt lat="44.47971" lon="2.45211">
        <ele>539.9</ele>
        <time>2013-01-20T09:38:25Z</time>
      </trkpt>
      <trkpt lat="44.4797" lon="2.45208">
        <ele>539.9</ele>
        <time>2013-01-20T09:38:26Z</time>
      </trkpt>
      <trkpt lat="44.47967" lon="2.45205">
        <ele>539.7</ele>
        <time>2013-01-20T09:38:28Z</time>
      </trkpt>
      <trkpt lat="44.47963" lon="2.45207">
        <ele>539.4</ele>
        <time>2013-01-20T09:38:30Z</time>
      </trkpt>
      <trkpt lat="44.47961" lon="2.4521">
        <ele>540.4</ele>
        <time>2013-01-20T09:38:32Z</time>
      </trkpt>
      <trkpt lat="44.47958" lon="2.45214">
        <ele>541.1</ele>
        <time>2013-01-20T09:38:34Z</time>
      </trkpt>
      <trkpt lat="44.47956" lon="2.45218">
        <ele>541.5</ele>
        <time>2013-01-20T09:38:36Z</time>
      </trkpt>
      <trkpt lat="44.47954" lon="2.45221">
        <ele>542.1</ele>
        <time>2013-01-20T09:38:38Z</time>
      </trkpt>
      <trkpt lat="44.47952" lon="2.45224">
        <ele>542.6</ele>
        <time>2013-01-20T09:38:40Z</time>
      </trkpt>
      <trkpt lat="44.47949" lon="2.45227">
        <ele>542.9</ele>
        <time>2013-01-20T09:38:42Z</time>
      </trkpt>
      <trkpt lat="44.47947" lon="2.4523">
        <ele>543.1</ele>
        <time>2013-01-20T09:38:44Z</time>
      </trkpt>
      <trkpt lat="44.47944" lon="2.45233">
        <ele>543.1</ele>
        <time>2013-01-20T09:38:46Z</time>
      </trkpt>
      <trkpt lat="44.47941" lon="2.45236">
        <ele>544.3</ele>
        <time>2013-01-20T09:38:48Z</time>
      </trkpt>
      <trkpt lat="44.47939" lon="2.45239">
        <ele>544.6</ele>
        <time>2013-01-20T09:38:50Z</time>
      </trkpt>
      <trkpt lat="44.47936" lon="2.45241">
        <ele>544.5</ele>
        <time>2013-01-20T09:38:52Z</time>
      </trkpt>
      <trkpt lat="44.47933" lon="2.45244">
        <ele>545</ele>
        <time>2013-01-20T09:38:54Z</time>
      </trkpt>
      <trkpt lat="44.4793" lon="2.45247">
        <ele>545.5</ele>
        <time>2013-01-20T09:38:56Z</time>
      </trkpt>
      <trkpt lat="44.47929" lon="2.45248">
        <ele>545.7</ele>
        <time>2013-01-20T09:38:57Z</time>
      </trkpt>
      <trkpt lat="44.47925" lon="2.45252">
        <ele>546.3</ele>
        <time>2013-01-20T09:39:00Z</time>
      </trkpt>
      <trkpt lat="44.47922" lon="2.45254">
        <ele>546.6</ele>
        <time>2013-01-20T09:39:02Z</time>
      </trkpt>
      <trkpt lat="44.47919" lon="2.45257">
        <ele>547.2</ele>
        <time>2013-01-20T09:39:04Z</time>
      </trkpt>
      <trkpt lat="44.47916" lon="2.45259">
        <ele>547.6</ele>
        <time>2013-01-20T09:39:06Z</time>
      </trkpt>
      <trkpt lat="44.47913" lon="2.45261">
        <ele>547.9</ele>
        <time>2013-01-20T09:39:08Z</time>
      </trkpt>
      <trkpt lat="44.4791" lon="2.45264">
        <ele>548</ele>
        <time>2013-01-20T09:39:10Z</time>
      </trkpt>
      <trkpt lat="44.47907" lon="2.45265">
        <ele>548.5</ele>
        <time>2013-01-20T09:39:12Z</time>
      </trkpt>
      <trkpt lat="44.47904" lon="2.45266">
        <ele>549.1</ele>
        <time>2013-01-20T09:39:14Z</time>
      </trkpt>
      <trkpt lat="44.479" lon="2.45267">
        <ele>549.3</ele>
        <time>2013-01-20T09:39:16Z</time>
      </trkpt>
      <trkpt lat="44.47897" lon="2.45267">
        <ele>549.3</ele>
        <time>2013-01-20T09:39:18Z</time>
      </trkpt>
      <trkpt lat="44.47894" lon="2.45267">
        <ele>550.3</ele>
        <time>2013-01-20T09:39:20Z</time>
      </trkpt>
      <trkpt lat="44.4789" lon="2.45266">
        <ele>550.8</ele>
        <time>2013-01-20T09:39:22Z</time>
      </trkpt>
      <trkpt lat="44.47887" lon="2.45264">
        <ele>551.2</ele>
        <time>2013-01-20T09:39:24Z</time>
      </trkpt>
      <trkpt lat="44.47885" lon="2.45262">
        <ele>551.2</ele>
        <time>2013-01-20T09:39:26Z</time>
      </trkpt>
      <trkpt lat="44.47882" lon="2.45259">
        <ele>551.7</ele>
        <time>2013-01-20T09:39:28Z</time>
      </trkpt>
      <trkpt lat="44.4788" lon="2.45255">
        <ele>552.4</ele>
        <time>2013-01-20T09:39:30Z</time>
      </trkpt>
      <trkpt lat="44.47878" lon="2.45252">
        <ele>552.5</ele>
        <time>2013-01-20T09:39:32Z</time>
      </trkpt>
      <trkpt lat="44.47876" lon="2.4525">
        <ele>552.5</ele>
        <time>2013-01-20T09:39:34Z</time>
      </trkpt>
      <trkpt lat="44.47872" lon="2.45247">
        <ele>553.2</ele>
        <time>2013-01-20T09:39:37Z</time>
      </trkpt>
      <trkpt lat="44.47868" lon="2.45243">
        <ele>553.3</ele>
        <time>2013-01-20T09:39:40Z</time>
      </trkpt>
      <trkpt lat="44.47865" lon="2.4524">
        <ele>553.9</ele>
        <time>2013-01-20T09:39:43Z</time>
      </trkpt>
      <trkpt lat="44.47862" lon="2.45236">
        <ele>554.5</ele>
        <time>2013-01-20T09:39:46Z</time>
      </trkpt>
      <trkpt lat="44.4786" lon="2.45232">
        <ele>555.3</ele>
        <time>2013-01-20T09:39:49Z</time>
      </trkpt>
      <trkpt lat="44.47858" lon="2.45227">
        <ele>556.4</ele>
        <time>2013-01-20T09:39:52Z</time>
      </trkpt>
      <trkpt lat="44.47856" lon="2.45222">
        <ele>557.4</ele>
        <time>2013-01-20T09:39:55Z</time>
      </trkpt>
      <trkpt lat="44.47856" lon="2.45217">
        <ele>557.8</ele>
        <time>2013-01-20T09:39:58Z</time>
      </trkpt>
      <trkpt lat="44.47856" lon="2.45215">
        <ele>557.9</ele>
        <time>2013-01-20T09:39:59Z</time>
      </trkpt>
      <trkpt lat="44.47855" lon="2.45205">
        <ele>559.7</ele>
        <time>2013-01-20T09:40:04Z</time>
      </trkpt>
      <trkpt lat="44.47855" lon="2.452">
        <ele>560</ele>
        <time>2013-01-20T09:40:07Z</time>
      </trkpt>
      <trkpt lat="44.47855" lon="2.45194">
        <ele>560.5</ele>
        <time>2013-01-20T09:40:10Z</time>
      </trkpt>
      <trkpt lat="44.47855" lon="2.45188">
        <ele>560.9</ele>
        <time>2013-01-20T09:40:13Z</time>
      </trkpt>
      <trkpt lat="44.47856" lon="2.45183">
        <ele>561.4</ele>
        <time>2013-01-20T09:40:16Z</time>
      </trkpt>
      <trkpt lat="44.47855" lon="2.45178">
        <ele>562.1</ele>
        <time>2013-01-20T09:40:19Z</time>
      </trkpt>
      <trkpt lat="44.47855" lon="2.45172">
        <ele>562.6</ele>
        <time>2013-01-20T09:40:22Z</time>
      </trkpt>
      <trkpt lat="44.47856" lon="2.45167">
        <ele>563.9</ele>
        <time>2013-01-20T09:40:25Z</time>
      </trkpt>
      <trkpt lat="44.47856" lon="2.45161">
        <ele>564.8</ele>
        <time>2013-01-20T09:40:28Z</time>
      </trkpt>
      <trkpt lat="44.47856" lon="2.45156">
        <ele>565</ele>
        <time>2013-01-20T09:40:31Z</time>
      </trkpt>
      <trkpt lat="44.47856" lon="2.4515">
        <ele>565.8</ele>
        <time>2013-01-20T09:40:34Z</time>
      </trkpt>
      <trkpt lat="44.47856" lon="2.45145">
        <ele>566.6</ele>
        <time>2013-01-20T09:40:37Z</time>
      </trkpt>
      <trkpt lat="44.47856" lon="2.45139">
        <ele>567.8</ele>
        <time>2013-01-20T09:40:40Z</time>
      </trkpt>
      <trkpt lat="44.47857" lon="2.45134">
        <ele>568.4</ele>
        <time>2013-01-20T09:40:43Z</time>
      </trkpt>
      <trkpt lat="44.47857" lon="2.45129">
        <ele>568.9</ele>
        <time>2013-01-20T09:40:46Z</time>
      </trkpt>
      <trkpt lat="44.47857" lon="2.45124">
        <ele>569.3</ele>
        <time>2013-01-20T09:40:49Z</time>
      </trkpt>
      <trkpt lat="44.47857" lon="2.45118">
        <ele>569.7</ele>
        <time>2013-01-20T09:40:52Z</time>
      </trkpt>
      <trkpt lat="44.47858" lon="2.45114">
        <ele>570.5</ele>
        <time>2013-01-20T09:40:55Z</time>
      </trkpt>
      <trkpt lat="44.47858" lon="2.45108">
        <ele>571.4</ele>
        <time>2013-01-20T09:40:58Z</time>
      </trkpt>
      <trkpt lat="44.47858" lon="2.45102">
        <ele>572.6</ele>
        <time>2013-01-20T09:41:02Z</time>
      </trkpt>
      <trkpt lat="44.47858" lon="2.45101">
        <ele>572.9</ele>
        <time>2013-01-20T09:41:03Z</time>
      </trkpt>
      <trkpt lat="44.47858" lon="2.45092">
        <ele>573.1</ele>
        <time>2013-01-20T09:41:08Z</time>
      </trkpt>
      <trkpt lat="44.47858" lon="2.45086">
        <ele>573.5</ele>
        <time>2013-01-20T09:41:11Z</time>
      </trkpt>
      <trkpt lat="44.47859" lon="2.4508">
        <ele>574.7</ele>
        <time>2013-01-20T09:41:14Z</time>
      </trkpt>
      <trkpt lat="44.47858" lon="2.45074">
        <ele>575.8</ele>
        <time>2013-01-20T09:41:17Z</time>
      </trkpt>
      <trkpt lat="44.47859" lon="2.45069">
        <ele>576.2</ele>
        <time>2013-01-20T09:41:20Z</time>
      </trkpt>
      <trkpt lat="44.47859" lon="2.45064">
        <ele>577.1</ele>
        <time>2013-01-20T09:41:23Z</time>
      </trkpt>
      <trkpt lat="44.47856" lon="2.4506">
        <ele>578.4</ele>
        <time>2013-01-20T09:41:27Z</time>
      </trkpt>
      <trkpt lat="44.47852" lon="2.45062">
        <ele>579.2</ele>
        <time>2013-01-20T09:41:31Z</time>
      </trkpt>
      <trkpt lat="44.4785" lon="2.45064">
        <ele>579.8</ele>
        <time>2013-01-20T09:41:34Z</time>
      </trkpt>
      <trkpt lat="44.47847" lon="2.45067">
        <ele>579.6</ele>
        <time>2013-01-20T09:41:37Z</time>
      </trkpt>
      <trkpt lat="44.47843" lon="2.4507">
        <ele>579.8</ele>
        <time>2013-01-20T09:41:40Z</time>
      </trkpt>
      <trkpt lat="44.4784" lon="2.45074">
        <ele>580</ele>
        <time>2013-01-20T09:41:43Z</time>
      </trkpt>
      <trkpt lat="44.47837" lon="2.45078">
        <ele>580.4</ele>
        <time>2013-01-20T09:41:46Z</time>
      </trkpt>
      <trkpt lat="44.47833" lon="2.45081">
        <ele>581.2</ele>
        <time>2013-01-20T09:41:49Z</time>
      </trkpt>
      <trkpt lat="44.4783" lon="2.45084">
        <ele>581.9</ele>
        <time>2013-01-20T09:41:52Z</time>
      </trkpt>
      <trkpt lat="44.47826" lon="2.45086">
        <ele>582.9</ele>
        <time>2013-01-20T09:41:55Z</time>
      </trkpt>
      <trkpt lat="44.47821" lon="2.45089">
        <ele>584</ele>
        <time>2013-01-20T09:41:58Z</time>
      </trkpt>
      <trkpt lat="44.47818" lon="2.4509">
        <ele>584.2</ele>
        <time>2013-01-20T09:42:00Z</time>
      </trkpt>
      <trkpt lat="44.47816" lon="2.45091">
        <ele>584.4</ele>
        <time>2013-01-20T09:42:02Z</time>
      </trkpt>
      <trkpt lat="44.47813" lon="2.45092">
        <ele>584.4</ele>
        <time>2013-01-20T09:42:04Z</time>
      </trkpt>
      <trkpt lat="44.47811" lon="2.45093">
        <ele>584.6</ele>
        <time>2013-01-20T09:42:05Z</time>
      </trkpt>
      <trkpt lat="44.47807" lon="2.45095">
        <ele>584.8</ele>
        <time>2013-01-20T09:42:08Z</time>
      </trkpt>
      <trkpt lat="44.47804" lon="2.45096">
        <ele>584.6</ele>
        <time>2013-01-20T09:42:10Z</time>
      </trkpt>
      <trkpt lat="44.478" lon="2.45098">
        <ele>585.1</ele>
        <time>2013-01-20T09:42:13Z</time>
      </trkpt>
      <trkpt lat="44.47796" lon="2.45099">
        <ele>585.2</ele>
        <time>2013-01-20T09:42:16Z</time>
      </trkpt>
      <trkpt lat="44.47793" lon="2.45101">
        <ele>586.4</ele>
        <time>2013-01-20T09:42:18Z</time>
      </trkpt>
      <trkpt lat="44.4779" lon="2.45102">
        <ele>587.1</ele>
        <time>2013-01-20T09:42:20Z</time>
      </trkpt>
      <trkpt lat="44.47787" lon="2.45103">
        <ele>586.9</ele>
        <time>2013-01-20T09:42:22Z</time>
      </trkpt>
      <trkpt lat="44.47784" lon="2.45105">
        <ele>587.2</ele>
        <time>2013-01-20T09:42:24Z</time>
      </trkpt>
      <trkpt lat="44.47781" lon="2.45106">
        <ele>587.6</ele>
        <time>2013-01-20T09:42:26Z</time>
      </trkpt>
      <trkpt lat="44.47777" lon="2.45108">
        <ele>587.8</ele>
        <time>2013-01-20T09:42:29Z</time>
      </trkpt>
      <trkpt lat="44.47773" lon="2.45109">
        <ele>588.3</ele>
        <time>2013-01-20T09:42:32Z</time>
      </trkpt>
      <trkpt lat="44.47769" lon="2.4511">
        <ele>589</ele>
        <time>2013-01-20T09:42:35Z</time>
      </trkpt>
      <trkpt lat="44.47765" lon="2.45111">
        <ele>589.5</ele>
        <time>2013-01-20T09:42:38Z</time>
      </trkpt>
      <trkpt lat="44.47761" lon="2.4511">
        <ele>590</ele>
        <time>2013-01-20T09:42:41Z</time>
      </trkpt>
      <trkpt lat="44.47757" lon="2.45108">
        <ele>590.4</ele>
        <time>2013-01-20T09:42:44Z</time>
      </trkpt>
      <trkpt lat="44.47754" lon="2.45104">
        <ele>591.7</ele>
        <time>2013-01-20T09:42:47Z</time>
      </trkpt>
      <trkpt lat="44.47752" lon="2.45099">
        <ele>592.4</ele>
        <time>2013-01-20T09:42:50Z</time>
      </trkpt>
      <trkpt lat="44.47751" lon="2.45093">
        <ele>592.6</ele>
        <time>2013-01-20T09:42:53Z</time>
      </trkpt>
      <trkpt lat="44.47751" lon="2.45087">
        <ele>592.7</ele>
        <time>2013-01-20T09:42:56Z</time>
      </trkpt>
      <trkpt lat="44.4775" lon="2.45082">
        <ele>593.3</ele>
        <time>2013-01-20T09:42:59Z</time>
      </trkpt>
      <trkpt lat="44.4775" lon="2.45076">
        <ele>593.8</ele>
        <time>2013-01-20T09:43:02Z</time>
      </trkpt>
      <trkpt lat="44.4775" lon="2.45071">
        <ele>594.4</ele>
        <time>2013-01-20T09:43:05Z</time>
      </trkpt>
      <trkpt lat="44.4775" lon="2.45069">
        <ele>594.8</ele>
        <time>2013-01-20T09:43:06Z</time>
      </trkpt>
      <trkpt lat="44.47749" lon="2.4506">
        <ele>595.5</ele>
        <time>2013-01-20T09:43:11Z</time>
      </trkpt>
      <trkpt lat="44.47749" lon="2.45054">
        <ele>596.1</ele>
        <time>2013-01-20T09:43:14Z</time>
      </trkpt>
      <trkpt lat="44.47749" lon="2.45049">
        <ele>597.3</ele>
        <time>2013-01-20T09:43:17Z</time>
      </trkpt>
      <trkpt lat="44.47749" lon="2.45043">
        <ele>597.3</ele>
        <time>2013-01-20T09:43:20Z</time>
      </trkpt>
      <trkpt lat="44.47749" lon="2.45038">
        <ele>597.9</ele>
        <time>2013-01-20T09:43:23Z</time>
      </trkpt>
      <trkpt lat="44.47748" lon="2.45033">
        <ele>597.9</ele>
        <time>2013-01-20T09:43:26Z</time>
      </trkpt>
      <trkpt lat="44.47748" lon="2.45028">
        <ele>598.9</ele>
        <time>2013-01-20T09:43:29Z</time>
      </trkpt>
      <trkpt lat="44.47748" lon="2.45023">
        <ele>599.8</ele>
        <time>2013-01-20T09:43:32Z</time>
      </trkpt>
      <trkpt lat="44.47748" lon="2.45018">
        <ele>600.7</ele>
        <time>2013-01-20T09:43:35Z</time>
      </trkpt>
      <trkpt lat="44.47748" lon="2.45013">
        <ele>601.5</ele>
        <time>2013-01-20T09:43:38Z</time>
      </trkpt>
      <trkpt lat="44.47747" lon="2.45007">
        <ele>601.5</ele>
        <time>2013-01-20T09:43:41Z</time>
      </trkpt>
      <trkpt lat="44.47745" lon="2.45002">
        <ele>602.4</ele>
        <time>2013-01-20T09:43:45Z</time>
      </trkpt>
      <trkpt lat="44.47743" lon="2.44997">
        <ele>603.3</ele>
        <time>2013-01-20T09:45:20Z</time>
      </trkpt>
      <trkpt lat="44.47743" lon="2.44997">
        <ele>603.1</ele>
        <time>2013-01-20T09:45:21Z</time>
      </trkpt>
      <trkpt lat="44.47741" lon="2.44986">
        <ele>603.4</ele>
        <time>2013-01-20T09:45:36Z</time>
      </trkpt>
      <trkpt lat="44.4774" lon="2.4498">
        <ele>603.3</ele>
        <time>2013-01-20T09:45:39Z</time>
      </trkpt>
      <trkpt lat="44.47739" lon="2.44976">
        <ele>603.6</ele>
        <time>2013-01-20T09:45:41Z</time>
      </trkpt>
      <trkpt lat="44.47738" lon="2.44972">
        <ele>604.2</ele>
        <time>2013-01-20T09:45:43Z</time>
      </trkpt>
      <trkpt lat="44.47737" lon="2.44967">
        <ele>604.3</ele>
        <time>2013-01-20T09:45:45Z</time>
      </trkpt>
      <trkpt lat="44.47736" lon="2.44963">
        <ele>604.1</ele>
        <time>2013-01-20T09:45:47Z</time>
      </trkpt>
      <trkpt lat="44.47735" lon="2.44959">
        <ele>604.7</ele>
        <time>2013-01-20T09:45:49Z</time>
      </trkpt>
      <trkpt lat="44.47735" lon="2.44954">
        <ele>605.3</ele>
        <time>2013-01-20T09:45:51Z</time>
      </trkpt>
      <trkpt lat="44.47733" lon="2.44948">
        <ele>606</ele>
        <time>2013-01-20T09:45:54Z</time>
      </trkpt>
      <trkpt lat="44.47732" lon="2.44942">
        <ele>606.4</ele>
        <time>2013-01-20T09:45:57Z</time>
      </trkpt>
      <trkpt lat="44.47731" lon="2.44936">
        <ele>607.3</ele>
        <time>2013-01-20T09:46:00Z</time>
      </trkpt>
      <trkpt lat="44.4773" lon="2.44932">
        <ele>608.3</ele>
        <time>2013-01-20T09:46:02Z</time>
      </trkpt>
      <trkpt lat="44.47729" lon="2.44926">
        <ele>609</ele>
        <time>2013-01-20T09:46:05Z</time>
      </trkpt>
      <trkpt lat="44.47729" lon="2.44922">
        <ele>609.4</ele>
        <time>2013-01-20T09:46:07Z</time>
      </trkpt>
      <trkpt lat="44.47728" lon="2.44918">
        <ele>609.7</ele>
        <time>2013-01-20T09:46:09Z</time>
      </trkpt>
      <trkpt lat="44.47728" lon="2.44913">
        <ele>610.3</ele>
        <time>2013-01-20T09:46:11Z</time>
      </trkpt>
      <trkpt lat="44.47727" lon="2.44907">
        <ele>610.8</ele>
        <time>2013-01-20T09:46:14Z</time>
      </trkpt>
      <trkpt lat="44.47726" lon="2.44901">
        <ele>611</ele>
        <time>2013-01-20T09:46:17Z</time>
      </trkpt>
      <trkpt lat="44.47726" lon="2.44895">
        <ele>611.2</ele>
        <time>2013-01-20T09:46:20Z</time>
      </trkpt>
      <trkpt lat="44.47725" lon="2.44889">
        <ele>611.9</ele>
        <time>2013-01-20T09:46:23Z</time>
      </trkpt>
      <trkpt lat="44.47725" lon="2.44887">
        <ele>612.2</ele>
        <time>2013-01-20T09:46:24Z</time>
      </trkpt>
      <trkpt lat="44.47724" lon="2.44877">
        <ele>613</ele>
        <time>2013-01-20T09:46:29Z</time>
      </trkpt>
      <trkpt lat="44.47723" lon="2.44871">
        <ele>612.9</ele>
        <time>2013-01-20T09:46:32Z</time>
      </trkpt>
      <trkpt lat="44.47723" lon="2.44866">
        <ele>614</ele>
        <time>2013-01-20T09:46:35Z</time>
      </trkpt>
      <trkpt lat="44.47722" lon="2.4486">
        <ele>615.4</ele>
        <time>2013-01-20T09:46:38Z</time>
      </trkpt>
      <trkpt lat="44.47722" lon="2.44855">
        <ele>615.7</ele>
        <time>2013-01-20T09:46:41Z</time>
      </trkpt>
      <trkpt lat="44.47721" lon="2.4485">
        <ele>616.7</ele>
        <time>2013-01-20T09:46:44Z</time>
      </trkpt>
      <trkpt lat="44.4772" lon="2.44844">
        <ele>616.9</ele>
        <time>2013-01-20T09:46:47Z</time>
      </trkpt>
      <trkpt lat="44.4772" lon="2.44839">
        <ele>617.4</ele>
        <time>2013-01-20T09:46:50Z</time>
      </trkpt>
      <trkpt lat="44.47719" lon="2.44833">
        <ele>617.9</ele>
        <time>2013-01-20T09:46:53Z</time>
      </trkpt>
      <trkpt lat="44.47718" lon="2.44828">
        <ele>618.3</ele>
        <time>2013-01-20T09:46:55Z</time>
      </trkpt>
      <trkpt lat="44.47717" lon="2.44824">
        <ele>618.7</ele>
        <time>2013-01-20T09:46:57Z</time>
      </trkpt>
      <trkpt lat="44.47717" lon="2.4482">
        <ele>619.9</ele>
        <time>2013-01-20T09:46:59Z</time>
      </trkpt>
      <trkpt lat="44.47715" lon="2.44814">
        <ele>621</ele>
        <time>2013-01-20T09:47:02Z</time>
      </trkpt>
      <trkpt lat="44.47714" lon="2.44809">
        <ele>621</ele>
        <time>2013-01-20T09:47:05Z</time>
      </trkpt>
      <trkpt lat="44.47714" lon="2.44803">
        <ele>620.8</ele>
        <time>2013-01-20T09:47:08Z</time>
      </trkpt>
      <trkpt lat="44.47713" lon="2.44798">
        <ele>621.6</ele>
        <time>2013-01-20T09:47:11Z</time>
      </trkpt>
      <trkpt lat="44.47712" lon="2.44792">
        <ele>622.5</ele>
        <time>2013-01-20T09:47:14Z</time>
      </trkpt>
      <trkpt lat="44.47712" lon="2.44786">
        <ele>623</ele>
        <time>2013-01-20T09:47:17Z</time>
      </trkpt>
      <trkpt lat="44.47711" lon="2.4478">
        <ele>623.3</ele>
        <time>2013-01-20T09:47:20Z</time>
      </trkpt>
      <trkpt lat="44.47711" lon="2.44775">
        <ele>623.9</ele>
        <time>2013-01-20T09:47:23Z</time>
      </trkpt>
      <trkpt lat="44.47712" lon="2.44769">
        <ele>624.5</ele>
        <time>2013-01-20T09:47:26Z</time>
      </trkpt>
      <trkpt lat="44.47711" lon="2.44767">
        <ele>624.8</ele>
        <time>2013-01-20T09:47:27Z</time>
      </trkpt>
      <trkpt lat="44.47711" lon="2.44757">
        <ele>626</ele>
        <time>2013-01-20T09:47:32Z</time>
      </trkpt>
      <trkpt lat="44.47711" lon="2.44752">
        <ele>626.8</ele>
        <time>2013-01-20T09:47:35Z</time>
      </trkpt>
      <trkpt lat="44.47712" lon="2.44746">
        <ele>627.2</ele>
        <time>2013-01-20T09:47:38Z</time>
      </trkpt>
      <trkpt lat="44.47712" lon="2.4474">
        <ele>628.1</ele>
        <time>2013-01-20T09:47:41Z</time>
      </trkpt>
      <trkpt lat="44.47711" lon="2.44735">
        <ele>628.5</ele>
        <time>2013-01-20T09:47:44Z</time>
      </trkpt>
      <trkpt lat="44.47711" lon="2.4473">
        <ele>629.1</ele>
        <time>2013-01-20T09:47:48Z</time>
      </trkpt>
      <trkpt lat="44.47711" lon="2.44724">
        <ele>630.4</ele>
        <time>2013-01-20T09:47:52Z</time>
      </trkpt>
      <trkpt lat="44.47712" lon="2.44718">
        <ele>631</ele>
        <time>2013-01-20T09:47:56Z</time>
      </trkpt>
      <trkpt lat="44.47713" lon="2.44713">
        <ele>631.3</ele>
        <time>2013-01-20T09:48:00Z</time>
      </trkpt>
      <trkpt lat="44.47715" lon="2.44707">
        <ele>632.5</ele>
        <time>2013-01-20T09:48:05Z</time>
      </trkpt>
      <trkpt lat="44.47715" lon="2.44702">
        <ele>634.1</ele>
        <time>2013-01-20T09:48:09Z</time>
      </trkpt>
      <trkpt lat="44.47716" lon="2.44696">
        <ele>634.4</ele>
        <time>2013-01-20T09:48:13Z</time>
      </trkpt>
      <trkpt lat="44.47718" lon="2.44691">
        <ele>635</ele>
        <time>2013-01-20T09:48:17Z</time>
      </trkpt>
      <trkpt lat="44.4772" lon="2.44686">
        <ele>634.9</ele>
        <time>2013-01-20T09:48:20Z</time>
      </trkpt>
      <trkpt lat="44.47723" lon="2.44683">
        <ele>636</ele>
        <time>2013-01-20T09:48:23Z</time>
      </trkpt>
      <trkpt lat="44.47726" lon="2.4468">
        <ele>635.3</ele>
        <time>2013-01-20T09:48:26Z</time>
      </trkpt>
      <trkpt lat="44.47729" lon="2.44678">
        <ele>635.8</ele>
        <time>2013-01-20T09:48:29Z</time>
      </trkpt>
      <trkpt lat="44.4773" lon="2.44677">
        <ele>636.1</ele>
        <time>2013-01-20T09:48:30Z</time>
      </trkpt>
      <trkpt lat="44.47735" lon="2.44672">
        <ele>637.5</ele>
        <time>2013-01-20T09:48:35Z</time>
      </trkpt>
      <trkpt lat="44.47737" lon="2.44668">
        <ele>637.9</ele>
        <time>2013-01-20T09:48:38Z</time>
      </trkpt>
      <trkpt lat="44.47738" lon="2.44663">
        <ele>638.4</ele>
        <time>2013-01-20T09:48:41Z</time>
      </trkpt>
      <trkpt lat="44.4774" lon="2.44659">
        <ele>638.5</ele>
        <time>2013-01-20T09:48:44Z</time>
      </trkpt>
      <trkpt lat="44.47741" lon="2.44653">
        <ele>639.1</ele>
        <time>2013-01-20T09:48:47Z</time>
      </trkpt>
      <trkpt lat="44.47742" lon="2.44647">
        <ele>640.1</ele>
        <time>2013-01-20T09:48:50Z</time>
      </trkpt>
      <trkpt lat="44.47743" lon="2.44641">
        <ele>640.6</ele>
        <time>2013-01-20T09:48:53Z</time>
      </trkpt>
      <trkpt lat="44.47744" lon="2.44635">
        <ele>641.3</ele>
        <time>2013-01-20T09:48:56Z</time>
      </trkpt>
      <trkpt lat="44.47745" lon="2.44631">
        <ele>641.7</ele>
        <time>2013-01-20T09:48:58Z</time>
      </trkpt>
      <trkpt lat="44.47746" lon="2.44625">
        <ele>642.9</ele>
        <time>2013-01-20T09:49:01Z</time>
      </trkpt>
      <trkpt lat="44.47747" lon="2.44621">
        <ele>643.6</ele>
        <time>2013-01-20T09:49:04Z</time>
      </trkpt>
      <trkpt lat="44.47748" lon="2.44615">
        <ele>644.6</ele>
        <time>2013-01-20T09:49:08Z</time>
      </trkpt>
      <trkpt lat="44.4775" lon="2.4461">
        <ele>644.9</ele>
        <time>2013-01-20T09:49:12Z</time>
      </trkpt>
      <trkpt lat="44.47751" lon="2.44604">
        <ele>645.8</ele>
        <time>2013-01-20T09:49:17Z</time>
      </trkpt>
      <trkpt lat="44.47754" lon="2.44599">
        <ele>645.1</ele>
        <time>2013-01-20T09:49:23Z</time>
      </trkpt>
      <trkpt lat="44.47755" lon="2.44594">
        <ele>645.5</ele>
        <time>2013-01-20T09:49:26Z</time>
      </trkpt>
      <trkpt lat="44.47757" lon="2.44588">
        <ele>647.1</ele>
        <time>2013-01-20T09:49:30Z</time>
      </trkpt>
      <trkpt lat="44.47758" lon="2.44587">
        <ele>647.3</ele>
        <time>2013-01-20T09:49:31Z</time>
      </trkpt>
      <trkpt lat="44.47761" lon="2.44579">
        <ele>648.4</ele>
        <time>2013-01-20T09:49:38Z</time>
      </trkpt>
      <trkpt lat="44.47763" lon="2.44574">
        <ele>648.9</ele>
        <time>2013-01-20T09:49:41Z</time>
      </trkpt>
      <trkpt lat="44.47765" lon="2.44568">
        <ele>649.9</ele>
        <time>2013-01-20T09:49:45Z</time>
      </trkpt>
      <trkpt lat="44.47766" lon="2.44564">
        <ele>650.3</ele>
        <time>2013-01-20T09:49:48Z</time>
      </trkpt>
      <trkpt lat="44.47767" lon="2.44559">
        <ele>650.5</ele>
        <time>2013-01-20T09:49:51Z</time>
      </trkpt>
      <trkpt lat="44.47769" lon="2.44553">
        <ele>651.4</ele>
        <time>2013-01-20T09:49:55Z</time>
      </trkpt>
      <trkpt lat="44.4777" lon="2.44548">
        <ele>651.7</ele>
        <time>2013-01-20T09:49:59Z</time>
      </trkpt>
      <trkpt lat="44.47771" lon="2.44543">
        <ele>652.3</ele>
        <time>2013-01-20T09:50:03Z</time>
      </trkpt>
      <trkpt lat="44.47773" lon="2.44537">
        <ele>652.7</ele>
        <time>2013-01-20T09:50:07Z</time>
      </trkpt>
      <trkpt lat="44.47775" lon="2.44532">
        <ele>653.1</ele>
        <time>2013-01-20T09:50:12Z</time>
      </trkpt>
      <trkpt lat="44.47777" lon="2.44527">
        <ele>653.5</ele>
        <time>2013-01-20T09:50:16Z</time>
      </trkpt>
      <trkpt lat="44.47778" lon="2.44521">
        <ele>654.4</ele>
        <time>2013-01-20T09:50:20Z</time>
      </trkpt>
      <trkpt lat="44.47779" lon="2.44517">
        <ele>654.8</ele>
        <time>2013-01-20T09:50:23Z</time>
      </trkpt>
      <trkpt lat="44.47779" lon="2.44511">
        <ele>655.1</ele>
        <time>2013-01-20T09:50:27Z</time>
      </trkpt>
      <trkpt lat="44.47779" lon="2.44505">
        <ele>655.3</ele>
        <time>2013-01-20T09:50:31Z</time>
      </trkpt>
      <trkpt lat="44.47779" lon="2.44504">
        <ele>655.3</ele>
        <time>2013-01-20T09:50:32Z</time>
      </trkpt>
      <trkpt lat="44.47779" lon="2.44494">
        <ele>656.9</ele>
        <time>2013-01-20T09:50:39Z</time>
      </trkpt>
      <trkpt lat="44.4778" lon="2.44488">
        <ele>657.5</ele>
        <time>2013-01-20T09:50:43Z</time>
      </trkpt>
      <trkpt lat="44.4778" lon="2.44483">
        <ele>657.8</ele>
        <time>2013-01-20T09:50:47Z</time>
      </trkpt>
      <trkpt lat="44.47782" lon="2.44477">
        <ele>658.1</ele>
        <time>2013-01-20T09:50:52Z</time>
      </trkpt>
      <trkpt lat="44.47783" lon="2.44471">
        <ele>659</ele>
        <time>2013-01-20T09:50:57Z</time>
      </trkpt>
      <trkpt lat="44.47784" lon="2.44466">
        <ele>658.9</ele>
        <time>2013-01-20T09:51:01Z</time>
      </trkpt>
      <trkpt lat="44.47785" lon="2.44461">
        <ele>658.7</ele>
        <time>2013-01-20T09:51:05Z</time>
      </trkpt>
      <trkpt lat="44.47786" lon="2.44455">
        <ele>659.9</ele>
        <time>2013-01-20T09:51:09Z</time>
      </trkpt>
      <trkpt lat="44.47787" lon="2.4445">
        <ele>660.8</ele>
        <time>2013-01-20T09:51:13Z</time>
      </trkpt>
      <trkpt lat="44.47787" lon="2.44444">
        <ele>661.3</ele>
        <time>2013-01-20T09:51:18Z</time>
      </trkpt>
      <trkpt lat="44.47787" lon="2.44439">
        <ele>661.7</ele>
        <time>2013-01-20T09:51:22Z</time>
      </trkpt>
      <trkpt lat="44.47787" lon="2.44433">
        <ele>661.7</ele>
        <time>2013-01-20T09:51:26Z</time>
      </trkpt>
      <trkpt lat="44.47788" lon="2.44428">
        <ele>662.5</ele>
        <time>2013-01-20T09:51:30Z</time>
      </trkpt>
      <trkpt lat="44.47788" lon="2.44421">
        <ele>662.9</ele>
        <time>2013-01-20T09:51:34Z</time>
      </trkpt>
      <trkpt lat="44.47789" lon="2.4442">
        <ele>663</ele>
        <time>2013-01-20T09:51:35Z</time>
      </trkpt>
      <trkpt lat="44.4779" lon="2.4441">
        <ele>664.7</ele>
        <time>2013-01-20T09:51:43Z</time>
      </trkpt>
      <trkpt lat="44.4779" lon="2.44404">
        <ele>665</ele>
        <time>2013-01-20T09:51:48Z</time>
      </trkpt>
      <trkpt lat="44.4779" lon="2.44399">
        <ele>664.6</ele>
        <time>2013-01-20T09:51:51Z</time>
      </trkpt>
      <trkpt lat="44.47791" lon="2.44394">
        <ele>665</ele>
        <time>2013-01-20T09:51:54Z</time>
      </trkpt>
      <trkpt lat="44.47792" lon="2.44389">
        <ele>665.1</ele>
        <time>2013-01-20T09:51:57Z</time>
      </trkpt>
      <trkpt lat="44.47793" lon="2.44383">
        <ele>664.6</ele>
        <time>2013-01-20T09:52:00Z</time>
      </trkpt>
      <trkpt lat="44.47794" lon="2.44377">
        <ele>664.8</ele>
        <time>2013-01-20T09:52:03Z</time>
      </trkpt>
      <trkpt lat="44.47795" lon="2.44371">
        <ele>666</ele>
        <time>2013-01-20T09:52:06Z</time>
      </trkpt>
      <trkpt lat="44.47796" lon="2.44366">
        <ele>666.8</ele>
        <time>2013-01-20T09:52:09Z</time>
      </trkpt>
      <trkpt lat="44.47797" lon="2.44361">
        <ele>667.9</ele>
        <time>2013-01-20T09:52:12Z</time>
      </trkpt>
      <trkpt lat="44.47798" lon="2.44355">
        <ele>668.1</ele>
        <time>2013-01-20T09:52:15Z</time>
      </trkpt>
      <trkpt lat="44.47799" lon="2.44349">
        <ele>668.2</ele>
        <time>2013-01-20T09:52:18Z</time>
      </trkpt>
      <trkpt lat="44.47799" lon="2.44343">
        <ele>668.9</ele>
        <time>2013-01-20T09:52:21Z</time>
      </trkpt>
      <trkpt lat="44.47801" lon="2.44338">
        <ele>669.3</ele>
        <time>2013-01-20T09:52:24Z</time>
      </trkpt>
      <trkpt lat="44.47802" lon="2.44333">
        <ele>669.3</ele>
        <time>2013-01-20T09:52:27Z</time>
      </trkpt>
      <trkpt lat="44.47802" lon="2.44329">
        <ele>669.6</ele>
        <time>2013-01-20T09:52:30Z</time>
      </trkpt>
      <trkpt lat="44.47803" lon="2.44323">
        <ele>669.6</ele>
        <time>2013-01-20T09:52:33Z</time>
      </trkpt>
      <trkpt lat="44.47804" lon="2.44318">
        <ele>669.9</ele>
        <time>2013-01-20T09:52:36Z</time>
      </trkpt>
      <trkpt lat="44.47804" lon="2.44317">
        <ele>670.2</ele>
        <time>2013-01-20T09:52:37Z</time>
      </trkpt>
      <trkpt lat="44.47806" lon="2.44307">
        <ele>671</ele>
        <time>2013-01-20T09:52:44Z</time>
      </trkpt>
      <trkpt lat="44.47806" lon="2.44302">
        <ele>671.6</ele>
        <time>2013-01-20T09:52:48Z</time>
      </trkpt>
      <trkpt lat="44.47807" lon="2.44297">
        <ele>671.8</ele>
        <time>2013-01-20T09:52:52Z</time>
      </trkpt>
      <trkpt lat="44.47808" lon="2.44292">
        <ele>672.8</ele>
        <time>2013-01-20T09:52:55Z</time>
      </trkpt>
      <trkpt lat="44.47808" lon="2.44286">
        <ele>673.4</ele>
        <time>2013-01-20T09:52:59Z</time>
      </trkpt>
      <trkpt lat="44.47808" lon="2.44281">
        <ele>673.9</ele>
        <time>2013-01-20T09:53:03Z</time>
      </trkpt>
      <trkpt lat="44.47809" lon="2.44275">
        <ele>674.4</ele>
        <time>2013-01-20T09:53:07Z</time>
      </trkpt>
      <trkpt lat="44.4781" lon="2.44269">
        <ele>675.4</ele>
        <time>2013-01-20T09:53:11Z</time>
      </trkpt>
      <trkpt lat="44.47811" lon="2.44263">
        <ele>675.5</ele>
        <time>2013-01-20T09:53:15Z</time>
      </trkpt>
      <trkpt lat="44.47812" lon="2.44258">
        <ele>675.1</ele>
        <time>2013-01-20T09:53:18Z</time>
      </trkpt>
      <trkpt lat="44.47812" lon="2.44252">
        <ele>675.2</ele>
        <time>2013-01-20T09:53:21Z</time>
      </trkpt>
      <trkpt lat="44.47813" lon="2.44247">
        <ele>675.9</ele>
        <time>2013-01-20T09:53:24Z</time>
      </trkpt>
      <trkpt lat="44.47813" lon="2.44243">
        <ele>675.8</ele>
        <time>2013-01-20T09:53:27Z</time>
      </trkpt>
      <trkpt lat="44.47814" lon="2.44238">
        <ele>676.6</ele>
        <time>2013-01-20T09:53:30Z</time>
      </trkpt>
      <trkpt lat="44.47814" lon="2.44232">
        <ele>676.5</ele>
        <time>2013-01-20T09:53:33Z</time>
      </trkpt>
      <trkpt lat="44.47814" lon="2.44226">
        <ele>677.2</ele>
        <time>2013-01-20T09:53:36Z</time>
      </trkpt>
      <trkpt lat="44.47815" lon="2.44221">
        <ele>677.8</ele>
        <time>2013-01-20T09:53:39Z</time>
      </trkpt>
      <trkpt lat="44.47815" lon="2.44219">
        <ele>677.9</ele>
        <time>2013-01-20T09:53:40Z</time>
      </trkpt>
      <trkpt lat="44.47815" lon="2.4421">
        <ele>678.6</ele>
        <time>2013-01-20T09:53:44Z</time>
      </trkpt>
      <trkpt lat="44.47817" lon="2.44205">
        <ele>678.7</ele>
        <time>2013-01-20T09:53:47Z</time>
      </trkpt>
      <trkpt lat="44.47818" lon="2.442">
        <ele>679.4</ele>
        <time>2013-01-20T09:53:50Z</time>
      </trkpt>
      <trkpt lat="44.47819" lon="2.44195">
        <ele>679.9</ele>
        <time>2013-01-20T09:53:53Z</time>
      </trkpt>
      <trkpt lat="44.47819" lon="2.44189">
        <ele>679.6</ele>
        <time>2013-01-20T09:53:56Z</time>
      </trkpt>
      <trkpt lat="44.4782" lon="2.44184">
        <ele>680.6</ele>
        <time>2013-01-20T09:53:59Z</time>
      </trkpt>
      <trkpt lat="44.47822" lon="2.44178">
        <ele>680.8</ele>
        <time>2013-01-20T09:54:02Z</time>
      </trkpt>
      <trkpt lat="44.47823" lon="2.44173">
        <ele>680.7</ele>
        <time>2013-01-20T09:54:05Z</time>
      </trkpt>
      <trkpt lat="44.47823" lon="2.44167">
        <ele>680.9</ele>
        <time>2013-01-20T09:54:08Z</time>
      </trkpt>
      <trkpt lat="44.47824" lon="2.44161">
        <ele>681.8</ele>
        <time>2013-01-20T09:54:11Z</time>
      </trkpt>
      <trkpt lat="44.47825" lon="2.44156">
        <ele>682.3</ele>
        <time>2013-01-20T09:54:14Z</time>
      </trkpt>
      <trkpt lat="44.47826" lon="2.44149">
        <ele>683</ele>
        <time>2013-01-20T09:54:17Z</time>
      </trkpt>
      <trkpt lat="44.47827" lon="2.44143">
        <ele>683.3</ele>
        <time>2013-01-20T09:54:20Z</time>
      </trkpt>
      <trkpt lat="44.47828" lon="2.44138">
        <ele>683.2</ele>
        <time>2013-01-20T09:54:23Z</time>
      </trkpt>
      <trkpt lat="44.47829" lon="2.44133">
        <ele>683.8</ele>
        <time>2013-01-20T09:54:26Z</time>
      </trkpt>
      <trkpt lat="44.4783" lon="2.44128">
        <ele>683.9</ele>
        <time>2013-01-20T09:54:28Z</time>
      </trkpt>
      <trkpt lat="44.47831" lon="2.44124">
        <ele>683.8</ele>
        <time>2013-01-20T09:54:30Z</time>
      </trkpt>
      <trkpt lat="44.47831" lon="2.44119">
        <ele>683.8</ele>
        <time>2013-01-20T09:54:32Z</time>
      </trkpt>
      <trkpt lat="44.47832" lon="2.44115">
        <ele>684</ele>
        <time>2013-01-20T09:54:34Z</time>
      </trkpt>
      <trkpt lat="44.47833" lon="2.44111">
        <ele>684.1</ele>
        <time>2013-01-20T09:54:36Z</time>
      </trkpt>
      <trkpt lat="44.47833" lon="2.44106">
        <ele>684.4</ele>
        <time>2013-01-20T09:54:38Z</time>
      </trkpt>
      <trkpt lat="44.47834" lon="2.44101">
        <ele>684.7</ele>
        <time>2013-01-20T09:54:40Z</time>
      </trkpt>
      <trkpt lat="44.47834" lon="2.44099">
        <ele>684.7</ele>
        <time>2013-01-20T09:54:41Z</time>
      </trkpt>
      <trkpt lat="44.47836" lon="2.44092">
        <ele>684.7</ele>
        <time>2013-01-20T09:54:44Z</time>
      </trkpt>
      <trkpt lat="44.47837" lon="2.44088">
        <ele>684.8</ele>
        <time>2013-01-20T09:54:46Z</time>
      </trkpt>
      <trkpt lat="44.47837" lon="2.44083">
        <ele>684.3</ele>
        <time>2013-01-20T09:54:48Z</time>
      </trkpt>
      <trkpt lat="44.47838" lon="2.44079">
        <ele>683.9</ele>
        <time>2013-01-20T09:54:50Z</time>
      </trkpt>
      <trkpt lat="44.47839" lon="2.44075">
        <ele>684.7</ele>
        <time>2013-01-20T09:54:52Z</time>
      </trkpt>
      <trkpt lat="44.4784" lon="2.4407">
        <ele>685.3</ele>
        <time>2013-01-20T09:54:54Z</time>
      </trkpt>
      <trkpt lat="44.4784" lon="2.44066">
        <ele>685.8</ele>
        <time>2013-01-20T09:54:56Z</time>
      </trkpt>
      <trkpt lat="44.47841" lon="2.44062">
        <ele>685.8</ele>
        <time>2013-01-20T09:54:58Z</time>
      </trkpt>
      <trkpt lat="44.47842" lon="2.44058">
        <ele>685.7</ele>
        <time>2013-01-20T09:55:00Z</time>
      </trkpt>
      <trkpt lat="44.47843" lon="2.44052">
        <ele>685.6</ele>
        <time>2013-01-20T09:55:03Z</time>
      </trkpt>
      <trkpt lat="44.47844" lon="2.44046">
        <ele>685.9</ele>
        <time>2013-01-20T09:55:06Z</time>
      </trkpt>
      <trkpt lat="44.47846" lon="2.4404">
        <ele>686.7</ele>
        <time>2013-01-20T09:55:09Z</time>
      </trkpt>
      <trkpt lat="44.47846" lon="2.44035">
        <ele>686.8</ele>
        <time>2013-01-20T09:55:12Z</time>
      </trkpt>
      <trkpt lat="44.47847" lon="2.44029">
        <ele>687</ele>
        <time>2013-01-20T09:55:15Z</time>
      </trkpt>
      <trkpt lat="44.47849" lon="2.44024">
        <ele>687</ele>
        <time>2013-01-20T09:55:18Z</time>
      </trkpt>
      <trkpt lat="44.47851" lon="2.44019">
        <ele>686.9</ele>
        <time>2013-01-20T09:55:21Z</time>
      </trkpt>
      <trkpt lat="44.47853" lon="2.44014">
        <ele>687.6</ele>
        <time>2013-01-20T09:55:43Z</time>
      </trkpt>
      <trkpt lat="44.47853" lon="2.44014">
        <ele>687.5</ele>
        <time>2013-01-20T09:55:44Z</time>
      </trkpt>
      <trkpt lat="44.47859" lon="2.44015">
        <ele>685.4</ele>
        <time>2013-01-20T10:02:33Z</time>
      </trkpt>
      <trkpt lat="44.47864" lon="2.4402">
        <ele>685.3</ele>
        <time>2013-01-20T10:02:37Z</time>
      </trkpt>
      <trkpt lat="44.47868" lon="2.4402">
        <ele>685.5</ele>
        <time>2013-01-20T10:02:39Z</time>
      </trkpt>
      <trkpt lat="44.4787" lon="2.4402">
        <ele>685.7</ele>
        <time>2013-01-20T10:02:40Z</time>
      </trkpt>
      <trkpt lat="44.47873" lon="2.44019">
        <ele>685.8</ele>
        <time>2013-01-20T10:02:41Z</time>
      </trkpt>
      <trkpt lat="44.47876" lon="2.44018">
        <ele>685.8</ele>
        <time>2013-01-20T10:02:42Z</time>
      </trkpt>
      <trkpt lat="44.47878" lon="2.44016">
        <ele>685.8</ele>
        <time>2013-01-20T10:02:43Z</time>
      </trkpt>
      <trkpt lat="44.47881" lon="2.44014">
        <ele>685.7</ele>
        <time>2013-01-20T10:02:44Z</time>
      </trkpt>
      <trkpt lat="44.47883" lon="2.44012">
        <ele>685.6</ele>
        <time>2013-01-20T10:02:45Z</time>
      </trkpt>
      <trkpt lat="44.47886" lon="2.44009">
        <ele>685.2</ele>
        <time>2013-01-20T10:02:46Z</time>
      </trkpt>
      <trkpt lat="44.47888" lon="2.44007">
        <ele>684.9</ele>
        <time>2013-01-20T10:02:47Z</time>
      </trkpt>
      <trkpt lat="44.47891" lon="2.44005">
        <ele>684.7</ele>
        <time>2013-01-20T10:02:48Z</time>
      </trkpt>
      <trkpt lat="44.47894" lon="2.44002">
        <ele>684.1</ele>
        <time>2013-01-20T10:02:49Z</time>
      </trkpt>
      <trkpt lat="44.47896" lon="2.43999">
        <ele>683.7</ele>
        <time>2013-01-20T10:02:50Z</time>
      </trkpt>
      <trkpt lat="44.479" lon="2.43996">
        <ele>683.4</ele>
        <time>2013-01-20T10:02:51Z</time>
      </trkpt>
      <trkpt lat="44.47903" lon="2.43993">
        <ele>683.2</ele>
        <time>2013-01-20T10:02:52Z</time>
      </trkpt>
      <trkpt lat="44.47906" lon="2.4399">
        <ele>682.8</ele>
        <time>2013-01-20T10:02:53Z</time>
      </trkpt>
      <trkpt lat="44.4791" lon="2.43987">
        <ele>682.6</ele>
        <time>2013-01-20T10:02:54Z</time>
      </trkpt>
      <trkpt lat="44.47913" lon="2.43983">
        <ele>682.4</ele>
        <time>2013-01-20T10:02:55Z</time>
      </trkpt>
      <trkpt lat="44.47917" lon="2.43979">
        <ele>681.9</ele>
        <time>2013-01-20T10:02:56Z</time>
      </trkpt>
      <trkpt lat="44.47921" lon="2.43976">
        <ele>681.6</ele>
        <time>2013-01-20T10:02:57Z</time>
      </trkpt>
      <trkpt lat="44.47924" lon="2.43972">
        <ele>681.3</ele>
        <time>2013-01-20T10:02:58Z</time>
      </trkpt>
      <trkpt lat="44.47927" lon="2.43969">
        <ele>680.7</ele>
        <time>2013-01-20T10:02:59Z</time>
      </trkpt>
      <trkpt lat="44.47929" lon="2.43966">
        <ele>680.3</ele>
        <time>2013-01-20T10:03:00Z</time>
      </trkpt>
      <trkpt lat="44.47932" lon="2.43963">
        <ele>679.9</ele>
        <time>2013-01-20T10:03:01Z</time>
      </trkpt>
      <trkpt lat="44.47934" lon="2.43959">
        <ele>679.5</ele>
        <time>2013-01-20T10:03:02Z</time>
      </trkpt>
      <trkpt lat="44.47937" lon="2.43955">
        <ele>679.2</ele>
        <time>2013-01-20T10:03:03Z</time>
      </trkpt>
      <trkpt lat="44.4794" lon="2.43951">
        <ele>679</ele>
        <time>2013-01-20T10:03:04Z</time>
      </trkpt>
      <trkpt lat="44.47943" lon="2.43946">
        <ele>678.7</ele>
        <time>2013-01-20T10:03:05Z</time>
      </trkpt>
      <trkpt lat="44.47945" lon="2.43941">
        <ele>678.5</ele>
        <time>2013-01-20T10:03:06Z</time>
      </trkpt>
      <trkpt lat="44.47948" lon="2.43936">
        <ele>678.4</ele>
        <time>2013-01-20T10:03:07Z</time>
      </trkpt>
      <trkpt lat="44.47951" lon="2.43931">
        <ele>678.3</ele>
        <time>2013-01-20T10:03:08Z</time>
      </trkpt>
      <trkpt lat="44.47954" lon="2.43926">
        <ele>677.9</ele>
        <time>2013-01-20T10:03:09Z</time>
      </trkpt>
      <trkpt lat="44.47957" lon="2.4392">
        <ele>677.5</ele>
        <time>2013-01-20T10:03:10Z</time>
      </trkpt>
      <trkpt lat="44.4796" lon="2.43915">
        <ele>677.3</ele>
        <time>2013-01-20T10:03:11Z</time>
      </trkpt>
      <trkpt lat="44.47963" lon="2.43909">
        <ele>676.8</ele>
        <time>2013-01-20T10:03:12Z</time>
      </trkpt>
      <trkpt lat="44.47967" lon="2.43904">
        <ele>676.4</ele>
        <time>2013-01-20T10:03:13Z</time>
      </trkpt>
      <trkpt lat="44.47971" lon="2.439">
        <ele>676.2</ele>
        <time>2013-01-20T10:03:14Z</time>
      </trkpt>
      <trkpt lat="44.47976" lon="2.43896">
        <ele>675.8</ele>
        <time>2013-01-20T10:03:15Z</time>
      </trkpt>
      <trkpt lat="44.4798" lon="2.43892">
        <ele>675.5</ele>
        <time>2013-01-20T10:03:16Z</time>
      </trkpt>
      <trkpt lat="44.47985" lon="2.43889">
        <ele>675.3</ele>
        <time>2013-01-20T10:03:17Z</time>
      </trkpt>
      <trkpt lat="44.47989" lon="2.43885">
        <ele>674.7</ele>
        <time>2013-01-20T10:03:18Z</time>
      </trkpt>
      <trkpt lat="44.47993" lon="2.43881">
        <ele>674.2</ele>
        <time>2013-01-20T10:03:19Z</time>
      </trkpt>
      <trkpt lat="44.47997" lon="2.43877">
        <ele>673.8</ele>
        <time>2013-01-20T10:03:20Z</time>
      </trkpt>
      <trkpt lat="44.48" lon="2.43873">
        <ele>673.5</ele>
        <time>2013-01-20T10:03:21Z</time>
      </trkpt>
      <trkpt lat="44.48003" lon="2.43869">
        <ele>673.3</ele>
        <time>2013-01-20T10:03:22Z</time>
      </trkpt>
      <trkpt lat="44.48006" lon="2.43866">
        <ele>673.1</ele>
        <time>2013-01-20T10:03:23Z</time>
      </trkpt>
      <trkpt lat="44.48009" lon="2.43862">
        <ele>672.9</ele>
        <time>2013-01-20T10:03:24Z</time>
      </trkpt>
      <trkpt lat="44.48012" lon="2.43859">
        <ele>673.1</ele>
        <time>2013-01-20T10:03:25Z</time>
      </trkpt>
      <trkpt lat="44.48015" lon="2.43855">
        <ele>673.2</ele>
        <time>2013-01-20T10:03:26Z</time>
      </trkpt>
      <trkpt lat="44.48018" lon="2.43851">
        <ele>673.3</ele>
        <time>2013-01-20T10:03:27Z</time>
      </trkpt>
      <trkpt lat="44.48022" lon="2.43848">
        <ele>673.3</ele>
        <time>2013-01-20T10:03:28Z</time>
      </trkpt>
      <trkpt lat="44.48025" lon="2.43844">
        <ele>673.4</ele>
        <time>2013-01-20T10:03:29Z</time>
      </trkpt>
      <trkpt lat="44.48028" lon="2.4384">
        <ele>673.4</ele>
        <time>2013-01-20T10:03:30Z</time>
      </trkpt>
      <trkpt lat="44.48031" lon="2.43837">
        <ele>673.6</ele>
        <time>2013-01-20T10:03:31Z</time>
      </trkpt>
      <trkpt lat="44.48034" lon="2.43833">
        <ele>673.8</ele>
        <time>2013-01-20T10:03:32Z</time>
      </trkpt>
      <trkpt lat="44.48037" lon="2.4383">
        <ele>673.9</ele>
        <time>2013-01-20T10:03:33Z</time>
      </trkpt>
      <trkpt lat="44.48039" lon="2.43826">
        <ele>673.7</ele>
        <time>2013-01-20T10:03:34Z</time>
      </trkpt>
      <trkpt lat="44.48042" lon="2.43823">
        <ele>673.5</ele>
        <time>2013-01-20T10:03:35Z</time>
      </trkpt>
      <trkpt lat="44.48045" lon="2.43819">
        <ele>673.4</ele>
        <time>2013-01-20T10:03:36Z</time>
      </trkpt>
      <trkpt lat="44.48047" lon="2.43815">
        <ele>673.4</ele>
        <time>2013-01-20T10:03:37Z</time>
      </trkpt>
      <trkpt lat="44.4805" lon="2.43811">
        <ele>673.3</ele>
        <time>2013-01-20T10:03:38Z</time>
      </trkpt>
      <trkpt lat="44.48052" lon="2.43807">
        <ele>673.3</ele>
        <time>2013-01-20T10:03:39Z</time>
      </trkpt>
      <trkpt lat="44.48054" lon="2.43803">
        <ele>673.3</ele>
        <time>2013-01-20T10:03:40Z</time>
      </trkpt>
      <trkpt lat="44.48056" lon="2.43799">
        <ele>673.7</ele>
        <time>2013-01-20T10:03:41Z</time>
      </trkpt>
      <trkpt lat="44.48057" lon="2.43794">
        <ele>674.1</ele>
        <time>2013-01-20T10:03:42Z</time>
      </trkpt>
      <trkpt lat="44.48059" lon="2.4379">
        <ele>674.3</ele>
        <time>2013-01-20T10:03:43Z</time>
      </trkpt>
      <trkpt lat="44.4806" lon="2.43786">
        <ele>674</ele>
        <time>2013-01-20T10:03:44Z</time>
      </trkpt>
      <trkpt lat="44.48061" lon="2.43782">
        <ele>673.8</ele>
        <time>2013-01-20T10:03:45Z</time>
      </trkpt>
      <trkpt lat="44.48062" lon="2.43777">
        <ele>673.7</ele>
        <time>2013-01-20T10:03:46Z</time>
      </trkpt>
      <trkpt lat="44.48063" lon="2.43773">
        <ele>673.8</ele>
        <time>2013-01-20T10:03:47Z</time>
      </trkpt>
      <trkpt lat="44.48065" lon="2.43769">
        <ele>673.9</ele>
        <time>2013-01-20T10:03:48Z</time>
      </trkpt>
      <trkpt lat="44.48067" lon="2.43765">
        <ele>674</ele>
        <time>2013-01-20T10:03:49Z</time>
      </trkpt>
      <trkpt lat="44.48069" lon="2.43762">
        <ele>674.2</ele>
        <time>2013-01-20T10:03:50Z</time>
      </trkpt>
      <trkpt lat="44.4807" lon="2.43758">
        <ele>674.4</ele>
        <time>2013-01-20T10:03:51Z</time>
      </trkpt>
      <trkpt lat="44.48072" lon="2.43754">
        <ele>674.6</ele>
        <time>2013-01-20T10:03:52Z</time>
      </trkpt>
      <trkpt lat="44.48074" lon="2.4375">
        <ele>674.9</ele>
        <time>2013-01-20T10:03:53Z</time>
      </trkpt>
      <trkpt lat="44.48076" lon="2.43747">
        <ele>675.2</ele>
        <time>2013-01-20T10:03:54Z</time>
      </trkpt>
      <trkpt lat="44.48078" lon="2.43744">
        <ele>675.4</ele>
        <time>2013-01-20T10:03:55Z</time>
      </trkpt>
      <trkpt lat="44.48079" lon="2.4374">
        <ele>675.5</ele>
        <time>2013-01-20T10:03:56Z</time>
      </trkpt>
      <trkpt lat="44.48081" lon="2.43737">
        <ele>675.7</ele>
        <time>2013-01-20T10:03:57Z</time>
      </trkpt>
      <trkpt lat="44.48082" lon="2.43734">
        <ele>675.8</ele>
        <time>2013-01-20T10:03:58Z</time>
      </trkpt>
      <trkpt lat="44.48083" lon="2.43731">
        <ele>675.9</ele>
        <time>2013-01-20T10:03:59Z</time>
      </trkpt>
      <trkpt lat="44.48084" lon="2.43727">
        <ele>675.9</ele>
        <time>2013-01-20T10:04:00Z</time>
      </trkpt>
      <trkpt lat="44.48084" lon="2.43724">
        <ele>676</ele>
        <time>2013-01-20T10:04:01Z</time>
      </trkpt>
      <trkpt lat="44.48083" lon="2.43718">
        <ele>676.2</ele>
        <time>2013-01-20T10:04:03Z</time>
      </trkpt>
      <trkpt lat="44.48083" lon="2.43714">
        <ele>676.5</ele>
        <time>2013-01-20T10:04:05Z</time>
      </trkpt>
      <trkpt lat="44.48083" lon="2.43708">
        <ele>677.3</ele>
        <time>2013-01-20T10:04:07Z</time>
      </trkpt>
      <trkpt lat="44.48084" lon="2.43702">
        <ele>678</ele>
        <time>2013-01-20T10:04:09Z</time>
      </trkpt>
      <trkpt lat="44.48084" lon="2.43697">
        <ele>678.5</ele>
        <time>2013-01-20T10:04:11Z</time>
      </trkpt>
      <trkpt lat="44.48085" lon="2.43691">
        <ele>678.6</ele>
        <time>2013-01-20T10:04:13Z</time>
      </trkpt>
      <trkpt lat="44.48085" lon="2.43686">
        <ele>678.5</ele>
        <time>2013-01-20T10:04:15Z</time>
      </trkpt>
      <trkpt lat="44.48085" lon="2.43681">
        <ele>679.1</ele>
        <time>2013-01-20T10:04:17Z</time>
      </trkpt>
      <trkpt lat="44.48085" lon="2.43675">
        <ele>679.3</ele>
        <time>2013-01-20T10:04:19Z</time>
      </trkpt>
      <trkpt lat="44.48085" lon="2.4367">
        <ele>679.4</ele>
        <time>2013-01-20T10:04:21Z</time>
      </trkpt>
      <trkpt lat="44.48085" lon="2.43666">
        <ele>679.6</ele>
        <time>2013-01-20T10:04:23Z</time>
      </trkpt>
      <trkpt lat="44.48085" lon="2.43661">
        <ele>679.7</ele>
        <time>2013-01-20T10:04:25Z</time>
      </trkpt>
      <trkpt lat="44.48085" lon="2.43656">
        <ele>679.8</ele>
        <time>2013-01-20T10:04:27Z</time>
      </trkpt>
      <trkpt lat="44.48086" lon="2.43652">
        <ele>680.3</ele>
        <time>2013-01-20T10:04:29Z</time>
      </trkpt>
      <trkpt lat="44.48087" lon="2.43647">
        <ele>680.6</ele>
        <time>2013-01-20T10:04:31Z</time>
      </trkpt>
      <trkpt lat="44.48087" lon="2.43643">
        <ele>681.2</ele>
        <time>2013-01-20T10:04:33Z</time>
      </trkpt>
      <trkpt lat="44.48087" lon="2.43636">
        <ele>681.4</ele>
        <time>2013-01-20T10:04:36Z</time>
      </trkpt>
      <trkpt lat="44.48087" lon="2.43634">
        <ele>681.4</ele>
        <time>2013-01-20T10:04:37Z</time>
      </trkpt>
      <trkpt lat="44.48086" lon="2.43628">
        <ele>681.9</ele>
        <time>2013-01-20T10:04:40Z</time>
      </trkpt>
      <trkpt lat="44.48085" lon="2.43623">
        <ele>681.8</ele>
        <time>2013-01-20T10:04:42Z</time>
      </trkpt>
      <trkpt lat="44.48084" lon="2.43617">
        <ele>682.8</ele>
        <time>2013-01-20T10:04:45Z</time>
      </trkpt>
      <trkpt lat="44.48083" lon="2.43612">
        <ele>683.4</ele>
        <time>2013-01-20T10:04:48Z</time>
      </trkpt>
      <trkpt lat="44.48082" lon="2.43607">
        <ele>683.5</ele>
        <time>2013-01-20T10:04:50Z</time>
      </trkpt>
      <trkpt lat="44.48081" lon="2.43603">
        <ele>683.6</ele>
        <time>2013-01-20T10:04:52Z</time>
      </trkpt>
      <trkpt lat="44.4808" lon="2.43599">
        <ele>683.7</ele>
        <time>2013-01-20T10:04:54Z</time>
      </trkpt>
      <trkpt lat="44.48079" lon="2.43594">
        <ele>683.9</ele>
        <time>2013-01-20T10:04:56Z</time>
      </trkpt>
      <trkpt lat="44.48077" lon="2.43589">
        <ele>684.6</ele>
        <time>2013-01-20T10:04:58Z</time>
      </trkpt>
      <trkpt lat="44.48076" lon="2.43585">
        <ele>685</ele>
        <time>2013-01-20T10:05:00Z</time>
      </trkpt>
      <trkpt lat="44.48075" lon="2.4358">
        <ele>685.3</ele>
        <time>2013-01-20T10:05:02Z</time>
      </trkpt>
      <trkpt lat="44.48073" lon="2.43576">
        <ele>685.3</ele>
        <time>2013-01-20T10:05:04Z</time>
      </trkpt>
      <trkpt lat="44.48072" lon="2.43572">
        <ele>685</ele>
        <time>2013-01-20T10:05:06Z</time>
      </trkpt>
      <trkpt lat="44.48071" lon="2.43568">
        <ele>685.5</ele>
        <time>2013-01-20T10:05:08Z</time>
      </trkpt>
      <trkpt lat="44.4807" lon="2.43562">
        <ele>686.3</ele>
        <time>2013-01-20T10:05:11Z</time>
      </trkpt>
      <trkpt lat="44.48069" lon="2.43557">
        <ele>687.1</ele>
        <time>2013-01-20T10:05:14Z</time>
      </trkpt>
      <trkpt lat="44.48069" lon="2.43553">
        <ele>687.6</ele>
        <time>2013-01-20T10:05:16Z</time>
      </trkpt>
      <trkpt lat="44.48068" lon="2.43549">
        <ele>687.9</ele>
        <time>2013-01-20T10:05:18Z</time>
      </trkpt>
      <trkpt lat="44.48068" lon="2.43544">
        <ele>688.2</ele>
        <time>2013-01-20T10:05:20Z</time>
      </trkpt>
      <trkpt lat="44.48068" lon="2.43539">
        <ele>688.5</ele>
        <time>2013-01-20T10:05:22Z</time>
      </trkpt>
      <trkpt lat="44.48069" lon="2.43535">
        <ele>688.8</ele>
        <time>2013-01-20T10:05:24Z</time>
      </trkpt>
      <trkpt lat="44.48069" lon="2.43531">
        <ele>689.3</ele>
        <time>2013-01-20T10:05:26Z</time>
      </trkpt>
      <trkpt lat="44.48069" lon="2.43525">
        <ele>689.9</ele>
        <time>2013-01-20T10:05:29Z</time>
      </trkpt>
      <trkpt lat="44.48069" lon="2.4352">
        <ele>689.8</ele>
        <time>2013-01-20T10:05:31Z</time>
      </trkpt>
      <trkpt lat="44.48069" lon="2.43516">
        <ele>690.7</ele>
        <time>2013-01-20T10:05:33Z</time>
      </trkpt>
      <trkpt lat="44.48069" lon="2.43512">
        <ele>691</ele>
        <time>2013-01-20T10:05:35Z</time>
      </trkpt>
      <trkpt lat="44.48069" lon="2.43507">
        <ele>691</ele>
        <time>2013-01-20T10:05:37Z</time>
      </trkpt>
      <trkpt lat="44.48069" lon="2.43505">
        <ele>691</ele>
        <time>2013-01-20T10:05:38Z</time>
      </trkpt>
      <trkpt lat="44.48069" lon="2.43498">
        <ele>691.5</ele>
        <time>2013-01-20T10:05:41Z</time>
      </trkpt>
      <trkpt lat="44.48069" lon="2.43493">
        <ele>691.8</ele>
        <time>2013-01-20T10:05:43Z</time>
      </trkpt>
      <trkpt lat="44.48069" lon="2.43488">
        <ele>691.6</ele>
        <time>2013-01-20T10:05:45Z</time>
      </trkpt>
      <trkpt lat="44.48069" lon="2.43483">
        <ele>691.1</ele>
        <time>2013-01-20T10:05:47Z</time>
      </trkpt>
      <trkpt lat="44.48069" lon="2.43479">
        <ele>691.4</ele>
        <time>2013-01-20T10:05:49Z</time>
      </trkpt>
      <trkpt lat="44.48069" lon="2.43474">
        <ele>691.9</ele>
        <time>2013-01-20T10:05:51Z</time>
      </trkpt>
      <trkpt lat="44.48069" lon="2.43469">
        <ele>692.3</ele>
        <time>2013-01-20T10:05:53Z</time>
      </trkpt>
      <trkpt lat="44.48069" lon="2.43464">
        <ele>692.8</ele>
        <time>2013-01-20T10:05:55Z</time>
      </trkpt>
      <trkpt lat="44.48069" lon="2.43459">
        <ele>693.3</ele>
        <time>2013-01-20T10:05:57Z</time>
      </trkpt>
      <trkpt lat="44.48069" lon="2.43455">
        <ele>694.4</ele>
        <time>2013-01-20T10:05:59Z</time>
      </trkpt>
      <trkpt lat="44.48069" lon="2.43451">
        <ele>695.1</ele>
        <time>2013-01-20T10:06:01Z</time>
      </trkpt>
      <trkpt lat="44.48069" lon="2.43446">
        <ele>695.4</ele>
        <time>2013-01-20T10:06:03Z</time>
      </trkpt>
      <trkpt lat="44.48069" lon="2.43441">
        <ele>695.2</ele>
        <time>2013-01-20T10:06:05Z</time>
      </trkpt>
      <trkpt lat="44.48069" lon="2.43436">
        <ele>695.4</ele>
        <time>2013-01-20T10:06:07Z</time>
      </trkpt>
      <trkpt lat="44.48068" lon="2.43431">
        <ele>695.9</ele>
        <time>2013-01-20T10:06:09Z</time>
      </trkpt>
      <trkpt lat="44.48068" lon="2.43426">
        <ele>696.1</ele>
        <time>2013-01-20T10:06:11Z</time>
      </trkpt>
      <trkpt lat="44.48067" lon="2.4342">
        <ele>696.2</ele>
        <time>2013-01-20T10:06:13Z</time>
      </trkpt>
      <trkpt lat="44.48067" lon="2.43415">
        <ele>696.3</ele>
        <time>2013-01-20T10:06:15Z</time>
      </trkpt>
      <trkpt lat="44.48066" lon="2.4341">
        <ele>696.3</ele>
        <time>2013-01-20T10:06:17Z</time>
      </trkpt>
      <trkpt lat="44.48065" lon="2.43405">
        <ele>696.2</ele>
        <time>2013-01-20T10:06:19Z</time>
      </trkpt>
      <trkpt lat="44.48065" lon="2.434">
        <ele>696.1</ele>
        <time>2013-01-20T10:06:21Z</time>
      </trkpt>
      <trkpt lat="44.48064" lon="2.43395">
        <ele>696.2</ele>
        <time>2013-01-20T10:06:23Z</time>
      </trkpt>
      <trkpt lat="44.48064" lon="2.4339">
        <ele>696.3</ele>
        <time>2013-01-20T10:06:25Z</time>
      </trkpt>
      <trkpt lat="44.48063" lon="2.43385">
        <ele>696.5</ele>
        <time>2013-01-20T10:06:27Z</time>
      </trkpt>
      <trkpt lat="44.48063" lon="2.4338">
        <ele>696.8</ele>
        <time>2013-01-20T10:06:29Z</time>
      </trkpt>
      <trkpt lat="44.48062" lon="2.43375">
        <ele>696.8</ele>
        <time>2013-01-20T10:06:31Z</time>
      </trkpt>
      <trkpt lat="44.48062" lon="2.43371">
        <ele>696.9</ele>
        <time>2013-01-20T10:06:33Z</time>
      </trkpt>
      <trkpt lat="44.48061" lon="2.43366">
        <ele>697.1</ele>
        <time>2013-01-20T10:06:35Z</time>
      </trkpt>
      <trkpt lat="44.48061" lon="2.43362">
        <ele>697.3</ele>
        <time>2013-01-20T10:06:37Z</time>
      </trkpt>
      <trkpt lat="44.48061" lon="2.43357">
        <ele>697.5</ele>
        <time>2013-01-20T10:06:39Z</time>
      </trkpt>
      <trkpt lat="44.48061" lon="2.43355">
        <ele>697.6</ele>
        <time>2013-01-20T10:06:40Z</time>
      </trkpt>
      <trkpt lat="44.48061" lon="2.43348">
        <ele>699</ele>
        <time>2013-01-20T10:06:43Z</time>
      </trkpt>
      <trkpt lat="44.48061" lon="2.43343">
        <ele>699.8</ele>
        <time>2013-01-20T10:06:45Z</time>
      </trkpt>
      <trkpt lat="44.48061" lon="2.43338">
        <ele>699.4</ele>
        <time>2013-01-20T10:06:47Z</time>
      </trkpt>
      <trkpt lat="44.48061" lon="2.43334">
        <ele>699.2</ele>
        <time>2013-01-20T10:06:49Z</time>
      </trkpt>
      <trkpt lat="44.48062" lon="2.43329">
        <ele>699.1</ele>
        <time>2013-01-20T10:06:51Z</time>
      </trkpt>
      <trkpt lat="44.48063" lon="2.43324">
        <ele>698.3</ele>
        <time>2013-01-20T10:06:53Z</time>
      </trkpt>
      <trkpt lat="44.48063" lon="2.43318">
        <ele>699.4</ele>
        <time>2013-01-20T10:06:56Z</time>
      </trkpt>
      <trkpt lat="44.48064" lon="2.43314">
        <ele>700.2</ele>
        <time>2013-01-20T10:06:58Z</time>
      </trkpt>
      <trkpt lat="44.48064" lon="2.43309">
        <ele>700.3</ele>
        <time>2013-01-20T10:07:00Z</time>
      </trkpt>
      <trkpt lat="44.48064" lon="2.43304">
        <ele>700.4</ele>
        <time>2013-01-20T10:07:02Z</time>
      </trkpt>
      <trkpt lat="44.48064" lon="2.43299">
        <ele>700.5</ele>
        <time>2013-01-20T10:07:04Z</time>
      </trkpt>
      <trkpt lat="44.48063" lon="2.43295">
        <ele>700.9</ele>
        <time>2013-01-20T10:07:06Z</time>
      </trkpt>
      <trkpt lat="44.48063" lon="2.4329">
        <ele>701.4</ele>
        <time>2013-01-20T10:07:08Z</time>
      </trkpt>
      <trkpt lat="44.48061" lon="2.43286">
        <ele>701.9</ele>
        <time>2013-01-20T10:07:10Z</time>
      </trkpt>
      <trkpt lat="44.4806" lon="2.43282">
        <ele>701.1</ele>
        <time>2013-01-20T10:07:12Z</time>
      </trkpt>
      <trkpt lat="44.48059" lon="2.43278">
        <ele>700.8</ele>
        <time>2013-01-20T10:07:14Z</time>
      </trkpt>
      <trkpt lat="44.48057" lon="2.43274">
        <ele>700.6</ele>
        <time>2013-01-20T10:07:16Z</time>
      </trkpt>
      <trkpt lat="44.48056" lon="2.43269">
        <ele>700.7</ele>
        <time>2013-01-20T10:07:18Z</time>
      </trkpt>
      <trkpt lat="44.48054" lon="2.43265">
        <ele>700.8</ele>
        <time>2013-01-20T10:07:20Z</time>
      </trkpt>
      <trkpt lat="44.48052" lon="2.43261">
        <ele>700.8</ele>
        <time>2013-01-20T10:07:22Z</time>
      </trkpt>
      <trkpt lat="44.48049" lon="2.43256">
        <ele>701.5</ele>
        <time>2013-01-20T10:07:25Z</time>
      </trkpt>
      <trkpt lat="44.48047" lon="2.43251">
        <ele>702.4</ele>
        <time>2013-01-20T10:07:28Z</time>
      </trkpt>
      <trkpt lat="44.48047" lon="2.43246">
        <ele>703.1</ele>
        <time>2013-01-20T10:07:32Z</time>
      </trkpt>
      <trkpt lat="44.48047" lon="2.4324">
        <ele>703.1</ele>
        <time>2013-01-20T10:07:48Z</time>
      </trkpt>
      <trkpt lat="44.48047" lon="2.43239">
        <ele>703.2</ele>
        <time>2013-01-20T10:07:49Z</time>
      </trkpt>
      <trkpt lat="44.48046" lon="2.43228">
        <ele>702.3</ele>
        <time>2013-01-20T10:09:41Z</time>
      </trkpt>
      <trkpt lat="44.48046" lon="2.43227">
        <ele>702.3</ele>
        <time>2013-01-20T10:09:42Z</time>
      </trkpt>
      <trkpt lat="44.48042" lon="2.43228">
        <ele>702.1</ele>
        <time>2013-01-20T10:12:13Z</time>
      </trkpt>
      <trkpt lat="44.48042" lon="2.43228">
        <ele>702</ele>
        <time>2013-01-20T10:12:14Z</time>
      </trkpt>
      <trkpt lat="44.48037" lon="2.43225">
        <ele>700.9</ele>
        <time>2013-01-20T10:13:17Z</time>
      </trkpt>
      <trkpt lat="44.4803" lon="2.43222">
        <ele>700.3</ele>
        <time>2013-01-20T10:13:22Z</time>
      </trkpt>
      <trkpt lat="44.48027" lon="2.43219">
        <ele>700.3</ele>
        <time>2013-01-20T10:13:24Z</time>
      </trkpt>
      <trkpt lat="44.48023" lon="2.43219">
        <ele>700.6</ele>
        <time>2013-01-20T10:13:26Z</time>
      </trkpt>
      <trkpt lat="44.48019" lon="2.43218">
        <ele>700.4</ele>
        <time>2013-01-20T10:13:28Z</time>
      </trkpt>
      <trkpt lat="44.48015" lon="2.43217">
        <ele>700</ele>
        <time>2013-01-20T10:13:30Z</time>
      </trkpt>
      <trkpt lat="44.48012" lon="2.43218">
        <ele>699.8</ele>
        <time>2013-01-20T10:13:31Z</time>
      </trkpt>
      <trkpt lat="44.4801" lon="2.43218">
        <ele>699.6</ele>
        <time>2013-01-20T10:13:32Z</time>
      </trkpt>
      <trkpt lat="44.48007" lon="2.43219">
        <ele>699.5</ele>
        <time>2013-01-20T10:13:33Z</time>
      </trkpt>
      <trkpt lat="44.48004" lon="2.43219">
        <ele>699.2</ele>
        <time>2013-01-20T10:13:34Z</time>
      </trkpt>
      <trkpt lat="44.48001" lon="2.4322">
        <ele>698.9</ele>
        <time>2013-01-20T10:13:35Z</time>
      </trkpt>
      <trkpt lat="44.47998" lon="2.4322">
        <ele>698.8</ele>
        <time>2013-01-20T10:13:36Z</time>
      </trkpt>
      <trkpt lat="44.47996" lon="2.43221">
        <ele>698.1</ele>
        <time>2013-01-20T10:13:37Z</time>
      </trkpt>
      <trkpt lat="44.47992" lon="2.43221">
        <ele>697.6</ele>
        <time>2013-01-20T10:13:38Z</time>
      </trkpt>
      <trkpt lat="44.47989" lon="2.43221">
        <ele>697.3</ele>
        <time>2013-01-20T10:13:39Z</time>
      </trkpt>
      <trkpt lat="44.47986" lon="2.4322">
        <ele>697</ele>
        <time>2013-01-20T10:13:40Z</time>
      </trkpt>
      <trkpt lat="44.47983" lon="2.43217">
        <ele>696.1</ele>
        <time>2013-01-20T10:13:41Z</time>
      </trkpt>
      <trkpt lat="44.4798" lon="2.43215">
        <ele>695.4</ele>
        <time>2013-01-20T10:13:42Z</time>
      </trkpt>
      <trkpt lat="44.47977" lon="2.43213">
        <ele>694.9</ele>
        <time>2013-01-20T10:13:43Z</time>
      </trkpt>
      <trkpt lat="44.47975" lon="2.43211">
        <ele>694.8</ele>
        <time>2013-01-20T10:13:44Z</time>
      </trkpt>
      <trkpt lat="44.47973" lon="2.43209">
        <ele>694.7</ele>
        <time>2013-01-20T10:13:45Z</time>
      </trkpt>
      <trkpt lat="44.47971" lon="2.43206">
        <ele>694.6</ele>
        <time>2013-01-20T10:13:46Z</time>
      </trkpt>
      <trkpt lat="44.47968" lon="2.43203">
        <ele>694</ele>
        <time>2013-01-20T10:13:47Z</time>
      </trkpt>
      <trkpt lat="44.47965" lon="2.43199">
        <ele>693.6</ele>
        <time>2013-01-20T10:13:48Z</time>
      </trkpt>
      <trkpt lat="44.47962" lon="2.43195">
        <ele>693.3</ele>
        <time>2013-01-20T10:13:49Z</time>
      </trkpt>
      <trkpt lat="44.4796" lon="2.43191">
        <ele>692.6</ele>
        <time>2013-01-20T10:13:50Z</time>
      </trkpt>
      <trkpt lat="44.47957" lon="2.43187">
        <ele>692.1</ele>
        <time>2013-01-20T10:13:51Z</time>
      </trkpt>
      <trkpt lat="44.47954" lon="2.43183">
        <ele>691.7</ele>
        <time>2013-01-20T10:13:52Z</time>
      </trkpt>
      <trkpt lat="44.47951" lon="2.4318">
        <ele>691.2</ele>
        <time>2013-01-20T10:13:53Z</time>
      </trkpt>
      <trkpt lat="44.47949" lon="2.43177">
        <ele>690.9</ele>
        <time>2013-01-20T10:13:54Z</time>
      </trkpt>
      <trkpt lat="44.47947" lon="2.43175">
        <ele>690.6</ele>
        <time>2013-01-20T10:13:55Z</time>
      </trkpt>
      <trkpt lat="44.47944" lon="2.43172">
        <ele>690.4</ele>
        <time>2013-01-20T10:13:56Z</time>
      </trkpt>
      <trkpt lat="44.47942" lon="2.43168">
        <ele>690</ele>
        <time>2013-01-20T10:13:57Z</time>
      </trkpt>
      <trkpt lat="44.47939" lon="2.43165">
        <ele>689.7</ele>
        <time>2013-01-20T10:13:58Z</time>
      </trkpt>
      <trkpt lat="44.47937" lon="2.43161">
        <ele>689.5</ele>
        <time>2013-01-20T10:13:59Z</time>
      </trkpt>
      <trkpt lat="44.47934" lon="2.43158">
        <ele>689.3</ele>
        <time>2013-01-20T10:14:00Z</time>
      </trkpt>
      <trkpt lat="44.47932" lon="2.43154">
        <ele>689.1</ele>
        <time>2013-01-20T10:14:01Z</time>
      </trkpt>
      <trkpt lat="44.4793" lon="2.43152">
        <ele>689</ele>
        <time>2013-01-20T10:14:02Z</time>
      </trkpt>
      <trkpt lat="44.47928" lon="2.43149">
        <ele>689</ele>
        <time>2013-01-20T10:14:03Z</time>
      </trkpt>
      <trkpt lat="44.47926" lon="2.43146">
        <ele>689</ele>
        <time>2013-01-20T10:14:04Z</time>
      </trkpt>
      <trkpt lat="44.47924" lon="2.43143">
        <ele>688.9</ele>
        <time>2013-01-20T10:14:05Z</time>
      </trkpt>
      <trkpt lat="44.47922" lon="2.43139">
        <ele>688.9</ele>
        <time>2013-01-20T10:14:06Z</time>
      </trkpt>
      <trkpt lat="44.47919" lon="2.43136">
        <ele>688.9</ele>
        <time>2013-01-20T10:14:07Z</time>
      </trkpt>
      <trkpt lat="44.47917" lon="2.43132">
        <ele>688.8</ele>
        <time>2013-01-20T10:14:08Z</time>
      </trkpt>
      <trkpt lat="44.47915" lon="2.43128">
        <ele>688.6</ele>
        <time>2013-01-20T10:14:09Z</time>
      </trkpt>
      <trkpt lat="44.47912" lon="2.43124">
        <ele>688.3</ele>
        <time>2013-01-20T10:14:10Z</time>
      </trkpt>
      <trkpt lat="44.4791" lon="2.43119">
        <ele>688.2</ele>
        <time>2013-01-20T10:14:11Z</time>
      </trkpt>
      <trkpt lat="44.47907" lon="2.43116">
        <ele>688</ele>
        <time>2013-01-20T10:14:12Z</time>
      </trkpt>
      <trkpt lat="44.47904" lon="2.43114">
        <ele>687.8</ele>
        <time>2013-01-20T10:14:13Z</time>
      </trkpt>
      <trkpt lat="44.47901" lon="2.43112">
        <ele>687.7</ele>
        <time>2013-01-20T10:14:14Z</time>
      </trkpt>
      <trkpt lat="44.47899" lon="2.43112">
        <ele>687.6</ele>
        <time>2013-01-20T10:14:15Z</time>
      </trkpt>
      <trkpt lat="44.47895" lon="2.43112">
        <ele>686.4</ele>
        <time>2013-01-20T10:14:21Z</time>
      </trkpt>
      <trkpt lat="44.47894" lon="2.43112">
        <ele>686.4</ele>
        <time>2013-01-20T10:14:22Z</time>
      </trkpt>
      <trkpt lat="44.47888" lon="2.43116">
        <ele>686.1</ele>
        <time>2013-01-20T10:14:29Z</time>
      </trkpt>
      <trkpt lat="44.47884" lon="2.43119">
        <ele>686.2</ele>
        <time>2013-01-20T10:14:33Z</time>
      </trkpt>
      <trkpt lat="44.4788" lon="2.43117">
        <ele>686.3</ele>
        <time>2013-01-20T10:14:54Z</time>
      </trkpt>
      <trkpt lat="44.47878" lon="2.43121">
        <ele>685.7</ele>
        <time>2013-01-20T10:15:22Z</time>
      </trkpt>
      <trkpt lat="44.47874" lon="2.43123">
        <ele>686</ele>
        <time>2013-01-20T10:15:25Z</time>
      </trkpt>
      <trkpt lat="44.47873" lon="2.43125">
        <ele>685.9</ele>
        <time>2013-01-20T10:15:26Z</time>
      </trkpt>
      <trkpt lat="44.47869" lon="2.43128">
        <ele>685.9</ele>
        <time>2013-01-20T10:15:28Z</time>
      </trkpt>
      <trkpt lat="44.47867" lon="2.4313">
        <ele>685.3</ele>
        <time>2013-01-20T10:15:29Z</time>
      </trkpt>
      <trkpt lat="44.47863" lon="2.43131">
        <ele>684.9</ele>
        <time>2013-01-20T10:15:30Z</time>
      </trkpt>
      <trkpt lat="44.47859" lon="2.43134">
        <ele>684.5</ele>
        <time>2013-01-20T10:15:31Z</time>
      </trkpt>
      <trkpt lat="44.47855" lon="2.43139">
        <ele>684.3</ele>
        <time>2013-01-20T10:15:32Z</time>
      </trkpt>
      <trkpt lat="44.47852" lon="2.43143">
        <ele>684.1</ele>
        <time>2013-01-20T10:15:33Z</time>
      </trkpt>
      <trkpt lat="44.47849" lon="2.43148">
        <ele>684</ele>
        <time>2013-01-20T10:15:34Z</time>
      </trkpt>
      <trkpt lat="44.47845" lon="2.43153">
        <ele>683.4</ele>
        <time>2013-01-20T10:15:35Z</time>
      </trkpt>
      <trkpt lat="44.47841" lon="2.43158">
        <ele>682.9</ele>
        <time>2013-01-20T10:15:36Z</time>
      </trkpt>
      <trkpt lat="44.47837" lon="2.43163">
        <ele>682.6</ele>
        <time>2013-01-20T10:15:37Z</time>
      </trkpt>
      <trkpt lat="44.47833" lon="2.43168">
        <ele>682.3</ele>
        <time>2013-01-20T10:15:38Z</time>
      </trkpt>
      <trkpt lat="44.47827" lon="2.43173">
        <ele>682</ele>
        <time>2013-01-20T10:15:39Z</time>
      </trkpt>
      <trkpt lat="44.47821" lon="2.43177">
        <ele>681.9</ele>
        <time>2013-01-20T10:15:40Z</time>
      </trkpt>
      <trkpt lat="44.47815" lon="2.4318">
        <ele>681.7</ele>
        <time>2013-01-20T10:15:41Z</time>
      </trkpt>
      <trkpt lat="44.47808" lon="2.43184">
        <ele>680.9</ele>
        <time>2013-01-20T10:15:42Z</time>
      </trkpt>
      <trkpt lat="44.47801" lon="2.43187">
        <ele>680.2</ele>
        <time>2013-01-20T10:15:43Z</time>
      </trkpt>
      <trkpt lat="44.47795" lon="2.43189">
        <ele>679.8</ele>
        <time>2013-01-20T10:15:44Z</time>
      </trkpt>
      <trkpt lat="44.47788" lon="2.4319">
        <ele>678.3</ele>
        <time>2013-01-20T10:15:45Z</time>
      </trkpt>
      <trkpt lat="44.47783" lon="2.43192">
        <ele>677.3</ele>
        <time>2013-01-20T10:15:46Z</time>
      </trkpt>
      <trkpt lat="44.4778" lon="2.43194">
        <ele>676.5</ele>
        <time>2013-01-20T10:15:47Z</time>
      </trkpt>
      <trkpt lat="44.47777" lon="2.43195">
        <ele>675.1</ele>
        <time>2013-01-20T10:15:49Z</time>
      </trkpt>
      <trkpt lat="44.47773" lon="2.43197">
        <ele>674.4</ele>
        <time>2013-01-20T10:15:51Z</time>
      </trkpt>
      <trkpt lat="44.47771" lon="2.43199">
        <ele>674.2</ele>
        <time>2013-01-20T10:15:52Z</time>
      </trkpt>
      <trkpt lat="44.47768" lon="2.43201">
        <ele>674</ele>
        <time>2013-01-20T10:15:53Z</time>
      </trkpt>
      <trkpt lat="44.47764" lon="2.43202">
        <ele>673.9</ele>
        <time>2013-01-20T10:15:54Z</time>
      </trkpt>
      <trkpt lat="44.4776" lon="2.43204">
        <ele>673.6</ele>
        <time>2013-01-20T10:15:55Z</time>
      </trkpt>
      <trkpt lat="44.47755" lon="2.43206">
        <ele>673.4</ele>
        <time>2013-01-20T10:15:56Z</time>
      </trkpt>
      <trkpt lat="44.4775" lon="2.43207">
        <ele>673.2</ele>
        <time>2013-01-20T10:15:57Z</time>
      </trkpt>
      <trkpt lat="44.47745" lon="2.43209">
        <ele>673.1</ele>
        <time>2013-01-20T10:15:58Z</time>
      </trkpt>
      <trkpt lat="44.4774" lon="2.4321">
        <ele>673.1</ele>
        <time>2013-01-20T10:15:59Z</time>
      </trkpt>
      <trkpt lat="44.47736" lon="2.43212">
        <ele>673</ele>
        <time>2013-01-20T10:16:00Z</time>
      </trkpt>
      <trkpt lat="44.47731" lon="2.43213">
        <ele>672.7</ele>
        <time>2013-01-20T10:16:01Z</time>
      </trkpt>
      <trkpt lat="44.47726" lon="2.43215">
        <ele>672.5</ele>
        <time>2013-01-20T10:16:02Z</time>
      </trkpt>
      <trkpt lat="44.47722" lon="2.43216">
        <ele>672.3</ele>
        <time>2013-01-20T10:16:03Z</time>
      </trkpt>
      <trkpt lat="44.47717" lon="2.43218">
        <ele>672.1</ele>
        <time>2013-01-20T10:16:04Z</time>
      </trkpt>
      <trkpt lat="44.47712" lon="2.43219">
        <ele>672</ele>
        <time>2013-01-20T10:16:05Z</time>
      </trkpt>
      <trkpt lat="44.47708" lon="2.43221">
        <ele>671.8</ele>
        <time>2013-01-20T10:16:06Z</time>
      </trkpt>
      <trkpt lat="44.47703" lon="2.43222">
        <ele>671.4</ele>
        <time>2013-01-20T10:16:07Z</time>
      </trkpt>
      <trkpt lat="44.47699" lon="2.43224">
        <ele>671.1</ele>
        <time>2013-01-20T10:16:08Z</time>
      </trkpt>
      <trkpt lat="44.47695" lon="2.43225">
        <ele>670.9</ele>
        <time>2013-01-20T10:16:09Z</time>
      </trkpt>
      <trkpt lat="44.4769" lon="2.43227">
        <ele>670.7</ele>
        <time>2013-01-20T10:16:10Z</time>
      </trkpt>
      <trkpt lat="44.47686" lon="2.43228">
        <ele>670.4</ele>
        <time>2013-01-20T10:16:11Z</time>
      </trkpt>
      <trkpt lat="44.47681" lon="2.4323">
        <ele>670.1</ele>
        <time>2013-01-20T10:16:12Z</time>
      </trkpt>
      <trkpt lat="44.47677" lon="2.43231">
        <ele>669.9</ele>
        <time>2013-01-20T10:16:13Z</time>
      </trkpt>
      <trkpt lat="44.47672" lon="2.43232">
        <ele>669.7</ele>
        <time>2013-01-20T10:16:14Z</time>
      </trkpt>
      <trkpt lat="44.47668" lon="2.43233">
        <ele>669.6</ele>
        <time>2013-01-20T10:16:15Z</time>
      </trkpt>
      <trkpt lat="44.47664" lon="2.43234">
        <ele>669.5</ele>
        <time>2013-01-20T10:16:16Z</time>
      </trkpt>
      <trkpt lat="44.4766" lon="2.43235">
        <ele>669.5</ele>
        <time>2013-01-20T10:16:17Z</time>
      </trkpt>
      <trkpt lat="44.47656" lon="2.43236">
        <ele>669.5</ele>
        <time>2013-01-20T10:16:18Z</time>
      </trkpt>
      <trkpt lat="44.47653" lon="2.43237">
        <ele>669.5</ele>
        <time>2013-01-20T10:16:19Z</time>
      </trkpt>
      <trkpt lat="44.47649" lon="2.43238">
        <ele>669.7</ele>
        <time>2013-01-20T10:16:20Z</time>
      </trkpt>
      <trkpt lat="44.47645" lon="2.43239">
        <ele>669.9</ele>
        <time>2013-01-20T10:16:21Z</time>
      </trkpt>
      <trkpt lat="44.47642" lon="2.43241">
        <ele>670</ele>
        <time>2013-01-20T10:16:22Z</time>
      </trkpt>
      <trkpt lat="44.47638" lon="2.43242">
        <ele>670.2</ele>
        <time>2013-01-20T10:16:23Z</time>
      </trkpt>
      <trkpt lat="44.47635" lon="2.43243">
        <ele>670.4</ele>
        <time>2013-01-20T10:16:24Z</time>
      </trkpt>
      <trkpt lat="44.47632" lon="2.43244">
        <ele>670.5</ele>
        <time>2013-01-20T10:16:25Z</time>
      </trkpt>
      <trkpt lat="44.47629" lon="2.43245">
        <ele>670.6</ele>
        <time>2013-01-20T10:16:26Z</time>
      </trkpt>
      <trkpt lat="44.47626" lon="2.43246">
        <ele>670.1</ele>
        <time>2013-01-20T10:16:27Z</time>
      </trkpt>
      <trkpt lat="44.47623" lon="2.43245">
        <ele>669.7</ele>
        <time>2013-01-20T10:16:28Z</time>
      </trkpt>
      <trkpt lat="44.47621" lon="2.43244">
        <ele>669.4</ele>
        <time>2013-01-20T10:16:29Z</time>
      </trkpt>
      <trkpt lat="44.47619" lon="2.43242">
        <ele>669.6</ele>
        <time>2013-01-20T10:16:30Z</time>
      </trkpt>
      <trkpt lat="44.47618" lon="2.43239">
        <ele>669.7</ele>
        <time>2013-01-20T10:16:31Z</time>
      </trkpt>
      <trkpt lat="44.47616" lon="2.43236">
        <ele>669.8</ele>
        <time>2013-01-20T10:16:32Z</time>
      </trkpt>
      <trkpt lat="44.47615" lon="2.43232">
        <ele>670.3</ele>
        <time>2013-01-20T10:16:33Z</time>
      </trkpt>
      <trkpt lat="44.47614" lon="2.43228">
        <ele>670.6</ele>
        <time>2013-01-20T10:16:34Z</time>
      </trkpt>
      <trkpt lat="44.47612" lon="2.43224">
        <ele>670.8</ele>
        <time>2013-01-20T10:16:35Z</time>
      </trkpt>
      <trkpt lat="44.4761" lon="2.4322">
        <ele>670.5</ele>
        <time>2013-01-20T10:16:36Z</time>
      </trkpt>
      <trkpt lat="44.47608" lon="2.43216">
        <ele>670.2</ele>
        <time>2013-01-20T10:16:37Z</time>
      </trkpt>
      <trkpt lat="44.47606" lon="2.43212">
        <ele>670</ele>
        <time>2013-01-20T10:16:38Z</time>
      </trkpt>
      <trkpt lat="44.47604" lon="2.43209">
        <ele>669.6</ele>
        <time>2013-01-20T10:16:39Z</time>
      </trkpt>
      <trkpt lat="44.47601" lon="2.43204">
        <ele>669.3</ele>
        <time>2013-01-20T10:16:40Z</time>
      </trkpt>
      <trkpt lat="44.47599" lon="2.432">
        <ele>669</ele>
        <time>2013-01-20T10:16:41Z</time>
      </trkpt>
      <trkpt lat="44.47597" lon="2.43196">
        <ele>669.1</ele>
        <time>2013-01-20T10:16:42Z</time>
      </trkpt>
      <trkpt lat="44.47595" lon="2.43191">
        <ele>669.2</ele>
        <time>2013-01-20T10:16:43Z</time>
      </trkpt>
      <trkpt lat="44.47592" lon="2.43187">
        <ele>669.3</ele>
        <time>2013-01-20T10:16:44Z</time>
      </trkpt>
      <trkpt lat="44.4759" lon="2.43182">
        <ele>669.3</ele>
        <time>2013-01-20T10:16:45Z</time>
      </trkpt>
      <trkpt lat="44.47588" lon="2.43177">
        <ele>668.7</ele>
        <time>2013-01-20T10:16:46Z</time>
      </trkpt>
      <trkpt lat="44.47585" lon="2.43173">
        <ele>668.2</ele>
        <time>2013-01-20T10:16:47Z</time>
      </trkpt>
      <trkpt lat="44.47582" lon="2.43169">
        <ele>667.9</ele>
        <time>2013-01-20T10:16:48Z</time>
      </trkpt>
      <trkpt lat="44.47579" lon="2.43164">
        <ele>667.4</ele>
        <time>2013-01-20T10:16:49Z</time>
      </trkpt>
      <trkpt lat="44.47577" lon="2.43159">
        <ele>667</ele>
        <time>2013-01-20T10:16:50Z</time>
      </trkpt>
      <trkpt lat="44.47574" lon="2.43154">
        <ele>666.8</ele>
        <time>2013-01-20T10:16:51Z</time>
      </trkpt>
      <trkpt lat="44.47571" lon="2.4315">
        <ele>666.4</ele>
        <time>2013-01-20T10:16:52Z</time>
      </trkpt>
      <trkpt lat="44.47568" lon="2.43146">
        <ele>666.2</ele>
        <time>2013-01-20T10:16:53Z</time>
      </trkpt>
      <trkpt lat="44.47565" lon="2.43142">
        <ele>666</ele>
        <time>2013-01-20T10:16:54Z</time>
      </trkpt>
      <trkpt lat="44.47562" lon="2.43138">
        <ele>665.3</ele>
        <time>2013-01-20T10:16:55Z</time>
      </trkpt>
      <trkpt lat="44.4756" lon="2.43134">
        <ele>664.9</ele>
        <time>2013-01-20T10:16:56Z</time>
      </trkpt>
      <trkpt lat="44.47557" lon="2.4313">
        <ele>664.5</ele>
        <time>2013-01-20T10:16:57Z</time>
      </trkpt>
      <trkpt lat="44.47554" lon="2.43127">
        <ele>664.3</ele>
        <time>2013-01-20T10:16:58Z</time>
      </trkpt>
      <trkpt lat="44.47552" lon="2.43124">
        <ele>664.1</ele>
        <time>2013-01-20T10:16:59Z</time>
      </trkpt>
      <trkpt lat="44.47551" lon="2.43121">
        <ele>664</ele>
        <time>2013-01-20T10:17:00Z</time>
      </trkpt>
      <trkpt lat="44.47549" lon="2.43118">
        <ele>663.9</ele>
        <time>2013-01-20T10:17:01Z</time>
      </trkpt>
      <trkpt lat="44.47548" lon="2.43112">
        <ele>664.3</ele>
        <time>2013-01-20T10:17:03Z</time>
      </trkpt>
      <trkpt lat="44.47547" lon="2.43107">
        <ele>665.2</ele>
        <time>2013-01-20T10:17:06Z</time>
      </trkpt>
      <trkpt lat="44.47546" lon="2.43102">
        <ele>665.8</ele>
        <time>2013-01-20T10:17:09Z</time>
      </trkpt>
      <trkpt lat="44.47545" lon="2.43098">
        <ele>666.3</ele>
        <time>2013-01-20T10:17:11Z</time>
      </trkpt>
      <trkpt lat="44.47544" lon="2.43093">
        <ele>666.8</ele>
        <time>2013-01-20T10:17:13Z</time>
      </trkpt>
      <trkpt lat="44.47543" lon="2.43087">
        <ele>666.4</ele>
        <time>2013-01-20T10:17:16Z</time>
      </trkpt>
      <trkpt lat="44.47543" lon="2.43083">
        <ele>666.5</ele>
        <time>2013-01-20T10:17:18Z</time>
      </trkpt>
      <trkpt lat="44.47543" lon="2.43079">
        <ele>666.7</ele>
        <time>2013-01-20T10:17:20Z</time>
      </trkpt>
      <trkpt lat="44.47543" lon="2.43074">
        <ele>667.4</ele>
        <time>2013-01-20T10:17:22Z</time>
      </trkpt>
      <trkpt lat="44.47543" lon="2.43069">
        <ele>667.7</ele>
        <time>2013-01-20T10:17:24Z</time>
      </trkpt>
      <trkpt lat="44.47543" lon="2.43064">
        <ele>668</ele>
        <time>2013-01-20T10:17:26Z</time>
      </trkpt>
      <trkpt lat="44.47542" lon="2.4306">
        <ele>668.9</ele>
        <time>2013-01-20T10:17:28Z</time>
      </trkpt>
      <trkpt lat="44.47542" lon="2.43057">
        <ele>669.2</ele>
        <time>2013-01-20T10:17:29Z</time>
      </trkpt>
      <trkpt lat="44.47542" lon="2.43048">
        <ele>669.7</ele>
        <time>2013-01-20T10:17:34Z</time>
      </trkpt>
      <trkpt lat="44.47542" lon="2.43043">
        <ele>669.9</ele>
        <time>2013-01-20T10:17:36Z</time>
      </trkpt>
      <trkpt lat="44.47543" lon="2.43038">
        <ele>670.3</ele>
        <time>2013-01-20T10:17:38Z</time>
      </trkpt>
      <trkpt lat="44.47543" lon="2.43033">
        <ele>670.4</ele>
        <time>2013-01-20T10:17:40Z</time>
      </trkpt>
      <trkpt lat="44.47543" lon="2.43028">
        <ele>670.4</ele>
        <time>2013-01-20T10:17:42Z</time>
      </trkpt>
      <trkpt lat="44.47544" lon="2.43024">
        <ele>671.1</ele>
        <time>2013-01-20T10:17:44Z</time>
      </trkpt>
      <trkpt lat="44.47545" lon="2.43019">
        <ele>671.2</ele>
        <time>2013-01-20T10:17:46Z</time>
      </trkpt>
      <trkpt lat="44.47545" lon="2.43014">
        <ele>671.1</ele>
        <time>2013-01-20T10:17:48Z</time>
      </trkpt>
      <trkpt lat="44.47546" lon="2.43009">
        <ele>671.1</ele>
        <time>2013-01-20T10:17:50Z</time>
      </trkpt>
      <trkpt lat="44.47546" lon="2.43005">
        <ele>671</ele>
        <time>2013-01-20T10:17:52Z</time>
      </trkpt>
      <trkpt lat="44.47547" lon="2.43">
        <ele>671</ele>
        <time>2013-01-20T10:17:54Z</time>
      </trkpt>
      <trkpt lat="44.47547" lon="2.42996">
        <ele>671.1</ele>
        <time>2013-01-20T10:17:56Z</time>
      </trkpt>
      <trkpt lat="44.47548" lon="2.42991">
        <ele>671.2</ele>
        <time>2013-01-20T10:17:58Z</time>
      </trkpt>
      <trkpt lat="44.47548" lon="2.42987">
        <ele>671.8</ele>
        <time>2013-01-20T10:18:00Z</time>
      </trkpt>
      <trkpt lat="44.47548" lon="2.42983">
        <ele>672.1</ele>
        <time>2013-01-20T10:18:02Z</time>
      </trkpt>
      <trkpt lat="44.47548" lon="2.42978">
        <ele>672.2</ele>
        <time>2013-01-20T10:18:04Z</time>
      </trkpt>
      <trkpt lat="44.47548" lon="2.42974">
        <ele>672.7</ele>
        <time>2013-01-20T10:18:06Z</time>
      </trkpt>
      <trkpt lat="44.47548" lon="2.42969">
        <ele>673.2</ele>
        <time>2013-01-20T10:18:08Z</time>
      </trkpt>
      <trkpt lat="44.47548" lon="2.42965">
        <ele>672.5</ele>
        <time>2013-01-20T10:18:10Z</time>
      </trkpt>
      <trkpt lat="44.47548" lon="2.4296">
        <ele>672.3</ele>
        <time>2013-01-20T10:18:12Z</time>
      </trkpt>
      <trkpt lat="44.47548" lon="2.42955">
        <ele>672.3</ele>
        <time>2013-01-20T10:18:14Z</time>
      </trkpt>
      <trkpt lat="44.47548" lon="2.4295">
        <ele>673.3</ele>
        <time>2013-01-20T10:18:16Z</time>
      </trkpt>
      <trkpt lat="44.47548" lon="2.42946">
        <ele>673.6</ele>
        <time>2013-01-20T10:18:18Z</time>
      </trkpt>
      <trkpt lat="44.47548" lon="2.42941">
        <ele>673.6</ele>
        <time>2013-01-20T10:18:20Z</time>
      </trkpt>
      <trkpt lat="44.47547" lon="2.42937">
        <ele>673.5</ele>
        <time>2013-01-20T10:18:22Z</time>
      </trkpt>
      <trkpt lat="44.47547" lon="2.42932">
        <ele>673.5</ele>
        <time>2013-01-20T10:18:24Z</time>
      </trkpt>
      <trkpt lat="44.47547" lon="2.42927">
        <ele>673.2</ele>
        <time>2013-01-20T10:18:26Z</time>
      </trkpt>
      <trkpt lat="44.47546" lon="2.42922">
        <ele>673.4</ele>
        <time>2013-01-20T10:18:28Z</time>
      </trkpt>
      <trkpt lat="44.47545" lon="2.42918">
        <ele>673.8</ele>
        <time>2013-01-20T10:18:30Z</time>
      </trkpt>
      <trkpt lat="44.47545" lon="2.42915">
        <ele>673.8</ele>
        <time>2013-01-20T10:18:31Z</time>
      </trkpt>
      <trkpt lat="44.47544" lon="2.42909">
        <ele>673.7</ele>
        <time>2013-01-20T10:18:34Z</time>
      </trkpt>
      <trkpt lat="44.47543" lon="2.42905">
        <ele>673.6</ele>
        <time>2013-01-20T10:18:36Z</time>
      </trkpt>
      <trkpt lat="44.47542" lon="2.429">
        <ele>673.8</ele>
        <time>2013-01-20T10:18:38Z</time>
      </trkpt>
      <trkpt lat="44.47542" lon="2.42896">
        <ele>674</ele>
        <time>2013-01-20T10:18:40Z</time>
      </trkpt>
      <trkpt lat="44.47541" lon="2.42891">
        <ele>674.1</ele>
        <time>2013-01-20T10:18:42Z</time>
      </trkpt>
      <trkpt lat="44.4754" lon="2.42887">
        <ele>673.9</ele>
        <time>2013-01-20T10:18:44Z</time>
      </trkpt>
      <trkpt lat="44.47538" lon="2.42882">
        <ele>673.6</ele>
        <time>2013-01-20T10:18:46Z</time>
      </trkpt>
      <trkpt lat="44.47537" lon="2.42878">
        <ele>673.8</ele>
        <time>2013-01-20T10:18:48Z</time>
      </trkpt>
      <trkpt lat="44.47536" lon="2.42874">
        <ele>674.5</ele>
        <time>2013-01-20T10:18:50Z</time>
      </trkpt>
      <trkpt lat="44.47534" lon="2.42868">
        <ele>675.2</ele>
        <time>2013-01-20T10:18:53Z</time>
      </trkpt>
      <trkpt lat="44.47533" lon="2.42862">
        <ele>675.3</ele>
        <time>2013-01-20T10:18:56Z</time>
      </trkpt>
      <trkpt lat="44.47531" lon="2.42858">
        <ele>676</ele>
        <time>2013-01-20T10:18:59Z</time>
      </trkpt>
      <trkpt lat="44.4753" lon="2.42853">
        <ele>676</ele>
        <time>2013-01-20T10:19:02Z</time>
      </trkpt>
      <trkpt lat="44.47529" lon="2.42847">
        <ele>677</ele>
        <time>2013-01-20T10:19:07Z</time>
      </trkpt>
      <trkpt lat="44.47527" lon="2.42842">
        <ele>678.5</ele>
        <time>2013-01-20T10:19:11Z</time>
      </trkpt>
      <trkpt lat="44.47526" lon="2.42837">
        <ele>678.5</ele>
        <time>2013-01-20T10:19:14Z</time>
      </trkpt>
      <trkpt lat="44.47524" lon="2.42833">
        <ele>679.2</ele>
        <time>2013-01-20T10:19:17Z</time>
      </trkpt>
      <trkpt lat="44.47523" lon="2.42828">
        <ele>679.7</ele>
        <time>2013-01-20T10:19:20Z</time>
      </trkpt>
      <trkpt lat="44.47522" lon="2.42823">
        <ele>680</ele>
        <time>2013-01-20T10:19:23Z</time>
      </trkpt>
      <trkpt lat="44.47521" lon="2.42817">
        <ele>681.3</ele>
        <time>2013-01-20T10:19:26Z</time>
      </trkpt>
      <trkpt lat="44.4752" lon="2.42812">
        <ele>681.5</ele>
        <time>2013-01-20T10:19:29Z</time>
      </trkpt>
      <trkpt lat="44.47519" lon="2.42806">
        <ele>682.2</ele>
        <time>2013-01-20T10:19:33Z</time>
      </trkpt>
      <trkpt lat="44.47519" lon="2.42805">
        <ele>682.4</ele>
        <time>2013-01-20T10:19:34Z</time>
      </trkpt>
      <trkpt lat="44.47518" lon="2.42796">
        <ele>683.7</ele>
        <time>2013-01-20T10:19:39Z</time>
      </trkpt>
      <trkpt lat="44.47517" lon="2.42791">
        <ele>684.1</ele>
        <time>2013-01-20T10:19:42Z</time>
      </trkpt>
      <trkpt lat="44.47516" lon="2.42785">
        <ele>684.9</ele>
        <time>2013-01-20T10:19:45Z</time>
      </trkpt>
      <trkpt lat="44.47514" lon="2.4278">
        <ele>685.2</ele>
        <time>2013-01-20T10:19:49Z</time>
      </trkpt>
      <trkpt lat="44.47513" lon="2.42775">
        <ele>685.1</ele>
        <time>2013-01-20T10:19:52Z</time>
      </trkpt>
      <trkpt lat="44.47513" lon="2.4277">
        <ele>686</ele>
        <time>2013-01-20T10:19:55Z</time>
      </trkpt>
      <trkpt lat="44.47512" lon="2.42764">
        <ele>686.9</ele>
        <time>2013-01-20T10:19:59Z</time>
      </trkpt>
      <trkpt lat="44.47511" lon="2.42758">
        <ele>688.2</ele>
        <time>2013-01-20T10:20:03Z</time>
      </trkpt>
      <trkpt lat="44.4751" lon="2.42752">
        <ele>688.3</ele>
        <time>2013-01-20T10:20:07Z</time>
      </trkpt>
      <trkpt lat="44.47509" lon="2.42746">
        <ele>688.6</ele>
        <time>2013-01-20T10:20:11Z</time>
      </trkpt>
      <trkpt lat="44.47509" lon="2.42742">
        <ele>689.7</ele>
        <time>2013-01-20T10:20:14Z</time>
      </trkpt>
      <trkpt lat="44.47508" lon="2.42736">
        <ele>690.5</ele>
        <time>2013-01-20T10:20:18Z</time>
      </trkpt>
      <trkpt lat="44.47508" lon="2.42731">
        <ele>690.3</ele>
        <time>2013-01-20T10:20:21Z</time>
      </trkpt>
      <trkpt lat="44.47506" lon="2.42725">
        <ele>691</ele>
        <time>2013-01-20T10:20:25Z</time>
      </trkpt>
      <trkpt lat="44.47505" lon="2.42719">
        <ele>692</ele>
        <time>2013-01-20T10:20:29Z</time>
      </trkpt>
      <trkpt lat="44.47504" lon="2.42713">
        <ele>692.1</ele>
        <time>2013-01-20T10:20:33Z</time>
      </trkpt>
      <trkpt lat="44.47503" lon="2.42709">
        <ele>692.9</ele>
        <time>2013-01-20T10:20:36Z</time>
      </trkpt>
      <trkpt lat="44.47502" lon="2.42707">
        <ele>693.2</ele>
        <time>2013-01-20T10:20:37Z</time>
      </trkpt>
      <trkpt lat="44.475" lon="2.42698">
        <ele>694.5</ele>
        <time>2013-01-20T10:20:42Z</time>
      </trkpt>
      <trkpt lat="44.47498" lon="2.42693">
        <ele>695.4</ele>
        <time>2013-01-20T10:20:45Z</time>
      </trkpt>
      <trkpt lat="44.47497" lon="2.42688">
        <ele>696.1</ele>
        <time>2013-01-20T10:20:48Z</time>
      </trkpt>
      <trkpt lat="44.47496" lon="2.42682">
        <ele>696.7</ele>
        <time>2013-01-20T10:20:51Z</time>
      </trkpt>
      <trkpt lat="44.47495" lon="2.42676">
        <ele>697.5</ele>
        <time>2013-01-20T10:20:54Z</time>
      </trkpt>
      <trkpt lat="44.47495" lon="2.42671">
        <ele>697.1</ele>
        <time>2013-01-20T10:20:57Z</time>
      </trkpt>
      <trkpt lat="44.47496" lon="2.42665">
        <ele>698.5</ele>
        <time>2013-01-20T10:21:00Z</time>
      </trkpt>
      <trkpt lat="44.47496" lon="2.42659">
        <ele>699.1</ele>
        <time>2013-01-20T10:21:03Z</time>
      </trkpt>
      <trkpt lat="44.47497" lon="2.42653">
        <ele>700.8</ele>
        <time>2013-01-20T10:21:06Z</time>
      </trkpt>
      <trkpt lat="44.47496" lon="2.42648">
        <ele>701.8</ele>
        <time>2013-01-20T10:21:09Z</time>
      </trkpt>
      <trkpt lat="44.47495" lon="2.42643">
        <ele>701.8</ele>
        <time>2013-01-20T10:21:12Z</time>
      </trkpt>
      <trkpt lat="44.47496" lon="2.42637">
        <ele>700.9</ele>
        <time>2013-01-20T10:21:16Z</time>
      </trkpt>
      <trkpt lat="44.47498" lon="2.42632">
        <ele>701.7</ele>
        <time>2013-01-20T10:21:25Z</time>
      </trkpt>
      <trkpt lat="44.47498" lon="2.42627">
        <ele>701.4</ele>
        <time>2013-01-20T10:21:28Z</time>
      </trkpt>
      <trkpt lat="44.475" lon="2.42622">
        <ele>701.3</ele>
        <time>2013-01-20T10:21:31Z</time>
      </trkpt>
      <trkpt lat="44.47501" lon="2.42616">
        <ele>701</ele>
        <time>2013-01-20T10:21:34Z</time>
      </trkpt>
      <trkpt lat="44.47501" lon="2.42611">
        <ele>701</ele>
        <time>2013-01-20T10:21:37Z</time>
      </trkpt>
      <trkpt lat="44.47501" lon="2.4261">
        <ele>701</ele>
        <time>2013-01-20T10:21:38Z</time>
      </trkpt>
      <trkpt lat="44.47503" lon="2.42602">
        <ele>701</ele>
        <time>2013-01-20T10:21:42Z</time>
      </trkpt>
      <trkpt lat="44.47503" lon="2.42598">
        <ele>700.6</ele>
        <time>2013-01-20T10:21:44Z</time>
      </trkpt>
      <trkpt lat="44.47503" lon="2.42593">
        <ele>700.7</ele>
        <time>2013-01-20T10:21:46Z</time>
      </trkpt>
      <trkpt lat="44.47504" lon="2.42588">
        <ele>701.2</ele>
        <time>2013-01-20T10:21:48Z</time>
      </trkpt>
      <trkpt lat="44.47504" lon="2.42583">
        <ele>700.6</ele>
        <time>2013-01-20T10:21:50Z</time>
      </trkpt>
      <trkpt lat="44.47505" lon="2.42578">
        <ele>700.7</ele>
        <time>2013-01-20T10:21:52Z</time>
      </trkpt>
      <trkpt lat="44.47505" lon="2.42574">
        <ele>701</ele>
        <time>2013-01-20T10:21:54Z</time>
      </trkpt>
      <trkpt lat="44.47504" lon="2.42569">
        <ele>701</ele>
        <time>2013-01-20T10:21:56Z</time>
      </trkpt>
      <trkpt lat="44.47503" lon="2.42564">
        <ele>701</ele>
        <time>2013-01-20T10:21:58Z</time>
      </trkpt>
      <trkpt lat="44.47501" lon="2.4256">
        <ele>700.7</ele>
        <time>2013-01-20T10:22:00Z</time>
      </trkpt>
      <trkpt lat="44.47498" lon="2.42555">
        <ele>700.5</ele>
        <time>2013-01-20T10:22:02Z</time>
      </trkpt>
      <trkpt lat="44.47496" lon="2.42551">
        <ele>700.3</ele>
        <time>2013-01-20T10:22:04Z</time>
      </trkpt>
      <trkpt lat="44.47493" lon="2.42546">
        <ele>699.9</ele>
        <time>2013-01-20T10:22:07Z</time>
      </trkpt>
      <trkpt lat="44.47491" lon="2.42543">
        <ele>699.1</ele>
        <time>2013-01-20T10:22:17Z</time>
      </trkpt>
      <trkpt lat="44.47487" lon="2.42544">
        <ele>699.2</ele>
        <time>2013-01-20T10:22:20Z</time>
      </trkpt>
      <trkpt lat="44.47485" lon="2.42545">
        <ele>698.6</ele>
        <time>2013-01-20T10:22:21Z</time>
      </trkpt>
      <trkpt lat="44.47482" lon="2.42548">
        <ele>698.1</ele>
        <time>2013-01-20T10:22:22Z</time>
      </trkpt>
      <trkpt lat="44.47478" lon="2.4255">
        <ele>697.7</ele>
        <time>2013-01-20T10:22:23Z</time>
      </trkpt>
      <trkpt lat="44.47473" lon="2.42553">
        <ele>697.5</ele>
        <time>2013-01-20T10:22:24Z</time>
      </trkpt>
      <trkpt lat="44.47468" lon="2.42555">
        <ele>697.3</ele>
        <time>2013-01-20T10:22:25Z</time>
      </trkpt>
      <trkpt lat="44.47463" lon="2.42557">
        <ele>697.1</ele>
        <time>2013-01-20T10:22:26Z</time>
      </trkpt>
      <trkpt lat="44.47458" lon="2.42557">
        <ele>696.4</ele>
        <time>2013-01-20T10:22:27Z</time>
      </trkpt>
      <trkpt lat="44.47453" lon="2.42555">
        <ele>695.9</ele>
        <time>2013-01-20T10:22:28Z</time>
      </trkpt>
      <trkpt lat="44.47448" lon="2.42552">
        <ele>695.5</ele>
        <time>2013-01-20T10:22:29Z</time>
      </trkpt>
      <trkpt lat="44.47443" lon="2.42549">
        <ele>694.9</ele>
        <time>2013-01-20T10:22:30Z</time>
      </trkpt>
      <trkpt lat="44.47439" lon="2.42547">
        <ele>694.4</ele>
        <time>2013-01-20T10:22:31Z</time>
      </trkpt>
      <trkpt lat="44.47434" lon="2.42544">
        <ele>694</ele>
        <time>2013-01-20T10:22:32Z</time>
      </trkpt>
      <trkpt lat="44.4743" lon="2.42541">
        <ele>693.7</ele>
        <time>2013-01-20T10:22:33Z</time>
      </trkpt>
      <trkpt lat="44.47426" lon="2.42537">
        <ele>693.5</ele>
        <time>2013-01-20T10:22:34Z</time>
      </trkpt>
      <trkpt lat="44.47421" lon="2.42533">
        <ele>693.3</ele>
        <time>2013-01-20T10:22:35Z</time>
      </trkpt>
      <trkpt lat="44.47417" lon="2.4253">
        <ele>693.2</ele>
        <time>2013-01-20T10:22:36Z</time>
      </trkpt>
      <trkpt lat="44.47414" lon="2.42525">
        <ele>692.4</ele>
        <time>2013-01-20T10:22:37Z</time>
      </trkpt>
      <trkpt lat="44.4741" lon="2.4252">
        <ele>691.9</ele>
        <time>2013-01-20T10:22:38Z</time>
      </trkpt>
      <trkpt lat="44.47407" lon="2.42515">
        <ele>691.4</ele>
        <time>2013-01-20T10:22:39Z</time>
      </trkpt>
      <trkpt lat="44.47404" lon="2.4251">
        <ele>690.6</ele>
        <time>2013-01-20T10:22:40Z</time>
      </trkpt>
      <trkpt lat="44.47401" lon="2.42506">
        <ele>690</ele>
        <time>2013-01-20T10:22:41Z</time>
      </trkpt>
      <trkpt lat="44.47398" lon="2.42502">
        <ele>689.5</ele>
        <time>2013-01-20T10:22:42Z</time>
      </trkpt>
      <trkpt lat="44.47395" lon="2.42498">
        <ele>689.2</ele>
        <time>2013-01-20T10:22:43Z</time>
      </trkpt>
      <trkpt lat="44.47392" lon="2.42496">
        <ele>689</ele>
        <time>2013-01-20T10:22:44Z</time>
      </trkpt>
      <trkpt lat="44.4739" lon="2.42493">
        <ele>688.8</ele>
        <time>2013-01-20T10:22:45Z</time>
      </trkpt>
      <trkpt lat="44.47387" lon="2.42491">
        <ele>689</ele>
        <time>2013-01-20T10:22:46Z</time>
      </trkpt>
      <trkpt lat="44.47384" lon="2.42489">
        <ele>689.2</ele>
        <time>2013-01-20T10:22:47Z</time>
      </trkpt>
      <trkpt lat="44.47382" lon="2.42487">
        <ele>689.4</ele>
        <time>2013-01-20T10:22:48Z</time>
      </trkpt>
      <trkpt lat="44.4738" lon="2.42484">
        <ele>689.5</ele>
        <time>2013-01-20T10:22:49Z</time>
      </trkpt>
      <trkpt lat="44.47377" lon="2.42483">
        <ele>689.6</ele>
        <time>2013-01-20T10:22:50Z</time>
      </trkpt>
      <trkpt lat="44.47375" lon="2.42481">
        <ele>689.6</ele>
        <time>2013-01-20T10:22:51Z</time>
      </trkpt>
      <trkpt lat="44.47373" lon="2.4248">
        <ele>689.7</ele>
        <time>2013-01-20T10:22:52Z</time>
      </trkpt>
      <trkpt lat="44.47371" lon="2.42478">
        <ele>689.7</ele>
        <time>2013-01-20T10:22:53Z</time>
      </trkpt>
      <trkpt lat="44.47368" lon="2.42477">
        <ele>689.7</ele>
        <time>2013-01-20T10:22:54Z</time>
      </trkpt>
      <trkpt lat="44.47366" lon="2.42476">
        <ele>689.7</ele>
        <time>2013-01-20T10:22:55Z</time>
      </trkpt>
      <trkpt lat="44.47362" lon="2.42473">
        <ele>689.7</ele>
        <time>2013-01-20T10:22:57Z</time>
      </trkpt>
      <trkpt lat="44.47358" lon="2.42471">
        <ele>690.4</ele>
        <time>2013-01-20T10:22:59Z</time>
      </trkpt>
      <trkpt lat="44.47354" lon="2.42469">
        <ele>691.3</ele>
        <time>2013-01-20T10:23:01Z</time>
      </trkpt>
      <trkpt lat="44.47351" lon="2.42467">
        <ele>691.8</ele>
        <time>2013-01-20T10:23:03Z</time>
      </trkpt>
      <trkpt lat="44.47348" lon="2.42464">
        <ele>692.1</ele>
        <time>2013-01-20T10:23:05Z</time>
      </trkpt>
      <trkpt lat="44.47345" lon="2.42462">
        <ele>691.6</ele>
        <time>2013-01-20T10:23:07Z</time>
      </trkpt>
      <trkpt lat="44.47341" lon="2.4246">
        <ele>692</ele>
        <time>2013-01-20T10:23:09Z</time>
      </trkpt>
      <trkpt lat="44.47338" lon="2.42457">
        <ele>692.7</ele>
        <time>2013-01-20T10:23:11Z</time>
      </trkpt>
      <trkpt lat="44.47335" lon="2.42454">
        <ele>693.1</ele>
        <time>2013-01-20T10:23:13Z</time>
      </trkpt>
      <trkpt lat="44.47332" lon="2.42449">
        <ele>693.8</ele>
        <time>2013-01-20T10:23:16Z</time>
      </trkpt>
      <trkpt lat="44.4733" lon="2.42447">
        <ele>694.5</ele>
        <time>2013-01-20T10:23:18Z</time>
      </trkpt>
      <trkpt lat="44.47328" lon="2.42444">
        <ele>695.1</ele>
        <time>2013-01-20T10:23:20Z</time>
      </trkpt>
      <trkpt lat="44.47325" lon="2.42441">
        <ele>695.3</ele>
        <time>2013-01-20T10:23:22Z</time>
      </trkpt>
      <trkpt lat="44.47322" lon="2.42436">
        <ele>695.5</ele>
        <time>2013-01-20T10:23:25Z</time>
      </trkpt>
      <trkpt lat="44.4732" lon="2.42433">
        <ele>695.7</ele>
        <time>2013-01-20T10:23:27Z</time>
      </trkpt>
      <trkpt lat="44.47316" lon="2.42429">
        <ele>697.1</ele>
        <time>2013-01-20T10:23:30Z</time>
      </trkpt>
      <trkpt lat="44.47313" lon="2.42428">
        <ele>697.2</ele>
        <time>2013-01-20T10:23:32Z</time>
      </trkpt>
      <trkpt lat="44.47309" lon="2.42425">
        <ele>697</ele>
        <time>2013-01-20T10:23:35Z</time>
      </trkpt>
      <trkpt lat="44.47306" lon="2.42424">
        <ele>697.2</ele>
        <time>2013-01-20T10:23:37Z</time>
      </trkpt>
      <trkpt lat="44.47303" lon="2.42421">
        <ele>697.6</ele>
        <time>2013-01-20T10:23:39Z</time>
      </trkpt>
      <trkpt lat="44.47301" lon="2.4242">
        <ele>697.8</ele>
        <time>2013-01-20T10:23:40Z</time>
      </trkpt>
      <trkpt lat="44.47296" lon="2.42418">
        <ele>698.5</ele>
        <time>2013-01-20T10:23:43Z</time>
      </trkpt>
      <trkpt lat="44.47293" lon="2.42416">
        <ele>698.9</ele>
        <time>2013-01-20T10:23:45Z</time>
      </trkpt>
      <trkpt lat="44.47289" lon="2.42414">
        <ele>699.5</ele>
        <time>2013-01-20T10:23:48Z</time>
      </trkpt>
      <trkpt lat="44.47285" lon="2.42412">
        <ele>699.5</ele>
        <time>2013-01-20T10:23:51Z</time>
      </trkpt>
      <trkpt lat="44.47282" lon="2.42411">
        <ele>699.3</ele>
        <time>2013-01-20T10:23:54Z</time>
      </trkpt>
      <trkpt lat="44.47278" lon="2.42408">
        <ele>699.7</ele>
        <time>2013-01-20T10:23:57Z</time>
      </trkpt>
      <trkpt lat="44.47275" lon="2.42406">
        <ele>700.2</ele>
        <time>2013-01-20T10:23:59Z</time>
      </trkpt>
      <trkpt lat="44.47272" lon="2.42404">
        <ele>700.2</ele>
        <time>2013-01-20T10:24:02Z</time>
      </trkpt>
      <trkpt lat="44.47268" lon="2.42401">
        <ele>700.8</ele>
        <time>2013-01-20T10:24:05Z</time>
      </trkpt>
      <trkpt lat="44.47265" lon="2.42399">
        <ele>701.4</ele>
        <time>2013-01-20T10:24:07Z</time>
      </trkpt>
      <trkpt lat="44.47261" lon="2.42396">
        <ele>701.7</ele>
        <time>2013-01-20T10:24:10Z</time>
      </trkpt>
      <trkpt lat="44.47257" lon="2.42393">
        <ele>702.2</ele>
        <time>2013-01-20T10:24:13Z</time>
      </trkpt>
      <trkpt lat="44.47254" lon="2.42392">
        <ele>702.7</ele>
        <time>2013-01-20T10:24:15Z</time>
      </trkpt>
      <trkpt lat="44.4725" lon="2.42389">
        <ele>703.8</ele>
        <time>2013-01-20T10:24:18Z</time>
      </trkpt>
      <trkpt lat="44.47247" lon="2.42388">
        <ele>704.2</ele>
        <time>2013-01-20T10:24:20Z</time>
      </trkpt>
      <trkpt lat="44.47244" lon="2.42386">
        <ele>704.8</ele>
        <time>2013-01-20T10:24:22Z</time>
      </trkpt>
      <trkpt lat="44.4724" lon="2.42383">
        <ele>705.7</ele>
        <time>2013-01-20T10:24:25Z</time>
      </trkpt>
      <trkpt lat="44.47236" lon="2.42381">
        <ele>706.1</ele>
        <time>2013-01-20T10:24:28Z</time>
      </trkpt>
      <trkpt lat="44.47232" lon="2.42379">
        <ele>704.8</ele>
        <time>2013-01-20T10:24:31Z</time>
      </trkpt>
      <trkpt lat="44.47229" lon="2.42378">
        <ele>705</ele>
        <time>2013-01-20T10:24:33Z</time>
      </trkpt>
      <trkpt lat="44.47226" lon="2.42376">
        <ele>705.2</ele>
        <time>2013-01-20T10:24:35Z</time>
      </trkpt>
      <trkpt lat="44.47223" lon="2.42375">
        <ele>705.5</ele>
        <time>2013-01-20T10:24:37Z</time>
      </trkpt>
      <trkpt lat="44.4722" lon="2.42374">
        <ele>706.8</ele>
        <time>2013-01-20T10:24:39Z</time>
      </trkpt>
      <trkpt lat="44.47217" lon="2.42373">
        <ele>707.7</ele>
        <time>2013-01-20T10:24:41Z</time>
      </trkpt>
      <trkpt lat="44.47215" lon="2.42372">
        <ele>708.1</ele>
        <time>2013-01-20T10:24:42Z</time>
      </trkpt>
      <trkpt lat="44.47208" lon="2.4237">
        <ele>707.6</ele>
        <time>2013-01-20T10:24:47Z</time>
      </trkpt>
      <trkpt lat="44.47204" lon="2.42369">
        <ele>708.5</ele>
        <time>2013-01-20T10:24:50Z</time>
      </trkpt>
      <trkpt lat="44.47201" lon="2.42367">
        <ele>709.2</ele>
        <time>2013-01-20T10:24:53Z</time>
      </trkpt>
      <trkpt lat="44.47197" lon="2.42365">
        <ele>709.8</ele>
        <time>2013-01-20T10:24:56Z</time>
      </trkpt>
      <trkpt lat="44.47194" lon="2.42364">
        <ele>710.8</ele>
        <time>2013-01-20T10:24:58Z</time>
      </trkpt>
      <trkpt lat="44.47191" lon="2.42362">
        <ele>711.2</ele>
        <time>2013-01-20T10:25:00Z</time>
      </trkpt>
      <trkpt lat="44.47187" lon="2.42361">
        <ele>711.3</ele>
        <time>2013-01-20T10:25:02Z</time>
      </trkpt>
      <trkpt lat="44.47184" lon="2.4236">
        <ele>711.4</ele>
        <time>2013-01-20T10:25:04Z</time>
      </trkpt>
      <trkpt lat="44.47181" lon="2.42359">
        <ele>711.6</ele>
        <time>2013-01-20T10:25:06Z</time>
      </trkpt>
      <trkpt lat="44.47178" lon="2.42358">
        <ele>711.6</ele>
        <time>2013-01-20T10:25:08Z</time>
      </trkpt>
      <trkpt lat="44.47174" lon="2.42357">
        <ele>712</ele>
        <time>2013-01-20T10:25:11Z</time>
      </trkpt>
      <trkpt lat="44.4717" lon="2.42356">
        <ele>713</ele>
        <time>2013-01-20T10:25:14Z</time>
      </trkpt>
      <trkpt lat="44.47166" lon="2.42356">
        <ele>713.3</ele>
        <time>2013-01-20T10:25:17Z</time>
      </trkpt>
      <trkpt lat="44.47161" lon="2.42357">
        <ele>713.2</ele>
        <time>2013-01-20T10:25:20Z</time>
      </trkpt>
      <trkpt lat="44.47157" lon="2.42356">
        <ele>713.5</ele>
        <time>2013-01-20T10:25:23Z</time>
      </trkpt>
      <trkpt lat="44.47153" lon="2.42358">
        <ele>714.6</ele>
        <time>2013-01-20T10:25:26Z</time>
      </trkpt>
      <trkpt lat="44.47149" lon="2.42359">
        <ele>715</ele>
        <time>2013-01-20T10:25:29Z</time>
      </trkpt>
      <trkpt lat="44.47146" lon="2.4236">
        <ele>715.3</ele>
        <time>2013-01-20T10:25:32Z</time>
      </trkpt>
      <trkpt lat="44.47142" lon="2.42361">
        <ele>716.1</ele>
        <time>2013-01-20T10:25:35Z</time>
      </trkpt>
      <trkpt lat="44.47138" lon="2.42362">
        <ele>715.7</ele>
        <time>2013-01-20T10:25:38Z</time>
      </trkpt>
      <trkpt lat="44.47134" lon="2.42364">
        <ele>716</ele>
        <time>2013-01-20T10:25:41Z</time>
      </trkpt>
      <trkpt lat="44.4713" lon="2.42366">
        <ele>716.4</ele>
        <time>2013-01-20T10:25:44Z</time>
      </trkpt>
      <trkpt lat="44.47129" lon="2.42366">
        <ele>716.8</ele>
        <time>2013-01-20T10:25:45Z</time>
      </trkpt>
      <trkpt lat="44.47122" lon="2.42369">
        <ele>718</ele>
        <time>2013-01-20T10:25:51Z</time>
      </trkpt>
      <trkpt lat="44.47118" lon="2.42371">
        <ele>718.3</ele>
        <time>2013-01-20T10:25:54Z</time>
      </trkpt>
      <trkpt lat="44.47114" lon="2.42373">
        <ele>719.5</ele>
        <time>2013-01-20T10:25:57Z</time>
      </trkpt>
      <trkpt lat="44.4711" lon="2.42375">
        <ele>719.9</ele>
        <time>2013-01-20T10:26:00Z</time>
      </trkpt>
      <trkpt lat="44.47106" lon="2.42376">
        <ele>720.6</ele>
        <time>2013-01-20T10:26:03Z</time>
      </trkpt>
      <trkpt lat="44.47102" lon="2.42378">
        <ele>721</ele>
        <time>2013-01-20T10:26:06Z</time>
      </trkpt>
      <trkpt lat="44.47098" lon="2.4238">
        <ele>721.4</ele>
        <time>2013-01-20T10:26:09Z</time>
      </trkpt>
      <trkpt lat="44.47094" lon="2.42382">
        <ele>721.8</ele>
        <time>2013-01-20T10:26:12Z</time>
      </trkpt>
      <trkpt lat="44.47091" lon="2.42383">
        <ele>722.2</ele>
        <time>2013-01-20T10:26:14Z</time>
      </trkpt>
      <trkpt lat="44.47088" lon="2.42384">
        <ele>722.6</ele>
        <time>2013-01-20T10:26:16Z</time>
      </trkpt>
      <trkpt lat="44.47085" lon="2.42385">
        <ele>723.3</ele>
        <time>2013-01-20T10:26:18Z</time>
      </trkpt>
      <trkpt lat="44.47081" lon="2.42387">
        <ele>723.9</ele>
        <time>2013-01-20T10:26:21Z</time>
      </trkpt>
      <trkpt lat="44.47078" lon="2.42389">
        <ele>724.3</ele>
        <time>2013-01-20T10:26:23Z</time>
      </trkpt>
      <trkpt lat="44.47074" lon="2.42391">
        <ele>724.8</ele>
        <time>2013-01-20T10:26:26Z</time>
      </trkpt>
      <trkpt lat="44.47071" lon="2.42392">
        <ele>725.1</ele>
        <time>2013-01-20T10:26:28Z</time>
      </trkpt>
      <trkpt lat="44.47069" lon="2.42394">
        <ele>725.7</ele>
        <time>2013-01-20T10:26:30Z</time>
      </trkpt>
      <trkpt lat="44.47065" lon="2.42397">
        <ele>726.4</ele>
        <time>2013-01-20T10:26:32Z</time>
      </trkpt>
      <trkpt lat="44.47061" lon="2.424">
        <ele>727.4</ele>
        <time>2013-01-20T10:26:34Z</time>
      </trkpt>
      <trkpt lat="44.47058" lon="2.42404">
        <ele>727.8</ele>
        <time>2013-01-20T10:26:36Z</time>
      </trkpt>
      <trkpt lat="44.47056" lon="2.42407">
        <ele>728</ele>
        <time>2013-01-20T10:26:37Z</time>
      </trkpt>
      <trkpt lat="44.47054" lon="2.42409">
        <ele>728.1</ele>
        <time>2013-01-20T10:26:38Z</time>
      </trkpt>
      <trkpt lat="44.47051" lon="2.42411">
        <ele>728.5</ele>
        <time>2013-01-20T10:26:39Z</time>
      </trkpt>
      <trkpt lat="44.47049" lon="2.42416">
        <ele>729</ele>
        <time>2013-01-20T10:26:41Z</time>
      </trkpt>
      <trkpt lat="44.47047" lon="2.42419">
        <ele>729.5</ele>
        <time>2013-01-20T10:26:43Z</time>
      </trkpt>
      <trkpt lat="44.47045" lon="2.42423">
        <ele>729.9</ele>
        <time>2013-01-20T10:26:45Z</time>
      </trkpt>
      <trkpt lat="44.47044" lon="2.42425">
        <ele>729.9</ele>
        <time>2013-01-20T10:26:46Z</time>
      </trkpt>
      <trkpt lat="44.4704" lon="2.42432">
        <ele>730.6</ele>
        <time>2013-01-20T10:26:49Z</time>
      </trkpt>
      <trkpt lat="44.47038" lon="2.42436">
        <ele>731.7</ele>
        <time>2013-01-20T10:26:51Z</time>
      </trkpt>
      <trkpt lat="44.47037" lon="2.42442">
        <ele>732.1</ele>
        <time>2013-01-20T10:26:54Z</time>
      </trkpt>
      <trkpt lat="44.47034" lon="2.42447">
        <ele>732.4</ele>
        <time>2013-01-20T10:26:57Z</time>
      </trkpt>
      <trkpt lat="44.47033" lon="2.42452">
        <ele>732.8</ele>
        <time>2013-01-20T10:27:00Z</time>
      </trkpt>
      <trkpt lat="44.47032" lon="2.42458">
        <ele>733.5</ele>
        <time>2013-01-20T10:27:04Z</time>
      </trkpt>
      <trkpt lat="44.4703" lon="2.42464">
        <ele>734.4</ele>
        <time>2013-01-20T10:27:08Z</time>
      </trkpt>
      <trkpt lat="44.4703" lon="2.42469">
        <ele>734.4</ele>
        <time>2013-01-20T10:27:11Z</time>
      </trkpt>
      <trkpt lat="44.47029" lon="2.42475">
        <ele>735</ele>
        <time>2013-01-20T10:27:14Z</time>
      </trkpt>
      <trkpt lat="44.47028" lon="2.42481">
        <ele>736.1</ele>
        <time>2013-01-20T10:27:17Z</time>
      </trkpt>
      <trkpt lat="44.47028" lon="2.42487">
        <ele>736.5</ele>
        <time>2013-01-20T10:27:20Z</time>
      </trkpt>
      <trkpt lat="44.47027" lon="2.42492">
        <ele>737</ele>
        <time>2013-01-20T10:27:23Z</time>
      </trkpt>
      <trkpt lat="44.47028" lon="2.42496">
        <ele>737.2</ele>
        <time>2013-01-20T10:27:26Z</time>
      </trkpt>
      <trkpt lat="44.47029" lon="2.42501">
        <ele>738.2</ele>
        <time>2013-01-20T10:27:29Z</time>
      </trkpt>
      <trkpt lat="44.47029" lon="2.42507">
        <ele>738.1</ele>
        <time>2013-01-20T10:27:32Z</time>
      </trkpt>
      <trkpt lat="44.47029" lon="2.42512">
        <ele>738.5</ele>
        <time>2013-01-20T10:27:35Z</time>
      </trkpt>
      <trkpt lat="44.47029" lon="2.42518">
        <ele>739</ele>
        <time>2013-01-20T10:27:38Z</time>
      </trkpt>
      <trkpt lat="44.4703" lon="2.42524">
        <ele>739.1</ele>
        <time>2013-01-20T10:27:41Z</time>
      </trkpt>
      <trkpt lat="44.4703" lon="2.4253">
        <ele>739.4</ele>
        <time>2013-01-20T10:27:44Z</time>
      </trkpt>
      <trkpt lat="44.47031" lon="2.42536">
        <ele>739.9</ele>
        <time>2013-01-20T10:27:47Z</time>
      </trkpt>
      <trkpt lat="44.47031" lon="2.42538">
        <ele>740.1</ele>
        <time>2013-01-20T10:27:48Z</time>
      </trkpt>
      <trkpt lat="44.47033" lon="2.42548">
        <ele>740.8</ele>
        <time>2013-01-20T10:27:53Z</time>
      </trkpt>
      <trkpt lat="44.47034" lon="2.42553">
        <ele>741.6</ele>
        <time>2013-01-20T10:27:56Z</time>
      </trkpt>
      <trkpt lat="44.47035" lon="2.42559">
        <ele>742.4</ele>
        <time>2013-01-20T10:27:59Z</time>
      </trkpt>
      <trkpt lat="44.47035" lon="2.42563">
        <ele>742.7</ele>
        <time>2013-01-20T10:28:01Z</time>
      </trkpt>
      <trkpt lat="44.47036" lon="2.42568">
        <ele>742.7</ele>
        <time>2013-01-20T10:28:03Z</time>
      </trkpt>
      <trkpt lat="44.47037" lon="2.42572">
        <ele>742.9</ele>
        <time>2013-01-20T10:28:05Z</time>
      </trkpt>
      <trkpt lat="44.47037" lon="2.42576">
        <ele>743.3</ele>
        <time>2013-01-20T10:28:07Z</time>
      </trkpt>
      <trkpt lat="44.47038" lon="2.42581">
        <ele>743.5</ele>
        <time>2013-01-20T10:28:09Z</time>
      </trkpt>
      <trkpt lat="44.47038" lon="2.42585">
        <ele>743.6</ele>
        <time>2013-01-20T10:28:11Z</time>
      </trkpt>
      <trkpt lat="44.47039" lon="2.42589">
        <ele>744.1</ele>
        <time>2013-01-20T10:28:13Z</time>
      </trkpt>
      <trkpt lat="44.4704" lon="2.42594">
        <ele>744.3</ele>
        <time>2013-01-20T10:28:15Z</time>
      </trkpt>
      <trkpt lat="44.4704" lon="2.42598">
        <ele>744.4</ele>
        <time>2013-01-20T10:28:17Z</time>
      </trkpt>
      <trkpt lat="44.47041" lon="2.42604">
        <ele>744.9</ele>
        <time>2013-01-20T10:28:20Z</time>
      </trkpt>
      <trkpt lat="44.47041" lon="2.42608">
        <ele>745.8</ele>
        <time>2013-01-20T10:28:22Z</time>
      </trkpt>
      <trkpt lat="44.47042" lon="2.42614">
        <ele>746.5</ele>
        <time>2013-01-20T10:28:25Z</time>
      </trkpt>
      <trkpt lat="44.47042" lon="2.42619">
        <ele>746.8</ele>
        <time>2013-01-20T10:28:27Z</time>
      </trkpt>
      <trkpt lat="44.47043" lon="2.42623">
        <ele>747.1</ele>
        <time>2013-01-20T10:28:29Z</time>
      </trkpt>
      <trkpt lat="44.47043" lon="2.42627">
        <ele>747.7</ele>
        <time>2013-01-20T10:28:31Z</time>
      </trkpt>
      <trkpt lat="44.47044" lon="2.42631">
        <ele>748.6</ele>
        <time>2013-01-20T10:28:33Z</time>
      </trkpt>
      <trkpt lat="44.47044" lon="2.42636">
        <ele>748</ele>
        <time>2013-01-20T10:28:35Z</time>
      </trkpt>
      <trkpt lat="44.47045" lon="2.42641">
        <ele>748.2</ele>
        <time>2013-01-20T10:28:38Z</time>
      </trkpt>
      <trkpt lat="44.47045" lon="2.42647">
        <ele>748.8</ele>
        <time>2013-01-20T10:28:41Z</time>
      </trkpt>
      <trkpt lat="44.47046" lon="2.42653">
        <ele>749.5</ele>
        <time>2013-01-20T10:28:44Z</time>
      </trkpt>
      <trkpt lat="44.47046" lon="2.42659">
        <ele>749.9</ele>
        <time>2013-01-20T10:28:47Z</time>
      </trkpt>
      <trkpt lat="44.47047" lon="2.42664">
        <ele>750.3</ele>
        <time>2013-01-20T10:28:50Z</time>
      </trkpt>
      <trkpt lat="44.47047" lon="2.42666">
        <ele>750.6</ele>
        <time>2013-01-20T10:28:51Z</time>
      </trkpt>
      <trkpt lat="44.47048" lon="2.42675">
        <ele>751.6</ele>
        <time>2013-01-20T10:28:56Z</time>
      </trkpt>
      <trkpt lat="44.47048" lon="2.42681">
        <ele>752.6</ele>
        <time>2013-01-20T10:28:59Z</time>
      </trkpt>
      <trkpt lat="44.47049" lon="2.42687">
        <ele>752.2</ele>
        <time>2013-01-20T10:29:02Z</time>
      </trkpt>
      <trkpt lat="44.47049" lon="2.42693">
        <ele>752.8</ele>
        <time>2013-01-20T10:29:05Z</time>
      </trkpt>
      <trkpt lat="44.4705" lon="2.42699">
        <ele>752.9</ele>
        <time>2013-01-20T10:29:08Z</time>
      </trkpt>
      <trkpt lat="44.4705" lon="2.42704">
        <ele>753.6</ele>
        <time>2013-01-20T10:29:11Z</time>
      </trkpt>
      <trkpt lat="44.47052" lon="2.4271">
        <ele>754.4</ele>
        <time>2013-01-20T10:29:14Z</time>
      </trkpt>
      <trkpt lat="44.47053" lon="2.42716">
        <ele>755.5</ele>
        <time>2013-01-20T10:29:17Z</time>
      </trkpt>
      <trkpt lat="44.47053" lon="2.42722">
        <ele>755.9</ele>
        <time>2013-01-20T10:29:20Z</time>
      </trkpt>
      <trkpt lat="44.47053" lon="2.42726">
        <ele>756.3</ele>
        <time>2013-01-20T10:29:22Z</time>
      </trkpt>
      <trkpt lat="44.47053" lon="2.42731">
        <ele>756.9</ele>
        <time>2013-01-20T10:29:24Z</time>
      </trkpt>
      <trkpt lat="44.47053" lon="2.42737">
        <ele>757.3</ele>
        <time>2013-01-20T10:29:27Z</time>
      </trkpt>
      <trkpt lat="44.47054" lon="2.42743">
        <ele>758</ele>
        <time>2013-01-20T10:29:30Z</time>
      </trkpt>
      <trkpt lat="44.47054" lon="2.42747">
        <ele>758.3</ele>
        <time>2013-01-20T10:29:32Z</time>
      </trkpt>
      <trkpt lat="44.47054" lon="2.42751">
        <ele>758.4</ele>
        <time>2013-01-20T10:29:34Z</time>
      </trkpt>
      <trkpt lat="44.47054" lon="2.42756">
        <ele>758.6</ele>
        <time>2013-01-20T10:29:36Z</time>
      </trkpt>
      <trkpt lat="44.47055" lon="2.42761">
        <ele>758.9</ele>
        <time>2013-01-20T10:29:39Z</time>
      </trkpt>
      <trkpt lat="44.47055" lon="2.42766">
        <ele>759.4</ele>
        <time>2013-01-20T10:29:42Z</time>
      </trkpt>
      <trkpt lat="44.47055" lon="2.42771">
        <ele>760</ele>
        <time>2013-01-20T10:29:45Z</time>
      </trkpt>
      <trkpt lat="44.47056" lon="2.42777">
        <ele>761.1</ele>
        <time>2013-01-20T10:29:48Z</time>
      </trkpt>
      <trkpt lat="44.47056" lon="2.42782">
        <ele>761.9</ele>
        <time>2013-01-20T10:29:51Z</time>
      </trkpt>
      <trkpt lat="44.47056" lon="2.42784">
        <ele>761.8</ele>
        <time>2013-01-20T10:29:52Z</time>
      </trkpt>
      <trkpt lat="44.47057" lon="2.42793">
        <ele>762.3</ele>
        <time>2013-01-20T10:29:57Z</time>
      </trkpt>
      <trkpt lat="44.47057" lon="2.42799">
        <ele>762.9</ele>
        <time>2013-01-20T10:30:00Z</time>
      </trkpt>
      <trkpt lat="44.47058" lon="2.42805">
        <ele>762.8</ele>
        <time>2013-01-20T10:30:03Z</time>
      </trkpt>
      <trkpt lat="44.47058" lon="2.4281">
        <ele>763.3</ele>
        <time>2013-01-20T10:30:06Z</time>
      </trkpt>
      <trkpt lat="44.47059" lon="2.42815">
        <ele>763.8</ele>
        <time>2013-01-20T10:30:08Z</time>
      </trkpt>
      <trkpt lat="44.4706" lon="2.42819">
        <ele>764.3</ele>
        <time>2013-01-20T10:30:10Z</time>
      </trkpt>
      <trkpt lat="44.4706" lon="2.42823">
        <ele>764.9</ele>
        <time>2013-01-20T10:30:12Z</time>
      </trkpt>
      <trkpt lat="44.47061" lon="2.42829">
        <ele>765.7</ele>
        <time>2013-01-20T10:30:15Z</time>
      </trkpt>
      <trkpt lat="44.47062" lon="2.42835">
        <ele>766.6</ele>
        <time>2013-01-20T10:30:18Z</time>
      </trkpt>
      <trkpt lat="44.47063" lon="2.4284">
        <ele>766</ele>
        <time>2013-01-20T10:30:21Z</time>
      </trkpt>
      <trkpt lat="44.47064" lon="2.42846">
        <ele>767</ele>
        <time>2013-01-20T10:30:24Z</time>
      </trkpt>
      <trkpt lat="44.47065" lon="2.42852">
        <ele>767.7</ele>
        <time>2013-01-20T10:30:27Z</time>
      </trkpt>
      <trkpt lat="44.47066" lon="2.42857">
        <ele>768.2</ele>
        <time>2013-01-20T10:30:30Z</time>
      </trkpt>
      <trkpt lat="44.47067" lon="2.42862">
        <ele>768.4</ele>
        <time>2013-01-20T10:30:33Z</time>
      </trkpt>
      <trkpt lat="44.47069" lon="2.42866">
        <ele>768.5</ele>
        <time>2013-01-20T10:30:36Z</time>
      </trkpt>
      <trkpt lat="44.47071" lon="2.42871">
        <ele>768.8</ele>
        <time>2013-01-20T10:30:39Z</time>
      </trkpt>
      <trkpt lat="44.47073" lon="2.42875">
        <ele>769.2</ele>
        <time>2013-01-20T10:30:42Z</time>
      </trkpt>
      <trkpt lat="44.47076" lon="2.42879">
        <ele>769.8</ele>
        <time>2013-01-20T10:30:45Z</time>
      </trkpt>
      <trkpt lat="44.4708" lon="2.42882">
        <ele>770.9</ele>
        <time>2013-01-20T10:30:48Z</time>
      </trkpt>
      <trkpt lat="44.47084" lon="2.42885">
        <ele>771.7</ele>
        <time>2013-01-20T10:30:51Z</time>
      </trkpt>
      <trkpt lat="44.47087" lon="2.42886">
        <ele>772.2</ele>
        <time>2013-01-20T10:30:54Z</time>
      </trkpt>
      <trkpt lat="44.47089" lon="2.42886">
        <ele>772.2</ele>
        <time>2013-01-20T10:30:55Z</time>
      </trkpt>
      <trkpt lat="44.47095" lon="2.42888">
        <ele>771.7</ele>
        <time>2013-01-20T10:30:59Z</time>
      </trkpt>
      <trkpt lat="44.47098" lon="2.42888">
        <ele>771.9</ele>
        <time>2013-01-20T10:31:01Z</time>
      </trkpt>
      <trkpt lat="44.47101" lon="2.42889">
        <ele>772.3</ele>
        <time>2013-01-20T10:31:03Z</time>
      </trkpt>
      <trkpt lat="44.47105" lon="2.42889">
        <ele>772.7</ele>
        <time>2013-01-20T10:31:05Z</time>
      </trkpt>
      <trkpt lat="44.47108" lon="2.42888">
        <ele>773.2</ele>
        <time>2013-01-20T10:31:07Z</time>
      </trkpt>
      <trkpt lat="44.47111" lon="2.42887">
        <ele>773.7</ele>
        <time>2013-01-20T10:31:09Z</time>
      </trkpt>
      <trkpt lat="44.47115" lon="2.42886">
        <ele>774.1</ele>
        <time>2013-01-20T10:31:12Z</time>
      </trkpt>
      <trkpt lat="44.47119" lon="2.42884">
        <ele>774.5</ele>
        <time>2013-01-20T10:31:15Z</time>
      </trkpt>
      <trkpt lat="44.47123" lon="2.42881">
        <ele>775.1</ele>
        <time>2013-01-20T10:31:18Z</time>
      </trkpt>
      <trkpt lat="44.47127" lon="2.42879">
        <ele>775.6</ele>
        <time>2013-01-20T10:31:21Z</time>
      </trkpt>
      <trkpt lat="44.4713" lon="2.42875">
        <ele>775.7</ele>
        <time>2013-01-20T10:31:24Z</time>
      </trkpt>
      <trkpt lat="44.47134" lon="2.42871">
        <ele>775.8</ele>
        <time>2013-01-20T10:31:27Z</time>
      </trkpt>
      <trkpt lat="44.47136" lon="2.42868">
        <ele>775.9</ele>
        <time>2013-01-20T10:31:29Z</time>
      </trkpt>
      <trkpt lat="44.47139" lon="2.42864">
        <ele>777.1</ele>
        <time>2013-01-20T10:31:32Z</time>
      </trkpt>
      <trkpt lat="44.47141" lon="2.42861">
        <ele>776.9</ele>
        <time>2013-01-20T10:31:34Z</time>
      </trkpt>
      <trkpt lat="44.47144" lon="2.42858">
        <ele>777.3</ele>
        <time>2013-01-20T10:31:36Z</time>
      </trkpt>
      <trkpt lat="44.47146" lon="2.42853">
        <ele>778.4</ele>
        <time>2013-01-20T10:31:39Z</time>
      </trkpt>
      <trkpt lat="44.47148" lon="2.4285">
        <ele>779.3</ele>
        <time>2013-01-20T10:31:41Z</time>
      </trkpt>
      <trkpt lat="44.4715" lon="2.42847">
        <ele>779.2</ele>
        <time>2013-01-20T10:31:43Z</time>
      </trkpt>
      <trkpt lat="44.47152" lon="2.42843">
        <ele>778.7</ele>
        <time>2013-01-20T10:31:45Z</time>
      </trkpt>
      <trkpt lat="44.47154" lon="2.4284">
        <ele>778.7</ele>
        <time>2013-01-20T10:31:47Z</time>
      </trkpt>
      <trkpt lat="44.47156" lon="2.42837">
        <ele>779.1</ele>
        <time>2013-01-20T10:31:49Z</time>
      </trkpt>
      <trkpt lat="44.47159" lon="2.42832">
        <ele>779.8</ele>
        <time>2013-01-20T10:31:52Z</time>
      </trkpt>
      <trkpt lat="44.47161" lon="2.42829">
        <ele>779.9</ele>
        <time>2013-01-20T10:31:54Z</time>
      </trkpt>
      <trkpt lat="44.47163" lon="2.42823">
        <ele>781</ele>
        <time>2013-01-20T10:31:57Z</time>
      </trkpt>
      <trkpt lat="44.47164" lon="2.42821">
        <ele>781.2</ele>
        <time>2013-01-20T10:31:58Z</time>
      </trkpt>
      <trkpt lat="44.47167" lon="2.42815">
        <ele>781.1</ele>
        <time>2013-01-20T10:32:01Z</time>
      </trkpt>
      <trkpt lat="44.47169" lon="2.42811">
        <ele>781.6</ele>
        <time>2013-01-20T10:32:03Z</time>
      </trkpt>
      <trkpt lat="44.4717" lon="2.42807">
        <ele>781.9</ele>
        <time>2013-01-20T10:32:05Z</time>
      </trkpt>
      <trkpt lat="44.47171" lon="2.42802">
        <ele>782.1</ele>
        <time>2013-01-20T10:32:07Z</time>
      </trkpt>
      <trkpt lat="44.47173" lon="2.42797">
        <ele>782.4</ele>
        <time>2013-01-20T10:32:10Z</time>
      </trkpt>
      <trkpt lat="44.47173" lon="2.42792">
        <ele>782.6</ele>
        <time>2013-01-20T10:32:12Z</time>
      </trkpt>
      <trkpt lat="44.47175" lon="2.42786">
        <ele>783.1</ele>
        <time>2013-01-20T10:32:15Z</time>
      </trkpt>
      <trkpt lat="44.47176" lon="2.42782">
        <ele>783.4</ele>
        <time>2013-01-20T10:32:17Z</time>
      </trkpt>
      <trkpt lat="44.47177" lon="2.42777">
        <ele>784.2</ele>
        <time>2013-01-20T10:32:19Z</time>
      </trkpt>
      <trkpt lat="44.47177" lon="2.42773">
        <ele>784.7</ele>
        <time>2013-01-20T10:32:21Z</time>
      </trkpt>
      <trkpt lat="44.47178" lon="2.42768">
        <ele>785</ele>
        <time>2013-01-20T10:32:23Z</time>
      </trkpt>
      <trkpt lat="44.47178" lon="2.42763">
        <ele>785</ele>
        <time>2013-01-20T10:32:25Z</time>
      </trkpt>
      <trkpt lat="44.47178" lon="2.42759">
        <ele>785.4</ele>
        <time>2013-01-20T10:32:27Z</time>
      </trkpt>
      <trkpt lat="44.47179" lon="2.42754">
        <ele>785.9</ele>
        <time>2013-01-20T10:32:29Z</time>
      </trkpt>
      <trkpt lat="44.47179" lon="2.42749">
        <ele>786.3</ele>
        <time>2013-01-20T10:32:31Z</time>
      </trkpt>
      <trkpt lat="44.47179" lon="2.42744">
        <ele>786.5</ele>
        <time>2013-01-20T10:32:33Z</time>
      </trkpt>
      <trkpt lat="44.4718" lon="2.42739">
        <ele>787.4</ele>
        <time>2013-01-20T10:32:35Z</time>
      </trkpt>
      <trkpt lat="44.4718" lon="2.42734">
        <ele>787.6</ele>
        <time>2013-01-20T10:32:37Z</time>
      </trkpt>
      <trkpt lat="44.4718" lon="2.42729">
        <ele>787.5</ele>
        <time>2013-01-20T10:32:39Z</time>
      </trkpt>
      <trkpt lat="44.4718" lon="2.42725">
        <ele>787.8</ele>
        <time>2013-01-20T10:32:40Z</time>
      </trkpt>
      <trkpt lat="44.47179" lon="2.42721">
        <ele>788</ele>
        <time>2013-01-20T10:32:41Z</time>
      </trkpt>
      <trkpt lat="44.47178" lon="2.42718">
        <ele>788.2</ele>
        <time>2013-01-20T10:32:42Z</time>
      </trkpt>
      <trkpt lat="44.47178" lon="2.42714">
        <ele>788.2</ele>
        <time>2013-01-20T10:32:43Z</time>
      </trkpt>
      <trkpt lat="44.47178" lon="2.42709">
        <ele>788.2</ele>
        <time>2013-01-20T10:32:45Z</time>
      </trkpt>
      <trkpt lat="44.47177" lon="2.42704">
        <ele>788.8</ele>
        <time>2013-01-20T10:32:47Z</time>
      </trkpt>
      <trkpt lat="44.47177" lon="2.42698">
        <ele>789.2</ele>
        <time>2013-01-20T10:32:49Z</time>
      </trkpt>
      <trkpt lat="44.47177" lon="2.42692">
        <ele>789.9</ele>
        <time>2013-01-20T10:32:52Z</time>
      </trkpt>
      <trkpt lat="44.47177" lon="2.42686">
        <ele>791.1</ele>
        <time>2013-01-20T10:33:10Z</time>
      </trkpt>
      <trkpt lat="44.47177" lon="2.42685">
        <ele>791.2</ele>
        <time>2013-01-20T10:33:11Z</time>
      </trkpt>
      <trkpt lat="44.47176" lon="2.42675">
        <ele>791</ele>
        <time>2013-01-20T10:33:17Z</time>
      </trkpt>
      <trkpt lat="44.47174" lon="2.4268">
        <ele>791.4</ele>
        <time>2013-01-20T10:33:21Z</time>
      </trkpt>
      <trkpt lat="44.47173" lon="2.42685">
        <ele>791.6</ele>
        <time>2013-01-20T10:33:23Z</time>
      </trkpt>
      <trkpt lat="44.47172" lon="2.4269">
        <ele>791.5</ele>
        <time>2013-01-20T10:33:26Z</time>
      </trkpt>
      <trkpt lat="44.47171" lon="2.42694">
        <ele>791.2</ele>
        <time>2013-01-20T10:33:28Z</time>
      </trkpt>
      <trkpt lat="44.47171" lon="2.42698">
        <ele>790.8</ele>
        <time>2013-01-20T10:33:30Z</time>
      </trkpt>
      <trkpt lat="44.4717" lon="2.42703">
        <ele>791.4</ele>
        <time>2013-01-20T10:33:32Z</time>
      </trkpt>
      <trkpt lat="44.47169" lon="2.42707">
        <ele>791.8</ele>
        <time>2013-01-20T10:33:34Z</time>
      </trkpt>
      <trkpt lat="44.47167" lon="2.42711">
        <ele>792.1</ele>
        <time>2013-01-20T10:33:36Z</time>
      </trkpt>
      <trkpt lat="44.47165" lon="2.42715">
        <ele>792.2</ele>
        <time>2013-01-20T10:33:38Z</time>
      </trkpt>
      <trkpt lat="44.47162" lon="2.42718">
        <ele>792.2</ele>
        <time>2013-01-20T10:33:40Z</time>
      </trkpt>
      <trkpt lat="44.47159" lon="2.42721">
        <ele>793.6</ele>
        <time>2013-01-20T10:33:43Z</time>
      </trkpt>
      <trkpt lat="44.47156" lon="2.42724">
        <ele>794.6</ele>
        <time>2013-01-20T10:33:46Z</time>
      </trkpt>
      <trkpt lat="44.47152" lon="2.42726">
        <ele>794.8</ele>
        <time>2013-01-20T10:33:52Z</time>
      </trkpt>
      <trkpt lat="44.47147" lon="2.42725">
        <ele>795.3</ele>
        <time>2013-01-20T10:34:21Z</time>
      </trkpt>
      <trkpt lat="44.47147" lon="2.42724">
        <ele>795.4</ele>
        <time>2013-01-20T10:34:22Z</time>
      </trkpt>
      <trkpt lat="44.47146" lon="2.42715">
        <ele>794.1</ele>
        <time>2013-01-20T10:38:04Z</time>
      </trkpt>
      <trkpt lat="44.47146" lon="2.42713">
        <ele>794.1</ele>
        <time>2013-01-20T10:38:05Z</time>
      </trkpt>
      <trkpt lat="44.47146" lon="2.42704">
        <ele>794</ele>
        <time>2013-01-20T10:38:10Z</time>
      </trkpt>
      <trkpt lat="44.47147" lon="2.42699">
        <ele>794.9</ele>
        <time>2013-01-20T10:38:13Z</time>
      </trkpt>
      <trkpt lat="44.47148" lon="2.42694">
        <ele>796</ele>
        <time>2013-01-20T10:38:16Z</time>
      </trkpt>
      <trkpt lat="44.47147" lon="2.42689">
        <ele>796.3</ele>
        <time>2013-01-20T10:38:19Z</time>
      </trkpt>
      <trkpt lat="44.47146" lon="2.42685">
        <ele>796.3</ele>
        <time>2013-01-20T10:38:21Z</time>
      </trkpt>
      <trkpt lat="44.47145" lon="2.4268">
        <ele>795.9</ele>
        <time>2013-01-20T10:38:23Z</time>
      </trkpt>
      <trkpt lat="44.47144" lon="2.42676">
        <ele>796</ele>
        <time>2013-01-20T10:38:25Z</time>
      </trkpt>
      <trkpt lat="44.47143" lon="2.42671">
        <ele>796.2</ele>
        <time>2013-01-20T10:38:27Z</time>
      </trkpt>
      <trkpt lat="44.47142" lon="2.42666">
        <ele>796.2</ele>
        <time>2013-01-20T10:38:29Z</time>
      </trkpt>
      <trkpt lat="44.47142" lon="2.42661">
        <ele>795.9</ele>
        <time>2013-01-20T10:38:31Z</time>
      </trkpt>
      <trkpt lat="44.47142" lon="2.42656">
        <ele>795.6</ele>
        <time>2013-01-20T10:38:33Z</time>
      </trkpt>
      <trkpt lat="44.47142" lon="2.42654">
        <ele>796.2</ele>
        <time>2013-01-20T10:38:34Z</time>
      </trkpt>
      <trkpt lat="44.47142" lon="2.4265">
        <ele>796.6</ele>
        <time>2013-01-20T10:38:35Z</time>
      </trkpt>
      <trkpt lat="44.47141" lon="2.42646">
        <ele>796.9</ele>
        <time>2013-01-20T10:38:36Z</time>
      </trkpt>
      <trkpt lat="44.47141" lon="2.4264">
        <ele>796.4</ele>
        <time>2013-01-20T10:38:38Z</time>
      </trkpt>
      <trkpt lat="44.4714" lon="2.42635">
        <ele>796.1</ele>
        <time>2013-01-20T10:38:40Z</time>
      </trkpt>
      <trkpt lat="44.47139" lon="2.42631">
        <ele>796.1</ele>
        <time>2013-01-20T10:38:41Z</time>
      </trkpt>
      <trkpt lat="44.47138" lon="2.42628">
        <ele>796.1</ele>
        <time>2013-01-20T10:38:42Z</time>
      </trkpt>
      <trkpt lat="44.47137" lon="2.42624">
        <ele>796.1</ele>
        <time>2013-01-20T10:38:43Z</time>
      </trkpt>
      <trkpt lat="44.47136" lon="2.4262">
        <ele>796.2</ele>
        <time>2013-01-20T10:38:44Z</time>
      </trkpt>
      <trkpt lat="44.47136" lon="2.42616">
        <ele>796.3</ele>
        <time>2013-01-20T10:38:45Z</time>
      </trkpt>
      <trkpt lat="44.47137" lon="2.42612">
        <ele>796.5</ele>
        <time>2013-01-20T10:38:47Z</time>
      </trkpt>
      <trkpt lat="44.47138" lon="2.42607">
        <ele>796.9</ele>
        <time>2013-01-20T10:38:50Z</time>
      </trkpt>
      <trkpt lat="44.47138" lon="2.42603">
        <ele>796.9</ele>
        <time>2013-01-20T10:38:51Z</time>
      </trkpt>
      <trkpt lat="44.47136" lon="2.42597">
        <ele>796.8</ele>
        <time>2013-01-20T10:38:55Z</time>
      </trkpt>
      <trkpt lat="44.47135" lon="2.42594">
        <ele>796.9</ele>
        <time>2013-01-20T10:38:58Z</time>
      </trkpt>
      <trkpt lat="44.47135" lon="2.4259">
        <ele>797</ele>
        <time>2013-01-20T10:38:59Z</time>
      </trkpt>
      <trkpt lat="44.47135" lon="2.42584">
        <ele>796.7</ele>
        <time>2013-01-20T10:39:00Z</time>
      </trkpt>
      <trkpt lat="44.47135" lon="2.42579">
        <ele>796.4</ele>
        <time>2013-01-20T10:39:01Z</time>
      </trkpt>
      <trkpt lat="44.47135" lon="2.42573">
        <ele>796.3</ele>
        <time>2013-01-20T10:39:02Z</time>
      </trkpt>
      <trkpt lat="44.47134" lon="2.42567">
        <ele>796.1</ele>
        <time>2013-01-20T10:39:03Z</time>
      </trkpt>
      <trkpt lat="44.47133" lon="2.42561">
        <ele>796</ele>
        <time>2013-01-20T10:39:04Z</time>
      </trkpt>
      <trkpt lat="44.47133" lon="2.42557">
        <ele>796</ele>
        <time>2013-01-20T10:39:05Z</time>
      </trkpt>
      <trkpt lat="44.47132" lon="2.42555">
        <ele>795.4</ele>
        <time>2013-01-20T10:39:06Z</time>
      </trkpt>
      <trkpt lat="44.47133" lon="2.42546">
        <ele>794.9</ele>
        <time>2013-01-20T10:39:09Z</time>
      </trkpt>
      <trkpt lat="44.47133" lon="2.4254">
        <ele>794.7</ele>
        <time>2013-01-20T10:39:16Z</time>
      </trkpt>
      <trkpt lat="44.47136" lon="2.42545">
        <ele>794.8</ele>
        <time>2013-01-20T10:42:01Z</time>
      </trkpt>
      <trkpt lat="44.47135" lon="2.42547">
        <ele>794.6</ele>
        <time>2013-01-20T10:42:02Z</time>
      </trkpt>
      <trkpt lat="44.47131" lon="2.42551">
        <ele>794.5</ele>
        <time>2013-01-20T10:42:06Z</time>
      </trkpt>
      <trkpt lat="44.47129" lon="2.42547">
        <ele>794.7</ele>
        <time>2013-01-20T10:42:09Z</time>
      </trkpt>
      <trkpt lat="44.47133" lon="2.42544">
        <ele>795.3</ele>
        <time>2013-01-20T10:42:18Z</time>
      </trkpt>
      <trkpt lat="44.47133" lon="2.4255">
        <ele>795.5</ele>
        <time>2013-01-20T10:42:21Z</time>
      </trkpt>
      <trkpt lat="44.47132" lon="2.42556">
        <ele>795.2</ele>
        <time>2013-01-20T10:42:23Z</time>
      </trkpt>
      <trkpt lat="44.47131" lon="2.42551">
        <ele>794.8</ele>
        <time>2013-01-20T10:42:50Z</time>
      </trkpt>
      <trkpt lat="44.47132" lon="2.42557">
        <ele>795.3</ele>
        <time>2013-01-20T10:42:57Z</time>
      </trkpt>
      <trkpt lat="44.47128" lon="2.42558">
        <ele>795.2</ele>
        <time>2013-01-20T10:43:04Z</time>
      </trkpt>
      <trkpt lat="44.47128" lon="2.42557">
        <ele>795.2</ele>
        <time>2013-01-20T10:43:05Z</time>
      </trkpt>
      <trkpt lat="44.47128" lon="2.42546">
        <ele>795.5</ele>
        <time>2013-01-20T10:43:17Z</time>
      </trkpt>
      <trkpt lat="44.47128" lon="2.42541">
        <ele>795.3</ele>
        <time>2013-01-20T10:43:19Z</time>
      </trkpt>
      <trkpt lat="44.47128" lon="2.42537">
        <ele>794.9</ele>
        <time>2013-01-20T10:43:21Z</time>
      </trkpt>
      <trkpt lat="44.47127" lon="2.42531">
        <ele>794.5</ele>
        <time>2013-01-20T10:43:23Z</time>
      </trkpt>
      <trkpt lat="44.47124" lon="2.42532">
        <ele>793.1</ele>
        <time>2013-01-20T10:43:25Z</time>
      </trkpt>
      <trkpt lat="44.47122" lon="2.42534">
        <ele>792.1</ele>
        <time>2013-01-20T10:43:26Z</time>
      </trkpt>
      <trkpt lat="44.47119" lon="2.42535">
        <ele>790.6</ele>
        <time>2013-01-20T10:43:28Z</time>
      </trkpt>
      <trkpt lat="44.47116" lon="2.42532">
        <ele>789.5</ele>
        <time>2013-01-20T10:43:30Z</time>
      </trkpt>
      <trkpt lat="44.47112" lon="2.42534">
        <ele>788.3</ele>
        <time>2013-01-20T10:43:32Z</time>
      </trkpt>
      <trkpt lat="44.47115" lon="2.4253">
        <ele>784.6</ele>
        <time>2013-01-20T10:44:14Z</time>
      </trkpt>
      <trkpt lat="44.47115" lon="2.4253">
        <ele>784.5</ele>
        <time>2013-01-20T10:44:15Z</time>
      </trkpt>
      <trkpt lat="44.47122" lon="2.42533">
        <ele>787.1</ele>
        <time>2013-01-20T10:44:28Z</time>
      </trkpt>
      <trkpt lat="44.47126" lon="2.4253">
        <ele>788.6</ele>
        <time>2013-01-20T10:44:32Z</time>
      </trkpt>
      <trkpt lat="44.47128" lon="2.42536">
        <ele>791.4</ele>
        <time>2013-01-20T10:44:50Z</time>
      </trkpt>
      <trkpt lat="44.47129" lon="2.42541">
        <ele>794.1</ele>
        <time>2013-01-20T10:45:01Z</time>
      </trkpt>
      <trkpt lat="44.47126" lon="2.42547">
        <ele>794.5</ele>
        <time>2013-01-20T10:45:07Z</time>
      </trkpt>
      <trkpt lat="44.47124" lon="2.42551">
        <ele>794.2</ele>
        <time>2013-01-20T10:45:10Z</time>
      </trkpt>
      <trkpt lat="44.47123" lon="2.42556">
        <ele>793.6</ele>
        <time>2013-01-20T10:45:12Z</time>
      </trkpt>
      <trkpt lat="44.47123" lon="2.4256">
        <ele>794</ele>
        <time>2013-01-20T10:45:14Z</time>
      </trkpt>
      <trkpt lat="44.47123" lon="2.42564">
        <ele>794.1</ele>
        <time>2013-01-20T10:45:16Z</time>
      </trkpt>
      <trkpt lat="44.47123" lon="2.4257">
        <ele>794.2</ele>
        <time>2013-01-20T10:45:19Z</time>
      </trkpt>
      <trkpt lat="44.47122" lon="2.42572">
        <ele>794.2</ele>
        <time>2013-01-20T10:45:20Z</time>
      </trkpt>
      <trkpt lat="44.47126" lon="2.42572">
        <ele>794.1</ele>
        <time>2013-01-20T10:45:27Z</time>
      </trkpt>
      <trkpt lat="44.47127" lon="2.42568">
        <ele>794</ele>
        <time>2013-01-20T10:45:29Z</time>
      </trkpt>
      <trkpt lat="44.47128" lon="2.42562">
        <ele>793.8</ele>
        <time>2013-01-20T10:45:32Z</time>
      </trkpt>
      <trkpt lat="44.4713" lon="2.42558">
        <ele>793.8</ele>
        <time>2013-01-20T10:45:34Z</time>
      </trkpt>
      <trkpt lat="44.47131" lon="2.42553">
        <ele>793.9</ele>
        <time>2013-01-20T10:45:36Z</time>
      </trkpt>
      <trkpt lat="44.47132" lon="2.42548">
        <ele>794.1</ele>
        <time>2013-01-20T10:45:38Z</time>
      </trkpt>
      <trkpt lat="44.47132" lon="2.42542">
        <ele>794.4</ele>
        <time>2013-01-20T10:45:41Z</time>
      </trkpt>
      <trkpt lat="44.47128" lon="2.42542">
        <ele>795</ele>
        <time>2013-01-20T10:47:34Z</time>
      </trkpt>
      <trkpt lat="44.47128" lon="2.42544">
        <ele>795.2</ele>
        <time>2013-01-20T10:47:35Z</time>
      </trkpt>
      <trkpt lat="44.47128" lon="2.42542">
        <ele>795.3</ele>
        <time>2013-01-20T10:47:52Z</time>
      </trkpt>
      <trkpt lat="44.47128" lon="2.42537">
        <ele>794.5</ele>
        <time>2013-01-20T10:47:54Z</time>
      </trkpt>
      <trkpt lat="44.47127" lon="2.42531">
        <ele>793.9</ele>
        <time>2013-01-20T10:47:56Z</time>
      </trkpt>
      <trkpt lat="44.47125" lon="2.42531">
        <ele>793.4</ele>
        <time>2013-01-20T10:47:58Z</time>
      </trkpt>
      <trkpt lat="44.47122" lon="2.42534">
        <ele>792</ele>
        <time>2013-01-20T10:48:00Z</time>
      </trkpt>
      <trkpt lat="44.47117" lon="2.42532">
        <ele>789.2</ele>
        <time>2013-01-20T10:48:05Z</time>
      </trkpt>
      <trkpt lat="44.47113" lon="2.42532">
        <ele>786</ele>
        <time>2013-01-20T10:48:13Z</time>
      </trkpt>
      <trkpt lat="44.4711" lon="2.42529">
        <ele>784.9</ele>
        <time>2013-01-20T10:48:18Z</time>
      </trkpt>
      <trkpt lat="44.47111" lon="2.42523">
        <ele>782.1</ele>
        <time>2013-01-20T10:48:25Z</time>
      </trkpt>
      <trkpt lat="44.4711" lon="2.42529">
        <ele>782.4</ele>
        <time>2013-01-20T10:49:29Z</time>
      </trkpt>
      <trkpt lat="44.4711" lon="2.42529">
        <ele>782.2</ele>
        <time>2013-01-20T10:49:30Z</time>
      </trkpt>
      <trkpt lat="44.47111" lon="2.42522">
        <ele>783.8</ele>
        <time>2013-01-20T10:50:56Z</time>
      </trkpt>
      <trkpt lat="44.47114" lon="2.42515">
        <ele>779.2</ele>
        <time>2013-01-20T10:51:08Z</time>
      </trkpt>
      <trkpt lat="44.47116" lon="2.42511">
        <ele>778.8</ele>
        <time>2013-01-20T10:51:10Z</time>
      </trkpt>
      <trkpt lat="44.47121" lon="2.4251">
        <ele>776.6</ele>
        <time>2013-01-20T10:51:21Z</time>
      </trkpt>
      <trkpt lat="44.47121" lon="2.42504">
        <ele>776.1</ele>
        <time>2013-01-20T10:51:32Z</time>
      </trkpt>
      <trkpt lat="44.47123" lon="2.42499">
        <ele>775.6</ele>
        <time>2013-01-20T10:51:34Z</time>
      </trkpt>
      <trkpt lat="44.47125" lon="2.42495">
        <ele>773</ele>
        <time>2013-01-20T10:51:39Z</time>
      </trkpt>
      <trkpt lat="44.47128" lon="2.4249">
        <ele>771.8</ele>
        <time>2013-01-20T10:51:42Z</time>
      </trkpt>
      <trkpt lat="44.47131" lon="2.42486">
        <ele>770.7</ele>
        <time>2013-01-20T10:51:44Z</time>
      </trkpt>
      <trkpt lat="44.47133" lon="2.42485">
        <ele>770.4</ele>
        <time>2013-01-20T10:51:45Z</time>
      </trkpt>
      <trkpt lat="44.47135" lon="2.42484">
        <ele>769.3</ele>
        <time>2013-01-20T10:51:46Z</time>
      </trkpt>
      <trkpt lat="44.47138" lon="2.42481">
        <ele>768.5</ele>
        <time>2013-01-20T10:51:47Z</time>
      </trkpt>
      <trkpt lat="44.47141" lon="2.42479">
        <ele>767.9</ele>
        <time>2013-01-20T10:51:48Z</time>
      </trkpt>
      <trkpt lat="44.47144" lon="2.42478">
        <ele>766.3</ele>
        <time>2013-01-20T10:51:49Z</time>
      </trkpt>
      <trkpt lat="44.47148" lon="2.42478">
        <ele>765.1</ele>
        <time>2013-01-20T10:51:50Z</time>
      </trkpt>
      <trkpt lat="44.47151" lon="2.42478">
        <ele>764.3</ele>
        <time>2013-01-20T10:51:51Z</time>
      </trkpt>
      <trkpt lat="44.47154" lon="2.42478">
        <ele>762.9</ele>
        <time>2013-01-20T10:51:52Z</time>
      </trkpt>
      <trkpt lat="44.47157" lon="2.42478">
        <ele>762</ele>
        <time>2013-01-20T10:51:53Z</time>
      </trkpt>
      <trkpt lat="44.47161" lon="2.42478">
        <ele>761.2</ele>
        <time>2013-01-20T10:51:54Z</time>
      </trkpt>
      <trkpt lat="44.47165" lon="2.42478">
        <ele>760.4</ele>
        <time>2013-01-20T10:51:55Z</time>
      </trkpt>
      <trkpt lat="44.4717" lon="2.42478">
        <ele>759.7</ele>
        <time>2013-01-20T10:51:56Z</time>
      </trkpt>
      <trkpt lat="44.47175" lon="2.42478">
        <ele>759.3</ele>
        <time>2013-01-20T10:51:57Z</time>
      </trkpt>
      <trkpt lat="44.47179" lon="2.42478">
        <ele>758.9</ele>
        <time>2013-01-20T10:51:58Z</time>
      </trkpt>
      <trkpt lat="44.47182" lon="2.4248">
        <ele>758.3</ele>
        <time>2013-01-20T10:51:59Z</time>
      </trkpt>
      <trkpt lat="44.47185" lon="2.42481">
        <ele>757.8</ele>
        <time>2013-01-20T10:52:00Z</time>
      </trkpt>
      <trkpt lat="44.47188" lon="2.42484">
        <ele>757.4</ele>
        <time>2013-01-20T10:52:01Z</time>
      </trkpt>
      <trkpt lat="44.47192" lon="2.42487">
        <ele>756.5</ele>
        <time>2013-01-20T10:52:02Z</time>
      </trkpt>
      <trkpt lat="44.47196" lon="2.4249">
        <ele>755.8</ele>
        <time>2013-01-20T10:52:03Z</time>
      </trkpt>
      <trkpt lat="44.47199" lon="2.42492">
        <ele>755.2</ele>
        <time>2013-01-20T10:52:04Z</time>
      </trkpt>
      <trkpt lat="44.47203" lon="2.42494">
        <ele>754.4</ele>
        <time>2013-01-20T10:52:05Z</time>
      </trkpt>
      <trkpt lat="44.47208" lon="2.42496">
        <ele>753.8</ele>
        <time>2013-01-20T10:52:06Z</time>
      </trkpt>
      <trkpt lat="44.47212" lon="2.42499">
        <ele>753.3</ele>
        <time>2013-01-20T10:52:07Z</time>
      </trkpt>
      <trkpt lat="44.47218" lon="2.42501">
        <ele>752.4</ele>
        <time>2013-01-20T10:52:08Z</time>
      </trkpt>
      <trkpt lat="44.47224" lon="2.42505">
        <ele>751.8</ele>
        <time>2013-01-20T10:52:09Z</time>
      </trkpt>
      <trkpt lat="44.4723" lon="2.42508">
        <ele>751.3</ele>
        <time>2013-01-20T10:52:10Z</time>
      </trkpt>
      <trkpt lat="44.47236" lon="2.42514">
        <ele>749.9</ele>
        <time>2013-01-20T10:52:11Z</time>
      </trkpt>
      <trkpt lat="44.47241" lon="2.4252">
        <ele>748.9</ele>
        <time>2013-01-20T10:52:12Z</time>
      </trkpt>
      <trkpt lat="44.47246" lon="2.42526">
        <ele>748.1</ele>
        <time>2013-01-20T10:52:13Z</time>
      </trkpt>
      <trkpt lat="44.47252" lon="2.42531">
        <ele>746.3</ele>
        <time>2013-01-20T10:52:14Z</time>
      </trkpt>
      <trkpt lat="44.47256" lon="2.42537">
        <ele>745</ele>
        <time>2013-01-20T10:52:15Z</time>
      </trkpt>
      <trkpt lat="44.47261" lon="2.42543">
        <ele>743.9</ele>
        <time>2013-01-20T10:52:16Z</time>
      </trkpt>
      <trkpt lat="44.47266" lon="2.42547">
        <ele>743.2</ele>
        <time>2013-01-20T10:52:17Z</time>
      </trkpt>
      <trkpt lat="44.4727" lon="2.42552">
        <ele>741.4</ele>
        <time>2013-01-20T10:52:18Z</time>
      </trkpt>
      <trkpt lat="44.47273" lon="2.42558">
        <ele>740</ele>
        <time>2013-01-20T10:52:19Z</time>
      </trkpt>
      <trkpt lat="44.47277" lon="2.42564">
        <ele>739</ele>
        <time>2013-01-20T10:52:20Z</time>
      </trkpt>
      <trkpt lat="44.47281" lon="2.42569">
        <ele>737.4</ele>
        <time>2013-01-20T10:52:21Z</time>
      </trkpt>
      <trkpt lat="44.47285" lon="2.42574">
        <ele>736.2</ele>
        <time>2013-01-20T10:52:22Z</time>
      </trkpt>
      <trkpt lat="44.47289" lon="2.4258">
        <ele>735.3</ele>
        <time>2013-01-20T10:52:23Z</time>
      </trkpt>
      <trkpt lat="44.47293" lon="2.42587">
        <ele>733.9</ele>
        <time>2013-01-20T10:52:24Z</time>
      </trkpt>
      <trkpt lat="44.47298" lon="2.42594">
        <ele>732.9</ele>
        <time>2013-01-20T10:52:25Z</time>
      </trkpt>
      <trkpt lat="44.47303" lon="2.42599">
        <ele>732.2</ele>
        <time>2013-01-20T10:52:26Z</time>
      </trkpt>
      <trkpt lat="44.47308" lon="2.42601">
        <ele>730.8</ele>
        <time>2013-01-20T10:52:27Z</time>
      </trkpt>
      <trkpt lat="44.47313" lon="2.42603">
        <ele>729.8</ele>
        <time>2013-01-20T10:52:28Z</time>
      </trkpt>
      <trkpt lat="44.47317" lon="2.42606">
        <ele>729</ele>
        <time>2013-01-20T10:52:29Z</time>
      </trkpt>
      <trkpt lat="44.4732" lon="2.42611">
        <ele>728.5</ele>
        <time>2013-01-20T10:52:30Z</time>
      </trkpt>
      <trkpt lat="44.47324" lon="2.42618">
        <ele>728.1</ele>
        <time>2013-01-20T10:52:31Z</time>
      </trkpt>
      <trkpt lat="44.47328" lon="2.42624">
        <ele>727.9</ele>
        <time>2013-01-20T10:52:32Z</time>
      </trkpt>
      <trkpt lat="44.4733" lon="2.42631">
        <ele>727.7</ele>
        <time>2013-01-20T10:52:33Z</time>
      </trkpt>
      <trkpt lat="44.47332" lon="2.42639">
        <ele>726.7</ele>
        <time>2013-01-20T10:52:34Z</time>
      </trkpt>
      <trkpt lat="44.47334" lon="2.42647">
        <ele>725.9</ele>
        <time>2013-01-20T10:52:35Z</time>
      </trkpt>
      <trkpt lat="44.47337" lon="2.42653">
        <ele>725.4</ele>
        <time>2013-01-20T10:52:36Z</time>
      </trkpt>
      <trkpt lat="44.4734" lon="2.42659">
        <ele>724.3</ele>
        <time>2013-01-20T10:52:37Z</time>
      </trkpt>
      <trkpt lat="44.47343" lon="2.42665">
        <ele>723.5</ele>
        <time>2013-01-20T10:52:38Z</time>
      </trkpt>
      <trkpt lat="44.47347" lon="2.42672">
        <ele>722.9</ele>
        <time>2013-01-20T10:52:39Z</time>
      </trkpt>
      <trkpt lat="44.47349" lon="2.42678">
        <ele>721.5</ele>
        <time>2013-01-20T10:52:40Z</time>
      </trkpt>
      <trkpt lat="44.47353" lon="2.42684">
        <ele>720.5</ele>
        <time>2013-01-20T10:52:41Z</time>
      </trkpt>
      <trkpt lat="44.47355" lon="2.42689">
        <ele>719.7</ele>
        <time>2013-01-20T10:52:42Z</time>
      </trkpt>
      <trkpt lat="44.47357" lon="2.42694">
        <ele>718.6</ele>
        <time>2013-01-20T10:52:43Z</time>
      </trkpt>
      <trkpt lat="44.47359" lon="2.42698">
        <ele>717.8</ele>
        <time>2013-01-20T10:52:44Z</time>
      </trkpt>
      <trkpt lat="44.47361" lon="2.42702">
        <ele>717.2</ele>
        <time>2013-01-20T10:52:45Z</time>
      </trkpt>
      <trkpt lat="44.47363" lon="2.42705">
        <ele>716.2</ele>
        <time>2013-01-20T10:52:46Z</time>
      </trkpt>
      <trkpt lat="44.47364" lon="2.4271">
        <ele>715.4</ele>
        <time>2013-01-20T10:52:47Z</time>
      </trkpt>
      <trkpt lat="44.47366" lon="2.42715">
        <ele>714.8</ele>
        <time>2013-01-20T10:52:48Z</time>
      </trkpt>
      <trkpt lat="44.47369" lon="2.4272">
        <ele>714.3</ele>
        <time>2013-01-20T10:52:49Z</time>
      </trkpt>
      <trkpt lat="44.47371" lon="2.42724">
        <ele>713.5</ele>
        <time>2013-01-20T10:52:50Z</time>
      </trkpt>
      <trkpt lat="44.47374" lon="2.42729">
        <ele>712.5</ele>
        <time>2013-01-20T10:52:52Z</time>
      </trkpt>
      <trkpt lat="44.47376" lon="2.42734">
        <ele>711.9</ele>
        <time>2013-01-20T10:52:53Z</time>
      </trkpt>
      <trkpt lat="44.4738" lon="2.4274">
        <ele>711.4</ele>
        <time>2013-01-20T10:52:54Z</time>
      </trkpt>
      <trkpt lat="44.47383" lon="2.42744">
        <ele>711</ele>
        <time>2013-01-20T10:52:55Z</time>
      </trkpt>
      <trkpt lat="44.47386" lon="2.42748">
        <ele>710.1</ele>
        <time>2013-01-20T10:52:56Z</time>
      </trkpt>
      <trkpt lat="44.4739" lon="2.42751">
        <ele>709.5</ele>
        <time>2013-01-20T10:52:57Z</time>
      </trkpt>
      <trkpt lat="44.47395" lon="2.42756">
        <ele>708.9</ele>
        <time>2013-01-20T10:52:58Z</time>
      </trkpt>
      <trkpt lat="44.47399" lon="2.42759">
        <ele>707.7</ele>
        <time>2013-01-20T10:52:59Z</time>
      </trkpt>
      <trkpt lat="44.47403" lon="2.42762">
        <ele>706.7</ele>
        <time>2013-01-20T10:53:00Z</time>
      </trkpt>
      <trkpt lat="44.47408" lon="2.42766">
        <ele>706</ele>
        <time>2013-01-20T10:53:01Z</time>
      </trkpt>
      <trkpt lat="44.47412" lon="2.42769">
        <ele>704.9</ele>
        <time>2013-01-20T10:53:02Z</time>
      </trkpt>
      <trkpt lat="44.47416" lon="2.42772">
        <ele>704.2</ele>
        <time>2013-01-20T10:53:03Z</time>
      </trkpt>
      <trkpt lat="44.47421" lon="2.42775">
        <ele>703.6</ele>
        <time>2013-01-20T10:53:04Z</time>
      </trkpt>
      <trkpt lat="44.47425" lon="2.42777">
        <ele>703.2</ele>
        <time>2013-01-20T10:53:05Z</time>
      </trkpt>
      <trkpt lat="44.47429" lon="2.42778">
        <ele>702.4</ele>
        <time>2013-01-20T10:53:06Z</time>
      </trkpt>
      <trkpt lat="44.47432" lon="2.42778">
        <ele>701.8</ele>
        <time>2013-01-20T10:53:07Z</time>
      </trkpt>
      <trkpt lat="44.47437" lon="2.4278">
        <ele>698.4</ele>
        <time>2013-01-20T10:53:17Z</time>
      </trkpt>
      <trkpt lat="44.47441" lon="2.42782">
        <ele>699.1</ele>
        <time>2013-01-20T10:53:53Z</time>
      </trkpt>
      <trkpt lat="44.47444" lon="2.42777">
        <ele>698</ele>
        <time>2013-01-20T10:54:27Z</time>
      </trkpt>
      <trkpt lat="44.47444" lon="2.42776">
        <ele>698</ele>
        <time>2013-01-20T10:54:28Z</time>
      </trkpt>
      <trkpt lat="44.47447" lon="2.42769">
        <ele>698.2</ele>
        <time>2013-01-20T10:54:32Z</time>
      </trkpt>
      <trkpt lat="44.47449" lon="2.42765">
        <ele>698.4</ele>
        <time>2013-01-20T10:54:34Z</time>
      </trkpt>
      <trkpt lat="44.47451" lon="2.4276">
        <ele>698.5</ele>
        <time>2013-01-20T10:54:36Z</time>
      </trkpt>
      <trkpt lat="44.47452" lon="2.42756">
        <ele>698.3</ele>
        <time>2013-01-20T10:54:38Z</time>
      </trkpt>
      <trkpt lat="44.47454" lon="2.42751">
        <ele>698.2</ele>
        <time>2013-01-20T10:54:40Z</time>
      </trkpt>
      <trkpt lat="44.47456" lon="2.42746">
        <ele>698.2</ele>
        <time>2013-01-20T10:54:42Z</time>
      </trkpt>
      <trkpt lat="44.47458" lon="2.42742">
        <ele>698.5</ele>
        <time>2013-01-20T10:54:44Z</time>
      </trkpt>
      <trkpt lat="44.47459" lon="2.42739">
        <ele>698.8</ele>
        <time>2013-01-20T10:54:45Z</time>
      </trkpt>
      <trkpt lat="44.4746" lon="2.42735">
        <ele>698.9</ele>
        <time>2013-01-20T10:54:46Z</time>
      </trkpt>
      <trkpt lat="44.47461" lon="2.42732">
        <ele>699.1</ele>
        <time>2013-01-20T10:54:47Z</time>
      </trkpt>
      <trkpt lat="44.47462" lon="2.42729">
        <ele>699.1</ele>
        <time>2013-01-20T10:54:48Z</time>
      </trkpt>
      <trkpt lat="44.47464" lon="2.42724">
        <ele>699.1</ele>
        <time>2013-01-20T10:54:50Z</time>
      </trkpt>
      <trkpt lat="44.47466" lon="2.42719">
        <ele>699.3</ele>
        <time>2013-01-20T10:54:52Z</time>
      </trkpt>
      <trkpt lat="44.47468" lon="2.42715">
        <ele>699.1</ele>
        <time>2013-01-20T10:54:54Z</time>
      </trkpt>
      <trkpt lat="44.47469" lon="2.42712">
        <ele>698.8</ele>
        <time>2013-01-20T10:54:55Z</time>
      </trkpt>
      <trkpt lat="44.47471" lon="2.42709">
        <ele>698.6</ele>
        <time>2013-01-20T10:54:56Z</time>
      </trkpt>
      <trkpt lat="44.47472" lon="2.42706">
        <ele>698.7</ele>
        <time>2013-01-20T10:54:57Z</time>
      </trkpt>
      <trkpt lat="44.47473" lon="2.42703">
        <ele>698.8</ele>
        <time>2013-01-20T10:54:58Z</time>
      </trkpt>
      <trkpt lat="44.47474" lon="2.427">
        <ele>698.9</ele>
        <time>2013-01-20T10:54:59Z</time>
      </trkpt>
      <trkpt lat="44.47475" lon="2.42696">
        <ele>698.9</ele>
        <time>2013-01-20T10:55:00Z</time>
      </trkpt>
      <trkpt lat="44.47477" lon="2.42692">
        <ele>698.8</ele>
        <time>2013-01-20T10:55:01Z</time>
      </trkpt>
      <trkpt lat="44.47478" lon="2.42688">
        <ele>698.7</ele>
        <time>2013-01-20T10:55:02Z</time>
      </trkpt>
      <trkpt lat="44.4748" lon="2.42684">
        <ele>698.6</ele>
        <time>2013-01-20T10:55:03Z</time>
      </trkpt>
      <trkpt lat="44.47481" lon="2.4268">
        <ele>698.4</ele>
        <time>2013-01-20T10:55:04Z</time>
      </trkpt>
      <trkpt lat="44.47483" lon="2.42676">
        <ele>698.3</ele>
        <time>2013-01-20T10:55:05Z</time>
      </trkpt>
      <trkpt lat="44.47484" lon="2.42672">
        <ele>698.2</ele>
        <time>2013-01-20T10:55:06Z</time>
      </trkpt>
      <trkpt lat="44.47485" lon="2.42668">
        <ele>698.2</ele>
        <time>2013-01-20T10:55:07Z</time>
      </trkpt>
      <trkpt lat="44.47487" lon="2.42664">
        <ele>698.2</ele>
        <time>2013-01-20T10:55:08Z</time>
      </trkpt>
      <trkpt lat="44.47488" lon="2.42659">
        <ele>698.2</ele>
        <time>2013-01-20T10:55:09Z</time>
      </trkpt>
      <trkpt lat="44.4749" lon="2.42655">
        <ele>698.2</ele>
        <time>2013-01-20T10:55:10Z</time>
      </trkpt>
      <trkpt lat="44.47492" lon="2.4265">
        <ele>698.2</ele>
        <time>2013-01-20T10:55:11Z</time>
      </trkpt>
      <trkpt lat="44.47493" lon="2.42645">
        <ele>698.2</ele>
        <time>2013-01-20T10:55:12Z</time>
      </trkpt>
      <trkpt lat="44.47494" lon="2.42641">
        <ele>698.3</ele>
        <time>2013-01-20T10:55:13Z</time>
      </trkpt>
      <trkpt lat="44.47495" lon="2.42637">
        <ele>698.4</ele>
        <time>2013-01-20T10:55:14Z</time>
      </trkpt>
      <trkpt lat="44.47497" lon="2.42632">
        <ele>698.5</ele>
        <time>2013-01-20T10:55:15Z</time>
      </trkpt>
      <trkpt lat="44.47498" lon="2.42628">
        <ele>698.7</ele>
        <time>2013-01-20T10:55:16Z</time>
      </trkpt>
      <trkpt lat="44.47499" lon="2.42624">
        <ele>698.9</ele>
        <time>2013-01-20T10:55:17Z</time>
      </trkpt>
      <trkpt lat="44.475" lon="2.4262">
        <ele>699</ele>
        <time>2013-01-20T10:55:18Z</time>
      </trkpt>
      <trkpt lat="44.47501" lon="2.42616">
        <ele>699</ele>
        <time>2013-01-20T10:55:19Z</time>
      </trkpt>
      <trkpt lat="44.47502" lon="2.42611">
        <ele>698.6</ele>
        <time>2013-01-20T10:55:20Z</time>
      </trkpt>
      <trkpt lat="44.47503" lon="2.42607">
        <ele>698.2</ele>
        <time>2013-01-20T10:55:21Z</time>
      </trkpt>
      <trkpt lat="44.47504" lon="2.42602">
        <ele>697.9</ele>
        <time>2013-01-20T10:55:22Z</time>
      </trkpt>
      <trkpt lat="44.47505" lon="2.42598">
        <ele>698.1</ele>
        <time>2013-01-20T10:55:23Z</time>
      </trkpt>
      <trkpt lat="44.47506" lon="2.42593">
        <ele>698.3</ele>
        <time>2013-01-20T10:55:24Z</time>
      </trkpt>
      <trkpt lat="44.47506" lon="2.42588">
        <ele>698.4</ele>
        <time>2013-01-20T10:55:25Z</time>
      </trkpt>
      <trkpt lat="44.47507" lon="2.42583">
        <ele>698.2</ele>
        <time>2013-01-20T10:55:26Z</time>
      </trkpt>
      <trkpt lat="44.47507" lon="2.42579">
        <ele>698</ele>
        <time>2013-01-20T10:55:27Z</time>
      </trkpt>
      <trkpt lat="44.47507" lon="2.42574">
        <ele>697.9</ele>
        <time>2013-01-20T10:55:28Z</time>
      </trkpt>
      <trkpt lat="44.47507" lon="2.42569">
        <ele>697.7</ele>
        <time>2013-01-20T10:55:29Z</time>
      </trkpt>
      <trkpt lat="44.47506" lon="2.42565">
        <ele>697.6</ele>
        <time>2013-01-20T10:55:30Z</time>
      </trkpt>
      <trkpt lat="44.47503" lon="2.4256">
        <ele>697.5</ele>
        <time>2013-01-20T10:55:31Z</time>
      </trkpt>
      <trkpt lat="44.47501" lon="2.42556">
        <ele>697.3</ele>
        <time>2013-01-20T10:55:32Z</time>
      </trkpt>
      <trkpt lat="44.47499" lon="2.42552">
        <ele>697.1</ele>
        <time>2013-01-20T10:55:33Z</time>
      </trkpt>
      <trkpt lat="44.47497" lon="2.42548">
        <ele>697</ele>
        <time>2013-01-20T10:55:34Z</time>
      </trkpt>
      <trkpt lat="44.47496" lon="2.42545">
        <ele>696.9</ele>
        <time>2013-01-20T10:55:35Z</time>
      </trkpt>
      <trkpt lat="44.47494" lon="2.4254">
        <ele>696.6</ele>
        <time>2013-01-20T10:55:38Z</time>
      </trkpt>
      <trkpt lat="44.47492" lon="2.42535">
        <ele>696</ele>
        <time>2013-01-20T10:55:41Z</time>
      </trkpt>
      <trkpt lat="44.4749" lon="2.42533">
        <ele>695.7</ele>
        <time>2013-01-20T10:55:47Z</time>
      </trkpt>
      <trkpt lat="44.47489" lon="2.42531">
        <ele>695.5</ele>
        <time>2013-01-20T10:55:48Z</time>
      </trkpt>
      <trkpt lat="44.47485" lon="2.42528">
        <ele>695.3</ele>
        <time>2013-01-20T10:55:49Z</time>
      </trkpt>
      <trkpt lat="44.47483" lon="2.42525">
        <ele>695.2</ele>
        <time>2013-01-20T10:55:50Z</time>
      </trkpt>
      <trkpt lat="44.47481" lon="2.4252">
        <ele>695.1</ele>
        <time>2013-01-20T10:55:51Z</time>
      </trkpt>
      <trkpt lat="44.47479" lon="2.42514">
        <ele>694.6</ele>
        <time>2013-01-20T10:55:52Z</time>
      </trkpt>
      <trkpt lat="44.47476" lon="2.42509">
        <ele>694.2</ele>
        <time>2013-01-20T10:55:53Z</time>
      </trkpt>
      <trkpt lat="44.47474" lon="2.42504">
        <ele>693.9</ele>
        <time>2013-01-20T10:55:54Z</time>
      </trkpt>
      <trkpt lat="44.47472" lon="2.42499">
        <ele>692.5</ele>
        <time>2013-01-20T10:55:55Z</time>
      </trkpt>
      <trkpt lat="44.4747" lon="2.42496">
        <ele>691.5</ele>
        <time>2013-01-20T10:55:56Z</time>
      </trkpt>
      <trkpt lat="44.47468" lon="2.42492">
        <ele>690.7</ele>
        <time>2013-01-20T10:55:57Z</time>
      </trkpt>
      <trkpt lat="44.47466" lon="2.42489">
        <ele>689.3</ele>
        <time>2013-01-20T10:55:58Z</time>
      </trkpt>
      <trkpt lat="44.47464" lon="2.42483">
        <ele>688.2</ele>
        <time>2013-01-20T10:55:59Z</time>
      </trkpt>
      <trkpt lat="44.47461" lon="2.42477">
        <ele>687.4</ele>
        <time>2013-01-20T10:56:00Z</time>
      </trkpt>
      <trkpt lat="44.47459" lon="2.4247">
        <ele>685.5</ele>
        <time>2013-01-20T10:56:01Z</time>
      </trkpt>
      <trkpt lat="44.47455" lon="2.42464">
        <ele>684</ele>
        <time>2013-01-20T10:56:02Z</time>
      </trkpt>
      <trkpt lat="44.4745" lon="2.4246">
        <ele>683</ele>
        <time>2013-01-20T10:56:03Z</time>
      </trkpt>
      <trkpt lat="44.47444" lon="2.42458">
        <ele>681.2</ele>
        <time>2013-01-20T10:56:04Z</time>
      </trkpt>
      <trkpt lat="44.47438" lon="2.42455">
        <ele>679.9</ele>
        <time>2013-01-20T10:56:05Z</time>
      </trkpt>
      <trkpt lat="44.47432" lon="2.42454">
        <ele>678.9</ele>
        <time>2013-01-20T10:56:06Z</time>
      </trkpt>
      <trkpt lat="44.47428" lon="2.42452">
        <ele>677.8</ele>
        <time>2013-01-20T10:56:07Z</time>
      </trkpt>
      <trkpt lat="44.47424" lon="2.42451">
        <ele>677</ele>
        <time>2013-01-20T10:56:08Z</time>
      </trkpt>
      <trkpt lat="44.4742" lon="2.42449">
        <ele>676.3</ele>
        <time>2013-01-20T10:56:09Z</time>
      </trkpt>
      <trkpt lat="44.47416" lon="2.42448">
        <ele>675.9</ele>
        <time>2013-01-20T10:56:10Z</time>
      </trkpt>
      <trkpt lat="44.47413" lon="2.42445">
        <ele>674.4</ele>
        <time>2013-01-20T10:56:11Z</time>
      </trkpt>
      <trkpt lat="44.47411" lon="2.42443">
        <ele>673.3</ele>
        <time>2013-01-20T10:56:12Z</time>
      </trkpt>
      <trkpt lat="44.47409" lon="2.4244">
        <ele>672.5</ele>
        <time>2013-01-20T10:56:13Z</time>
      </trkpt>
      <trkpt lat="44.47407" lon="2.42437">
        <ele>671.5</ele>
        <time>2013-01-20T10:56:14Z</time>
      </trkpt>
      <trkpt lat="44.47406" lon="2.42434">
        <ele>670.8</ele>
        <time>2013-01-20T10:56:15Z</time>
      </trkpt>
      <trkpt lat="44.47405" lon="2.42431">
        <ele>670.2</ele>
        <time>2013-01-20T10:56:16Z</time>
      </trkpt>
      <trkpt lat="44.47402" lon="2.42427">
        <ele>669.7</ele>
        <time>2013-01-20T10:56:17Z</time>
      </trkpt>
      <trkpt lat="44.474" lon="2.42423">
        <ele>669.3</ele>
        <time>2013-01-20T10:56:18Z</time>
      </trkpt>
      <trkpt lat="44.47397" lon="2.42418">
        <ele>669</ele>
        <time>2013-01-20T10:56:19Z</time>
      </trkpt>
      <trkpt lat="44.47394" lon="2.42414">
        <ele>667.7</ele>
        <time>2013-01-20T10:56:20Z</time>
      </trkpt>
      <trkpt lat="44.47391" lon="2.42409">
        <ele>666.7</ele>
        <time>2013-01-20T10:56:21Z</time>
      </trkpt>
      <trkpt lat="44.47389" lon="2.42404">
        <ele>666</ele>
        <time>2013-01-20T10:56:22Z</time>
      </trkpt>
      <trkpt lat="44.47386" lon="2.42401">
        <ele>665.5</ele>
        <time>2013-01-20T10:56:23Z</time>
      </trkpt>
      <trkpt lat="44.47384" lon="2.42398">
        <ele>664.3</ele>
        <time>2013-01-20T10:56:24Z</time>
      </trkpt>
      <trkpt lat="44.47381" lon="2.42394">
        <ele>662.7</ele>
        <time>2013-01-20T10:56:26Z</time>
      </trkpt>
      <trkpt lat="44.47379" lon="2.42388">
        <ele>659.7</ele>
        <time>2013-01-20T10:56:32Z</time>
      </trkpt>
      <trkpt lat="44.47379" lon="2.42386">
        <ele>659.7</ele>
        <time>2013-01-20T10:56:33Z</time>
      </trkpt>
      <trkpt lat="44.47378" lon="2.42378">
        <ele>659.7</ele>
        <time>2013-01-20T10:56:35Z</time>
      </trkpt>
      <trkpt lat="44.47378" lon="2.42373">
        <ele>659.4</ele>
        <time>2013-01-20T10:56:36Z</time>
      </trkpt>
      <trkpt lat="44.47377" lon="2.42367">
        <ele>659.2</ele>
        <time>2013-01-20T10:56:37Z</time>
      </trkpt>
      <trkpt lat="44.47376" lon="2.4236">
        <ele>659.1</ele>
        <time>2013-01-20T10:56:38Z</time>
      </trkpt>
      <trkpt lat="44.47375" lon="2.42354">
        <ele>658</ele>
        <time>2013-01-20T10:56:39Z</time>
      </trkpt>
      <trkpt lat="44.47373" lon="2.42346">
        <ele>657.2</ele>
        <time>2013-01-20T10:56:40Z</time>
      </trkpt>
      <trkpt lat="44.47372" lon="2.42339">
        <ele>656.6</ele>
        <time>2013-01-20T10:56:41Z</time>
      </trkpt>
      <trkpt lat="44.47371" lon="2.42332">
        <ele>656.1</ele>
        <time>2013-01-20T10:56:42Z</time>
      </trkpt>
      <trkpt lat="44.4737" lon="2.42325">
        <ele>655.1</ele>
        <time>2013-01-20T10:56:43Z</time>
      </trkpt>
      <trkpt lat="44.47369" lon="2.42318">
        <ele>654.3</ele>
        <time>2013-01-20T10:56:44Z</time>
      </trkpt>
      <trkpt lat="44.47367" lon="2.42311">
        <ele>653.7</ele>
        <time>2013-01-20T10:56:45Z</time>
      </trkpt>
      <trkpt lat="44.47366" lon="2.42304">
        <ele>653</ele>
        <time>2013-01-20T10:56:46Z</time>
      </trkpt>
      <trkpt lat="44.47364" lon="2.42297">
        <ele>652.5</ele>
        <time>2013-01-20T10:56:47Z</time>
      </trkpt>
      <trkpt lat="44.47363" lon="2.4229">
        <ele>652.1</ele>
        <time>2013-01-20T10:56:48Z</time>
      </trkpt>
      <trkpt lat="44.47361" lon="2.42283">
        <ele>651.1</ele>
        <time>2013-01-20T10:56:49Z</time>
      </trkpt>
      <trkpt lat="44.47359" lon="2.42275">
        <ele>650.3</ele>
        <time>2013-01-20T10:56:50Z</time>
      </trkpt>
      <trkpt lat="44.47357" lon="2.42268">
        <ele>649.8</ele>
        <time>2013-01-20T10:56:51Z</time>
      </trkpt>
      <trkpt lat="44.47356" lon="2.42261">
        <ele>648.9</ele>
        <time>2013-01-20T10:56:52Z</time>
      </trkpt>
      <trkpt lat="44.47355" lon="2.42254">
        <ele>648.2</ele>
        <time>2013-01-20T10:56:53Z</time>
      </trkpt>
      <trkpt lat="44.47354" lon="2.42248">
        <ele>647.7</ele>
        <time>2013-01-20T10:56:54Z</time>
      </trkpt>
      <trkpt lat="44.47352" lon="2.42243">
        <ele>646.6</ele>
        <time>2013-01-20T10:56:55Z</time>
      </trkpt>
      <trkpt lat="44.4735" lon="2.42238">
        <ele>645.7</ele>
        <time>2013-01-20T10:56:56Z</time>
      </trkpt>
      <trkpt lat="44.47348" lon="2.42232">
        <ele>645.1</ele>
        <time>2013-01-20T10:56:57Z</time>
      </trkpt>
      <trkpt lat="44.47345" lon="2.42226">
        <ele>644.7</ele>
        <time>2013-01-20T10:56:58Z</time>
      </trkpt>
      <trkpt lat="44.47342" lon="2.4222">
        <ele>643.6</ele>
        <time>2013-01-20T10:56:59Z</time>
      </trkpt>
      <trkpt lat="44.47338" lon="2.42214">
        <ele>642.9</ele>
        <time>2013-01-20T10:57:00Z</time>
      </trkpt>
      <trkpt lat="44.47334" lon="2.42209">
        <ele>642.3</ele>
        <time>2013-01-20T10:57:01Z</time>
      </trkpt>
      <trkpt lat="44.4733" lon="2.42203">
        <ele>641.6</ele>
        <time>2013-01-20T10:57:02Z</time>
      </trkpt>
      <trkpt lat="44.47327" lon="2.42197">
        <ele>641</ele>
        <time>2013-01-20T10:57:03Z</time>
      </trkpt>
      <trkpt lat="44.47324" lon="2.4219">
        <ele>640.6</ele>
        <time>2013-01-20T10:57:04Z</time>
      </trkpt>
      <trkpt lat="44.47323" lon="2.42182">
        <ele>639.8</ele>
        <time>2013-01-20T10:57:05Z</time>
      </trkpt>
      <trkpt lat="44.47321" lon="2.42175">
        <ele>639.2</ele>
        <time>2013-01-20T10:57:06Z</time>
      </trkpt>
      <trkpt lat="44.4732" lon="2.42168">
        <ele>638.7</ele>
        <time>2013-01-20T10:57:07Z</time>
      </trkpt>
      <trkpt lat="44.47319" lon="2.4216">
        <ele>637.6</ele>
        <time>2013-01-20T10:57:08Z</time>
      </trkpt>
      <trkpt lat="44.47317" lon="2.42153">
        <ele>636.8</ele>
        <time>2013-01-20T10:57:09Z</time>
      </trkpt>
      <trkpt lat="44.47317" lon="2.42145">
        <ele>636.2</ele>
        <time>2013-01-20T10:57:10Z</time>
      </trkpt>
      <trkpt lat="44.47316" lon="2.42137">
        <ele>635.3</ele>
        <time>2013-01-20T10:57:11Z</time>
      </trkpt>
      <trkpt lat="44.47315" lon="2.4213">
        <ele>634.5</ele>
        <time>2013-01-20T10:57:12Z</time>
      </trkpt>
      <trkpt lat="44.47314" lon="2.42123">
        <ele>634</ele>
        <time>2013-01-20T10:57:13Z</time>
      </trkpt>
      <trkpt lat="44.47314" lon="2.42115">
        <ele>633.2</ele>
        <time>2013-01-20T10:57:14Z</time>
      </trkpt>
      <trkpt lat="44.47314" lon="2.42108">
        <ele>632.5</ele>
        <time>2013-01-20T10:57:15Z</time>
      </trkpt>
      <trkpt lat="44.47315" lon="2.42099">
        <ele>632</ele>
        <time>2013-01-20T10:57:16Z</time>
      </trkpt>
      <trkpt lat="44.47316" lon="2.4209">
        <ele>631.7</ele>
        <time>2013-01-20T10:57:17Z</time>
      </trkpt>
      <trkpt lat="44.47316" lon="2.42081">
        <ele>630.6</ele>
        <time>2013-01-20T10:57:18Z</time>
      </trkpt>
      <trkpt lat="44.47315" lon="2.42072">
        <ele>629.8</ele>
        <time>2013-01-20T10:57:19Z</time>
      </trkpt>
      <trkpt lat="44.47314" lon="2.42063">
        <ele>629.2</ele>
        <time>2013-01-20T10:57:20Z</time>
      </trkpt>
      <trkpt lat="44.47312" lon="2.42055">
        <ele>628.1</ele>
        <time>2013-01-20T10:57:21Z</time>
      </trkpt>
      <trkpt lat="44.4731" lon="2.42047">
        <ele>627.3</ele>
        <time>2013-01-20T10:57:22Z</time>
      </trkpt>
      <trkpt lat="44.47308" lon="2.4204">
        <ele>626.7</ele>
        <time>2013-01-20T10:57:23Z</time>
      </trkpt>
      <trkpt lat="44.47304" lon="2.42033">
        <ele>625.4</ele>
        <time>2013-01-20T10:57:24Z</time>
      </trkpt>
      <trkpt lat="44.47301" lon="2.42026">
        <ele>624.4</ele>
        <time>2013-01-20T10:57:25Z</time>
      </trkpt>
      <trkpt lat="44.47297" lon="2.4202">
        <ele>623.7</ele>
        <time>2013-01-20T10:57:26Z</time>
      </trkpt>
      <trkpt lat="44.47293" lon="2.42014">
        <ele>623.1</ele>
        <time>2013-01-20T10:57:27Z</time>
      </trkpt>
      <trkpt lat="44.47289" lon="2.42009">
        <ele>622.6</ele>
        <time>2013-01-20T10:57:28Z</time>
      </trkpt>
      <trkpt lat="44.47285" lon="2.42003">
        <ele>622.2</ele>
        <time>2013-01-20T10:57:29Z</time>
      </trkpt>
      <trkpt lat="44.47282" lon="2.41998">
        <ele>621.4</ele>
        <time>2013-01-20T10:57:30Z</time>
      </trkpt>
      <trkpt lat="44.47278" lon="2.41993">
        <ele>620.7</ele>
        <time>2013-01-20T10:57:31Z</time>
      </trkpt>
      <trkpt lat="44.47275" lon="2.41988">
        <ele>620.3</ele>
        <time>2013-01-20T10:57:32Z</time>
      </trkpt>
      <trkpt lat="44.47271" lon="2.41984">
        <ele>619.9</ele>
        <time>2013-01-20T10:57:33Z</time>
      </trkpt>
      <trkpt lat="44.47267" lon="2.4198">
        <ele>619.5</ele>
        <time>2013-01-20T10:57:34Z</time>
      </trkpt>
      <trkpt lat="44.47263" lon="2.41977">
        <ele>619.2</ele>
        <time>2013-01-20T10:57:35Z</time>
      </trkpt>
      <trkpt lat="44.47259" lon="2.41975">
        <ele>619</ele>
        <time>2013-01-20T10:57:36Z</time>
      </trkpt>
      <trkpt lat="44.47255" lon="2.41972">
        <ele>618.3</ele>
        <time>2013-01-20T10:57:37Z</time>
      </trkpt>
      <trkpt lat="44.47251" lon="2.41969">
        <ele>617.8</ele>
        <time>2013-01-20T10:57:38Z</time>
      </trkpt>
      <trkpt lat="44.47246" lon="2.41967">
        <ele>617.5</ele>
        <time>2013-01-20T10:57:39Z</time>
      </trkpt>
      <trkpt lat="44.47242" lon="2.41964">
        <ele>617.1</ele>
        <time>2013-01-20T10:57:40Z</time>
      </trkpt>
      <trkpt lat="44.47239" lon="2.41961">
        <ele>616.8</ele>
        <time>2013-01-20T10:57:41Z</time>
      </trkpt>
      <trkpt lat="44.47237" lon="2.41956">
        <ele>616.6</ele>
        <time>2013-01-20T10:57:42Z</time>
      </trkpt>
      <trkpt lat="44.47235" lon="2.41953">
        <ele>616.3</ele>
        <time>2013-01-20T10:57:43Z</time>
      </trkpt>
      <trkpt lat="44.47233" lon="2.41948">
        <ele>615.8</ele>
        <time>2013-01-20T10:57:45Z</time>
      </trkpt>
      <trkpt lat="44.4723" lon="2.41943">
        <ele>615.8</ele>
        <time>2013-01-20T10:58:05Z</time>
      </trkpt>
      <trkpt lat="44.47227" lon="2.41939">
        <ele>615.5</ele>
        <time>2013-01-20T10:58:30Z</time>
      </trkpt>
      <trkpt lat="44.47225" lon="2.41934">
        <ele>615.1</ele>
        <time>2013-01-20T10:58:33Z</time>
      </trkpt>
      <trkpt lat="44.47222" lon="2.4193">
        <ele>615.5</ele>
        <time>2013-01-20T10:58:35Z</time>
      </trkpt>
      <trkpt lat="44.47221" lon="2.41928">
        <ele>615.6</ele>
        <time>2013-01-20T10:58:36Z</time>
      </trkpt>
      <trkpt lat="44.47219" lon="2.41926">
        <ele>615.3</ele>
        <time>2013-01-20T10:58:37Z</time>
      </trkpt>
      <trkpt lat="44.47216" lon="2.41924">
        <ele>615</ele>
        <time>2013-01-20T10:58:38Z</time>
      </trkpt>
      <trkpt lat="44.47213" lon="2.41922">
        <ele>614.8</ele>
        <time>2013-01-20T10:58:39Z</time>
      </trkpt>
      <trkpt lat="44.4721" lon="2.41919">
        <ele>614.7</ele>
        <time>2013-01-20T10:58:40Z</time>
      </trkpt>
      <trkpt lat="44.47207" lon="2.41917">
        <ele>614.5</ele>
        <time>2013-01-20T10:58:41Z</time>
      </trkpt>
      <trkpt lat="44.47203" lon="2.41915">
        <ele>614.4</ele>
        <time>2013-01-20T10:58:42Z</time>
      </trkpt>
      <trkpt lat="44.47198" lon="2.41914">
        <ele>614.4</ele>
        <time>2013-01-20T10:58:43Z</time>
      </trkpt>
      <trkpt lat="44.47193" lon="2.41913">
        <ele>613.7</ele>
        <time>2013-01-20T10:58:44Z</time>
      </trkpt>
      <trkpt lat="44.47188" lon="2.41912">
        <ele>613.3</ele>
        <time>2013-01-20T10:58:45Z</time>
      </trkpt>
      <trkpt lat="44.47183" lon="2.41912">
        <ele>612.9</ele>
        <time>2013-01-20T10:58:46Z</time>
      </trkpt>
      <trkpt lat="44.47178" lon="2.41912">
        <ele>612.8</ele>
        <time>2013-01-20T10:58:47Z</time>
      </trkpt>
      <trkpt lat="44.47173" lon="2.41912">
        <ele>612.8</ele>
        <time>2013-01-20T10:58:48Z</time>
      </trkpt>
      <trkpt lat="44.47168" lon="2.41912">
        <ele>612.7</ele>
        <time>2013-01-20T10:58:49Z</time>
      </trkpt>
      <trkpt lat="44.47163" lon="2.41911">
        <ele>612.3</ele>
        <time>2013-01-20T10:58:50Z</time>
      </trkpt>
      <trkpt lat="44.47157" lon="2.41911">
        <ele>612</ele>
        <time>2013-01-20T10:58:51Z</time>
      </trkpt>
      <trkpt lat="44.47152" lon="2.4191">
        <ele>611.8</ele>
        <time>2013-01-20T10:58:52Z</time>
      </trkpt>
      <trkpt lat="44.47147" lon="2.41908">
        <ele>611.7</ele>
        <time>2013-01-20T10:58:53Z</time>
      </trkpt>
      <trkpt lat="44.47141" lon="2.41906">
        <ele>611.6</ele>
        <time>2013-01-20T10:58:54Z</time>
      </trkpt>
      <trkpt lat="44.47136" lon="2.41905">
        <ele>611.5</ele>
        <time>2013-01-20T10:58:55Z</time>
      </trkpt>
      <trkpt lat="44.47131" lon="2.41903">
        <ele>611.4</ele>
        <time>2013-01-20T10:58:56Z</time>
      </trkpt>
      <trkpt lat="44.47125" lon="2.41902">
        <ele>611.2</ele>
        <time>2013-01-20T10:58:57Z</time>
      </trkpt>
      <trkpt lat="44.47119" lon="2.41901">
        <ele>611</ele>
        <time>2013-01-20T10:58:58Z</time>
      </trkpt>
      <trkpt lat="44.47114" lon="2.41901">
        <ele>610.9</ele>
        <time>2013-01-20T10:58:59Z</time>
      </trkpt>
      <trkpt lat="44.47108" lon="2.419">
        <ele>610.8</ele>
        <time>2013-01-20T10:59:00Z</time>
      </trkpt>
      <trkpt lat="44.47103" lon="2.41899">
        <ele>610.7</ele>
        <time>2013-01-20T10:59:01Z</time>
      </trkpt>
      <trkpt lat="44.47097" lon="2.41899">
        <ele>610.6</ele>
        <time>2013-01-20T10:59:02Z</time>
      </trkpt>
      <trkpt lat="44.47091" lon="2.41898">
        <ele>609.8</ele>
        <time>2013-01-20T10:59:03Z</time>
      </trkpt>
      <trkpt lat="44.47086" lon="2.41897">
        <ele>609.2</ele>
        <time>2013-01-20T10:59:04Z</time>
      </trkpt>
      <trkpt lat="44.4708" lon="2.41896">
        <ele>608.8</ele>
        <time>2013-01-20T10:59:05Z</time>
      </trkpt>
      <trkpt lat="44.47075" lon="2.41894">
        <ele>608.4</ele>
        <time>2013-01-20T10:59:06Z</time>
      </trkpt>
      <trkpt lat="44.47069" lon="2.41891">
        <ele>608.1</ele>
        <time>2013-01-20T10:59:07Z</time>
      </trkpt>
      <trkpt lat="44.47063" lon="2.41888">
        <ele>607.9</ele>
        <time>2013-01-20T10:59:08Z</time>
      </trkpt>
      <trkpt lat="44.47057" lon="2.41884">
        <ele>607.6</ele>
        <time>2013-01-20T10:59:09Z</time>
      </trkpt>
      <trkpt lat="44.47052" lon="2.4188">
        <ele>607.5</ele>
        <time>2013-01-20T10:59:10Z</time>
      </trkpt>
      <trkpt lat="44.47048" lon="2.41876">
        <ele>607.3</ele>
        <time>2013-01-20T10:59:11Z</time>
      </trkpt>
      <trkpt lat="44.47044" lon="2.41872">
        <ele>607.2</ele>
        <time>2013-01-20T10:59:12Z</time>
      </trkpt>
      <trkpt lat="44.4704" lon="2.41868">
        <ele>606.4</ele>
        <time>2013-01-20T10:59:13Z</time>
      </trkpt>
      <trkpt lat="44.47035" lon="2.41864">
        <ele>605.8</ele>
        <time>2013-01-20T10:59:14Z</time>
      </trkpt>
      <trkpt lat="44.4703" lon="2.41862">
        <ele>605.3</ele>
        <time>2013-01-20T10:59:15Z</time>
      </trkpt>
      <trkpt lat="44.47024" lon="2.41861">
        <ele>605.1</ele>
        <time>2013-01-20T10:59:16Z</time>
      </trkpt>
      <trkpt lat="44.47018" lon="2.41862">
        <ele>605</ele>
        <time>2013-01-20T10:59:17Z</time>
      </trkpt>
      <trkpt lat="44.47012" lon="2.41865">
        <ele>604.9</ele>
        <time>2013-01-20T10:59:18Z</time>
      </trkpt>
      <trkpt lat="44.47007" lon="2.4187">
        <ele>603.5</ele>
        <time>2013-01-20T10:59:19Z</time>
      </trkpt>
      <trkpt lat="44.47002" lon="2.41877">
        <ele>602.5</ele>
        <time>2013-01-20T10:59:20Z</time>
      </trkpt>
      <trkpt lat="44.47" lon="2.41885">
        <ele>601.7</ele>
        <time>2013-01-20T10:59:21Z</time>
      </trkpt>
      <trkpt lat="44.46997" lon="2.41892">
        <ele>600.7</ele>
        <time>2013-01-20T10:59:22Z</time>
      </trkpt>
      <trkpt lat="44.46995" lon="2.419">
        <ele>600</ele>
        <time>2013-01-20T10:59:23Z</time>
      </trkpt>
      <trkpt lat="44.46993" lon="2.41908">
        <ele>599.4</ele>
        <time>2013-01-20T10:59:24Z</time>
      </trkpt>
      <trkpt lat="44.46992" lon="2.41915">
        <ele>598.9</ele>
        <time>2013-01-20T10:59:25Z</time>
      </trkpt>
      <trkpt lat="44.46989" lon="2.41922">
        <ele>598.4</ele>
        <time>2013-01-20T10:59:26Z</time>
      </trkpt>
      <trkpt lat="44.46986" lon="2.41927">
        <ele>598.1</ele>
        <time>2013-01-20T10:59:27Z</time>
      </trkpt>
      <trkpt lat="44.46982" lon="2.41929">
        <ele>597.9</ele>
        <time>2013-01-20T10:59:28Z</time>
      </trkpt>
      <trkpt lat="44.46977" lon="2.41929">
        <ele>597.5</ele>
        <time>2013-01-20T10:59:29Z</time>
      </trkpt>
      <trkpt lat="44.46971" lon="2.4193">
        <ele>597.2</ele>
        <time>2013-01-20T10:59:30Z</time>
      </trkpt>
      <trkpt lat="44.46965" lon="2.41932">
        <ele>596.9</ele>
        <time>2013-01-20T10:59:31Z</time>
      </trkpt>
      <trkpt lat="44.46959" lon="2.41934">
        <ele>596.3</ele>
        <time>2013-01-20T10:59:32Z</time>
      </trkpt>
      <trkpt lat="44.46953" lon="2.41936">
        <ele>595.9</ele>
        <time>2013-01-20T10:59:33Z</time>
      </trkpt>
      <trkpt lat="44.46947" lon="2.41937">
        <ele>595.5</ele>
        <time>2013-01-20T10:59:34Z</time>
      </trkpt>
      <trkpt lat="44.46941" lon="2.41937">
        <ele>595.5</ele>
        <time>2013-01-20T10:59:35Z</time>
      </trkpt>
      <trkpt lat="44.46935" lon="2.41936">
        <ele>595.4</ele>
        <time>2013-01-20T10:59:36Z</time>
      </trkpt>
      <trkpt lat="44.46928" lon="2.41936">
        <ele>595.4</ele>
        <time>2013-01-20T10:59:37Z</time>
      </trkpt>
      <trkpt lat="44.4692" lon="2.41937">
        <ele>594.3</ele>
        <time>2013-01-20T10:59:38Z</time>
      </trkpt>
      <trkpt lat="44.46913" lon="2.4194">
        <ele>593.5</ele>
        <time>2013-01-20T10:59:39Z</time>
      </trkpt>
      <trkpt lat="44.46905" lon="2.41943">
        <ele>592.9</ele>
        <time>2013-01-20T10:59:40Z</time>
      </trkpt>
      <trkpt lat="44.46899" lon="2.41944">
        <ele>591.9</ele>
        <time>2013-01-20T10:59:41Z</time>
      </trkpt>
      <trkpt lat="44.46892" lon="2.41946">
        <ele>591.2</ele>
        <time>2013-01-20T10:59:42Z</time>
      </trkpt>
      <trkpt lat="44.46885" lon="2.41947">
        <ele>590.6</ele>
        <time>2013-01-20T10:59:43Z</time>
      </trkpt>
      <trkpt lat="44.46879" lon="2.41949">
        <ele>590</ele>
        <time>2013-01-20T10:59:44Z</time>
      </trkpt>
      <trkpt lat="44.46872" lon="2.4195">
        <ele>589.6</ele>
        <time>2013-01-20T10:59:45Z</time>
      </trkpt>
      <trkpt lat="44.46867" lon="2.41952">
        <ele>589.2</ele>
        <time>2013-01-20T10:59:46Z</time>
      </trkpt>
      <trkpt lat="44.46861" lon="2.41953">
        <ele>589</ele>
        <time>2013-01-20T10:59:47Z</time>
      </trkpt>
      <trkpt lat="44.46855" lon="2.41955">
        <ele>588.5</ele>
        <time>2013-01-20T10:59:48Z</time>
      </trkpt>
      <trkpt lat="44.4685" lon="2.41957">
        <ele>588.1</ele>
        <time>2013-01-20T10:59:49Z</time>
      </trkpt>
      <trkpt lat="44.46845" lon="2.41959">
        <ele>587.9</ele>
        <time>2013-01-20T10:59:50Z</time>
      </trkpt>
      <trkpt lat="44.46839" lon="2.41961">
        <ele>587.4</ele>
        <time>2013-01-20T10:59:51Z</time>
      </trkpt>
      <trkpt lat="44.46834" lon="2.41962">
        <ele>587.1</ele>
        <time>2013-01-20T10:59:52Z</time>
      </trkpt>
      <trkpt lat="44.46829" lon="2.41963">
        <ele>586.8</ele>
        <time>2013-01-20T10:59:53Z</time>
      </trkpt>
      <trkpt lat="44.46824" lon="2.41963">
        <ele>586.7</ele>
        <time>2013-01-20T10:59:54Z</time>
      </trkpt>
      <trkpt lat="44.46819" lon="2.41962">
        <ele>586.6</ele>
        <time>2013-01-20T10:59:55Z</time>
      </trkpt>
      <trkpt lat="44.46814" lon="2.41962">
        <ele>586.5</ele>
        <time>2013-01-20T10:59:56Z</time>
      </trkpt>
      <trkpt lat="44.46809" lon="2.4196">
        <ele>586</ele>
        <time>2013-01-20T10:59:57Z</time>
      </trkpt>
      <trkpt lat="44.46803" lon="2.41959">
        <ele>585.6</ele>
        <time>2013-01-20T10:59:58Z</time>
      </trkpt>
      <trkpt lat="44.46798" lon="2.41958">
        <ele>585.4</ele>
        <time>2013-01-20T10:59:59Z</time>
      </trkpt>
      <trkpt lat="44.46793" lon="2.41959">
        <ele>585.2</ele>
        <time>2013-01-20T11:00:00Z</time>
      </trkpt>
      <trkpt lat="44.46787" lon="2.4196">
        <ele>585</ele>
        <time>2013-01-20T11:00:01Z</time>
      </trkpt>
      <trkpt lat="44.46782" lon="2.41962">
        <ele>584.8</ele>
        <time>2013-01-20T11:00:02Z</time>
      </trkpt>
      <trkpt lat="44.46777" lon="2.41963">
        <ele>584.7</ele>
        <time>2013-01-20T11:00:03Z</time>
      </trkpt>
      <trkpt lat="44.46773" lon="2.41966">
        <ele>584.3</ele>
        <time>2013-01-20T11:00:04Z</time>
      </trkpt>
      <trkpt lat="44.46769" lon="2.4197">
        <ele>584</ele>
        <time>2013-01-20T11:00:05Z</time>
      </trkpt>
      <trkpt lat="44.46765" lon="2.41975">
        <ele>583.8</ele>
        <time>2013-01-20T11:00:06Z</time>
      </trkpt>
      <trkpt lat="44.4676" lon="2.41979">
        <ele>583.4</ele>
        <time>2013-01-20T11:00:07Z</time>
      </trkpt>
      <trkpt lat="44.46755" lon="2.41983">
        <ele>583</ele>
        <time>2013-01-20T11:00:08Z</time>
      </trkpt>
      <trkpt lat="44.46749" lon="2.41986">
        <ele>582.8</ele>
        <time>2013-01-20T11:00:09Z</time>
      </trkpt>
      <trkpt lat="44.46743" lon="2.4199">
        <ele>581.9</ele>
        <time>2013-01-20T11:00:10Z</time>
      </trkpt>
      <trkpt lat="44.46737" lon="2.41994">
        <ele>581.3</ele>
        <time>2013-01-20T11:00:11Z</time>
      </trkpt>
      <trkpt lat="44.46731" lon="2.41999">
        <ele>580.8</ele>
        <time>2013-01-20T11:00:12Z</time>
      </trkpt>
      <trkpt lat="44.46724" lon="2.42003">
        <ele>579.8</ele>
        <time>2013-01-20T11:00:13Z</time>
      </trkpt>
      <trkpt lat="44.46718" lon="2.42007">
        <ele>579</ele>
        <time>2013-01-20T11:00:14Z</time>
      </trkpt>
      <trkpt lat="44.46712" lon="2.42009">
        <ele>578.4</ele>
        <time>2013-01-20T11:00:15Z</time>
      </trkpt>
      <trkpt lat="44.46707" lon="2.42011">
        <ele>577.2</ele>
        <time>2013-01-20T11:00:16Z</time>
      </trkpt>
      <trkpt lat="44.46702" lon="2.42011">
        <ele>576.3</ele>
        <time>2013-01-20T11:00:17Z</time>
      </trkpt>
      <trkpt lat="44.46699" lon="2.42014">
        <ele>575.6</ele>
        <time>2013-01-20T11:00:18Z</time>
      </trkpt>
      <trkpt lat="44.46695" lon="2.42018">
        <ele>575.1</ele>
        <time>2013-01-20T11:00:19Z</time>
      </trkpt>
      <trkpt lat="44.4669" lon="2.42021">
        <ele>574.6</ele>
        <time>2013-01-20T11:00:20Z</time>
      </trkpt>
      <trkpt lat="44.46684" lon="2.42023">
        <ele>574.3</ele>
        <time>2013-01-20T11:00:21Z</time>
      </trkpt>
      <trkpt lat="44.46678" lon="2.42023">
        <ele>574</ele>
        <time>2013-01-20T11:00:22Z</time>
      </trkpt>
      <trkpt lat="44.46672" lon="2.42023">
        <ele>572.8</ele>
        <time>2013-01-20T11:00:23Z</time>
      </trkpt>
      <trkpt lat="44.46666" lon="2.42024">
        <ele>572</ele>
        <time>2013-01-20T11:00:24Z</time>
      </trkpt>
      <trkpt lat="44.46661" lon="2.42025">
        <ele>571.3</ele>
        <time>2013-01-20T11:00:25Z</time>
      </trkpt>
      <trkpt lat="44.46656" lon="2.42028">
        <ele>570.7</ele>
        <time>2013-01-20T11:00:26Z</time>
      </trkpt>
      <trkpt lat="44.46651" lon="2.42031">
        <ele>570.3</ele>
        <time>2013-01-20T11:00:27Z</time>
      </trkpt>
      <trkpt lat="44.46646" lon="2.42036">
        <ele>569.9</ele>
        <time>2013-01-20T11:00:28Z</time>
      </trkpt>
      <trkpt lat="44.4664" lon="2.42041">
        <ele>568.9</ele>
        <time>2013-01-20T11:00:29Z</time>
      </trkpt>
      <trkpt lat="44.46635" lon="2.42047">
        <ele>568.1</ele>
        <time>2013-01-20T11:00:30Z</time>
      </trkpt>
      <trkpt lat="44.46629" lon="2.42053">
        <ele>567.5</ele>
        <time>2013-01-20T11:00:31Z</time>
      </trkpt>
      <trkpt lat="44.46624" lon="2.42058">
        <ele>566.5</ele>
        <time>2013-01-20T11:00:32Z</time>
      </trkpt>
      <trkpt lat="44.46618" lon="2.42062">
        <ele>565.7</ele>
        <time>2013-01-20T11:00:33Z</time>
      </trkpt>
      <trkpt lat="44.46613" lon="2.42066">
        <ele>565.2</ele>
        <time>2013-01-20T11:00:34Z</time>
      </trkpt>
      <trkpt lat="44.46608" lon="2.4207">
        <ele>564.7</ele>
        <time>2013-01-20T11:00:35Z</time>
      </trkpt>
      <trkpt lat="44.46602" lon="2.42075">
        <ele>564.6</ele>
        <time>2013-01-20T11:00:36Z</time>
      </trkpt>
      <trkpt lat="44.46596" lon="2.4208">
        <ele>564.6</ele>
        <time>2013-01-20T11:00:37Z</time>
      </trkpt>
      <trkpt lat="44.46589" lon="2.42084">
        <ele>564.5</ele>
        <time>2013-01-20T11:00:38Z</time>
      </trkpt>
      <trkpt lat="44.46583" lon="2.42089">
        <ele>563.8</ele>
        <time>2013-01-20T11:00:39Z</time>
      </trkpt>
      <trkpt lat="44.46576" lon="2.42094">
        <ele>563.2</ele>
        <time>2013-01-20T11:00:40Z</time>
      </trkpt>
      <trkpt lat="44.4657" lon="2.42098">
        <ele>562.8</ele>
        <time>2013-01-20T11:00:41Z</time>
      </trkpt>
      <trkpt lat="44.46563" lon="2.42103">
        <ele>562.4</ele>
        <time>2013-01-20T11:00:42Z</time>
      </trkpt>
      <trkpt lat="44.46557" lon="2.42109">
        <ele>562.1</ele>
        <time>2013-01-20T11:00:43Z</time>
      </trkpt>
      <trkpt lat="44.46551" lon="2.42114">
        <ele>561.9</ele>
        <time>2013-01-20T11:00:44Z</time>
      </trkpt>
      <trkpt lat="44.46545" lon="2.42119">
        <ele>561.1</ele>
        <time>2013-01-20T11:00:45Z</time>
      </trkpt>
      <trkpt lat="44.46538" lon="2.42124">
        <ele>560.4</ele>
        <time>2013-01-20T11:00:46Z</time>
      </trkpt>
      <trkpt lat="44.46532" lon="2.42128">
        <ele>560</ele>
        <time>2013-01-20T11:00:47Z</time>
      </trkpt>
      <trkpt lat="44.46526" lon="2.42133">
        <ele>559.5</ele>
        <time>2013-01-20T11:00:48Z</time>
      </trkpt>
      <trkpt lat="44.46521" lon="2.42137">
        <ele>559.1</ele>
        <time>2013-01-20T11:00:49Z</time>
      </trkpt>
      <trkpt lat="44.46515" lon="2.4214">
        <ele>558.8</ele>
        <time>2013-01-20T11:00:50Z</time>
      </trkpt>
      <trkpt lat="44.46511" lon="2.42143">
        <ele>558.6</ele>
        <time>2013-01-20T11:00:51Z</time>
      </trkpt>
      <trkpt lat="44.46507" lon="2.42145">
        <ele>558.1</ele>
        <time>2013-01-20T11:00:52Z</time>
      </trkpt>
      <trkpt lat="44.46503" lon="2.42146">
        <ele>557.7</ele>
        <time>2013-01-20T11:00:53Z</time>
      </trkpt>
      <trkpt lat="44.465" lon="2.42148">
        <ele>557.4</ele>
        <time>2013-01-20T11:00:54Z</time>
      </trkpt>
      <trkpt lat="44.46496" lon="2.42148">
        <ele>556.4</ele>
        <time>2013-01-20T11:00:56Z</time>
      </trkpt>
      <trkpt lat="44.46494" lon="2.42145">
        <ele>555.7</ele>
        <time>2013-01-20T11:00:58Z</time>
      </trkpt>
      <trkpt lat="44.46494" lon="2.4214">
        <ele>555.2</ele>
        <time>2013-01-20T11:01:00Z</time>
      </trkpt>
      <trkpt lat="44.46496" lon="2.42134">
        <ele>554.2</ele>
        <time>2013-01-20T11:01:02Z</time>
      </trkpt>
      <trkpt lat="44.46497" lon="2.42131">
        <ele>553.9</ele>
        <time>2013-01-20T11:01:03Z</time>
      </trkpt>
      <trkpt lat="44.46498" lon="2.42128">
        <ele>554</ele>
        <time>2013-01-20T11:01:04Z</time>
      </trkpt>
      <trkpt lat="44.46499" lon="2.42124">
        <ele>554.2</ele>
        <time>2013-01-20T11:01:05Z</time>
      </trkpt>
      <trkpt lat="44.465" lon="2.4212">
        <ele>554.2</ele>
        <time>2013-01-20T11:01:06Z</time>
      </trkpt>
      <trkpt lat="44.46501" lon="2.42116">
        <ele>554.3</ele>
        <time>2013-01-20T11:01:07Z</time>
      </trkpt>
      <trkpt lat="44.46502" lon="2.42113">
        <ele>554</ele>
        <time>2013-01-20T11:01:08Z</time>
      </trkpt>
      <trkpt lat="44.46503" lon="2.4211">
        <ele>553.8</ele>
        <time>2013-01-20T11:01:09Z</time>
      </trkpt>
      <trkpt lat="44.46504" lon="2.42106">
        <ele>553.6</ele>
        <time>2013-01-20T11:01:10Z</time>
      </trkpt>
      <trkpt lat="44.46505" lon="2.42102">
        <ele>554</ele>
        <time>2013-01-20T11:01:11Z</time>
      </trkpt>
      <trkpt lat="44.46506" lon="2.42098">
        <ele>554.3</ele>
        <time>2013-01-20T11:01:12Z</time>
      </trkpt>
      <trkpt lat="44.46507" lon="2.42094">
        <ele>554.6</ele>
        <time>2013-01-20T11:01:13Z</time>
      </trkpt>
      <trkpt lat="44.46508" lon="2.42091">
        <ele>554.8</ele>
        <time>2013-01-20T11:01:14Z</time>
      </trkpt>
      <trkpt lat="44.4651" lon="2.42087">
        <ele>555</ele>
        <time>2013-01-20T11:01:15Z</time>
      </trkpt>
      <trkpt lat="44.46511" lon="2.42083">
        <ele>555.2</ele>
        <time>2013-01-20T11:01:16Z</time>
      </trkpt>
      <trkpt lat="44.46512" lon="2.42079">
        <ele>555</ele>
        <time>2013-01-20T11:01:17Z</time>
      </trkpt>
      <trkpt lat="44.46514" lon="2.42075">
        <ele>554.9</ele>
        <time>2013-01-20T11:01:18Z</time>
      </trkpt>
      <trkpt lat="44.46515" lon="2.42071">
        <ele>554.8</ele>
        <time>2013-01-20T11:01:19Z</time>
      </trkpt>
      <trkpt lat="44.46516" lon="2.42067">
        <ele>554.8</ele>
        <time>2013-01-20T11:01:20Z</time>
      </trkpt>
      <trkpt lat="44.46517" lon="2.42063">
        <ele>554.9</ele>
        <time>2013-01-20T11:01:21Z</time>
      </trkpt>
      <trkpt lat="44.46519" lon="2.42059">
        <ele>554.9</ele>
        <time>2013-01-20T11:01:22Z</time>
      </trkpt>
      <trkpt lat="44.4652" lon="2.42055">
        <ele>554.9</ele>
        <time>2013-01-20T11:01:23Z</time>
      </trkpt>
      <trkpt lat="44.46521" lon="2.42052">
        <ele>554.9</ele>
        <time>2013-01-20T11:01:24Z</time>
      </trkpt>
      <trkpt lat="44.46522" lon="2.42048">
        <ele>554.9</ele>
        <time>2013-01-20T11:01:25Z</time>
      </trkpt>
      <trkpt lat="44.46523" lon="2.42045">
        <ele>554.9</ele>
        <time>2013-01-20T11:01:26Z</time>
      </trkpt>
      <trkpt lat="44.46525" lon="2.42041">
        <ele>554.9</ele>
        <time>2013-01-20T11:01:27Z</time>
      </trkpt>
      <trkpt lat="44.46526" lon="2.42037">
        <ele>554.9</ele>
        <time>2013-01-20T11:01:28Z</time>
      </trkpt>
      <trkpt lat="44.46527" lon="2.42033">
        <ele>554.9</ele>
        <time>2013-01-20T11:01:29Z</time>
      </trkpt>
      <trkpt lat="44.46528" lon="2.42029">
        <ele>554.9</ele>
        <time>2013-01-20T11:01:30Z</time>
      </trkpt>
      <trkpt lat="44.46529" lon="2.42026">
        <ele>554.9</ele>
        <time>2013-01-20T11:01:31Z</time>
      </trkpt>
      <trkpt lat="44.4653" lon="2.42022">
        <ele>554.9</ele>
        <time>2013-01-20T11:01:32Z</time>
      </trkpt>
      <trkpt lat="44.46531" lon="2.42018">
        <ele>555</ele>
        <time>2013-01-20T11:01:33Z</time>
      </trkpt>
      <trkpt lat="44.46533" lon="2.42014">
        <ele>555.1</ele>
        <time>2013-01-20T11:01:34Z</time>
      </trkpt>
      <trkpt lat="44.46534" lon="2.4201">
        <ele>555.2</ele>
        <time>2013-01-20T11:01:35Z</time>
      </trkpt>
      <trkpt lat="44.46535" lon="2.42006">
        <ele>555.4</ele>
        <time>2013-01-20T11:01:36Z</time>
      </trkpt>
      <trkpt lat="44.46536" lon="2.42002">
        <ele>555.6</ele>
        <time>2013-01-20T11:01:37Z</time>
      </trkpt>
      <trkpt lat="44.46538" lon="2.41998">
        <ele>555.7</ele>
        <time>2013-01-20T11:01:38Z</time>
      </trkpt>
      <trkpt lat="44.46539" lon="2.41995">
        <ele>556.2</ele>
        <time>2013-01-20T11:01:39Z</time>
      </trkpt>
      <trkpt lat="44.4654" lon="2.41991">
        <ele>556.6</ele>
        <time>2013-01-20T11:01:40Z</time>
      </trkpt>
      <trkpt lat="44.46542" lon="2.41987">
        <ele>556.9</ele>
        <time>2013-01-20T11:01:41Z</time>
      </trkpt>
      <trkpt lat="44.46543" lon="2.41983">
        <ele>557.1</ele>
        <time>2013-01-20T11:01:42Z</time>
      </trkpt>
      <trkpt lat="44.46544" lon="2.41979">
        <ele>556.8</ele>
        <time>2013-01-20T11:01:43Z</time>
      </trkpt>
      <trkpt lat="44.46545" lon="2.41974">
        <ele>556.6</ele>
        <time>2013-01-20T11:01:44Z</time>
      </trkpt>
      <trkpt lat="44.46546" lon="2.4197">
        <ele>556.4</ele>
        <time>2013-01-20T11:01:45Z</time>
      </trkpt>
      <trkpt lat="44.46548" lon="2.41966">
        <ele>556.3</ele>
        <time>2013-01-20T11:01:46Z</time>
      </trkpt>
      <trkpt lat="44.46549" lon="2.41962">
        <ele>556.1</ele>
        <time>2013-01-20T11:01:47Z</time>
      </trkpt>
      <trkpt lat="44.4655" lon="2.41958">
        <ele>556.1</ele>
        <time>2013-01-20T11:01:48Z</time>
      </trkpt>
      <trkpt lat="44.46552" lon="2.41954">
        <ele>556.4</ele>
        <time>2013-01-20T11:01:49Z</time>
      </trkpt>
      <trkpt lat="44.46553" lon="2.4195">
        <ele>556.7</ele>
        <time>2013-01-20T11:01:50Z</time>
      </trkpt>
      <trkpt lat="44.46555" lon="2.41946">
        <ele>556.8</ele>
        <time>2013-01-20T11:01:51Z</time>
      </trkpt>
      <trkpt lat="44.46556" lon="2.41942">
        <ele>557</ele>
        <time>2013-01-20T11:01:52Z</time>
      </trkpt>
      <trkpt lat="44.46558" lon="2.41938">
        <ele>557.2</ele>
        <time>2013-01-20T11:01:53Z</time>
      </trkpt>
      <trkpt lat="44.46559" lon="2.41934">
        <ele>557.3</ele>
        <time>2013-01-20T11:01:54Z</time>
      </trkpt>
      <trkpt lat="44.4656" lon="2.41929">
        <ele>557</ele>
        <time>2013-01-20T11:01:55Z</time>
      </trkpt>
      <trkpt lat="44.46561" lon="2.41925">
        <ele>556.9</ele>
        <time>2013-01-20T11:01:56Z</time>
      </trkpt>
      <trkpt lat="44.46563" lon="2.41921">
        <ele>556.8</ele>
        <time>2013-01-20T11:01:57Z</time>
      </trkpt>
      <trkpt lat="44.46564" lon="2.41917">
        <ele>556.7</ele>
        <time>2013-01-20T11:01:58Z</time>
      </trkpt>
      <trkpt lat="44.46566" lon="2.41912">
        <ele>556.7</ele>
        <time>2013-01-20T11:01:59Z</time>
      </trkpt>
      <trkpt lat="44.46567" lon="2.41908">
        <ele>556.8</ele>
        <time>2013-01-20T11:02:00Z</time>
      </trkpt>
      <trkpt lat="44.46569" lon="2.41904">
        <ele>556.8</ele>
        <time>2013-01-20T11:02:01Z</time>
      </trkpt>
      <trkpt lat="44.4657" lon="2.419">
        <ele>557.3</ele>
        <time>2013-01-20T11:02:02Z</time>
      </trkpt>
      <trkpt lat="44.46572" lon="2.41896">
        <ele>557.7</ele>
        <time>2013-01-20T11:02:03Z</time>
      </trkpt>
      <trkpt lat="44.46573" lon="2.41892">
        <ele>558</ele>
        <time>2013-01-20T11:02:04Z</time>
      </trkpt>
      <trkpt lat="44.46575" lon="2.41888">
        <ele>558.1</ele>
        <time>2013-01-20T11:02:05Z</time>
      </trkpt>
      <trkpt lat="44.46576" lon="2.41884">
        <ele>558.1</ele>
        <time>2013-01-20T11:02:06Z</time>
      </trkpt>
      <trkpt lat="44.46578" lon="2.4188">
        <ele>558.2</ele>
        <time>2013-01-20T11:02:07Z</time>
      </trkpt>
      <trkpt lat="44.4658" lon="2.41875">
        <ele>558.1</ele>
        <time>2013-01-20T11:02:08Z</time>
      </trkpt>
      <trkpt lat="44.46581" lon="2.41871">
        <ele>558.1</ele>
        <time>2013-01-20T11:02:09Z</time>
      </trkpt>
      <trkpt lat="44.46583" lon="2.41866">
        <ele>558</ele>
        <time>2013-01-20T11:02:10Z</time>
      </trkpt>
      <trkpt lat="44.46584" lon="2.41861">
        <ele>558.3</ele>
        <time>2013-01-20T11:02:11Z</time>
      </trkpt>
      <trkpt lat="44.46586" lon="2.41857">
        <ele>558.5</ele>
        <time>2013-01-20T11:02:12Z</time>
      </trkpt>
      <trkpt lat="44.46587" lon="2.41852">
        <ele>558.7</ele>
        <time>2013-01-20T11:02:13Z</time>
      </trkpt>
      <trkpt lat="44.46589" lon="2.41848">
        <ele>558.8</ele>
        <time>2013-01-20T11:02:14Z</time>
      </trkpt>
      <trkpt lat="44.4659" lon="2.41843">
        <ele>559</ele>
        <time>2013-01-20T11:02:15Z</time>
      </trkpt>
      <trkpt lat="44.46592" lon="2.41838">
        <ele>559.1</ele>
        <time>2013-01-20T11:02:16Z</time>
      </trkpt>
      <trkpt lat="44.46593" lon="2.41834">
        <ele>559.3</ele>
        <time>2013-01-20T11:02:17Z</time>
      </trkpt>
      <trkpt lat="44.46595" lon="2.41829">
        <ele>559.2</ele>
        <time>2013-01-20T11:02:18Z</time>
      </trkpt>
      <trkpt lat="44.46597" lon="2.41825">
        <ele>559.1</ele>
        <time>2013-01-20T11:02:19Z</time>
      </trkpt>
      <trkpt lat="44.46598" lon="2.41821">
        <ele>559.1</ele>
        <time>2013-01-20T11:02:20Z</time>
      </trkpt>
      <trkpt lat="44.466" lon="2.41816">
        <ele>559.3</ele>
        <time>2013-01-20T11:02:21Z</time>
      </trkpt>
      <trkpt lat="44.46602" lon="2.41812">
        <ele>559.5</ele>
        <time>2013-01-20T11:02:22Z</time>
      </trkpt>
      <trkpt lat="44.46603" lon="2.41808">
        <ele>559.6</ele>
        <time>2013-01-20T11:02:23Z</time>
      </trkpt>
      <trkpt lat="44.46605" lon="2.41803">
        <ele>559.3</ele>
        <time>2013-01-20T11:02:24Z</time>
      </trkpt>
      <trkpt lat="44.46607" lon="2.41799">
        <ele>559.1</ele>
        <time>2013-01-20T11:02:25Z</time>
      </trkpt>
      <trkpt lat="44.46608" lon="2.41794">
        <ele>559</ele>
        <time>2013-01-20T11:02:26Z</time>
      </trkpt>
      <trkpt lat="44.4661" lon="2.4179">
        <ele>559.3</ele>
        <time>2013-01-20T11:02:27Z</time>
      </trkpt>
      <trkpt lat="44.46611" lon="2.41785">
        <ele>559.5</ele>
        <time>2013-01-20T11:02:28Z</time>
      </trkpt>
      <trkpt lat="44.46612" lon="2.41781">
        <ele>559.6</ele>
        <time>2013-01-20T11:02:29Z</time>
      </trkpt>
      <trkpt lat="44.46614" lon="2.41776">
        <ele>559.7</ele>
        <time>2013-01-20T11:02:30Z</time>
      </trkpt>
      <trkpt lat="44.46615" lon="2.41772">
        <ele>559.8</ele>
        <time>2013-01-20T11:02:31Z</time>
      </trkpt>
      <trkpt lat="44.46617" lon="2.41767">
        <ele>559.9</ele>
        <time>2013-01-20T11:02:32Z</time>
      </trkpt>
      <trkpt lat="44.46618" lon="2.41762">
        <ele>560</ele>
        <time>2013-01-20T11:02:33Z</time>
      </trkpt>
      <trkpt lat="44.4662" lon="2.41758">
        <ele>560.2</ele>
        <time>2013-01-20T11:02:34Z</time>
      </trkpt>
      <trkpt lat="44.46622" lon="2.41753">
        <ele>560.4</ele>
        <time>2013-01-20T11:02:35Z</time>
      </trkpt>
      <trkpt lat="44.46623" lon="2.41748">
        <ele>560.5</ele>
        <time>2013-01-20T11:02:36Z</time>
      </trkpt>
      <trkpt lat="44.46625" lon="2.41744">
        <ele>560.4</ele>
        <time>2013-01-20T11:02:37Z</time>
      </trkpt>
      <trkpt lat="44.46626" lon="2.41739">
        <ele>560.4</ele>
        <time>2013-01-20T11:02:38Z</time>
      </trkpt>
      <trkpt lat="44.46628" lon="2.41734">
        <ele>560.3</ele>
        <time>2013-01-20T11:02:39Z</time>
      </trkpt>
      <trkpt lat="44.46629" lon="2.41729">
        <ele>560.3</ele>
        <time>2013-01-20T11:02:40Z</time>
      </trkpt>
      <trkpt lat="44.46631" lon="2.41724">
        <ele>560.2</ele>
        <time>2013-01-20T11:02:41Z</time>
      </trkpt>
      <trkpt lat="44.46632" lon="2.4172">
        <ele>560.2</ele>
        <time>2013-01-20T11:02:42Z</time>
      </trkpt>
      <trkpt lat="44.46634" lon="2.41715">
        <ele>560.6</ele>
        <time>2013-01-20T11:02:43Z</time>
      </trkpt>
      <trkpt lat="44.46635" lon="2.41711">
        <ele>560.8</ele>
        <time>2013-01-20T11:02:44Z</time>
      </trkpt>
      <trkpt lat="44.46637" lon="2.41706">
        <ele>561</ele>
        <time>2013-01-20T11:02:45Z</time>
      </trkpt>
      <trkpt lat="44.46639" lon="2.41702">
        <ele>560.9</ele>
        <time>2013-01-20T11:02:46Z</time>
      </trkpt>
      <trkpt lat="44.4664" lon="2.41697">
        <ele>560.8</ele>
        <time>2013-01-20T11:02:47Z</time>
      </trkpt>
      <trkpt lat="44.46642" lon="2.41692">
        <ele>560.7</ele>
        <time>2013-01-20T11:02:48Z</time>
      </trkpt>
      <trkpt lat="44.46644" lon="2.41687">
        <ele>560.7</ele>
        <time>2013-01-20T11:02:49Z</time>
      </trkpt>
      <trkpt lat="44.46645" lon="2.41683">
        <ele>560.8</ele>
        <time>2013-01-20T11:02:50Z</time>
      </trkpt>
      <trkpt lat="44.46647" lon="2.41678">
        <ele>560.9</ele>
        <time>2013-01-20T11:02:51Z</time>
      </trkpt>
      <trkpt lat="44.46648" lon="2.41673">
        <ele>561</ele>
        <time>2013-01-20T11:02:52Z</time>
      </trkpt>
      <trkpt lat="44.4665" lon="2.41669">
        <ele>561.2</ele>
        <time>2013-01-20T11:02:53Z</time>
      </trkpt>
      <trkpt lat="44.46651" lon="2.41664">
        <ele>561.4</ele>
        <time>2013-01-20T11:02:54Z</time>
      </trkpt>
      <trkpt lat="44.46653" lon="2.4166">
        <ele>561.6</ele>
        <time>2013-01-20T11:02:55Z</time>
      </trkpt>
    </trkseg>
  </trk>
</gpx>